<?xml version="1.0" encoding="UTF-8" standalone="no" ?>
<gpx xmlns="http://www.topografix.com/GPX/1/1" xmlns:xsi="http://www.w3.org/2001/XMLSchema-instance" xsi:schemaLocation="http://www.topografix.com/GPX/1/1 http://www.topografix.com/GPX/1/1/gpx.xsd" version="1.1" creator="VisuGPX - https://www.visugpx.com">
  <metadata>
    <name>GR20 Refuge d'Usciolu-refuge d'Asinau 03/09/18</name>
    <desc><![CDATA[Ici également des vues magnifiques sur Solenzara et aussi sur les étangs de Diane à côté d'Aleria, l'étang d'Urbino le plus grand et l'étang de Palo à côté de l'aérodrome de Solenzara . Dans le début de cette étape la crête nous permet de voir la mer de chaque côté!! Superbe.Nous ferons un crochet par l'Alcudina (en corse) ou bien l'Incudine . Nous croiserons des bergeries mais celle qui nous nous a plu est celle de Croce "chez Ludo" où il nous a préparé une omelette de 26 oeufs... pour 2 !!.Nous verrons nos premiers cochons corses.La descente vers Asinau depuis la Bocca Stazzunare , juste après  l'Incudine est très raide..Nous irons passer la nuit à la bergerie en dessous du refuge.]]></desc>
  </metadata>
  <trk>
    <name><![CDATA[2018-09-03 17:26:59]]></name>
    <trkseg>
      <trkpt lat="41.93517" lon="9.20592">
        <ele>1732.4</ele>
        <time>2018-09-03T04:30:40Z</time>
      </trkpt>
      <trkpt lat="41.93517" lon="9.20592">
        <ele>1732.4</ele>
        <time>2018-09-03T04:30:41Z</time>
      </trkpt>
      <trkpt lat="41.93516" lon="9.20593">
        <ele>1731.36</ele>
        <time>2018-09-03T04:31:06Z</time>
      </trkpt>
      <trkpt lat="41.93514" lon="9.20596">
        <ele>1730.55</ele>
        <time>2018-09-03T04:31:32Z</time>
      </trkpt>
      <trkpt lat="41.93519" lon="9.206">
        <ele>1733.06</ele>
        <time>2018-09-03T04:31:56Z</time>
      </trkpt>
      <trkpt lat="41.93521" lon="9.20589">
        <ele>1732.98</ele>
        <time>2018-09-03T04:32:31Z</time>
      </trkpt>
      <trkpt lat="41.93521" lon="9.20589">
        <ele>1730.28</ele>
        <time>2018-09-03T04:32:36Z</time>
      </trkpt>
      <trkpt lat="41.93521" lon="9.20589">
        <ele>1733.54</ele>
        <time>2018-09-03T04:32:39Z</time>
      </trkpt>
      <trkpt lat="41.93521" lon="9.20589">
        <ele>1733.54</ele>
        <time>2018-09-03T04:32:40Z</time>
      </trkpt>
      <trkpt lat="41.93521" lon="9.20589">
        <ele>1728.26</ele>
        <time>2018-09-03T04:32:41Z</time>
      </trkpt>
      <trkpt lat="41.93521" lon="9.20588">
        <ele>1734.39</ele>
        <time>2018-09-03T04:32:42Z</time>
      </trkpt>
      <trkpt lat="41.93521" lon="9.20587">
        <ele>1731.37</ele>
        <time>2018-09-03T04:32:43Z</time>
      </trkpt>
      <trkpt lat="41.93521" lon="9.20587">
        <ele>1731.43</ele>
        <time>2018-09-03T04:33:07Z</time>
      </trkpt>
      <trkpt lat="41.9352" lon="9.20591">
        <ele>1731.46</ele>
        <time>2018-09-03T04:33:21Z</time>
      </trkpt>
      <trkpt lat="41.9352" lon="9.20592">
        <ele>1731.46</ele>
        <time>2018-09-03T04:33:41Z</time>
      </trkpt>
      <trkpt lat="41.93524" lon="9.20589">
        <ele>1731.52</ele>
        <time>2018-09-03T04:34:08Z</time>
      </trkpt>
      <trkpt lat="41.93527" lon="9.20573">
        <ele>1731.61</ele>
        <time>2018-09-03T04:34:24Z</time>
      </trkpt>
      <trkpt lat="41.93527" lon="9.20568">
        <ele>1734.67</ele>
        <time>2018-09-03T04:34:32Z</time>
      </trkpt>
      <trkpt lat="41.93524" lon="9.20556">
        <ele>1734.59</ele>
        <time>2018-09-03T04:34:44Z</time>
      </trkpt>
      <trkpt lat="41.93525" lon="9.20543">
        <ele>1734.64</ele>
        <time>2018-09-03T04:34:59Z</time>
      </trkpt>
      <trkpt lat="41.93523" lon="9.20533">
        <ele>1734.56</ele>
        <time>2018-09-03T04:35:14Z</time>
      </trkpt>
      <trkpt lat="41.93525" lon="9.20528">
        <ele>1736.49</ele>
        <time>2018-09-03T04:35:29Z</time>
      </trkpt>
      <trkpt lat="41.93523" lon="9.20518">
        <ele>1738.41</ele>
        <time>2018-09-03T04:35:45Z</time>
      </trkpt>
      <trkpt lat="41.93521" lon="9.20508">
        <ele>1741.93</ele>
        <time>2018-09-03T04:36:04Z</time>
      </trkpt>
      <trkpt lat="41.93519" lon="9.205">
        <ele>1743.67</ele>
        <time>2018-09-03T04:36:20Z</time>
      </trkpt>
      <trkpt lat="41.93514" lon="9.2049">
        <ele>1745.5</ele>
        <time>2018-09-03T04:36:39Z</time>
      </trkpt>
      <trkpt lat="41.93514" lon="9.20489">
        <ele>1747.42</ele>
        <time>2018-09-03T04:36:43Z</time>
      </trkpt>
      <trkpt lat="41.9351" lon="9.20484">
        <ele>1748.95</ele>
        <time>2018-09-03T04:36:56Z</time>
      </trkpt>
      <trkpt lat="41.93511" lon="9.20476">
        <ele>1751.29</ele>
        <time>2018-09-03T04:37:14Z</time>
      </trkpt>
      <trkpt lat="41.93509" lon="9.20466">
        <ele>1753.27</ele>
        <time>2018-09-03T04:37:32Z</time>
      </trkpt>
      <trkpt lat="41.93506" lon="9.20461">
        <ele>1755.14</ele>
        <time>2018-09-03T04:37:40Z</time>
      </trkpt>
      <trkpt lat="41.93505" lon="9.20449">
        <ele>1754.99</ele>
        <time>2018-09-03T04:37:55Z</time>
      </trkpt>
      <trkpt lat="41.93504" lon="9.20443">
        <ele>1755.86</ele>
        <time>2018-09-03T04:38:10Z</time>
      </trkpt>
      <trkpt lat="41.93496" lon="9.20432">
        <ele>1756.77</ele>
        <time>2018-09-03T04:38:25Z</time>
      </trkpt>
      <trkpt lat="41.93487" lon="9.20425">
        <ele>1757.87</ele>
        <time>2018-09-03T04:38:40Z</time>
      </trkpt>
      <trkpt lat="41.93477" lon="9.20418">
        <ele>1757.85</ele>
        <time>2018-09-03T04:38:56Z</time>
      </trkpt>
      <trkpt lat="41.93467" lon="9.20408">
        <ele>1757.84</ele>
        <time>2018-09-03T04:39:13Z</time>
      </trkpt>
      <trkpt lat="41.93462" lon="9.20398">
        <ele>1759.94</ele>
        <time>2018-09-03T04:39:30Z</time>
      </trkpt>
      <trkpt lat="41.93467" lon="9.20396">
        <ele>1761.9</ele>
        <time>2018-09-03T04:39:46Z</time>
      </trkpt>
      <trkpt lat="41.93464" lon="9.20391">
        <ele>1763.9</ele>
        <time>2018-09-03T04:40:00Z</time>
      </trkpt>
      <trkpt lat="41.9346" lon="9.20381">
        <ele>1766.54</ele>
        <time>2018-09-03T04:40:19Z</time>
      </trkpt>
      <trkpt lat="41.93458" lon="9.20374">
        <ele>1768.48</ele>
        <time>2018-09-03T04:40:33Z</time>
      </trkpt>
      <trkpt lat="41.93459" lon="9.20369">
        <ele>1770.46</ele>
        <time>2018-09-03T04:40:43Z</time>
      </trkpt>
      <trkpt lat="41.93453" lon="9.20362">
        <ele>1772.1</ele>
        <time>2018-09-03T04:40:58Z</time>
      </trkpt>
      <trkpt lat="41.93453" lon="9.20359">
        <ele>1773.36</ele>
        <time>2018-09-03T04:41:03Z</time>
      </trkpt>
      <trkpt lat="41.93448" lon="9.20355">
        <ele>1774.22</ele>
        <time>2018-09-03T04:41:17Z</time>
      </trkpt>
      <trkpt lat="41.93446" lon="9.2035">
        <ele>1776.48</ele>
        <time>2018-09-03T04:41:33Z</time>
      </trkpt>
      <trkpt lat="41.93443" lon="9.20344">
        <ele>1779.53</ele>
        <time>2018-09-03T04:41:46Z</time>
      </trkpt>
      <trkpt lat="41.9344" lon="9.20338">
        <ele>1781.18</ele>
        <time>2018-09-03T04:42:00Z</time>
      </trkpt>
      <trkpt lat="41.93441" lon="9.20336">
        <ele>1782.06</ele>
        <time>2018-09-03T04:42:13Z</time>
      </trkpt>
      <trkpt lat="41.93441" lon="9.20335">
        <ele>1782.14</ele>
        <time>2018-09-03T04:42:33Z</time>
      </trkpt>
      <trkpt lat="41.93441" lon="9.20335">
        <ele>1780.33</ele>
        <time>2018-09-03T04:44:04Z</time>
      </trkpt>
      <trkpt lat="41.93441" lon="9.20336">
        <ele>1780.81</ele>
        <time>2018-09-03T04:45:37Z</time>
      </trkpt>
      <trkpt lat="41.93442" lon="9.20336">
        <ele>1781.22</ele>
        <time>2018-09-03T04:46:53Z</time>
      </trkpt>
      <trkpt lat="41.93442" lon="9.20337">
        <ele>1780</ele>
        <time>2018-09-03T04:47:19Z</time>
      </trkpt>
      <trkpt lat="41.93442" lon="9.20336">
        <ele>1782.64</ele>
        <time>2018-09-03T04:47:34Z</time>
      </trkpt>
      <trkpt lat="41.93442" lon="9.20335">
        <ele>1782.71</ele>
        <time>2018-09-03T04:47:45Z</time>
      </trkpt>
      <trkpt lat="41.93442" lon="9.20336">
        <ele>1782.76</ele>
        <time>2018-09-03T04:48:02Z</time>
      </trkpt>
      <trkpt lat="41.93436" lon="9.20336">
        <ele>1782.76</ele>
        <time>2018-09-03T04:48:14Z</time>
      </trkpt>
      <trkpt lat="41.93428" lon="9.20333">
        <ele>1780.45</ele>
        <time>2018-09-03T04:48:24Z</time>
      </trkpt>
      <trkpt lat="41.93425" lon="9.20332">
        <ele>1780.47</ele>
        <time>2018-09-03T04:48:27Z</time>
      </trkpt>
      <trkpt lat="41.93418" lon="9.20328">
        <ele>1782.98</ele>
        <time>2018-09-03T04:48:36Z</time>
      </trkpt>
      <trkpt lat="41.93409" lon="9.20323">
        <ele>1784.83</ele>
        <time>2018-09-03T04:48:50Z</time>
      </trkpt>
      <trkpt lat="41.93407" lon="9.20321">
        <ele>1784.81</ele>
        <time>2018-09-03T04:49:03Z</time>
      </trkpt>
      <trkpt lat="41.93404" lon="9.20317">
        <ele>1782.35</ele>
        <time>2018-09-03T04:49:16Z</time>
      </trkpt>
      <trkpt lat="41.93398" lon="9.20311">
        <ele>1781.55</ele>
        <time>2018-09-03T04:49:29Z</time>
      </trkpt>
      <trkpt lat="41.93392" lon="9.20306">
        <ele>1779.45</ele>
        <time>2018-09-03T04:49:39Z</time>
      </trkpt>
      <trkpt lat="41.93378" lon="9.20299">
        <ele>1779.5</ele>
        <time>2018-09-03T04:49:56Z</time>
      </trkpt>
      <trkpt lat="41.93369" lon="9.20292">
        <ele>1779.62</ele>
        <time>2018-09-03T04:50:10Z</time>
      </trkpt>
      <trkpt lat="41.93365" lon="9.20286">
        <ele>1779.63</ele>
        <time>2018-09-03T04:50:22Z</time>
      </trkpt>
      <trkpt lat="41.93362" lon="9.20282">
        <ele>1778.66</ele>
        <time>2018-09-03T04:50:34Z</time>
      </trkpt>
      <trkpt lat="41.9336" lon="9.20281">
        <ele>1776.61</ele>
        <time>2018-09-03T04:50:46Z</time>
      </trkpt>
      <trkpt lat="41.93357" lon="9.20274">
        <ele>1775.65</ele>
        <time>2018-09-03T04:50:58Z</time>
      </trkpt>
      <trkpt lat="41.93358" lon="9.20273">
        <ele>1774.86</ele>
        <time>2018-09-03T04:51:12Z</time>
      </trkpt>
      <trkpt lat="41.93357" lon="9.20261">
        <ele>1774.89</ele>
        <time>2018-09-03T04:51:26Z</time>
      </trkpt>
      <trkpt lat="41.93356" lon="9.20257">
        <ele>1774.95</ele>
        <time>2018-09-03T04:51:40Z</time>
      </trkpt>
      <trkpt lat="41.93351" lon="9.20255">
        <ele>1772.06</ele>
        <time>2018-09-03T04:51:56Z</time>
      </trkpt>
      <trkpt lat="41.93349" lon="9.20256">
        <ele>1770.24</ele>
        <time>2018-09-03T04:52:09Z</time>
      </trkpt>
      <trkpt lat="41.93346" lon="9.20258">
        <ele>1767.75</ele>
        <time>2018-09-03T04:52:20Z</time>
      </trkpt>
      <trkpt lat="41.93341" lon="9.20254">
        <ele>1765.23</ele>
        <time>2018-09-03T04:52:34Z</time>
      </trkpt>
      <trkpt lat="41.93338" lon="9.20252">
        <ele>1765.27</ele>
        <time>2018-09-03T04:52:38Z</time>
      </trkpt>
      <trkpt lat="41.93336" lon="9.20249">
        <ele>1764.63</ele>
        <time>2018-09-03T04:52:52Z</time>
      </trkpt>
      <trkpt lat="41.93337" lon="9.20248">
        <ele>1767.31</ele>
        <time>2018-09-03T04:52:59Z</time>
      </trkpt>
      <trkpt lat="41.93334" lon="9.20239">
        <ele>1767.29</ele>
        <time>2018-09-03T04:53:12Z</time>
      </trkpt>
      <trkpt lat="41.93328" lon="9.20238">
        <ele>1764.7</ele>
        <time>2018-09-03T04:53:21Z</time>
      </trkpt>
      <trkpt lat="41.93324" lon="9.20234">
        <ele>1763.66</ele>
        <time>2018-09-03T04:53:33Z</time>
      </trkpt>
      <trkpt lat="41.93316" lon="9.20234">
        <ele>1760.4</ele>
        <time>2018-09-03T04:53:46Z</time>
      </trkpt>
      <trkpt lat="41.93316" lon="9.20234">
        <ele>1760.4</ele>
        <time>2018-09-03T04:53:47Z</time>
      </trkpt>
      <trkpt lat="41.93317" lon="9.20236">
        <ele>1760.4</ele>
        <time>2018-09-03T04:53:49Z</time>
      </trkpt>
      <trkpt lat="41.93316" lon="9.20243">
        <ele>1758.38</ele>
        <time>2018-09-03T04:54:03Z</time>
      </trkpt>
      <trkpt lat="41.9331" lon="9.20243">
        <ele>1755.65</ele>
        <time>2018-09-03T04:54:16Z</time>
      </trkpt>
      <trkpt lat="41.93307" lon="9.20246">
        <ele>1753.94</ele>
        <time>2018-09-03T04:54:27Z</time>
      </trkpt>
      <trkpt lat="41.93302" lon="9.20245">
        <ele>1752.28</ele>
        <time>2018-09-03T04:54:39Z</time>
      </trkpt>
      <trkpt lat="41.93298" lon="9.20246">
        <ele>1750.14</ele>
        <time>2018-09-03T04:54:52Z</time>
      </trkpt>
      <trkpt lat="41.9329" lon="9.20245">
        <ele>1747.12</ele>
        <time>2018-09-03T04:55:05Z</time>
      </trkpt>
      <trkpt lat="41.9329" lon="9.20245">
        <ele>1747.11</ele>
        <time>2018-09-03T04:55:06Z</time>
      </trkpt>
      <trkpt lat="41.93287" lon="9.20237">
        <ele>1747.2</ele>
        <time>2018-09-03T04:55:18Z</time>
      </trkpt>
      <trkpt lat="41.93283" lon="9.20227">
        <ele>1746.48</ele>
        <time>2018-09-03T04:55:32Z</time>
      </trkpt>
      <trkpt lat="41.93275" lon="9.20227">
        <ele>1744.29</ele>
        <time>2018-09-03T04:55:48Z</time>
      </trkpt>
      <trkpt lat="41.93274" lon="9.20226">
        <ele>1744.28</ele>
        <time>2018-09-03T04:55:49Z</time>
      </trkpt>
      <trkpt lat="41.93269" lon="9.20222">
        <ele>1744.32</ele>
        <time>2018-09-03T04:55:56Z</time>
      </trkpt>
      <trkpt lat="41.93268" lon="9.20219">
        <ele>1744.33</ele>
        <time>2018-09-03T04:55:58Z</time>
      </trkpt>
      <trkpt lat="41.93262" lon="9.2021">
        <ele>1743.58</ele>
        <time>2018-09-03T04:56:11Z</time>
      </trkpt>
      <trkpt lat="41.93257" lon="9.20199">
        <ele>1743.66</ele>
        <time>2018-09-03T04:56:25Z</time>
      </trkpt>
      <trkpt lat="41.93253" lon="9.20197">
        <ele>1743.65</ele>
        <time>2018-09-03T04:56:31Z</time>
      </trkpt>
      <trkpt lat="41.93243" lon="9.20189">
        <ele>1746.11</ele>
        <time>2018-09-03T04:56:47Z</time>
      </trkpt>
      <trkpt lat="41.93243" lon="9.20188">
        <ele>1746.12</ele>
        <time>2018-09-03T04:56:48Z</time>
      </trkpt>
      <trkpt lat="41.93243" lon="9.20184">
        <ele>1747.47</ele>
        <time>2018-09-03T04:56:56Z</time>
      </trkpt>
      <trkpt lat="41.93241" lon="9.20182">
        <ele>1748.75</ele>
        <time>2018-09-03T04:57:01Z</time>
      </trkpt>
      <trkpt lat="41.93238" lon="9.20177">
        <ele>1749.53</ele>
        <time>2018-09-03T04:57:11Z</time>
      </trkpt>
      <trkpt lat="41.93238" lon="9.20175">
        <ele>1749.51</ele>
        <time>2018-09-03T04:57:12Z</time>
      </trkpt>
      <trkpt lat="41.93237" lon="9.20173">
        <ele>1749.51</ele>
        <time>2018-09-03T04:57:23Z</time>
      </trkpt>
      <trkpt lat="41.93237" lon="9.20173">
        <ele>1741.09</ele>
        <time>2018-09-03T04:57:52Z</time>
      </trkpt>
      <trkpt lat="41.93237" lon="9.20173">
        <ele>1745.14</ele>
        <time>2018-09-03T04:57:53Z</time>
      </trkpt>
      <trkpt lat="41.93237" lon="9.20173">
        <ele>1748.37</ele>
        <time>2018-09-03T04:57:54Z</time>
      </trkpt>
      <trkpt lat="41.93237" lon="9.20173">
        <ele>1748.37</ele>
        <time>2018-09-03T04:57:55Z</time>
      </trkpt>
      <trkpt lat="41.93238" lon="9.20173">
        <ele>1749.77</ele>
        <time>2018-09-03T04:58:09Z</time>
      </trkpt>
      <trkpt lat="41.93238" lon="9.20173">
        <ele>1749.78</ele>
        <time>2018-09-03T04:58:25Z</time>
      </trkpt>
      <trkpt lat="41.93237" lon="9.20171">
        <ele>1749.77</ele>
        <time>2018-09-03T04:58:44Z</time>
      </trkpt>
      <trkpt lat="41.93232" lon="9.20165">
        <ele>1749.76</ele>
        <time>2018-09-03T04:58:53Z</time>
      </trkpt>
      <trkpt lat="41.93231" lon="9.2016">
        <ele>1749.75</ele>
        <time>2018-09-03T04:58:58Z</time>
      </trkpt>
      <trkpt lat="41.93227" lon="9.20147">
        <ele>1749.8</ele>
        <time>2018-09-03T04:59:11Z</time>
      </trkpt>
      <trkpt lat="41.93221" lon="9.20139">
        <ele>1750.59</ele>
        <time>2018-09-03T04:59:24Z</time>
      </trkpt>
      <trkpt lat="41.93218" lon="9.20136">
        <ele>1750.55</ele>
        <time>2018-09-03T04:59:39Z</time>
      </trkpt>
      <trkpt lat="41.93216" lon="9.20133">
        <ele>1750.55</ele>
        <time>2018-09-03T04:59:52Z</time>
      </trkpt>
      <trkpt lat="41.93213" lon="9.20128">
        <ele>1748.23</ele>
        <time>2018-09-03T05:00:02Z</time>
      </trkpt>
      <trkpt lat="41.93209" lon="9.20126">
        <ele>1745.51</ele>
        <time>2018-09-03T05:00:20Z</time>
      </trkpt>
      <trkpt lat="41.93208" lon="9.20122">
        <ele>1744.67</ele>
        <time>2018-09-03T05:00:50Z</time>
      </trkpt>
      <trkpt lat="41.93205" lon="9.20117">
        <ele>1742.66</ele>
        <time>2018-09-03T05:01:02Z</time>
      </trkpt>
      <trkpt lat="41.93204" lon="9.20115">
        <ele>1741.56</ele>
        <time>2018-09-03T05:01:14Z</time>
      </trkpt>
      <trkpt lat="41.93202" lon="9.20111">
        <ele>1741.58</ele>
        <time>2018-09-03T05:01:18Z</time>
      </trkpt>
      <trkpt lat="41.93195" lon="9.201">
        <ele>1738.72</ele>
        <time>2018-09-03T05:01:35Z</time>
      </trkpt>
      <trkpt lat="41.93192" lon="9.20097">
        <ele>1735.49</ele>
        <time>2018-09-03T05:01:43Z</time>
      </trkpt>
      <trkpt lat="41.93191" lon="9.20096">
        <ele>1735.53</ele>
        <time>2018-09-03T05:01:44Z</time>
      </trkpt>
      <trkpt lat="41.93188" lon="9.20094">
        <ele>1734.43</ele>
        <time>2018-09-03T05:01:55Z</time>
      </trkpt>
      <trkpt lat="41.93183" lon="9.20089">
        <ele>1732.3</ele>
        <time>2018-09-03T05:02:05Z</time>
      </trkpt>
      <trkpt lat="41.93183" lon="9.20089">
        <ele>1731.35</ele>
        <time>2018-09-03T05:02:16Z</time>
      </trkpt>
      <trkpt lat="41.93182" lon="9.20089">
        <ele>1731.34</ele>
        <time>2018-09-03T05:02:17Z</time>
      </trkpt>
      <trkpt lat="41.93181" lon="9.2009">
        <ele>1731.34</ele>
        <time>2018-09-03T05:02:18Z</time>
      </trkpt>
      <trkpt lat="41.93179" lon="9.20092">
        <ele>1731.34</ele>
        <time>2018-09-03T05:02:21Z</time>
      </trkpt>
      <trkpt lat="41.93171" lon="9.20089">
        <ele>1731.37</ele>
        <time>2018-09-03T05:02:34Z</time>
      </trkpt>
      <trkpt lat="41.9317" lon="9.20085">
        <ele>1731.34</ele>
        <time>2018-09-03T05:02:46Z</time>
      </trkpt>
      <trkpt lat="41.93168" lon="9.20088">
        <ele>1729.48</ele>
        <time>2018-09-03T05:02:57Z</time>
      </trkpt>
      <trkpt lat="41.93167" lon="9.20089">
        <ele>1728.24</ele>
        <time>2018-09-03T05:02:59Z</time>
      </trkpt>
      <trkpt lat="41.93165" lon="9.20087">
        <ele>1727.32</ele>
        <time>2018-09-03T05:03:11Z</time>
      </trkpt>
      <trkpt lat="41.93158" lon="9.20087">
        <ele>1723.6</ele>
        <time>2018-09-03T05:03:25Z</time>
      </trkpt>
      <trkpt lat="41.93157" lon="9.20081">
        <ele>1723.62</ele>
        <time>2018-09-03T05:03:34Z</time>
      </trkpt>
      <trkpt lat="41.93151" lon="9.20073">
        <ele>1723.64</ele>
        <time>2018-09-03T05:03:47Z</time>
      </trkpt>
      <trkpt lat="41.93148" lon="9.20069">
        <ele>1725.92</ele>
        <time>2018-09-03T05:03:55Z</time>
      </trkpt>
      <trkpt lat="41.93142" lon="9.20066">
        <ele>1727.69</ele>
        <time>2018-09-03T05:04:09Z</time>
      </trkpt>
      <trkpt lat="41.93138" lon="9.20062">
        <ele>1730.97</ele>
        <time>2018-09-03T05:04:20Z</time>
      </trkpt>
      <trkpt lat="41.93137" lon="9.20062">
        <ele>1730.97</ele>
        <time>2018-09-03T05:04:21Z</time>
      </trkpt>
      <trkpt lat="41.93129" lon="9.2006">
        <ele>1732.71</ele>
        <time>2018-09-03T05:04:37Z</time>
      </trkpt>
      <trkpt lat="41.93129" lon="9.20056">
        <ele>1735.26</ele>
        <time>2018-09-03T05:04:51Z</time>
      </trkpt>
      <trkpt lat="41.93126" lon="9.20046">
        <ele>1735.24</ele>
        <time>2018-09-03T05:05:06Z</time>
      </trkpt>
      <trkpt lat="41.93121" lon="9.20042">
        <ele>1735.26</ele>
        <time>2018-09-03T05:05:20Z</time>
      </trkpt>
      <trkpt lat="41.9312" lon="9.2004">
        <ele>1736.62</ele>
        <time>2018-09-03T05:05:24Z</time>
      </trkpt>
      <trkpt lat="41.93112" lon="9.20036">
        <ele>1737.37</ele>
        <time>2018-09-03T05:05:37Z</time>
      </trkpt>
      <trkpt lat="41.93105" lon="9.20032">
        <ele>1737.34</ele>
        <time>2018-09-03T05:05:50Z</time>
      </trkpt>
      <trkpt lat="41.931" lon="9.20032">
        <ele>1734.96</ele>
        <time>2018-09-03T05:06:00Z</time>
      </trkpt>
      <trkpt lat="41.93093" lon="9.20029">
        <ele>1734.99</ele>
        <time>2018-09-03T05:06:14Z</time>
      </trkpt>
      <trkpt lat="41.93092" lon="9.20028">
        <ele>1737.33</ele>
        <time>2018-09-03T05:06:17Z</time>
      </trkpt>
      <trkpt lat="41.93085" lon="9.20027">
        <ele>1738.09</ele>
        <time>2018-09-03T05:06:31Z</time>
      </trkpt>
      <trkpt lat="41.93087" lon="9.20025">
        <ele>1738.09</ele>
        <time>2018-09-03T05:06:57Z</time>
      </trkpt>
      <trkpt lat="41.93085" lon="9.20017">
        <ele>1739.39</ele>
        <time>2018-09-03T05:07:07Z</time>
      </trkpt>
      <trkpt lat="41.93083" lon="9.20007">
        <ele>1741.27</ele>
        <time>2018-09-03T05:07:21Z</time>
      </trkpt>
      <trkpt lat="41.93083" lon="9.20006">
        <ele>1741.26</ele>
        <time>2018-09-03T05:07:22Z</time>
      </trkpt>
      <trkpt lat="41.93082" lon="9.20005">
        <ele>1741.26</ele>
        <time>2018-09-03T05:07:23Z</time>
      </trkpt>
      <trkpt lat="41.93079" lon="9.20003">
        <ele>1742.62</ele>
        <time>2018-09-03T05:07:27Z</time>
      </trkpt>
      <trkpt lat="41.93073" lon="9.20002">
        <ele>1743.65</ele>
        <time>2018-09-03T05:07:42Z</time>
      </trkpt>
      <trkpt lat="41.93071" lon="9.20004">
        <ele>1740.76</ele>
        <time>2018-09-03T05:07:46Z</time>
      </trkpt>
      <trkpt lat="41.93068" lon="9.20005">
        <ele>1740.76</ele>
        <time>2018-09-03T05:07:59Z</time>
      </trkpt>
      <trkpt lat="41.9307" lon="9.20012">
        <ele>1737.49</ele>
        <time>2018-09-03T05:08:12Z</time>
      </trkpt>
      <trkpt lat="41.9307" lon="9.20013">
        <ele>1737.49</ele>
        <time>2018-09-03T05:08:13Z</time>
      </trkpt>
      <trkpt lat="41.9307" lon="9.20018">
        <ele>1736.31</ele>
        <time>2018-09-03T05:08:26Z</time>
      </trkpt>
      <trkpt lat="41.93068" lon="9.20017">
        <ele>1735.07</ele>
        <time>2018-09-03T05:08:29Z</time>
      </trkpt>
      <trkpt lat="41.93062" lon="9.20007">
        <ele>1734.34</ele>
        <time>2018-09-03T05:08:44Z</time>
      </trkpt>
      <trkpt lat="41.9306" lon="9.20001">
        <ele>1734.35</ele>
        <time>2018-09-03T05:08:57Z</time>
      </trkpt>
      <trkpt lat="41.9306" lon="9.2">
        <ele>1736.75</ele>
        <time>2018-09-03T05:08:59Z</time>
      </trkpt>
      <trkpt lat="41.93059" lon="9.2">
        <ele>1736.75</ele>
        <time>2018-09-03T05:09:17Z</time>
      </trkpt>
      <trkpt lat="41.9306" lon="9.19996">
        <ele>1737.53</ele>
        <time>2018-09-03T05:09:31Z</time>
      </trkpt>
      <trkpt lat="41.93058" lon="9.19993">
        <ele>1737.54</ele>
        <time>2018-09-03T05:09:47Z</time>
      </trkpt>
      <trkpt lat="41.93059" lon="9.19992">
        <ele>1735.24</ele>
        <time>2018-09-03T05:10:05Z</time>
      </trkpt>
      <trkpt lat="41.93057" lon="9.19993">
        <ele>1735.28</ele>
        <time>2018-09-03T05:10:24Z</time>
      </trkpt>
      <trkpt lat="41.93054" lon="9.19993">
        <ele>1732.86</ele>
        <time>2018-09-03T05:10:44Z</time>
      </trkpt>
      <trkpt lat="41.9305" lon="9.19993">
        <ele>1729.91</ele>
        <time>2018-09-03T05:10:55Z</time>
      </trkpt>
      <trkpt lat="41.93048" lon="9.19992">
        <ele>1729.92</ele>
        <time>2018-09-03T05:11:09Z</time>
      </trkpt>
      <trkpt lat="41.93043" lon="9.19983">
        <ele>1729.21</ele>
        <time>2018-09-03T05:11:22Z</time>
      </trkpt>
      <trkpt lat="41.93038" lon="9.19974">
        <ele>1731.5</ele>
        <time>2018-09-03T05:11:34Z</time>
      </trkpt>
      <trkpt lat="41.93033" lon="9.19967">
        <ele>1732.77</ele>
        <time>2018-09-03T05:11:48Z</time>
      </trkpt>
      <trkpt lat="41.9303" lon="9.19962">
        <ele>1736.6</ele>
        <time>2018-09-03T05:12:01Z</time>
      </trkpt>
      <trkpt lat="41.93027" lon="9.19957">
        <ele>1738.12</ele>
        <time>2018-09-03T05:12:09Z</time>
      </trkpt>
      <trkpt lat="41.93018" lon="9.1995">
        <ele>1738.28</ele>
        <time>2018-09-03T05:12:24Z</time>
      </trkpt>
      <trkpt lat="41.9301" lon="9.19947">
        <ele>1738.11</ele>
        <time>2018-09-03T05:12:39Z</time>
      </trkpt>
      <trkpt lat="41.93008" lon="9.19945">
        <ele>1735.52</ele>
        <time>2018-09-03T05:12:42Z</time>
      </trkpt>
      <trkpt lat="41.93003" lon="9.1994">
        <ele>1733.57</ele>
        <time>2018-09-03T05:12:56Z</time>
      </trkpt>
      <trkpt lat="41.93003" lon="9.19938">
        <ele>1733.55</ele>
        <time>2018-09-03T05:12:58Z</time>
      </trkpt>
      <trkpt lat="41.93001" lon="9.19935">
        <ele>1732.71</ele>
        <time>2018-09-03T05:13:01Z</time>
      </trkpt>
      <trkpt lat="41.92996" lon="9.19932">
        <ele>1730.97</ele>
        <time>2018-09-03T05:13:15Z</time>
      </trkpt>
      <trkpt lat="41.92996" lon="9.19922">
        <ele>1729.87</ele>
        <time>2018-09-03T05:13:30Z</time>
      </trkpt>
      <trkpt lat="41.92996" lon="9.19921">
        <ele>1729.86</ele>
        <time>2018-09-03T05:13:31Z</time>
      </trkpt>
      <trkpt lat="41.92988" lon="9.19909">
        <ele>1729.95</ele>
        <time>2018-09-03T05:13:46Z</time>
      </trkpt>
      <trkpt lat="41.92987" lon="9.19909">
        <ele>1733.08</ele>
        <time>2018-09-03T05:13:48Z</time>
      </trkpt>
      <trkpt lat="41.92987" lon="9.19908">
        <ele>1733.09</ele>
        <time>2018-09-03T05:13:49Z</time>
      </trkpt>
      <trkpt lat="41.9299" lon="9.19904">
        <ele>1734.76</ele>
        <time>2018-09-03T05:14:00Z</time>
      </trkpt>
      <trkpt lat="41.92994" lon="9.19898">
        <ele>1734.7</ele>
        <time>2018-09-03T05:14:12Z</time>
      </trkpt>
      <trkpt lat="41.92999" lon="9.19892">
        <ele>1734.7</ele>
        <time>2018-09-03T05:14:24Z</time>
      </trkpt>
      <trkpt lat="41.92996" lon="9.1989">
        <ele>1734.61</ele>
        <time>2018-09-03T05:14:38Z</time>
      </trkpt>
      <trkpt lat="41.92994" lon="9.19888">
        <ele>1735.35</ele>
        <time>2018-09-03T05:14:52Z</time>
      </trkpt>
      <trkpt lat="41.92994" lon="9.19887">
        <ele>1737.33</ele>
        <time>2018-09-03T05:15:03Z</time>
      </trkpt>
      <trkpt lat="41.92984" lon="9.19888">
        <ele>1739.07</ele>
        <time>2018-09-03T05:15:16Z</time>
      </trkpt>
      <trkpt lat="41.92974" lon="9.1988">
        <ele>1740.03</ele>
        <time>2018-09-03T05:15:31Z</time>
      </trkpt>
      <trkpt lat="41.92971" lon="9.1988">
        <ele>1739.94</ele>
        <time>2018-09-03T05:15:35Z</time>
      </trkpt>
      <trkpt lat="41.9297" lon="9.1988">
        <ele>1739.94</ele>
        <time>2018-09-03T05:15:36Z</time>
      </trkpt>
      <trkpt lat="41.92963" lon="9.19872">
        <ele>1737.57</ele>
        <time>2018-09-03T05:15:48Z</time>
      </trkpt>
      <trkpt lat="41.92962" lon="9.19872">
        <ele>1737.57</ele>
        <time>2018-09-03T05:15:49Z</time>
      </trkpt>
      <trkpt lat="41.92962" lon="9.19866">
        <ele>1736.59</ele>
        <time>2018-09-03T05:15:56Z</time>
      </trkpt>
      <trkpt lat="41.9296" lon="9.1986">
        <ele>1735.41</ele>
        <time>2018-09-03T05:16:06Z</time>
      </trkpt>
      <trkpt lat="41.92959" lon="9.19858">
        <ele>1735.47</ele>
        <time>2018-09-03T05:16:07Z</time>
      </trkpt>
      <trkpt lat="41.92958" lon="9.19857">
        <ele>1735.47</ele>
        <time>2018-09-03T05:16:08Z</time>
      </trkpt>
      <trkpt lat="41.92958" lon="9.19856">
        <ele>1735.49</ele>
        <time>2018-09-03T05:16:09Z</time>
      </trkpt>
      <trkpt lat="41.9295" lon="9.19841">
        <ele>1735.58</ele>
        <time>2018-09-03T05:16:24Z</time>
      </trkpt>
      <trkpt lat="41.92947" lon="9.1984">
        <ele>1737.89</ele>
        <time>2018-09-03T05:16:27Z</time>
      </trkpt>
      <trkpt lat="41.92942" lon="9.19827">
        <ele>1740.85</ele>
        <time>2018-09-03T05:16:45Z</time>
      </trkpt>
      <trkpt lat="41.92936" lon="9.19822">
        <ele>1742.6</ele>
        <time>2018-09-03T05:16:59Z</time>
      </trkpt>
      <trkpt lat="41.92928" lon="9.19817">
        <ele>1744.82</ele>
        <time>2018-09-03T05:17:10Z</time>
      </trkpt>
      <trkpt lat="41.92923" lon="9.19812">
        <ele>1745.66</ele>
        <time>2018-09-03T05:17:17Z</time>
      </trkpt>
      <trkpt lat="41.9292" lon="9.19807">
        <ele>1745.61</ele>
        <time>2018-09-03T05:17:22Z</time>
      </trkpt>
      <trkpt lat="41.92915" lon="9.19804">
        <ele>1745.58</ele>
        <time>2018-09-03T05:17:28Z</time>
      </trkpt>
      <trkpt lat="41.92905" lon="9.19799">
        <ele>1746.63</ele>
        <time>2018-09-03T05:17:42Z</time>
      </trkpt>
      <trkpt lat="41.92903" lon="9.19797">
        <ele>1747.87</ele>
        <time>2018-09-03T05:17:49Z</time>
      </trkpt>
      <trkpt lat="41.92893" lon="9.19791">
        <ele>1747.75</ele>
        <time>2018-09-03T05:18:04Z</time>
      </trkpt>
      <trkpt lat="41.92885" lon="9.19785">
        <ele>1748.89</ele>
        <time>2018-09-03T05:18:19Z</time>
      </trkpt>
      <trkpt lat="41.92881" lon="9.19778">
        <ele>1748.81</ele>
        <time>2018-09-03T05:18:31Z</time>
      </trkpt>
      <trkpt lat="41.92873" lon="9.19774">
        <ele>1749.66</ele>
        <time>2018-09-03T05:18:44Z</time>
      </trkpt>
      <trkpt lat="41.92873" lon="9.19769">
        <ele>1750.64</ele>
        <time>2018-09-03T05:18:58Z</time>
      </trkpt>
      <trkpt lat="41.92868" lon="9.19762">
        <ele>1752.26</ele>
        <time>2018-09-03T05:19:12Z</time>
      </trkpt>
      <trkpt lat="41.92862" lon="9.1976">
        <ele>1752.08</ele>
        <time>2018-09-03T05:19:25Z</time>
      </trkpt>
      <trkpt lat="41.92858" lon="9.19759">
        <ele>1749.76</ele>
        <time>2018-09-03T05:19:35Z</time>
      </trkpt>
      <trkpt lat="41.92855" lon="9.19755">
        <ele>1747.88</ele>
        <time>2018-09-03T05:19:48Z</time>
      </trkpt>
      <trkpt lat="41.92854" lon="9.19754">
        <ele>1747.84</ele>
        <time>2018-09-03T05:19:50Z</time>
      </trkpt>
      <trkpt lat="41.92851" lon="9.19751">
        <ele>1746.99</ele>
        <time>2018-09-03T05:19:55Z</time>
      </trkpt>
      <trkpt lat="41.92844" lon="9.19742">
        <ele>1747.05</ele>
        <time>2018-09-03T05:20:08Z</time>
      </trkpt>
      <trkpt lat="41.92845" lon="9.19737">
        <ele>1747.09</ele>
        <time>2018-09-03T05:20:14Z</time>
      </trkpt>
      <trkpt lat="41.92843" lon="9.19734">
        <ele>1747.11</ele>
        <time>2018-09-03T05:20:24Z</time>
      </trkpt>
      <trkpt lat="41.9284" lon="9.19731">
        <ele>1744.74</ele>
        <time>2018-09-03T05:20:31Z</time>
      </trkpt>
      <trkpt lat="41.92835" lon="9.19725">
        <ele>1743.66</ele>
        <time>2018-09-03T05:20:45Z</time>
      </trkpt>
      <trkpt lat="41.92828" lon="9.19716">
        <ele>1742.83</ele>
        <time>2018-09-03T05:20:59Z</time>
      </trkpt>
      <trkpt lat="41.92824" lon="9.19709">
        <ele>1742.81</ele>
        <time>2018-09-03T05:21:08Z</time>
      </trkpt>
      <trkpt lat="41.92818" lon="9.19696">
        <ele>1742.95</ele>
        <time>2018-09-03T05:21:24Z</time>
      </trkpt>
      <trkpt lat="41.92815" lon="9.19692">
        <ele>1745.27</ele>
        <time>2018-09-03T05:21:31Z</time>
      </trkpt>
      <trkpt lat="41.9281" lon="9.1968">
        <ele>1745.24</ele>
        <time>2018-09-03T05:21:45Z</time>
      </trkpt>
      <trkpt lat="41.92804" lon="9.19668">
        <ele>1746.1</ele>
        <time>2018-09-03T05:22:01Z</time>
      </trkpt>
      <trkpt lat="41.928" lon="9.1966">
        <ele>1748.19</ele>
        <time>2018-09-03T05:22:14Z</time>
      </trkpt>
      <trkpt lat="41.92801" lon="9.1965">
        <ele>1750.78</ele>
        <time>2018-09-03T05:22:29Z</time>
      </trkpt>
      <trkpt lat="41.92798" lon="9.19645">
        <ele>1752.48</ele>
        <time>2018-09-03T05:22:43Z</time>
      </trkpt>
      <trkpt lat="41.92792" lon="9.19642">
        <ele>1754.61</ele>
        <time>2018-09-03T05:22:58Z</time>
      </trkpt>
      <trkpt lat="41.92783" lon="9.19638">
        <ele>1755.35</ele>
        <time>2018-09-03T05:23:13Z</time>
      </trkpt>
      <trkpt lat="41.92777" lon="9.19629">
        <ele>1756.07</ele>
        <time>2018-09-03T05:23:28Z</time>
      </trkpt>
      <trkpt lat="41.92771" lon="9.19623">
        <ele>1758.27</ele>
        <time>2018-09-03T05:23:39Z</time>
      </trkpt>
      <trkpt lat="41.92763" lon="9.19618">
        <ele>1759.81</ele>
        <time>2018-09-03T05:23:52Z</time>
      </trkpt>
      <trkpt lat="41.92754" lon="9.19619">
        <ele>1761.31</ele>
        <time>2018-09-03T05:24:06Z</time>
      </trkpt>
      <trkpt lat="41.9275" lon="9.19622">
        <ele>1763.13</ele>
        <time>2018-09-03T05:24:20Z</time>
      </trkpt>
      <trkpt lat="41.92743" lon="9.19618">
        <ele>1765.03</ele>
        <time>2018-09-03T05:24:34Z</time>
      </trkpt>
      <trkpt lat="41.9274" lon="9.19619">
        <ele>1764.98</ele>
        <time>2018-09-03T05:24:44Z</time>
      </trkpt>
      <trkpt lat="41.92734" lon="9.19617">
        <ele>1765.74</ele>
        <time>2018-09-03T05:24:58Z</time>
      </trkpt>
      <trkpt lat="41.9273" lon="9.1961">
        <ele>1762.95</ele>
        <time>2018-09-03T05:25:08Z</time>
      </trkpt>
      <trkpt lat="41.9272" lon="9.19602">
        <ele>1762.17</ele>
        <time>2018-09-03T05:25:23Z</time>
      </trkpt>
      <trkpt lat="41.92719" lon="9.19601">
        <ele>1762.15</ele>
        <time>2018-09-03T05:25:24Z</time>
      </trkpt>
      <trkpt lat="41.92711" lon="9.19591">
        <ele>1762.22</ele>
        <time>2018-09-03T05:25:38Z</time>
      </trkpt>
      <trkpt lat="41.92702" lon="9.19581">
        <ele>1762.18</ele>
        <time>2018-09-03T05:25:52Z</time>
      </trkpt>
      <trkpt lat="41.92699" lon="9.19575">
        <ele>1764.47</ele>
        <time>2018-09-03T05:26:00Z</time>
      </trkpt>
      <trkpt lat="41.92692" lon="9.19571">
        <ele>1766.33</ele>
        <time>2018-09-03T05:26:15Z</time>
      </trkpt>
      <trkpt lat="41.92688" lon="9.19567">
        <ele>1768.89</ele>
        <time>2018-09-03T05:26:29Z</time>
      </trkpt>
      <trkpt lat="41.92677" lon="9.19562">
        <ele>1769.69</ele>
        <time>2018-09-03T05:26:42Z</time>
      </trkpt>
      <trkpt lat="41.92668" lon="9.19558">
        <ele>1769.71</ele>
        <time>2018-09-03T05:26:52Z</time>
      </trkpt>
      <trkpt lat="41.92667" lon="9.19557">
        <ele>1769.69</ele>
        <time>2018-09-03T05:26:53Z</time>
      </trkpt>
      <trkpt lat="41.92664" lon="9.19556">
        <ele>1769.72</ele>
        <time>2018-09-03T05:26:55Z</time>
      </trkpt>
      <trkpt lat="41.92653" lon="9.19555">
        <ele>1769.71</ele>
        <time>2018-09-03T05:27:09Z</time>
      </trkpt>
      <trkpt lat="41.92645" lon="9.19557">
        <ele>1772.56</ele>
        <time>2018-09-03T05:27:24Z</time>
      </trkpt>
      <trkpt lat="41.9264" lon="9.19555">
        <ele>1773.67</ele>
        <time>2018-09-03T05:27:33Z</time>
      </trkpt>
      <trkpt lat="41.92639" lon="9.19554">
        <ele>1773.66</ele>
        <time>2018-09-03T05:27:34Z</time>
      </trkpt>
      <trkpt lat="41.92638" lon="9.19553">
        <ele>1773.64</ele>
        <time>2018-09-03T05:27:35Z</time>
      </trkpt>
      <trkpt lat="41.92637" lon="9.19552">
        <ele>1773.62</ele>
        <time>2018-09-03T05:27:36Z</time>
      </trkpt>
      <trkpt lat="41.92636" lon="9.19551">
        <ele>1773.62</ele>
        <time>2018-09-03T05:27:37Z</time>
      </trkpt>
      <trkpt lat="41.92628" lon="9.1954">
        <ele>1773.61</ele>
        <time>2018-09-03T05:27:48Z</time>
      </trkpt>
      <trkpt lat="41.92627" lon="9.19539">
        <ele>1773.62</ele>
        <time>2018-09-03T05:27:49Z</time>
      </trkpt>
      <trkpt lat="41.92627" lon="9.19518">
        <ele>1774.73</ele>
        <time>2018-09-03T05:28:05Z</time>
      </trkpt>
      <trkpt lat="41.9263" lon="9.19512">
        <ele>1776.64</ele>
        <time>2018-09-03T05:28:12Z</time>
      </trkpt>
      <trkpt lat="41.92626" lon="9.19492">
        <ele>1778.3</ele>
        <time>2018-09-03T05:28:29Z</time>
      </trkpt>
      <trkpt lat="41.92622" lon="9.19481">
        <ele>1779.18</ele>
        <time>2018-09-03T05:28:39Z</time>
      </trkpt>
      <trkpt lat="41.9262" lon="9.19478">
        <ele>1779.19</ele>
        <time>2018-09-03T05:28:42Z</time>
      </trkpt>
      <trkpt lat="41.92613" lon="9.1946">
        <ele>1779.2</ele>
        <time>2018-09-03T05:28:56Z</time>
      </trkpt>
      <trkpt lat="41.92605" lon="9.19451">
        <ele>1779.28</ele>
        <time>2018-09-03T05:29:07Z</time>
      </trkpt>
      <trkpt lat="41.92596" lon="9.19433">
        <ele>1780.13</ele>
        <time>2018-09-03T05:29:23Z</time>
      </trkpt>
      <trkpt lat="41.92593" lon="9.19432">
        <ele>1780.11</ele>
        <time>2018-09-03T05:29:26Z</time>
      </trkpt>
      <trkpt lat="41.92588" lon="9.19426">
        <ele>1782.05</ele>
        <time>2018-09-03T05:29:33Z</time>
      </trkpt>
      <trkpt lat="41.92582" lon="9.19423">
        <ele>1782.05</ele>
        <time>2018-09-03T05:29:40Z</time>
      </trkpt>
      <trkpt lat="41.9257" lon="9.19417">
        <ele>1784.15</ele>
        <time>2018-09-03T05:29:56Z</time>
      </trkpt>
      <trkpt lat="41.92558" lon="9.19411">
        <ele>1785.91</ele>
        <time>2018-09-03T05:30:12Z</time>
      </trkpt>
      <trkpt lat="41.92551" lon="9.19401">
        <ele>1788.03</ele>
        <time>2018-09-03T05:30:28Z</time>
      </trkpt>
      <trkpt lat="41.92543" lon="9.19394">
        <ele>1791.09</ele>
        <time>2018-09-03T05:30:43Z</time>
      </trkpt>
      <trkpt lat="41.92532" lon="9.19386">
        <ele>1792.05</ele>
        <time>2018-09-03T05:31:00Z</time>
      </trkpt>
      <trkpt lat="41.92527" lon="9.19378">
        <ele>1794.84</ele>
        <time>2018-09-03T05:31:14Z</time>
      </trkpt>
      <trkpt lat="41.92523" lon="9.19371">
        <ele>1795.76</ele>
        <time>2018-09-03T05:31:28Z</time>
      </trkpt>
      <trkpt lat="41.92518" lon="9.19368">
        <ele>1796.61</ele>
        <time>2018-09-03T05:31:41Z</time>
      </trkpt>
      <trkpt lat="41.92512" lon="9.19362">
        <ele>1797.69</ele>
        <time>2018-09-03T05:31:54Z</time>
      </trkpt>
      <trkpt lat="41.92502" lon="9.19351">
        <ele>1798.77</ele>
        <time>2018-09-03T05:32:09Z</time>
      </trkpt>
      <trkpt lat="41.92498" lon="9.19345">
        <ele>1798.74</ele>
        <time>2018-09-03T05:32:16Z</time>
      </trkpt>
      <trkpt lat="41.92498" lon="9.19343">
        <ele>1798.74</ele>
        <time>2018-09-03T05:32:17Z</time>
      </trkpt>
      <trkpt lat="41.92484" lon="9.19323">
        <ele>1798.83</ele>
        <time>2018-09-03T05:32:37Z</time>
      </trkpt>
      <trkpt lat="41.92483" lon="9.19321">
        <ele>1798.81</ele>
        <time>2018-09-03T05:32:39Z</time>
      </trkpt>
      <trkpt lat="41.92474" lon="9.19312">
        <ele>1798.72</ele>
        <time>2018-09-03T05:32:53Z</time>
      </trkpt>
      <trkpt lat="41.92465" lon="9.19311">
        <ele>1799.87</ele>
        <time>2018-09-03T05:33:06Z</time>
      </trkpt>
      <trkpt lat="41.92459" lon="9.19308">
        <ele>1799.85</ele>
        <time>2018-09-03T05:33:18Z</time>
      </trkpt>
      <trkpt lat="41.92458" lon="9.19306">
        <ele>1797.32</ele>
        <time>2018-09-03T05:33:22Z</time>
      </trkpt>
      <trkpt lat="41.92452" lon="9.19299">
        <ele>1796.23</ele>
        <time>2018-09-03T05:33:34Z</time>
      </trkpt>
      <trkpt lat="41.92454" lon="9.1929">
        <ele>1793.8</ele>
        <time>2018-09-03T05:33:46Z</time>
      </trkpt>
      <trkpt lat="41.9246" lon="9.19287">
        <ele>1792.06</ele>
        <time>2018-09-03T05:33:59Z</time>
      </trkpt>
      <trkpt lat="41.9246" lon="9.1928">
        <ele>1790.99</ele>
        <time>2018-09-03T05:34:11Z</time>
      </trkpt>
      <trkpt lat="41.92458" lon="9.19274">
        <ele>1789.95</ele>
        <time>2018-09-03T05:34:25Z</time>
      </trkpt>
      <trkpt lat="41.92452" lon="9.19263">
        <ele>1790.01</ele>
        <time>2018-09-03T05:34:38Z</time>
      </trkpt>
      <trkpt lat="41.92454" lon="9.19259">
        <ele>1787.25</ele>
        <time>2018-09-03T05:34:51Z</time>
      </trkpt>
      <trkpt lat="41.92454" lon="9.19255">
        <ele>1785.2</ele>
        <time>2018-09-03T05:35:03Z</time>
      </trkpt>
      <trkpt lat="41.92455" lon="9.19259">
        <ele>1785.35</ele>
        <time>2018-09-03T05:35:19Z</time>
      </trkpt>
      <trkpt lat="41.92455" lon="9.19259">
        <ele>1787.97</ele>
        <time>2018-09-03T05:35:23Z</time>
      </trkpt>
      <trkpt lat="41.92448" lon="9.19252">
        <ele>1787.99</ele>
        <time>2018-09-03T05:35:36Z</time>
      </trkpt>
      <trkpt lat="41.92442" lon="9.19245">
        <ele>1789.16</ele>
        <time>2018-09-03T05:35:49Z</time>
      </trkpt>
      <trkpt lat="41.9244" lon="9.19247">
        <ele>1790.51</ele>
        <time>2018-09-03T05:35:59Z</time>
      </trkpt>
      <trkpt lat="41.92433" lon="9.19235">
        <ele>1790.53</ele>
        <time>2018-09-03T05:36:15Z</time>
      </trkpt>
      <trkpt lat="41.92426" lon="9.1923">
        <ele>1792.23</ele>
        <time>2018-09-03T05:36:30Z</time>
      </trkpt>
      <trkpt lat="41.92419" lon="9.19225">
        <ele>1795.12</ele>
        <time>2018-09-03T05:36:46Z</time>
      </trkpt>
      <trkpt lat="41.92414" lon="9.19224">
        <ele>1797.95</ele>
        <time>2018-09-03T05:37:01Z</time>
      </trkpt>
      <trkpt lat="41.92409" lon="9.19224">
        <ele>1798.91</ele>
        <time>2018-09-03T05:37:16Z</time>
      </trkpt>
      <trkpt lat="41.924" lon="9.19218">
        <ele>1799.88</ele>
        <time>2018-09-03T05:37:27Z</time>
      </trkpt>
      <trkpt lat="41.92397" lon="9.1921">
        <ele>1800.72</ele>
        <time>2018-09-03T05:37:41Z</time>
      </trkpt>
      <trkpt lat="41.92395" lon="9.19205">
        <ele>1798.34</ele>
        <time>2018-09-03T05:37:47Z</time>
      </trkpt>
      <trkpt lat="41.92393" lon="9.19197">
        <ele>1797.34</ele>
        <time>2018-09-03T05:37:56Z</time>
      </trkpt>
      <trkpt lat="41.92393" lon="9.19196">
        <ele>1797.33</ele>
        <time>2018-09-03T05:37:57Z</time>
      </trkpt>
      <trkpt lat="41.92389" lon="9.19191">
        <ele>1795.16</ele>
        <time>2018-09-03T05:38:06Z</time>
      </trkpt>
      <trkpt lat="41.92387" lon="9.19187">
        <ele>1795.19</ele>
        <time>2018-09-03T05:38:14Z</time>
      </trkpt>
      <trkpt lat="41.92385" lon="9.19186">
        <ele>1795.2</ele>
        <time>2018-09-03T05:38:16Z</time>
      </trkpt>
      <trkpt lat="41.92377" lon="9.19182">
        <ele>1793.72</ele>
        <time>2018-09-03T05:38:28Z</time>
      </trkpt>
      <trkpt lat="41.92376" lon="9.1918">
        <ele>1793.73</ele>
        <time>2018-09-03T05:38:29Z</time>
      </trkpt>
      <trkpt lat="41.92369" lon="9.19175">
        <ele>1793.79</ele>
        <time>2018-09-03T05:38:40Z</time>
      </trkpt>
      <trkpt lat="41.9236" lon="9.1917">
        <ele>1792.78</ele>
        <time>2018-09-03T05:38:54Z</time>
      </trkpt>
      <trkpt lat="41.92353" lon="9.19164">
        <ele>1792.82</ele>
        <time>2018-09-03T05:39:08Z</time>
      </trkpt>
      <trkpt lat="41.92352" lon="9.19163">
        <ele>1792.84</ele>
        <time>2018-09-03T05:39:10Z</time>
      </trkpt>
      <trkpt lat="41.92351" lon="9.19162">
        <ele>1792.84</ele>
        <time>2018-09-03T05:39:11Z</time>
      </trkpt>
      <trkpt lat="41.92337" lon="9.19153">
        <ele>1792.85</ele>
        <time>2018-09-03T05:39:27Z</time>
      </trkpt>
      <trkpt lat="41.92331" lon="9.19147">
        <ele>1795.15</ele>
        <time>2018-09-03T05:39:39Z</time>
      </trkpt>
      <trkpt lat="41.92324" lon="9.19144">
        <ele>1796.7</ele>
        <time>2018-09-03T05:39:49Z</time>
      </trkpt>
      <trkpt lat="41.92316" lon="9.19137">
        <ele>1798.34</ele>
        <time>2018-09-03T05:40:05Z</time>
      </trkpt>
      <trkpt lat="41.9231" lon="9.19134">
        <ele>1799.39</ele>
        <time>2018-09-03T05:40:13Z</time>
      </trkpt>
      <trkpt lat="41.92306" lon="9.19124">
        <ele>1800.26</ele>
        <time>2018-09-03T05:40:26Z</time>
      </trkpt>
      <trkpt lat="41.92303" lon="9.19116">
        <ele>1800.26</ele>
        <time>2018-09-03T05:40:41Z</time>
      </trkpt>
      <trkpt lat="41.92305" lon="9.19108">
        <ele>1802.09</ele>
        <time>2018-09-03T05:40:54Z</time>
      </trkpt>
      <trkpt lat="41.92304" lon="9.19104">
        <ele>1802.1</ele>
        <time>2018-09-03T05:41:05Z</time>
      </trkpt>
      <trkpt lat="41.92299" lon="9.19097">
        <ele>1802.09</ele>
        <time>2018-09-03T05:41:15Z</time>
      </trkpt>
      <trkpt lat="41.92297" lon="9.19091">
        <ele>1799.64</ele>
        <time>2018-09-03T05:41:20Z</time>
      </trkpt>
      <trkpt lat="41.92296" lon="9.19088">
        <ele>1799.63</ele>
        <time>2018-09-03T05:41:22Z</time>
      </trkpt>
      <trkpt lat="41.92293" lon="9.19076">
        <ele>1798.8</ele>
        <time>2018-09-03T05:41:32Z</time>
      </trkpt>
      <trkpt lat="41.92287" lon="9.19061">
        <ele>1798.07</ele>
        <time>2018-09-03T05:41:47Z</time>
      </trkpt>
      <trkpt lat="41.92278" lon="9.19058">
        <ele>1797.32</ele>
        <time>2018-09-03T05:42:00Z</time>
      </trkpt>
      <trkpt lat="41.92276" lon="9.19056">
        <ele>1797.32</ele>
        <time>2018-09-03T05:42:03Z</time>
      </trkpt>
      <trkpt lat="41.92276" lon="9.19055">
        <ele>1796.22</ele>
        <time>2018-09-03T05:42:04Z</time>
      </trkpt>
      <trkpt lat="41.92275" lon="9.19054">
        <ele>1796.23</ele>
        <time>2018-09-03T05:42:05Z</time>
      </trkpt>
      <trkpt lat="41.92269" lon="9.19048">
        <ele>1794.8</ele>
        <time>2018-09-03T05:42:19Z</time>
      </trkpt>
      <trkpt lat="41.92269" lon="9.19048">
        <ele>1794.8</ele>
        <time>2018-09-03T05:42:20Z</time>
      </trkpt>
      <trkpt lat="41.92261" lon="9.19045">
        <ele>1794.86</ele>
        <time>2018-09-03T05:42:32Z</time>
      </trkpt>
      <trkpt lat="41.9226" lon="9.1904">
        <ele>1794.88</ele>
        <time>2018-09-03T05:42:46Z</time>
      </trkpt>
      <trkpt lat="41.92258" lon="9.19037">
        <ele>1793.3</ele>
        <time>2018-09-03T05:42:53Z</time>
      </trkpt>
      <trkpt lat="41.92257" lon="9.19036">
        <ele>1793.3</ele>
        <time>2018-09-03T05:42:54Z</time>
      </trkpt>
      <trkpt lat="41.92249" lon="9.19032">
        <ele>1793.38</ele>
        <time>2018-09-03T05:43:07Z</time>
      </trkpt>
      <trkpt lat="41.92239" lon="9.19026">
        <ele>1793.46</ele>
        <time>2018-09-03T05:43:22Z</time>
      </trkpt>
      <trkpt lat="41.92238" lon="9.19025">
        <ele>1795.79</ele>
        <time>2018-09-03T05:43:24Z</time>
      </trkpt>
      <trkpt lat="41.92231" lon="9.19024">
        <ele>1798.43</ele>
        <time>2018-09-03T05:43:38Z</time>
      </trkpt>
      <trkpt lat="41.92224" lon="9.19024">
        <ele>1800.16</ele>
        <time>2018-09-03T05:43:51Z</time>
      </trkpt>
      <trkpt lat="41.92222" lon="9.19029">
        <ele>1802.09</ele>
        <time>2018-09-03T05:44:07Z</time>
      </trkpt>
      <trkpt lat="41.92215" lon="9.19029">
        <ele>1804.77</ele>
        <time>2018-09-03T05:44:20Z</time>
      </trkpt>
      <trkpt lat="41.92209" lon="9.19032">
        <ele>1807.2</ele>
        <time>2018-09-03T05:44:35Z</time>
      </trkpt>
      <trkpt lat="41.92201" lon="9.19032">
        <ele>1809.17</ele>
        <time>2018-09-03T05:44:51Z</time>
      </trkpt>
      <trkpt lat="41.92198" lon="9.19029">
        <ele>1811.37</ele>
        <time>2018-09-03T05:44:59Z</time>
      </trkpt>
      <trkpt lat="41.92196" lon="9.19021">
        <ele>1813.04</ele>
        <time>2018-09-03T05:45:14Z</time>
      </trkpt>
      <trkpt lat="41.92194" lon="9.19017">
        <ele>1814.82</ele>
        <time>2018-09-03T05:45:28Z</time>
      </trkpt>
      <trkpt lat="41.9219" lon="9.19013">
        <ele>1815.68</ele>
        <time>2018-09-03T05:45:50Z</time>
      </trkpt>
      <trkpt lat="41.92187" lon="9.19011">
        <ele>1817.54</ele>
        <time>2018-09-03T05:45:56Z</time>
      </trkpt>
      <trkpt lat="41.92183" lon="9.19006">
        <ele>1819.11</ele>
        <time>2018-09-03T05:46:07Z</time>
      </trkpt>
      <trkpt lat="41.92181" lon="9.18997">
        <ele>1820.13</ele>
        <time>2018-09-03T05:46:21Z</time>
      </trkpt>
      <trkpt lat="41.92177" lon="9.1899">
        <ele>1822.07</ele>
        <time>2018-09-03T05:46:36Z</time>
      </trkpt>
      <trkpt lat="41.92167" lon="9.18984">
        <ele>1823.87</ele>
        <time>2018-09-03T05:46:50Z</time>
      </trkpt>
      <trkpt lat="41.92165" lon="9.18982">
        <ele>1823.88</ele>
        <time>2018-09-03T05:46:53Z</time>
      </trkpt>
      <trkpt lat="41.92159" lon="9.18969">
        <ele>1823.9</ele>
        <time>2018-09-03T05:47:07Z</time>
      </trkpt>
      <trkpt lat="41.92153" lon="9.18955">
        <ele>1825.3</ele>
        <time>2018-09-03T05:47:22Z</time>
      </trkpt>
      <trkpt lat="41.92146" lon="9.18953">
        <ele>1827.12</ele>
        <time>2018-09-03T05:47:35Z</time>
      </trkpt>
      <trkpt lat="41.9214" lon="9.1895">
        <ele>1828.27</ele>
        <time>2018-09-03T05:47:47Z</time>
      </trkpt>
      <trkpt lat="41.92139" lon="9.1895">
        <ele>1828.3</ele>
        <time>2018-09-03T05:48:04Z</time>
      </trkpt>
      <trkpt lat="41.9214" lon="9.18952">
        <ele>1828.32</ele>
        <time>2018-09-03T05:48:16Z</time>
      </trkpt>
      <trkpt lat="41.92139" lon="9.18953">
        <ele>1828.36</ele>
        <time>2018-09-03T05:48:43Z</time>
      </trkpt>
      <trkpt lat="41.92134" lon="9.18944">
        <ele>1828.38</ele>
        <time>2018-09-03T05:48:54Z</time>
      </trkpt>
      <trkpt lat="41.92133" lon="9.18941">
        <ele>1828.39</ele>
        <time>2018-09-03T05:48:57Z</time>
      </trkpt>
      <trkpt lat="41.92131" lon="9.18931">
        <ele>1829.3</ele>
        <time>2018-09-03T05:49:10Z</time>
      </trkpt>
      <trkpt lat="41.92125" lon="9.18925">
        <ele>1830.13</ele>
        <time>2018-09-03T05:49:22Z</time>
      </trkpt>
      <trkpt lat="41.92119" lon="9.18917">
        <ele>1830.15</ele>
        <time>2018-09-03T05:49:35Z</time>
      </trkpt>
      <trkpt lat="41.92118" lon="9.18917">
        <ele>1827.88</ele>
        <time>2018-09-03T05:49:46Z</time>
      </trkpt>
      <trkpt lat="41.92115" lon="9.18914">
        <ele>1826.94</ele>
        <time>2018-09-03T05:50:00Z</time>
      </trkpt>
      <trkpt lat="41.9212" lon="9.18911">
        <ele>1825.89</ele>
        <time>2018-09-03T05:50:13Z</time>
      </trkpt>
      <trkpt lat="41.92118" lon="9.18906">
        <ele>1823.95</ele>
        <time>2018-09-03T05:50:20Z</time>
      </trkpt>
      <trkpt lat="41.92112" lon="9.189">
        <ele>1823.26</ele>
        <time>2018-09-03T05:50:33Z</time>
      </trkpt>
      <trkpt lat="41.92111" lon="9.18893">
        <ele>1820.55</ele>
        <time>2018-09-03T05:50:47Z</time>
      </trkpt>
      <trkpt lat="41.92111" lon="9.18888">
        <ele>1817.93</ele>
        <time>2018-09-03T05:51:01Z</time>
      </trkpt>
      <trkpt lat="41.92113" lon="9.18882">
        <ele>1816.15</ele>
        <time>2018-09-03T05:51:14Z</time>
      </trkpt>
      <trkpt lat="41.92113" lon="9.1888">
        <ele>1815.34</ele>
        <time>2018-09-03T05:51:16Z</time>
      </trkpt>
      <trkpt lat="41.92113" lon="9.18877">
        <ele>1815.31</ele>
        <time>2018-09-03T05:51:18Z</time>
      </trkpt>
      <trkpt lat="41.92113" lon="9.18875">
        <ele>1815.35</ele>
        <time>2018-09-03T05:51:19Z</time>
      </trkpt>
      <trkpt lat="41.92112" lon="9.18872">
        <ele>1814.1</ele>
        <time>2018-09-03T05:51:22Z</time>
      </trkpt>
      <trkpt lat="41.92109" lon="9.18859">
        <ele>1812.72</ele>
        <time>2018-09-03T05:51:33Z</time>
      </trkpt>
      <trkpt lat="41.92104" lon="9.18842">
        <ele>1811.9</ele>
        <time>2018-09-03T05:51:48Z</time>
      </trkpt>
      <trkpt lat="41.921" lon="9.18825">
        <ele>1810.79</ele>
        <time>2018-09-03T05:52:00Z</time>
      </trkpt>
      <trkpt lat="41.921" lon="9.18823">
        <ele>1810.81</ele>
        <time>2018-09-03T05:52:01Z</time>
      </trkpt>
      <trkpt lat="41.92097" lon="9.18801">
        <ele>1810.8</ele>
        <time>2018-09-03T05:52:17Z</time>
      </trkpt>
      <trkpt lat="41.92097" lon="9.18798">
        <ele>1810.83</ele>
        <time>2018-09-03T05:52:19Z</time>
      </trkpt>
      <trkpt lat="41.92097" lon="9.18796">
        <ele>1809.68</ele>
        <time>2018-09-03T05:52:20Z</time>
      </trkpt>
      <trkpt lat="41.92097" lon="9.18795">
        <ele>1809.7</ele>
        <time>2018-09-03T05:52:21Z</time>
      </trkpt>
      <trkpt lat="41.9209" lon="9.18772">
        <ele>1808.57</ele>
        <time>2018-09-03T05:52:39Z</time>
      </trkpt>
      <trkpt lat="41.92087" lon="9.18772">
        <ele>1808.7</ele>
        <time>2018-09-03T05:52:55Z</time>
      </trkpt>
      <trkpt lat="41.92085" lon="9.18766">
        <ele>1808.78</ele>
        <time>2018-09-03T05:53:02Z</time>
      </trkpt>
      <trkpt lat="41.92079" lon="9.18757">
        <ele>1811.23</ele>
        <time>2018-09-03T05:53:13Z</time>
      </trkpt>
      <trkpt lat="41.92077" lon="9.18755">
        <ele>1812.49</ele>
        <time>2018-09-03T05:53:17Z</time>
      </trkpt>
      <trkpt lat="41.92072" lon="9.18752">
        <ele>1814.75</ele>
        <time>2018-09-03T05:53:25Z</time>
      </trkpt>
      <trkpt lat="41.92065" lon="9.18742">
        <ele>1817.16</ele>
        <time>2018-09-03T05:53:40Z</time>
      </trkpt>
      <trkpt lat="41.92057" lon="9.18739">
        <ele>1817.06</ele>
        <time>2018-09-03T05:53:53Z</time>
      </trkpt>
      <trkpt lat="41.92045" lon="9.18729">
        <ele>1819.45</ele>
        <time>2018-09-03T05:54:08Z</time>
      </trkpt>
      <trkpt lat="41.92038" lon="9.18714">
        <ele>1819.48</ele>
        <time>2018-09-03T05:54:23Z</time>
      </trkpt>
      <trkpt lat="41.92038" lon="9.18706">
        <ele>1821.57</ele>
        <time>2018-09-03T05:54:36Z</time>
      </trkpt>
      <trkpt lat="41.92033" lon="9.18693">
        <ele>1821.56</ele>
        <time>2018-09-03T05:54:50Z</time>
      </trkpt>
      <trkpt lat="41.92031" lon="9.18686">
        <ele>1822.38</ele>
        <time>2018-09-03T05:55:02Z</time>
      </trkpt>
      <trkpt lat="41.92024" lon="9.1868">
        <ele>1822.3</ele>
        <time>2018-09-03T05:55:13Z</time>
      </trkpt>
      <trkpt lat="41.92023" lon="9.18679">
        <ele>1822.28</ele>
        <time>2018-09-03T05:55:14Z</time>
      </trkpt>
      <trkpt lat="41.92022" lon="9.18677">
        <ele>1819.26</ele>
        <time>2018-09-03T05:55:16Z</time>
      </trkpt>
      <trkpt lat="41.92022" lon="9.18675">
        <ele>1819.29</ele>
        <time>2018-09-03T05:55:17Z</time>
      </trkpt>
      <trkpt lat="41.92015" lon="9.18667">
        <ele>1819.23</ele>
        <time>2018-09-03T05:55:30Z</time>
      </trkpt>
      <trkpt lat="41.9201" lon="9.18656">
        <ele>1818.54</ele>
        <time>2018-09-03T05:55:43Z</time>
      </trkpt>
      <trkpt lat="41.92002" lon="9.18647">
        <ele>1818.59</ele>
        <time>2018-09-03T05:55:59Z</time>
      </trkpt>
      <trkpt lat="41.91998" lon="9.18645">
        <ele>1817.65</ele>
        <time>2018-09-03T05:56:13Z</time>
      </trkpt>
      <trkpt lat="41.91997" lon="9.18642">
        <ele>1816.89</ele>
        <time>2018-09-03T05:56:28Z</time>
      </trkpt>
      <trkpt lat="41.91993" lon="9.1864">
        <ele>1814.91</ele>
        <time>2018-09-03T05:56:42Z</time>
      </trkpt>
      <trkpt lat="41.91991" lon="9.1864">
        <ele>1813.6</ele>
        <time>2018-09-03T05:56:48Z</time>
      </trkpt>
      <trkpt lat="41.91986" lon="9.18642">
        <ele>1812.63</ele>
        <time>2018-09-03T05:57:01Z</time>
      </trkpt>
      <trkpt lat="41.91983" lon="9.18639">
        <ele>1809.85</ele>
        <time>2018-09-03T05:57:09Z</time>
      </trkpt>
      <trkpt lat="41.9198" lon="9.18638">
        <ele>1808.56</ele>
        <time>2018-09-03T05:57:16Z</time>
      </trkpt>
      <trkpt lat="41.91977" lon="9.18635">
        <ele>1806.59</ele>
        <time>2018-09-03T05:57:29Z</time>
      </trkpt>
      <trkpt lat="41.91974" lon="9.18632">
        <ele>1805.36</ele>
        <time>2018-09-03T05:57:38Z</time>
      </trkpt>
      <trkpt lat="41.9197" lon="9.18632">
        <ele>1805.51</ele>
        <time>2018-09-03T05:57:53Z</time>
      </trkpt>
      <trkpt lat="41.91969" lon="9.18632">
        <ele>1807.87</ele>
        <time>2018-09-03T05:58:00Z</time>
      </trkpt>
      <trkpt lat="41.91961" lon="9.18625">
        <ele>1807.71</ele>
        <time>2018-09-03T05:58:18Z</time>
      </trkpt>
      <trkpt lat="41.91957" lon="9.18623">
        <ele>1805.17</ele>
        <time>2018-09-03T05:58:29Z</time>
      </trkpt>
      <trkpt lat="41.91956" lon="9.18624">
        <ele>1803.51</ele>
        <time>2018-09-03T05:58:42Z</time>
      </trkpt>
      <trkpt lat="41.91954" lon="9.18625">
        <ele>1801.82</ele>
        <time>2018-09-03T05:58:45Z</time>
      </trkpt>
      <trkpt lat="41.9195" lon="9.18621">
        <ele>1801.02</ele>
        <time>2018-09-03T05:58:59Z</time>
      </trkpt>
      <trkpt lat="41.91942" lon="9.18618">
        <ele>1801.07</ele>
        <time>2018-09-03T05:59:13Z</time>
      </trkpt>
      <trkpt lat="41.91932" lon="9.18613">
        <ele>1801.07</ele>
        <time>2018-09-03T05:59:29Z</time>
      </trkpt>
      <trkpt lat="41.9193" lon="9.18609">
        <ele>1803.65</ele>
        <time>2018-09-03T05:59:40Z</time>
      </trkpt>
      <trkpt lat="41.91932" lon="9.18609">
        <ele>1805.25</ele>
        <time>2018-09-03T05:59:56Z</time>
      </trkpt>
      <trkpt lat="41.91934" lon="9.18608">
        <ele>1805.14</ele>
        <time>2018-09-03T06:00:15Z</time>
      </trkpt>
      <trkpt lat="41.91935" lon="9.18602">
        <ele>1807.97</ele>
        <time>2018-09-03T06:00:29Z</time>
      </trkpt>
      <trkpt lat="41.91936" lon="9.18597">
        <ele>1810.51</ele>
        <time>2018-09-03T06:00:43Z</time>
      </trkpt>
      <trkpt lat="41.91935" lon="9.18595">
        <ele>1811.19</ele>
        <time>2018-09-03T06:00:56Z</time>
      </trkpt>
      <trkpt lat="41.91935" lon="9.18594">
        <ele>1812.69</ele>
        <time>2018-09-03T06:01:11Z</time>
      </trkpt>
      <trkpt lat="41.91936" lon="9.18596">
        <ele>1813.7</ele>
        <time>2018-09-03T06:01:29Z</time>
      </trkpt>
      <trkpt lat="41.91937" lon="9.18595">
        <ele>1814.63</ele>
        <time>2018-09-03T06:01:43Z</time>
      </trkpt>
      <trkpt lat="41.91931" lon="9.18588">
        <ele>1816.55</ele>
        <time>2018-09-03T06:02:00Z</time>
      </trkpt>
      <trkpt lat="41.91927" lon="9.18586">
        <ele>1818.27</ele>
        <time>2018-09-03T06:02:16Z</time>
      </trkpt>
      <trkpt lat="41.91925" lon="9.18585">
        <ele>1819.57</ele>
        <time>2018-09-03T06:02:22Z</time>
      </trkpt>
      <trkpt lat="41.91921" lon="9.18586">
        <ele>1821.66</ele>
        <time>2018-09-03T06:02:33Z</time>
      </trkpt>
      <trkpt lat="41.91912" lon="9.18587">
        <ele>1822.68</ele>
        <time>2018-09-03T06:02:49Z</time>
      </trkpt>
      <trkpt lat="41.91906" lon="9.18591">
        <ele>1823.36</ele>
        <time>2018-09-03T06:03:03Z</time>
      </trkpt>
      <trkpt lat="41.91902" lon="9.18587">
        <ele>1820.76</ele>
        <time>2018-09-03T06:03:12Z</time>
      </trkpt>
      <trkpt lat="41.91898" lon="9.18582">
        <ele>1819.92</ele>
        <time>2018-09-03T06:03:26Z</time>
      </trkpt>
      <trkpt lat="41.91892" lon="9.18577">
        <ele>1819.12</ele>
        <time>2018-09-03T06:03:39Z</time>
      </trkpt>
      <trkpt lat="41.91891" lon="9.18577">
        <ele>1819.12</ele>
        <time>2018-09-03T06:03:40Z</time>
      </trkpt>
      <trkpt lat="41.91886" lon="9.18572">
        <ele>1817.33</ele>
        <time>2018-09-03T06:03:51Z</time>
      </trkpt>
      <trkpt lat="41.91884" lon="9.18572">
        <ele>1816.45</ele>
        <time>2018-09-03T06:03:54Z</time>
      </trkpt>
      <trkpt lat="41.91883" lon="9.18571">
        <ele>1816.45</ele>
        <time>2018-09-03T06:03:55Z</time>
      </trkpt>
      <trkpt lat="41.91881" lon="9.18568">
        <ele>1816.46</ele>
        <time>2018-09-03T06:03:57Z</time>
      </trkpt>
      <trkpt lat="41.91881" lon="9.18567">
        <ele>1816.46</ele>
        <time>2018-09-03T06:03:58Z</time>
      </trkpt>
      <trkpt lat="41.9188" lon="9.18566">
        <ele>1816.46</ele>
        <time>2018-09-03T06:03:59Z</time>
      </trkpt>
      <trkpt lat="41.91873" lon="9.18554">
        <ele>1816.52</ele>
        <time>2018-09-03T06:04:13Z</time>
      </trkpt>
      <trkpt lat="41.91868" lon="9.18543">
        <ele>1816.52</ele>
        <time>2018-09-03T06:04:26Z</time>
      </trkpt>
      <trkpt lat="41.91864" lon="9.18536">
        <ele>1816.53</ele>
        <time>2018-09-03T06:04:38Z</time>
      </trkpt>
      <trkpt lat="41.91863" lon="9.18532">
        <ele>1819.37</ele>
        <time>2018-09-03T06:04:43Z</time>
      </trkpt>
      <trkpt lat="41.9186" lon="9.18525">
        <ele>1819.36</ele>
        <time>2018-09-03T06:04:52Z</time>
      </trkpt>
      <trkpt lat="41.9186" lon="9.1852">
        <ele>1821.41</ele>
        <time>2018-09-03T06:05:04Z</time>
      </trkpt>
      <trkpt lat="41.91854" lon="9.18517">
        <ele>1821.35</ele>
        <time>2018-09-03T06:05:20Z</time>
      </trkpt>
      <trkpt lat="41.91846" lon="9.18514">
        <ele>1821.18</ele>
        <time>2018-09-03T06:05:33Z</time>
      </trkpt>
      <trkpt lat="41.91845" lon="9.18514">
        <ele>1818.91</ele>
        <time>2018-09-03T06:05:35Z</time>
      </trkpt>
      <trkpt lat="41.91839" lon="9.18506">
        <ele>1819.04</ele>
        <time>2018-09-03T06:05:49Z</time>
      </trkpt>
      <trkpt lat="41.91841" lon="9.18502">
        <ele>1816.89</ele>
        <time>2018-09-03T06:06:04Z</time>
      </trkpt>
      <trkpt lat="41.91843" lon="9.18497">
        <ele>1814.13</ele>
        <time>2018-09-03T06:06:16Z</time>
      </trkpt>
      <trkpt lat="41.91842" lon="9.18495">
        <ele>1814.11</ele>
        <time>2018-09-03T06:06:19Z</time>
      </trkpt>
      <trkpt lat="41.91836" lon="9.18488">
        <ele>1812.63</ele>
        <time>2018-09-03T06:06:32Z</time>
      </trkpt>
      <trkpt lat="41.91836" lon="9.18485">
        <ele>1811.27</ele>
        <time>2018-09-03T06:06:35Z</time>
      </trkpt>
      <trkpt lat="41.91833" lon="9.18481">
        <ele>1811.27</ele>
        <time>2018-09-03T06:06:39Z</time>
      </trkpt>
      <trkpt lat="41.91826" lon="9.18473">
        <ele>1810.57</ele>
        <time>2018-09-03T06:06:52Z</time>
      </trkpt>
      <trkpt lat="41.91822" lon="9.18471">
        <ele>1810.63</ele>
        <time>2018-09-03T06:06:58Z</time>
      </trkpt>
      <trkpt lat="41.91814" lon="9.18471">
        <ele>1810.64</ele>
        <time>2018-09-03T06:07:11Z</time>
      </trkpt>
      <trkpt lat="41.91808" lon="9.18468">
        <ele>1810.61</ele>
        <time>2018-09-03T06:07:26Z</time>
      </trkpt>
      <trkpt lat="41.91801" lon="9.18469">
        <ele>1809.69</ele>
        <time>2018-09-03T06:07:38Z</time>
      </trkpt>
      <trkpt lat="41.91796" lon="9.18472">
        <ele>1806.91</ele>
        <time>2018-09-03T06:07:50Z</time>
      </trkpt>
      <trkpt lat="41.91789" lon="9.1847">
        <ele>1804.2</ele>
        <time>2018-09-03T06:08:03Z</time>
      </trkpt>
      <trkpt lat="41.91778" lon="9.18463">
        <ele>1802.33</ele>
        <time>2018-09-03T06:08:18Z</time>
      </trkpt>
      <trkpt lat="41.91764" lon="9.18457">
        <ele>1800.74</ele>
        <time>2018-09-03T06:08:35Z</time>
      </trkpt>
      <trkpt lat="41.91753" lon="9.18453">
        <ele>1798.79</ele>
        <time>2018-09-03T06:08:49Z</time>
      </trkpt>
      <trkpt lat="41.91736" lon="9.18448">
        <ele>1797.99</ele>
        <time>2018-09-03T06:09:08Z</time>
      </trkpt>
      <trkpt lat="41.91734" lon="9.18448">
        <ele>1798</ele>
        <time>2018-09-03T06:09:11Z</time>
      </trkpt>
      <trkpt lat="41.91733" lon="9.18448">
        <ele>1798</ele>
        <time>2018-09-03T06:09:12Z</time>
      </trkpt>
      <trkpt lat="41.91732" lon="9.18448">
        <ele>1798</ele>
        <time>2018-09-03T06:09:13Z</time>
      </trkpt>
      <trkpt lat="41.91723" lon="9.18445">
        <ele>1798</ele>
        <time>2018-09-03T06:09:21Z</time>
      </trkpt>
      <trkpt lat="41.91722" lon="9.18446">
        <ele>1798</ele>
        <time>2018-09-03T06:09:22Z</time>
      </trkpt>
      <trkpt lat="41.91721" lon="9.18446">
        <ele>1798</ele>
        <time>2018-09-03T06:09:23Z</time>
      </trkpt>
      <trkpt lat="41.9172" lon="9.18445">
        <ele>1798</ele>
        <time>2018-09-03T06:09:24Z</time>
      </trkpt>
      <trkpt lat="41.91719" lon="9.18446">
        <ele>1798</ele>
        <time>2018-09-03T06:09:25Z</time>
      </trkpt>
      <trkpt lat="41.91717" lon="9.18446">
        <ele>1797.98</ele>
        <time>2018-09-03T06:09:27Z</time>
      </trkpt>
      <trkpt lat="41.91707" lon="9.18448">
        <ele>1797.15</ele>
        <time>2018-09-03T06:09:39Z</time>
      </trkpt>
      <trkpt lat="41.91703" lon="9.18446">
        <ele>1796.25</ele>
        <time>2018-09-03T06:09:43Z</time>
      </trkpt>
      <trkpt lat="41.91701" lon="9.18446">
        <ele>1796.26</ele>
        <time>2018-09-03T06:10:00Z</time>
      </trkpt>
      <trkpt lat="41.91692" lon="9.18441">
        <ele>1795.4</ele>
        <time>2018-09-03T06:10:12Z</time>
      </trkpt>
      <trkpt lat="41.9169" lon="9.18438">
        <ele>1794.14</ele>
        <time>2018-09-03T06:10:15Z</time>
      </trkpt>
      <trkpt lat="41.91689" lon="9.18438">
        <ele>1794.14</ele>
        <time>2018-09-03T06:10:16Z</time>
      </trkpt>
      <trkpt lat="41.91688" lon="9.18437">
        <ele>1794.13</ele>
        <time>2018-09-03T06:10:17Z</time>
      </trkpt>
      <trkpt lat="41.91686" lon="9.18437">
        <ele>1794.13</ele>
        <time>2018-09-03T06:10:18Z</time>
      </trkpt>
      <trkpt lat="41.91685" lon="9.18436">
        <ele>1794.13</ele>
        <time>2018-09-03T06:10:19Z</time>
      </trkpt>
      <trkpt lat="41.91684" lon="9.18435">
        <ele>1794.13</ele>
        <time>2018-09-03T06:10:20Z</time>
      </trkpt>
      <trkpt lat="41.91683" lon="9.18435">
        <ele>1793.25</ele>
        <time>2018-09-03T06:10:21Z</time>
      </trkpt>
      <trkpt lat="41.91668" lon="9.18426">
        <ele>1791.56</ele>
        <time>2018-09-03T06:10:37Z</time>
      </trkpt>
      <trkpt lat="41.9166" lon="9.18421">
        <ele>1790.37</ele>
        <time>2018-09-03T06:10:52Z</time>
      </trkpt>
      <trkpt lat="41.91653" lon="9.1842">
        <ele>1789.34</ele>
        <time>2018-09-03T06:11:03Z</time>
      </trkpt>
      <trkpt lat="41.91645" lon="9.18419">
        <ele>1789.33</ele>
        <time>2018-09-03T06:11:13Z</time>
      </trkpt>
      <trkpt lat="41.91639" lon="9.18416">
        <ele>1788.29</ele>
        <time>2018-09-03T06:11:26Z</time>
      </trkpt>
      <trkpt lat="41.91634" lon="9.18413">
        <ele>1787.4</ele>
        <time>2018-09-03T06:11:40Z</time>
      </trkpt>
      <trkpt lat="41.91629" lon="9.18411">
        <ele>1786.37</ele>
        <time>2018-09-03T06:11:47Z</time>
      </trkpt>
      <trkpt lat="41.91628" lon="9.18411">
        <ele>1786.38</ele>
        <time>2018-09-03T06:11:48Z</time>
      </trkpt>
      <trkpt lat="41.91627" lon="9.1841">
        <ele>1786.38</ele>
        <time>2018-09-03T06:11:49Z</time>
      </trkpt>
      <trkpt lat="41.91626" lon="9.1841">
        <ele>1786.38</ele>
        <time>2018-09-03T06:11:50Z</time>
      </trkpt>
      <trkpt lat="41.91614" lon="9.184">
        <ele>1785.59</ele>
        <time>2018-09-03T06:12:06Z</time>
      </trkpt>
      <trkpt lat="41.91605" lon="9.18395">
        <ele>1785.54</ele>
        <time>2018-09-03T06:12:18Z</time>
      </trkpt>
      <trkpt lat="41.91603" lon="9.18395">
        <ele>1785.51</ele>
        <time>2018-09-03T06:12:22Z</time>
      </trkpt>
      <trkpt lat="41.91602" lon="9.18395">
        <ele>1784.71</ele>
        <time>2018-09-03T06:12:23Z</time>
      </trkpt>
      <trkpt lat="41.91588" lon="9.18386">
        <ele>1784.67</ele>
        <time>2018-09-03T06:12:38Z</time>
      </trkpt>
      <trkpt lat="41.91581" lon="9.18379">
        <ele>1784.73</ele>
        <time>2018-09-03T06:12:53Z</time>
      </trkpt>
      <trkpt lat="41.9158" lon="9.18378">
        <ele>1787.04</ele>
        <time>2018-09-03T06:12:56Z</time>
      </trkpt>
      <trkpt lat="41.91571" lon="9.18369">
        <ele>1788.63</ele>
        <time>2018-09-03T06:13:13Z</time>
      </trkpt>
      <trkpt lat="41.91555" lon="9.18364">
        <ele>1789.29</ele>
        <time>2018-09-03T06:13:30Z</time>
      </trkpt>
      <trkpt lat="41.91549" lon="9.18349">
        <ele>1790.86</ele>
        <time>2018-09-03T06:13:47Z</time>
      </trkpt>
      <trkpt lat="41.91542" lon="9.18336">
        <ele>1791.68</ele>
        <time>2018-09-03T06:14:03Z</time>
      </trkpt>
      <trkpt lat="41.91534" lon="9.18322">
        <ele>1791.66</ele>
        <time>2018-09-03T06:14:19Z</time>
      </trkpt>
      <trkpt lat="41.91533" lon="9.18316">
        <ele>1791.69</ele>
        <time>2018-09-03T06:14:32Z</time>
      </trkpt>
      <trkpt lat="41.91531" lon="9.18307">
        <ele>1793.35</ele>
        <time>2018-09-03T06:14:46Z</time>
      </trkpt>
      <trkpt lat="41.9153" lon="9.18299">
        <ele>1796.14</ele>
        <time>2018-09-03T06:15:01Z</time>
      </trkpt>
      <trkpt lat="41.91529" lon="9.18295">
        <ele>1797.7</ele>
        <time>2018-09-03T06:15:16Z</time>
      </trkpt>
      <trkpt lat="41.91527" lon="9.1829">
        <ele>1800.33</ele>
        <time>2018-09-03T06:15:33Z</time>
      </trkpt>
      <trkpt lat="41.91526" lon="9.18283">
        <ele>1802.36</ele>
        <time>2018-09-03T06:15:53Z</time>
      </trkpt>
      <trkpt lat="41.91524" lon="9.18281">
        <ele>1803.09</ele>
        <time>2018-09-03T06:16:09Z</time>
      </trkpt>
      <trkpt lat="41.91524" lon="9.18273">
        <ele>1800.17</ele>
        <time>2018-09-03T06:16:25Z</time>
      </trkpt>
      <trkpt lat="41.91524" lon="9.18271">
        <ele>1800.17</ele>
        <time>2018-09-03T06:16:26Z</time>
      </trkpt>
      <trkpt lat="41.91519" lon="9.18259">
        <ele>1798.52</ele>
        <time>2018-09-03T06:16:37Z</time>
      </trkpt>
      <trkpt lat="41.91517" lon="9.18257">
        <ele>1798.53</ele>
        <time>2018-09-03T06:16:39Z</time>
      </trkpt>
      <trkpt lat="41.91515" lon="9.18253">
        <ele>1797.73</ele>
        <time>2018-09-03T06:16:45Z</time>
      </trkpt>
      <trkpt lat="41.91514" lon="9.18251">
        <ele>1797.76</ele>
        <time>2018-09-03T06:16:46Z</time>
      </trkpt>
      <trkpt lat="41.91514" lon="9.1825">
        <ele>1797.75</ele>
        <time>2018-09-03T06:16:47Z</time>
      </trkpt>
      <trkpt lat="41.91509" lon="9.18242">
        <ele>1796.33</ele>
        <time>2018-09-03T06:16:56Z</time>
      </trkpt>
      <trkpt lat="41.91505" lon="9.18236">
        <ele>1796.36</ele>
        <time>2018-09-03T06:17:06Z</time>
      </trkpt>
      <trkpt lat="41.91504" lon="9.18235">
        <ele>1796.36</ele>
        <time>2018-09-03T06:17:07Z</time>
      </trkpt>
      <trkpt lat="41.91498" lon="9.18222">
        <ele>1795.6</ele>
        <time>2018-09-03T06:17:23Z</time>
      </trkpt>
      <trkpt lat="41.91495" lon="9.18214">
        <ele>1792.86</ele>
        <time>2018-09-03T06:17:34Z</time>
      </trkpt>
      <trkpt lat="41.91492" lon="9.18209">
        <ele>1792.13</ele>
        <time>2018-09-03T06:17:45Z</time>
      </trkpt>
      <trkpt lat="41.91488" lon="9.18199">
        <ele>1790.34</ele>
        <time>2018-09-03T06:17:59Z</time>
      </trkpt>
      <trkpt lat="41.91482" lon="9.18191">
        <ele>1789.39</ele>
        <time>2018-09-03T06:18:13Z</time>
      </trkpt>
      <trkpt lat="41.91481" lon="9.18184">
        <ele>1787.53</ele>
        <time>2018-09-03T06:18:27Z</time>
      </trkpt>
      <trkpt lat="41.91482" lon="9.18182">
        <ele>1785.85</ele>
        <time>2018-09-03T06:18:40Z</time>
      </trkpt>
      <trkpt lat="41.91482" lon="9.1818">
        <ele>1784.48</ele>
        <time>2018-09-03T06:18:59Z</time>
      </trkpt>
      <trkpt lat="41.91482" lon="9.18177">
        <ele>1784.52</ele>
        <time>2018-09-03T06:19:15Z</time>
      </trkpt>
      <trkpt lat="41.91477" lon="9.18166">
        <ele>1783.54</ele>
        <time>2018-09-03T06:19:28Z</time>
      </trkpt>
      <trkpt lat="41.91477" lon="9.18161">
        <ele>1781.66</ele>
        <time>2018-09-03T06:19:41Z</time>
      </trkpt>
      <trkpt lat="41.91477" lon="9.18156">
        <ele>1780.52</ele>
        <time>2018-09-03T06:19:52Z</time>
      </trkpt>
      <trkpt lat="41.91476" lon="9.18149">
        <ele>1778.52</ele>
        <time>2018-09-03T06:20:08Z</time>
      </trkpt>
      <trkpt lat="41.91472" lon="9.18142">
        <ele>1778.6</ele>
        <time>2018-09-03T06:20:21Z</time>
      </trkpt>
      <trkpt lat="41.91467" lon="9.18134">
        <ele>1776.46</ele>
        <time>2018-09-03T06:20:36Z</time>
      </trkpt>
      <trkpt lat="41.91467" lon="9.18129">
        <ele>1774.33</ele>
        <time>2018-09-03T06:20:50Z</time>
      </trkpt>
      <trkpt lat="41.91465" lon="9.18124">
        <ele>1772.08</ele>
        <time>2018-09-03T06:21:04Z</time>
      </trkpt>
      <trkpt lat="41.91465" lon="9.18124">
        <ele>1772.09</ele>
        <time>2018-09-03T06:21:05Z</time>
      </trkpt>
      <trkpt lat="41.91468" lon="9.18123">
        <ele>1772.11</ele>
        <time>2018-09-03T06:21:11Z</time>
      </trkpt>
      <trkpt lat="41.9147" lon="9.18118">
        <ele>1770.5</ele>
        <time>2018-09-03T06:21:24Z</time>
      </trkpt>
      <trkpt lat="41.91469" lon="9.18115">
        <ele>1769.56</ele>
        <time>2018-09-03T06:21:43Z</time>
      </trkpt>
      <trkpt lat="41.91469" lon="9.1811">
        <ele>1766.71</ele>
        <time>2018-09-03T06:21:58Z</time>
      </trkpt>
      <trkpt lat="41.91465" lon="9.18109">
        <ele>1765.18</ele>
        <time>2018-09-03T06:22:06Z</time>
      </trkpt>
      <trkpt lat="41.91462" lon="9.18105">
        <ele>1764.46</ele>
        <time>2018-09-03T06:22:20Z</time>
      </trkpt>
      <trkpt lat="41.91457" lon="9.18103">
        <ele>1762.86</ele>
        <time>2018-09-03T06:22:34Z</time>
      </trkpt>
      <trkpt lat="41.91457" lon="9.181">
        <ele>1761.2</ele>
        <time>2018-09-03T06:22:48Z</time>
      </trkpt>
      <trkpt lat="41.91452" lon="9.18095">
        <ele>1759.64</ele>
        <time>2018-09-03T06:23:06Z</time>
      </trkpt>
      <trkpt lat="41.91449" lon="9.18092">
        <ele>1758.25</ele>
        <time>2018-09-03T06:23:14Z</time>
      </trkpt>
      <trkpt lat="41.91442" lon="9.18086">
        <ele>1756.71</ele>
        <time>2018-09-03T06:23:29Z</time>
      </trkpt>
      <trkpt lat="41.91439" lon="9.18084">
        <ele>1756.71</ele>
        <time>2018-09-03T06:23:33Z</time>
      </trkpt>
      <trkpt lat="41.9143" lon="9.18075">
        <ele>1756.02</ele>
        <time>2018-09-03T06:23:45Z</time>
      </trkpt>
      <trkpt lat="41.91429" lon="9.18074">
        <ele>1756.03</ele>
        <time>2018-09-03T06:23:47Z</time>
      </trkpt>
      <trkpt lat="41.91428" lon="9.18073">
        <ele>1756.04</ele>
        <time>2018-09-03T06:23:48Z</time>
      </trkpt>
      <trkpt lat="41.91427" lon="9.18072">
        <ele>1756.04</ele>
        <time>2018-09-03T06:23:49Z</time>
      </trkpt>
      <trkpt lat="41.91417" lon="9.18066">
        <ele>1755.31</ele>
        <time>2018-09-03T06:24:03Z</time>
      </trkpt>
      <trkpt lat="41.91407" lon="9.18061">
        <ele>1755.38</ele>
        <time>2018-09-03T06:24:15Z</time>
      </trkpt>
      <trkpt lat="41.91397" lon="9.18054">
        <ele>1755.44</ele>
        <time>2018-09-03T06:24:27Z</time>
      </trkpt>
      <trkpt lat="41.91394" lon="9.18049">
        <ele>1754.53</ele>
        <time>2018-09-03T06:24:33Z</time>
      </trkpt>
      <trkpt lat="41.91393" lon="9.18048">
        <ele>1754.53</ele>
        <time>2018-09-03T06:24:34Z</time>
      </trkpt>
      <trkpt lat="41.91386" lon="9.18043">
        <ele>1753.78</ele>
        <time>2018-09-03T06:24:42Z</time>
      </trkpt>
      <trkpt lat="41.91379" lon="9.18037">
        <ele>1751.38</ele>
        <time>2018-09-03T06:24:52Z</time>
      </trkpt>
      <trkpt lat="41.9137" lon="9.18027">
        <ele>1748.96</ele>
        <time>2018-09-03T06:25:05Z</time>
      </trkpt>
      <trkpt lat="41.91369" lon="9.18027">
        <ele>1748.95</ele>
        <time>2018-09-03T06:25:06Z</time>
      </trkpt>
      <trkpt lat="41.91365" lon="9.18026">
        <ele>1747.96</ele>
        <time>2018-09-03T06:25:10Z</time>
      </trkpt>
      <trkpt lat="41.91362" lon="9.18024">
        <ele>1747.98</ele>
        <time>2018-09-03T06:25:13Z</time>
      </trkpt>
      <trkpt lat="41.91354" lon="9.18021">
        <ele>1746.27</ele>
        <time>2018-09-03T06:25:22Z</time>
      </trkpt>
      <trkpt lat="41.91352" lon="9.1802">
        <ele>1746.28</ele>
        <time>2018-09-03T06:25:24Z</time>
      </trkpt>
      <trkpt lat="41.9135" lon="9.1802">
        <ele>1746.28</ele>
        <time>2018-09-03T06:25:25Z</time>
      </trkpt>
      <trkpt lat="41.91349" lon="9.1802">
        <ele>1746.29</ele>
        <time>2018-09-03T06:25:26Z</time>
      </trkpt>
      <trkpt lat="41.91348" lon="9.18019">
        <ele>1746.28</ele>
        <time>2018-09-03T06:25:27Z</time>
      </trkpt>
      <trkpt lat="41.91347" lon="9.18019">
        <ele>1745.5</ele>
        <time>2018-09-03T06:25:28Z</time>
      </trkpt>
      <trkpt lat="41.91346" lon="9.18019">
        <ele>1745.5</ele>
        <time>2018-09-03T06:25:29Z</time>
      </trkpt>
      <trkpt lat="41.91337" lon="9.18018">
        <ele>1744.61</ele>
        <time>2018-09-03T06:25:42Z</time>
      </trkpt>
      <trkpt lat="41.91331" lon="9.18013">
        <ele>1741.65</ele>
        <time>2018-09-03T06:25:54Z</time>
      </trkpt>
      <trkpt lat="41.91324" lon="9.18003">
        <ele>1738.92</ele>
        <time>2018-09-03T06:26:08Z</time>
      </trkpt>
      <trkpt lat="41.91322" lon="9.18002">
        <ele>1738.93</ele>
        <time>2018-09-03T06:26:11Z</time>
      </trkpt>
      <trkpt lat="41.91311" lon="9.17999">
        <ele>1738.05</ele>
        <time>2018-09-03T06:26:25Z</time>
      </trkpt>
      <trkpt lat="41.91312" lon="9.17999">
        <ele>1738.26</ele>
        <time>2018-09-03T06:26:49Z</time>
      </trkpt>
      <trkpt lat="41.9131" lon="9.17997">
        <ele>1737.5</ele>
        <time>2018-09-03T06:27:11Z</time>
      </trkpt>
      <trkpt lat="41.91308" lon="9.17987">
        <ele>1735.53</ele>
        <time>2018-09-03T06:27:24Z</time>
      </trkpt>
      <trkpt lat="41.91305" lon="9.17984">
        <ele>1735.55</ele>
        <time>2018-09-03T06:27:28Z</time>
      </trkpt>
      <trkpt lat="41.91304" lon="9.17983">
        <ele>1735.55</ele>
        <time>2018-09-03T06:27:29Z</time>
      </trkpt>
      <trkpt lat="41.91303" lon="9.17982">
        <ele>1735.56</ele>
        <time>2018-09-03T06:27:31Z</time>
      </trkpt>
      <trkpt lat="41.91301" lon="9.17983">
        <ele>1734.83</ele>
        <time>2018-09-03T06:27:47Z</time>
      </trkpt>
      <trkpt lat="41.91301" lon="9.17983">
        <ele>1734.92</ele>
        <time>2018-09-03T06:28:03Z</time>
      </trkpt>
      <trkpt lat="41.91301" lon="9.17982">
        <ele>1735.02</ele>
        <time>2018-09-03T06:28:21Z</time>
      </trkpt>
      <trkpt lat="41.913" lon="9.17982">
        <ele>1735.1</ele>
        <time>2018-09-03T06:28:38Z</time>
      </trkpt>
      <trkpt lat="41.91299" lon="9.1798">
        <ele>1734.4</ele>
        <time>2018-09-03T06:28:57Z</time>
      </trkpt>
      <trkpt lat="41.91299" lon="9.1798">
        <ele>1734.55</ele>
        <time>2018-09-03T06:29:28Z</time>
      </trkpt>
      <trkpt lat="41.91295" lon="9.17973">
        <ele>1734.58</ele>
        <time>2018-09-03T06:29:43Z</time>
      </trkpt>
      <trkpt lat="41.91293" lon="9.17966">
        <ele>1733.83</ele>
        <time>2018-09-03T06:29:57Z</time>
      </trkpt>
      <trkpt lat="41.9129" lon="9.17964">
        <ele>1732.6</ele>
        <time>2018-09-03T06:30:01Z</time>
      </trkpt>
      <trkpt lat="41.91284" lon="9.17966">
        <ele>1732.77</ele>
        <time>2018-09-03T06:30:17Z</time>
      </trkpt>
      <trkpt lat="41.91275" lon="9.17965">
        <ele>1732</ele>
        <time>2018-09-03T06:30:31Z</time>
      </trkpt>
      <trkpt lat="41.91266" lon="9.17968">
        <ele>1731.07</ele>
        <time>2018-09-03T06:30:47Z</time>
      </trkpt>
      <trkpt lat="41.91258" lon="9.17962">
        <ele>1729.31</ele>
        <time>2018-09-03T06:31:02Z</time>
      </trkpt>
      <trkpt lat="41.91259" lon="9.17952">
        <ele>1727.49</ele>
        <time>2018-09-03T06:31:19Z</time>
      </trkpt>
      <trkpt lat="41.91257" lon="9.17944">
        <ele>1725.98</ele>
        <time>2018-09-03T06:31:35Z</time>
      </trkpt>
      <trkpt lat="41.91254" lon="9.1794">
        <ele>1725.13</ele>
        <time>2018-09-03T06:31:51Z</time>
      </trkpt>
      <trkpt lat="41.91253" lon="9.17937">
        <ele>1724.5</ele>
        <time>2018-09-03T06:32:07Z</time>
      </trkpt>
      <trkpt lat="41.9125" lon="9.17931">
        <ele>1722.42</ele>
        <time>2018-09-03T06:32:22Z</time>
      </trkpt>
      <trkpt lat="41.91245" lon="9.17925">
        <ele>1720.52</ele>
        <time>2018-09-03T06:32:40Z</time>
      </trkpt>
      <trkpt lat="41.91245" lon="9.17918">
        <ele>1718.89</ele>
        <time>2018-09-03T06:32:53Z</time>
      </trkpt>
      <trkpt lat="41.91245" lon="9.1791">
        <ele>1716.99</ele>
        <time>2018-09-03T06:33:07Z</time>
      </trkpt>
      <trkpt lat="41.91242" lon="9.17903">
        <ele>1715.31</ele>
        <time>2018-09-03T06:33:21Z</time>
      </trkpt>
      <trkpt lat="41.91234" lon="9.179">
        <ele>1712.37</ele>
        <time>2018-09-03T06:33:36Z</time>
      </trkpt>
      <trkpt lat="41.91226" lon="9.17896">
        <ele>1711.62</ele>
        <time>2018-09-03T06:33:53Z</time>
      </trkpt>
      <trkpt lat="41.91223" lon="9.17896">
        <ele>1709.39</ele>
        <time>2018-09-03T06:34:00Z</time>
      </trkpt>
      <trkpt lat="41.9122" lon="9.17894">
        <ele>1708.2</ele>
        <time>2018-09-03T06:34:09Z</time>
      </trkpt>
      <trkpt lat="41.91212" lon="9.1789">
        <ele>1706.42</ele>
        <time>2018-09-03T06:34:24Z</time>
      </trkpt>
      <trkpt lat="41.91213" lon="9.1788">
        <ele>1703.73</ele>
        <time>2018-09-03T06:34:39Z</time>
      </trkpt>
      <trkpt lat="41.91207" lon="9.17878">
        <ele>1701.62</ele>
        <time>2018-09-03T06:34:48Z</time>
      </trkpt>
      <trkpt lat="41.91203" lon="9.17875">
        <ele>1700.82</ele>
        <time>2018-09-03T06:34:53Z</time>
      </trkpt>
      <trkpt lat="41.91193" lon="9.17869">
        <ele>1698.14</ele>
        <time>2018-09-03T06:35:07Z</time>
      </trkpt>
      <trkpt lat="41.91192" lon="9.17858">
        <ele>1696.17</ele>
        <time>2018-09-03T06:35:20Z</time>
      </trkpt>
      <trkpt lat="41.91188" lon="9.17858">
        <ele>1695.39</ele>
        <time>2018-09-03T06:35:24Z</time>
      </trkpt>
      <trkpt lat="41.91172" lon="9.17852">
        <ele>1693.61</ele>
        <time>2018-09-03T06:35:40Z</time>
      </trkpt>
      <trkpt lat="41.91168" lon="9.17845">
        <ele>1692.83</ele>
        <time>2018-09-03T06:35:47Z</time>
      </trkpt>
      <trkpt lat="41.91163" lon="9.17839">
        <ele>1691.55</ele>
        <time>2018-09-03T06:35:54Z</time>
      </trkpt>
      <trkpt lat="41.9115" lon="9.17827">
        <ele>1691.7</ele>
        <time>2018-09-03T06:36:07Z</time>
      </trkpt>
      <trkpt lat="41.91149" lon="9.17826">
        <ele>1691.67</ele>
        <time>2018-09-03T06:36:08Z</time>
      </trkpt>
      <trkpt lat="41.91148" lon="9.17826">
        <ele>1691.69</ele>
        <time>2018-09-03T06:36:09Z</time>
      </trkpt>
      <trkpt lat="41.91141" lon="9.17819">
        <ele>1690.88</ele>
        <time>2018-09-03T06:36:17Z</time>
      </trkpt>
      <trkpt lat="41.9114" lon="9.17818">
        <ele>1690.88</ele>
        <time>2018-09-03T06:36:18Z</time>
      </trkpt>
      <trkpt lat="41.91138" lon="9.17818">
        <ele>1690.88</ele>
        <time>2018-09-03T06:36:19Z</time>
      </trkpt>
      <trkpt lat="41.91137" lon="9.17818">
        <ele>1690.87</ele>
        <time>2018-09-03T06:36:20Z</time>
      </trkpt>
      <trkpt lat="41.91127" lon="9.17815">
        <ele>1689.73</ele>
        <time>2018-09-03T06:36:31Z</time>
      </trkpt>
      <trkpt lat="41.91124" lon="9.17816">
        <ele>1689.74</ele>
        <time>2018-09-03T06:36:34Z</time>
      </trkpt>
      <trkpt lat="41.91123" lon="9.17816">
        <ele>1689.75</ele>
        <time>2018-09-03T06:36:35Z</time>
      </trkpt>
      <trkpt lat="41.91122" lon="9.17816">
        <ele>1689.73</ele>
        <time>2018-09-03T06:36:36Z</time>
      </trkpt>
      <trkpt lat="41.91121" lon="9.17815">
        <ele>1689.72</ele>
        <time>2018-09-03T06:36:37Z</time>
      </trkpt>
      <trkpt lat="41.9112" lon="9.17814">
        <ele>1689.75</ele>
        <time>2018-09-03T06:36:38Z</time>
      </trkpt>
      <trkpt lat="41.91119" lon="9.17813">
        <ele>1688.99</ele>
        <time>2018-09-03T06:36:39Z</time>
      </trkpt>
      <trkpt lat="41.91119" lon="9.17812">
        <ele>1689</ele>
        <time>2018-09-03T06:36:40Z</time>
      </trkpt>
      <trkpt lat="41.91118" lon="9.17811">
        <ele>1688.97</ele>
        <time>2018-09-03T06:36:41Z</time>
      </trkpt>
      <trkpt lat="41.91104" lon="9.17794">
        <ele>1689.03</ele>
        <time>2018-09-03T06:36:57Z</time>
      </trkpt>
      <trkpt lat="41.91089" lon="9.1778">
        <ele>1688.13</ele>
        <time>2018-09-03T06:37:14Z</time>
      </trkpt>
      <trkpt lat="41.91078" lon="9.17762">
        <ele>1688.15</ele>
        <time>2018-09-03T06:37:32Z</time>
      </trkpt>
      <trkpt lat="41.91075" lon="9.17756">
        <ele>1688.12</ele>
        <time>2018-09-03T06:37:37Z</time>
      </trkpt>
      <trkpt lat="41.91074" lon="9.17755">
        <ele>1688.15</ele>
        <time>2018-09-03T06:37:38Z</time>
      </trkpt>
      <trkpt lat="41.91074" lon="9.17753">
        <ele>1688.14</ele>
        <time>2018-09-03T06:37:39Z</time>
      </trkpt>
      <trkpt lat="41.91073" lon="9.17752">
        <ele>1688.12</ele>
        <time>2018-09-03T06:37:40Z</time>
      </trkpt>
      <trkpt lat="41.91073" lon="9.1775">
        <ele>1688.11</ele>
        <time>2018-09-03T06:37:41Z</time>
      </trkpt>
      <trkpt lat="41.91072" lon="9.17749">
        <ele>1688.11</ele>
        <time>2018-09-03T06:37:42Z</time>
      </trkpt>
      <trkpt lat="41.9107" lon="9.17737">
        <ele>1688.15</ele>
        <time>2018-09-03T06:37:50Z</time>
      </trkpt>
      <trkpt lat="41.91069" lon="9.17728">
        <ele>1688.13</ele>
        <time>2018-09-03T06:37:57Z</time>
      </trkpt>
      <trkpt lat="41.91069" lon="9.17726">
        <ele>1688.11</ele>
        <time>2018-09-03T06:37:58Z</time>
      </trkpt>
      <trkpt lat="41.91068" lon="9.17711">
        <ele>1687.29</ele>
        <time>2018-09-03T06:38:10Z</time>
      </trkpt>
      <trkpt lat="41.91069" lon="9.17705">
        <ele>1687.32</ele>
        <time>2018-09-03T06:38:26Z</time>
      </trkpt>
      <trkpt lat="41.91071" lon="9.17697">
        <ele>1687.26</ele>
        <time>2018-09-03T06:38:42Z</time>
      </trkpt>
      <trkpt lat="41.91073" lon="9.17695">
        <ele>1685.97</ele>
        <time>2018-09-03T06:38:44Z</time>
      </trkpt>
      <trkpt lat="41.91074" lon="9.17687">
        <ele>1685.94</ele>
        <time>2018-09-03T06:38:55Z</time>
      </trkpt>
      <trkpt lat="41.91075" lon="9.17684">
        <ele>1685.06</ele>
        <time>2018-09-03T06:38:57Z</time>
      </trkpt>
      <trkpt lat="41.91075" lon="9.17683">
        <ele>1685.04</ele>
        <time>2018-09-03T06:38:58Z</time>
      </trkpt>
      <trkpt lat="41.91082" lon="9.17652">
        <ele>1683.2</ele>
        <time>2018-09-03T06:39:18Z</time>
      </trkpt>
      <trkpt lat="41.91083" lon="9.17637">
        <ele>1682.32</ele>
        <time>2018-09-03T06:39:30Z</time>
      </trkpt>
      <trkpt lat="41.91081" lon="9.17623">
        <ele>1678.99</ele>
        <time>2018-09-03T06:39:45Z</time>
      </trkpt>
      <trkpt lat="41.91077" lon="9.17605">
        <ele>1677.27</ele>
        <time>2018-09-03T06:40:03Z</time>
      </trkpt>
      <trkpt lat="41.91069" lon="9.17598">
        <ele>1674.68</ele>
        <time>2018-09-03T06:40:17Z</time>
      </trkpt>
      <trkpt lat="41.91069" lon="9.17596">
        <ele>1673.89</ele>
        <time>2018-09-03T06:40:18Z</time>
      </trkpt>
      <trkpt lat="41.91061" lon="9.17586">
        <ele>1669.73</ele>
        <time>2018-09-03T06:40:32Z</time>
      </trkpt>
      <trkpt lat="41.91061" lon="9.17585">
        <ele>1669.72</ele>
        <time>2018-09-03T06:40:33Z</time>
      </trkpt>
      <trkpt lat="41.91054" lon="9.17573">
        <ele>1666.59</ele>
        <time>2018-09-03T06:40:47Z</time>
      </trkpt>
      <trkpt lat="41.91052" lon="9.17568">
        <ele>1665.58</ele>
        <time>2018-09-03T06:40:53Z</time>
      </trkpt>
      <trkpt lat="41.91051" lon="9.17566">
        <ele>1665.55</ele>
        <time>2018-09-03T06:40:54Z</time>
      </trkpt>
      <trkpt lat="41.9105" lon="9.17565">
        <ele>1664.71</ele>
        <time>2018-09-03T06:40:56Z</time>
      </trkpt>
      <trkpt lat="41.91036" lon="9.17566">
        <ele>1661.73</ele>
        <time>2018-09-03T06:41:11Z</time>
      </trkpt>
      <trkpt lat="41.91022" lon="9.17563">
        <ele>1658.98</ele>
        <time>2018-09-03T06:41:26Z</time>
      </trkpt>
      <trkpt lat="41.9101" lon="9.17564">
        <ele>1656.48</ele>
        <time>2018-09-03T06:41:39Z</time>
      </trkpt>
      <trkpt lat="41.91007" lon="9.17566">
        <ele>1656.5</ele>
        <time>2018-09-03T06:41:42Z</time>
      </trkpt>
      <trkpt lat="41.91006" lon="9.17567">
        <ele>1655.62</ele>
        <time>2018-09-03T06:41:43Z</time>
      </trkpt>
      <trkpt lat="41.91004" lon="9.1757">
        <ele>1655.68</ele>
        <time>2018-09-03T06:41:46Z</time>
      </trkpt>
      <trkpt lat="41.91001" lon="9.17579">
        <ele>1654.7</ele>
        <time>2018-09-03T06:42:02Z</time>
      </trkpt>
      <trkpt lat="41.91" lon="9.17583">
        <ele>1654.79</ele>
        <time>2018-09-03T06:42:24Z</time>
      </trkpt>
      <trkpt lat="41.91005" lon="9.17595">
        <ele>1654.79</ele>
        <time>2018-09-03T06:42:38Z</time>
      </trkpt>
      <trkpt lat="41.91004" lon="9.17604">
        <ele>1654.87</ele>
        <time>2018-09-03T06:42:54Z</time>
      </trkpt>
      <trkpt lat="41.91" lon="9.17603">
        <ele>1654.86</ele>
        <time>2018-09-03T06:43:07Z</time>
      </trkpt>
      <trkpt lat="41.90994" lon="9.17609">
        <ele>1653.59</ele>
        <time>2018-09-03T06:43:20Z</time>
      </trkpt>
      <trkpt lat="41.90987" lon="9.17613">
        <ele>1653.75</ele>
        <time>2018-09-03T06:43:38Z</time>
      </trkpt>
      <trkpt lat="41.90983" lon="9.17613">
        <ele>1653.75</ele>
        <time>2018-09-03T06:43:53Z</time>
      </trkpt>
      <trkpt lat="41.90979" lon="9.17615">
        <ele>1653.85</ele>
        <time>2018-09-03T06:44:08Z</time>
      </trkpt>
      <trkpt lat="41.90975" lon="9.17618">
        <ele>1653.96</ele>
        <time>2018-09-03T06:44:26Z</time>
      </trkpt>
      <trkpt lat="41.90974" lon="9.17619">
        <ele>1654.03</ele>
        <time>2018-09-03T06:44:41Z</time>
      </trkpt>
      <trkpt lat="41.90973" lon="9.1762">
        <ele>1656.65</ele>
        <time>2018-09-03T06:45:03Z</time>
      </trkpt>
      <trkpt lat="41.90963" lon="9.17615">
        <ele>1656.67</ele>
        <time>2018-09-03T06:45:20Z</time>
      </trkpt>
      <trkpt lat="41.90962" lon="9.17614">
        <ele>1654.01</ele>
        <time>2018-09-03T06:45:24Z</time>
      </trkpt>
      <trkpt lat="41.9096" lon="9.17609">
        <ele>1654.11</ele>
        <time>2018-09-03T06:45:39Z</time>
      </trkpt>
      <trkpt lat="41.90952" lon="9.17605">
        <ele>1652.36</ele>
        <time>2018-09-03T06:45:56Z</time>
      </trkpt>
      <trkpt lat="41.90942" lon="9.17604">
        <ele>1650.27</ele>
        <time>2018-09-03T06:46:09Z</time>
      </trkpt>
      <trkpt lat="41.9094" lon="9.17605">
        <ele>1650.25</ele>
        <time>2018-09-03T06:46:11Z</time>
      </trkpt>
      <trkpt lat="41.90927" lon="9.17611">
        <ele>1650.43</ele>
        <time>2018-09-03T06:46:26Z</time>
      </trkpt>
      <trkpt lat="41.90923" lon="9.17615">
        <ele>1650.47</ele>
        <time>2018-09-03T06:46:29Z</time>
      </trkpt>
      <trkpt lat="41.90909" lon="9.17629">
        <ele>1649.76</ele>
        <time>2018-09-03T06:46:44Z</time>
      </trkpt>
      <trkpt lat="41.90906" lon="9.17624">
        <ele>1649.83</ele>
        <time>2018-09-03T06:46:53Z</time>
      </trkpt>
      <trkpt lat="41.90895" lon="9.17619">
        <ele>1648.92</ele>
        <time>2018-09-03T06:47:05Z</time>
      </trkpt>
      <trkpt lat="41.90889" lon="9.1762">
        <ele>1647.66</ele>
        <time>2018-09-03T06:47:10Z</time>
      </trkpt>
      <trkpt lat="41.90881" lon="9.17618">
        <ele>1646.72</ele>
        <time>2018-09-03T06:47:18Z</time>
      </trkpt>
      <trkpt lat="41.90871" lon="9.17625">
        <ele>1643.19</ele>
        <time>2018-09-03T06:47:30Z</time>
      </trkpt>
      <trkpt lat="41.90864" lon="9.17632">
        <ele>1641.2</ele>
        <time>2018-09-03T06:47:41Z</time>
      </trkpt>
      <trkpt lat="41.90857" lon="9.17648">
        <ele>1637.41</ele>
        <time>2018-09-03T06:47:56Z</time>
      </trkpt>
      <trkpt lat="41.90854" lon="9.17664">
        <ele>1637.45</ele>
        <time>2018-09-03T06:48:09Z</time>
      </trkpt>
      <trkpt lat="41.90853" lon="9.17667">
        <ele>1635.85</ele>
        <time>2018-09-03T06:48:13Z</time>
      </trkpt>
      <trkpt lat="41.90852" lon="9.17678">
        <ele>1635.05</ele>
        <time>2018-09-03T06:48:28Z</time>
      </trkpt>
      <trkpt lat="41.90851" lon="9.17688">
        <ele>1633.25</ele>
        <time>2018-09-03T06:48:41Z</time>
      </trkpt>
      <trkpt lat="41.90852" lon="9.17697">
        <ele>1631.21</ele>
        <time>2018-09-03T06:49:01Z</time>
      </trkpt>
      <trkpt lat="41.9085" lon="9.17708">
        <ele>1628.69</ele>
        <time>2018-09-03T06:49:15Z</time>
      </trkpt>
      <trkpt lat="41.90846" lon="9.17709">
        <ele>1626.15</ele>
        <time>2018-09-03T06:49:22Z</time>
      </trkpt>
      <trkpt lat="41.90845" lon="9.17709">
        <ele>1626.15</ele>
        <time>2018-09-03T06:49:23Z</time>
      </trkpt>
      <trkpt lat="41.9084" lon="9.17724">
        <ele>1623.78</ele>
        <time>2018-09-03T06:49:37Z</time>
      </trkpt>
      <trkpt lat="41.90838" lon="9.17731">
        <ele>1620.91</ele>
        <time>2018-09-03T06:49:46Z</time>
      </trkpt>
      <trkpt lat="41.90834" lon="9.17742">
        <ele>1617.86</ele>
        <time>2018-09-03T06:49:57Z</time>
      </trkpt>
      <trkpt lat="41.90833" lon="9.17744">
        <ele>1616.97</ele>
        <time>2018-09-03T06:49:59Z</time>
      </trkpt>
      <trkpt lat="41.90833" lon="9.17745">
        <ele>1616.96</ele>
        <time>2018-09-03T06:50:00Z</time>
      </trkpt>
      <trkpt lat="41.90831" lon="9.1775">
        <ele>1616.16</ele>
        <time>2018-09-03T06:50:04Z</time>
      </trkpt>
      <trkpt lat="41.90827" lon="9.1776">
        <ele>1614.45</ele>
        <time>2018-09-03T06:50:16Z</time>
      </trkpt>
      <trkpt lat="41.90826" lon="9.17762">
        <ele>1614.46</ele>
        <time>2018-09-03T06:50:18Z</time>
      </trkpt>
      <trkpt lat="41.90824" lon="9.17758">
        <ele>1612.42</ele>
        <time>2018-09-03T06:50:29Z</time>
      </trkpt>
      <trkpt lat="41.90819" lon="9.17754">
        <ele>1611.13</ele>
        <time>2018-09-03T06:50:36Z</time>
      </trkpt>
      <trkpt lat="41.90815" lon="9.17753">
        <ele>1609.74</ele>
        <time>2018-09-03T06:50:45Z</time>
      </trkpt>
      <trkpt lat="41.90811" lon="9.17755">
        <ele>1609.8</ele>
        <time>2018-09-03T06:50:52Z</time>
      </trkpt>
      <trkpt lat="41.90806" lon="9.17758">
        <ele>1607.76</ele>
        <time>2018-09-03T06:51:05Z</time>
      </trkpt>
      <trkpt lat="41.90801" lon="9.17753">
        <ele>1605.99</ele>
        <time>2018-09-03T06:51:20Z</time>
      </trkpt>
      <trkpt lat="41.90801" lon="9.17752">
        <ele>1606</ele>
        <time>2018-09-03T06:51:21Z</time>
      </trkpt>
      <trkpt lat="41.90789" lon="9.17741">
        <ele>1604.97</ele>
        <time>2018-09-03T06:51:35Z</time>
      </trkpt>
      <trkpt lat="41.90777" lon="9.17737">
        <ele>1601.9</ele>
        <time>2018-09-03T06:51:47Z</time>
      </trkpt>
      <trkpt lat="41.90766" lon="9.17735">
        <ele>1600.12</ele>
        <time>2018-09-03T06:52:01Z</time>
      </trkpt>
      <trkpt lat="41.9076" lon="9.17733">
        <ele>1598.56</ele>
        <time>2018-09-03T06:52:09Z</time>
      </trkpt>
      <trkpt lat="41.90753" lon="9.17732">
        <ele>1598.55</ele>
        <time>2018-09-03T06:52:15Z</time>
      </trkpt>
      <trkpt lat="41.90749" lon="9.17731">
        <ele>1596.69</ele>
        <time>2018-09-03T06:52:18Z</time>
      </trkpt>
      <trkpt lat="41.90742" lon="9.17729">
        <ele>1595.84</ele>
        <time>2018-09-03T06:52:32Z</time>
      </trkpt>
      <trkpt lat="41.90734" lon="9.1772">
        <ele>1594.04</ele>
        <time>2018-09-03T06:52:48Z</time>
      </trkpt>
      <trkpt lat="41.90724" lon="9.17713">
        <ele>1592.06</ele>
        <time>2018-09-03T06:53:04Z</time>
      </trkpt>
      <trkpt lat="41.90723" lon="9.17712">
        <ele>1592.06</ele>
        <time>2018-09-03T06:53:05Z</time>
      </trkpt>
      <trkpt lat="41.9072" lon="9.1771">
        <ele>1592.06</ele>
        <time>2018-09-03T06:53:09Z</time>
      </trkpt>
      <trkpt lat="41.90709" lon="9.17708">
        <ele>1591.22</ele>
        <time>2018-09-03T06:53:21Z</time>
      </trkpt>
      <trkpt lat="41.90701" lon="9.17704">
        <ele>1589.79</ele>
        <time>2018-09-03T06:53:30Z</time>
      </trkpt>
      <trkpt lat="41.90689" lon="9.17708">
        <ele>1588.09</ele>
        <time>2018-09-03T06:53:44Z</time>
      </trkpt>
      <trkpt lat="41.90678" lon="9.17705">
        <ele>1587.31</ele>
        <time>2018-09-03T06:53:56Z</time>
      </trkpt>
      <trkpt lat="41.90677" lon="9.17704">
        <ele>1587.29</ele>
        <time>2018-09-03T06:53:57Z</time>
      </trkpt>
      <trkpt lat="41.90665" lon="9.17706">
        <ele>1586.43</ele>
        <time>2018-09-03T06:54:09Z</time>
      </trkpt>
      <trkpt lat="41.90661" lon="9.17701">
        <ele>1585.62</ele>
        <time>2018-09-03T06:54:16Z</time>
      </trkpt>
      <trkpt lat="41.90651" lon="9.17693">
        <ele>1584.68</ele>
        <time>2018-09-03T06:54:31Z</time>
      </trkpt>
      <trkpt lat="41.90649" lon="9.17693">
        <ele>1583.86</ele>
        <time>2018-09-03T06:54:33Z</time>
      </trkpt>
      <trkpt lat="41.90642" lon="9.17689">
        <ele>1583.82</ele>
        <time>2018-09-03T06:54:41Z</time>
      </trkpt>
      <trkpt lat="41.90625" lon="9.17687">
        <ele>1582.02</ele>
        <time>2018-09-03T06:54:56Z</time>
      </trkpt>
      <trkpt lat="41.90621" lon="9.17688">
        <ele>1581.15</ele>
        <time>2018-09-03T06:55:01Z</time>
      </trkpt>
      <trkpt lat="41.9061" lon="9.17694">
        <ele>1580.26</ele>
        <time>2018-09-03T06:55:12Z</time>
      </trkpt>
      <trkpt lat="41.90603" lon="9.17698">
        <ele>1580.25</ele>
        <time>2018-09-03T06:55:18Z</time>
      </trkpt>
      <trkpt lat="41.90597" lon="9.177">
        <ele>1579.49</ele>
        <time>2018-09-03T06:55:26Z</time>
      </trkpt>
      <trkpt lat="41.90594" lon="9.17699">
        <ele>1579.47</ele>
        <time>2018-09-03T06:55:29Z</time>
      </trkpt>
      <trkpt lat="41.90575" lon="9.17689">
        <ele>1578.62</ele>
        <time>2018-09-03T06:55:48Z</time>
      </trkpt>
      <trkpt lat="41.90577" lon="9.17686">
        <ele>1577.78</ele>
        <time>2018-09-03T06:56:01Z</time>
      </trkpt>
      <trkpt lat="41.90577" lon="9.17675">
        <ele>1576.96</ele>
        <time>2018-09-03T06:56:15Z</time>
      </trkpt>
      <trkpt lat="41.90576" lon="9.17674">
        <ele>1576.91</ele>
        <time>2018-09-03T06:56:34Z</time>
      </trkpt>
      <trkpt lat="41.90576" lon="9.17675">
        <ele>1576.86</ele>
        <time>2018-09-03T06:56:49Z</time>
      </trkpt>
      <trkpt lat="41.90576" lon="9.17672">
        <ele>1576.85</ele>
        <time>2018-09-03T06:56:54Z</time>
      </trkpt>
      <trkpt lat="41.9057" lon="9.17661">
        <ele>1575.2</ele>
        <time>2018-09-03T06:57:04Z</time>
      </trkpt>
      <trkpt lat="41.90566" lon="9.17653">
        <ele>1574.29</ele>
        <time>2018-09-03T06:57:12Z</time>
      </trkpt>
      <trkpt lat="41.9056" lon="9.17649">
        <ele>1573.39</ele>
        <time>2018-09-03T06:57:28Z</time>
      </trkpt>
      <trkpt lat="41.90556" lon="9.17648">
        <ele>1573.37</ele>
        <time>2018-09-03T06:57:34Z</time>
      </trkpt>
      <trkpt lat="41.90552" lon="9.17632">
        <ele>1572.33</ele>
        <time>2018-09-03T06:57:49Z</time>
      </trkpt>
      <trkpt lat="41.90548" lon="9.17619">
        <ele>1570.54</ele>
        <time>2018-09-03T06:58:03Z</time>
      </trkpt>
      <trkpt lat="41.90548" lon="9.17604">
        <ele>1569.42</ele>
        <time>2018-09-03T06:58:17Z</time>
      </trkpt>
      <trkpt lat="41.90548" lon="9.17601">
        <ele>1568.35</ele>
        <time>2018-09-03T06:58:20Z</time>
      </trkpt>
      <trkpt lat="41.90541" lon="9.1759">
        <ele>1567.37</ele>
        <time>2018-09-03T06:58:34Z</time>
      </trkpt>
      <trkpt lat="41.90539" lon="9.17579">
        <ele>1566.55</ele>
        <time>2018-09-03T06:58:50Z</time>
      </trkpt>
      <trkpt lat="41.90534" lon="9.17568">
        <ele>1564.77</ele>
        <time>2018-09-03T06:59:05Z</time>
      </trkpt>
      <trkpt lat="41.90533" lon="9.17562">
        <ele>1563.64</ele>
        <time>2018-09-03T06:59:21Z</time>
      </trkpt>
      <trkpt lat="41.90529" lon="9.17553">
        <ele>1561.98</ele>
        <time>2018-09-03T06:59:37Z</time>
      </trkpt>
      <trkpt lat="41.90528" lon="9.17537">
        <ele>1560.88</ele>
        <time>2018-09-03T06:59:55Z</time>
      </trkpt>
      <trkpt lat="41.90524" lon="9.17528">
        <ele>1558.9</ele>
        <time>2018-09-03T07:00:12Z</time>
      </trkpt>
      <trkpt lat="41.90528" lon="9.17514">
        <ele>1556.7</ele>
        <time>2018-09-03T07:00:28Z</time>
      </trkpt>
      <trkpt lat="41.90527" lon="9.175">
        <ele>1556.69</ele>
        <time>2018-09-03T07:00:42Z</time>
      </trkpt>
      <trkpt lat="41.90527" lon="9.17494">
        <ele>1554.9</ele>
        <time>2018-09-03T07:00:46Z</time>
      </trkpt>
      <trkpt lat="41.90526" lon="9.1749">
        <ele>1554.9</ele>
        <time>2018-09-03T07:00:49Z</time>
      </trkpt>
      <trkpt lat="41.90523" lon="9.17473">
        <ele>1554.03</ele>
        <time>2018-09-03T07:01:04Z</time>
      </trkpt>
      <trkpt lat="41.9052" lon="9.17459">
        <ele>1551.54</ele>
        <time>2018-09-03T07:01:18Z</time>
      </trkpt>
      <trkpt lat="41.90521" lon="9.17458">
        <ele>1551.55</ele>
        <time>2018-09-03T07:01:19Z</time>
      </trkpt>
      <trkpt lat="41.90519" lon="9.17453">
        <ele>1551.54</ele>
        <time>2018-09-03T07:01:24Z</time>
      </trkpt>
      <trkpt lat="41.90506" lon="9.17441">
        <ele>1550.69</ele>
        <time>2018-09-03T07:01:39Z</time>
      </trkpt>
      <trkpt lat="41.90503" lon="9.17434">
        <ele>1549.05</ele>
        <time>2018-09-03T07:01:53Z</time>
      </trkpt>
      <trkpt lat="41.90497" lon="9.17427">
        <ele>1547.11</ele>
        <time>2018-09-03T07:02:10Z</time>
      </trkpt>
      <trkpt lat="41.90494" lon="9.1742">
        <ele>1545.85</ele>
        <time>2018-09-03T07:02:20Z</time>
      </trkpt>
      <trkpt lat="41.90493" lon="9.17409">
        <ele>1544.88</ele>
        <time>2018-09-03T07:02:34Z</time>
      </trkpt>
      <trkpt lat="41.90491" lon="9.17403">
        <ele>1544.06</ele>
        <time>2018-09-03T07:02:52Z</time>
      </trkpt>
      <trkpt lat="41.90486" lon="9.17404">
        <ele>1543.18</ele>
        <time>2018-09-03T07:03:05Z</time>
      </trkpt>
      <trkpt lat="41.9048" lon="9.17405">
        <ele>1542.36</ele>
        <time>2018-09-03T07:03:12Z</time>
      </trkpt>
      <trkpt lat="41.90471" lon="9.17397">
        <ele>1541.5</ele>
        <time>2018-09-03T07:03:23Z</time>
      </trkpt>
      <trkpt lat="41.90467" lon="9.17391">
        <ele>1540.74</ele>
        <time>2018-09-03T07:03:29Z</time>
      </trkpt>
      <trkpt lat="41.90456" lon="9.17384">
        <ele>1537.76</ele>
        <time>2018-09-03T07:03:45Z</time>
      </trkpt>
      <trkpt lat="41.90447" lon="9.17375">
        <ele>1536.15</ele>
        <time>2018-09-03T07:03:59Z</time>
      </trkpt>
      <trkpt lat="41.90437" lon="9.17367">
        <ele>1535.01</ele>
        <time>2018-09-03T07:04:14Z</time>
      </trkpt>
      <trkpt lat="41.90434" lon="9.17365">
        <ele>1533.56</ele>
        <time>2018-09-03T07:04:17Z</time>
      </trkpt>
      <trkpt lat="41.90424" lon="9.17359">
        <ele>1531.44</ele>
        <time>2018-09-03T07:04:32Z</time>
      </trkpt>
      <trkpt lat="41.90416" lon="9.1735">
        <ele>1528.8</ele>
        <time>2018-09-03T07:04:46Z</time>
      </trkpt>
      <trkpt lat="41.90411" lon="9.1734">
        <ele>1525.52</ele>
        <time>2018-09-03T07:04:59Z</time>
      </trkpt>
      <trkpt lat="41.90411" lon="9.17339">
        <ele>1525.52</ele>
        <time>2018-09-03T07:05:00Z</time>
      </trkpt>
      <trkpt lat="41.90405" lon="9.17324">
        <ele>1523.07</ele>
        <time>2018-09-03T07:05:17Z</time>
      </trkpt>
      <trkpt lat="41.90402" lon="9.17316">
        <ele>1520.8</ele>
        <time>2018-09-03T07:05:26Z</time>
      </trkpt>
      <trkpt lat="41.90396" lon="9.17304">
        <ele>1518.78</ele>
        <time>2018-09-03T07:05:42Z</time>
      </trkpt>
      <trkpt lat="41.90393" lon="9.17295">
        <ele>1516.89</ele>
        <time>2018-09-03T07:05:56Z</time>
      </trkpt>
      <trkpt lat="41.90386" lon="9.17289">
        <ele>1514.94</ele>
        <time>2018-09-03T07:06:09Z</time>
      </trkpt>
      <trkpt lat="41.90383" lon="9.17285">
        <ele>1513.2</ele>
        <time>2018-09-03T07:06:24Z</time>
      </trkpt>
      <trkpt lat="41.90387" lon="9.17278">
        <ele>1511.66</ele>
        <time>2018-09-03T07:06:39Z</time>
      </trkpt>
      <trkpt lat="41.90392" lon="9.17276">
        <ele>1509.39</ele>
        <time>2018-09-03T07:06:55Z</time>
      </trkpt>
      <trkpt lat="41.9039" lon="9.17262">
        <ele>1509.39</ele>
        <time>2018-09-03T07:07:13Z</time>
      </trkpt>
      <trkpt lat="41.90388" lon="9.17245">
        <ele>1509.39</ele>
        <time>2018-09-03T07:07:30Z</time>
      </trkpt>
      <trkpt lat="41.90383" lon="9.17238">
        <ele>1508.54</ele>
        <time>2018-09-03T07:07:49Z</time>
      </trkpt>
      <trkpt lat="41.90373" lon="9.17231">
        <ele>1508.49</ele>
        <time>2018-09-03T07:08:01Z</time>
      </trkpt>
      <trkpt lat="41.90358" lon="9.1722">
        <ele>1507.75</ele>
        <time>2018-09-03T07:08:18Z</time>
      </trkpt>
      <trkpt lat="41.90348" lon="9.17213">
        <ele>1506.99</ele>
        <time>2018-09-03T07:08:28Z</time>
      </trkpt>
      <trkpt lat="41.90344" lon="9.17211">
        <ele>1506.99</ele>
        <time>2018-09-03T07:08:31Z</time>
      </trkpt>
      <trkpt lat="41.90336" lon="9.17201">
        <ele>1507.09</ele>
        <time>2018-09-03T07:08:46Z</time>
      </trkpt>
      <trkpt lat="41.9033" lon="9.17193">
        <ele>1507.06</ele>
        <time>2018-09-03T07:09:01Z</time>
      </trkpt>
      <trkpt lat="41.90322" lon="9.1718">
        <ele>1506.98</ele>
        <time>2018-09-03T07:09:15Z</time>
      </trkpt>
      <trkpt lat="41.90316" lon="9.17175">
        <ele>1505.75</ele>
        <time>2018-09-03T07:09:22Z</time>
      </trkpt>
      <trkpt lat="41.9031" lon="9.1716">
        <ele>1504.83</ele>
        <time>2018-09-03T07:09:38Z</time>
      </trkpt>
      <trkpt lat="41.90309" lon="9.17146">
        <ele>1505.03</ele>
        <time>2018-09-03T07:09:52Z</time>
      </trkpt>
      <trkpt lat="41.90307" lon="9.17136">
        <ele>1507.28</ele>
        <time>2018-09-03T07:10:02Z</time>
      </trkpt>
      <trkpt lat="41.90304" lon="9.17121">
        <ele>1504.82</ele>
        <time>2018-09-03T07:10:16Z</time>
      </trkpt>
      <trkpt lat="41.90299" lon="9.17109">
        <ele>1503.81</ele>
        <time>2018-09-03T07:10:34Z</time>
      </trkpt>
      <trkpt lat="41.90295" lon="9.17107">
        <ele>1503.82</ele>
        <time>2018-09-03T07:10:54Z</time>
      </trkpt>
      <trkpt lat="41.90293" lon="9.17107">
        <ele>1503.8</ele>
        <time>2018-09-03T07:11:32Z</time>
      </trkpt>
      <trkpt lat="41.90294" lon="9.17108">
        <ele>1503.74</ele>
        <time>2018-09-03T07:12:12Z</time>
      </trkpt>
      <trkpt lat="41.90292" lon="9.17108">
        <ele>1503.7</ele>
        <time>2018-09-03T07:12:51Z</time>
      </trkpt>
      <trkpt lat="41.90294" lon="9.17102">
        <ele>1503.52</ele>
        <time>2018-09-03T07:13:21Z</time>
      </trkpt>
      <trkpt lat="41.90293" lon="9.17103">
        <ele>1503.4</ele>
        <time>2018-09-03T07:13:50Z</time>
      </trkpt>
      <trkpt lat="41.90293" lon="9.17103">
        <ele>1503.28</ele>
        <time>2018-09-03T07:14:16Z</time>
      </trkpt>
      <trkpt lat="41.90295" lon="9.17105">
        <ele>1503.18</ele>
        <time>2018-09-03T07:14:41Z</time>
      </trkpt>
      <trkpt lat="41.90296" lon="9.17105">
        <ele>1503.07</ele>
        <time>2018-09-03T07:15:14Z</time>
      </trkpt>
      <trkpt lat="41.90294" lon="9.17107">
        <ele>1502.98</ele>
        <time>2018-09-03T07:15:42Z</time>
      </trkpt>
      <trkpt lat="41.90295" lon="9.17106">
        <ele>1502.86</ele>
        <time>2018-09-03T07:16:17Z</time>
      </trkpt>
      <trkpt lat="41.90295" lon="9.17092">
        <ele>1502.77</ele>
        <time>2018-09-03T07:16:41Z</time>
      </trkpt>
      <trkpt lat="41.9029" lon="9.17078">
        <ele>1500.66</ele>
        <time>2018-09-03T07:16:57Z</time>
      </trkpt>
      <trkpt lat="41.9028" lon="9.17067">
        <ele>1497.72</ele>
        <time>2018-09-03T07:17:12Z</time>
      </trkpt>
      <trkpt lat="41.90279" lon="9.17064">
        <ele>1496.57</ele>
        <time>2018-09-03T07:17:15Z</time>
      </trkpt>
      <trkpt lat="41.90273" lon="9.17049">
        <ele>1494.35</ele>
        <time>2018-09-03T07:17:30Z</time>
      </trkpt>
      <trkpt lat="41.90263" lon="9.17037">
        <ele>1490.6</ele>
        <time>2018-09-03T07:17:47Z</time>
      </trkpt>
      <trkpt lat="41.90254" lon="9.17024">
        <ele>1488.8</ele>
        <time>2018-09-03T07:18:03Z</time>
      </trkpt>
      <trkpt lat="41.90246" lon="9.17007">
        <ele>1486.18</ele>
        <time>2018-09-03T07:18:17Z</time>
      </trkpt>
      <trkpt lat="41.9024" lon="9.17">
        <ele>1484.1</ele>
        <time>2018-09-03T07:18:26Z</time>
      </trkpt>
      <trkpt lat="41.90237" lon="9.16997">
        <ele>1484.08</ele>
        <time>2018-09-03T07:18:30Z</time>
      </trkpt>
      <trkpt lat="41.90233" lon="9.16986">
        <ele>1481.49</ele>
        <time>2018-09-03T07:18:42Z</time>
      </trkpt>
      <trkpt lat="41.9023" lon="9.16979">
        <ele>1480.49</ele>
        <time>2018-09-03T07:18:53Z</time>
      </trkpt>
      <trkpt lat="41.90228" lon="9.16976">
        <ele>1480.51</ele>
        <time>2018-09-03T07:18:56Z</time>
      </trkpt>
      <trkpt lat="41.90227" lon="9.16971">
        <ele>1479.54</ele>
        <time>2018-09-03T07:19:00Z</time>
      </trkpt>
      <trkpt lat="41.90223" lon="9.16956">
        <ele>1477.02</ele>
        <time>2018-09-03T07:19:13Z</time>
      </trkpt>
      <trkpt lat="41.90219" lon="9.16939">
        <ele>1475.09</ele>
        <time>2018-09-03T07:19:28Z</time>
      </trkpt>
      <trkpt lat="41.90213" lon="9.16918">
        <ele>1475.05</ele>
        <time>2018-09-03T07:19:43Z</time>
      </trkpt>
      <trkpt lat="41.90208" lon="9.16901">
        <ele>1472.37</ele>
        <time>2018-09-03T07:19:58Z</time>
      </trkpt>
      <trkpt lat="41.90206" lon="9.16896">
        <ele>1472.31</ele>
        <time>2018-09-03T07:20:03Z</time>
      </trkpt>
      <trkpt lat="41.90203" lon="9.16881">
        <ele>1469.02</ele>
        <time>2018-09-03T07:20:18Z</time>
      </trkpt>
      <trkpt lat="41.90203" lon="9.16876">
        <ele>1467.75</ele>
        <time>2018-09-03T07:20:24Z</time>
      </trkpt>
      <trkpt lat="41.90201" lon="9.16866">
        <ele>1465.94</ele>
        <time>2018-09-03T07:20:37Z</time>
      </trkpt>
      <trkpt lat="41.90194" lon="9.16854">
        <ele>1465.06</ele>
        <time>2018-09-03T07:20:52Z</time>
      </trkpt>
      <trkpt lat="41.90189" lon="9.16849">
        <ele>1464.24</ele>
        <time>2018-09-03T07:20:57Z</time>
      </trkpt>
      <trkpt lat="41.90186" lon="9.16845">
        <ele>1463.25</ele>
        <time>2018-09-03T07:21:00Z</time>
      </trkpt>
      <trkpt lat="41.9018" lon="9.1683">
        <ele>1461.18</ele>
        <time>2018-09-03T07:21:16Z</time>
      </trkpt>
      <trkpt lat="41.90176" lon="9.16825">
        <ele>1459.73</ele>
        <time>2018-09-03T07:21:25Z</time>
      </trkpt>
      <trkpt lat="41.9017" lon="9.16814">
        <ele>1457.8</ele>
        <time>2018-09-03T07:21:42Z</time>
      </trkpt>
      <trkpt lat="41.90161" lon="9.16804">
        <ele>1455.96</ele>
        <time>2018-09-03T07:21:59Z</time>
      </trkpt>
      <trkpt lat="41.90159" lon="9.16796">
        <ele>1454.77</ele>
        <time>2018-09-03T07:22:05Z</time>
      </trkpt>
      <trkpt lat="41.90157" lon="9.16773">
        <ele>1454.86</ele>
        <time>2018-09-03T07:22:22Z</time>
      </trkpt>
      <trkpt lat="41.90156" lon="9.1677">
        <ele>1454.83</ele>
        <time>2018-09-03T07:22:25Z</time>
      </trkpt>
      <trkpt lat="41.9015" lon="9.16754">
        <ele>1453.71</ele>
        <time>2018-09-03T07:22:37Z</time>
      </trkpt>
      <trkpt lat="41.90147" lon="9.16743">
        <ele>1452.76</ele>
        <time>2018-09-03T07:22:45Z</time>
      </trkpt>
      <trkpt lat="41.90145" lon="9.16729">
        <ele>1452.76</ele>
        <time>2018-09-03T07:22:55Z</time>
      </trkpt>
      <trkpt lat="41.90146" lon="9.16714">
        <ele>1452.79</ele>
        <time>2018-09-03T07:23:07Z</time>
      </trkpt>
      <trkpt lat="41.90146" lon="9.16701">
        <ele>1452.69</ele>
        <time>2018-09-03T07:23:23Z</time>
      </trkpt>
      <trkpt lat="41.90144" lon="9.16688">
        <ele>1450</ele>
        <time>2018-09-03T07:23:41Z</time>
      </trkpt>
      <trkpt lat="41.90144" lon="9.16678">
        <ele>1448.46</ele>
        <time>2018-09-03T07:23:51Z</time>
      </trkpt>
      <trkpt lat="41.90148" lon="9.16668">
        <ele>1445.79</ele>
        <time>2018-09-03T07:24:05Z</time>
      </trkpt>
      <trkpt lat="41.90149" lon="9.16655">
        <ele>1443.86</ele>
        <time>2018-09-03T07:24:19Z</time>
      </trkpt>
      <trkpt lat="41.90149" lon="9.16634">
        <ele>1442.11</ele>
        <time>2018-09-03T07:24:35Z</time>
      </trkpt>
      <trkpt lat="41.90148" lon="9.16618">
        <ele>1440.05</ele>
        <time>2018-09-03T07:24:47Z</time>
      </trkpt>
      <trkpt lat="41.90149" lon="9.16605">
        <ele>1439.06</ele>
        <time>2018-09-03T07:24:56Z</time>
      </trkpt>
      <trkpt lat="41.9015" lon="9.16591">
        <ele>1435.93</ele>
        <time>2018-09-03T07:25:09Z</time>
      </trkpt>
      <trkpt lat="41.9015" lon="9.16581">
        <ele>1434.05</ele>
        <time>2018-09-03T07:25:21Z</time>
      </trkpt>
      <trkpt lat="41.90146" lon="9.16576">
        <ele>1432.99</ele>
        <time>2018-09-03T07:25:29Z</time>
      </trkpt>
      <trkpt lat="41.90135" lon="9.16579">
        <ele>1430.93</ele>
        <time>2018-09-03T07:25:43Z</time>
      </trkpt>
      <trkpt lat="41.90132" lon="9.16578">
        <ele>1430.14</ele>
        <time>2018-09-03T07:26:01Z</time>
      </trkpt>
      <trkpt lat="41.90128" lon="9.16577">
        <ele>1428.9</ele>
        <time>2018-09-03T07:26:06Z</time>
      </trkpt>
      <trkpt lat="41.90125" lon="9.16575">
        <ele>1428.89</ele>
        <time>2018-09-03T07:26:11Z</time>
      </trkpt>
      <trkpt lat="41.90109" lon="9.16576">
        <ele>1424.87</ele>
        <time>2018-09-03T07:26:26Z</time>
      </trkpt>
      <trkpt lat="41.90107" lon="9.16576">
        <ele>1424.84</ele>
        <time>2018-09-03T07:26:29Z</time>
      </trkpt>
      <trkpt lat="41.90104" lon="9.16574">
        <ele>1424.87</ele>
        <time>2018-09-03T07:26:32Z</time>
      </trkpt>
      <trkpt lat="41.90102" lon="9.16574">
        <ele>1423.45</ele>
        <time>2018-09-03T07:26:35Z</time>
      </trkpt>
      <trkpt lat="41.90092" lon="9.16584">
        <ele>1421.46</ele>
        <time>2018-09-03T07:26:48Z</time>
      </trkpt>
      <trkpt lat="41.9009" lon="9.16585">
        <ele>1420.63</ele>
        <time>2018-09-03T07:26:52Z</time>
      </trkpt>
      <trkpt lat="41.90089" lon="9.16583">
        <ele>1419.77</ele>
        <time>2018-09-03T07:26:54Z</time>
      </trkpt>
      <trkpt lat="41.90085" lon="9.16579">
        <ele>1418.17</ele>
        <time>2018-09-03T07:27:01Z</time>
      </trkpt>
      <trkpt lat="41.9008" lon="9.16576">
        <ele>1417.18</ele>
        <time>2018-09-03T07:27:09Z</time>
      </trkpt>
      <trkpt lat="41.90073" lon="9.16569">
        <ele>1416.18</ele>
        <time>2018-09-03T07:27:18Z</time>
      </trkpt>
      <trkpt lat="41.90067" lon="9.16571">
        <ele>1415.33</ele>
        <time>2018-09-03T07:27:25Z</time>
      </trkpt>
      <trkpt lat="41.90055" lon="9.16565">
        <ele>1413.67</ele>
        <time>2018-09-03T07:27:39Z</time>
      </trkpt>
      <trkpt lat="41.90054" lon="9.16565">
        <ele>1413.68</ele>
        <time>2018-09-03T07:27:40Z</time>
      </trkpt>
      <trkpt lat="41.9005" lon="9.16553">
        <ele>1412.59</ele>
        <time>2018-09-03T07:27:50Z</time>
      </trkpt>
      <trkpt lat="41.90048" lon="9.16544">
        <ele>1412.58</ele>
        <time>2018-09-03T07:27:56Z</time>
      </trkpt>
      <trkpt lat="41.90046" lon="9.16542">
        <ele>1411.8</ele>
        <time>2018-09-03T07:27:59Z</time>
      </trkpt>
      <trkpt lat="41.90043" lon="9.16536">
        <ele>1410.78</ele>
        <time>2018-09-03T07:28:03Z</time>
      </trkpt>
      <trkpt lat="41.90035" lon="9.1653">
        <ele>1409.92</ele>
        <time>2018-09-03T07:28:10Z</time>
      </trkpt>
      <trkpt lat="41.90033" lon="9.16527">
        <ele>1409.9</ele>
        <time>2018-09-03T07:28:13Z</time>
      </trkpt>
      <trkpt lat="41.90034" lon="9.1652">
        <ele>1408.66</ele>
        <time>2018-09-03T07:28:19Z</time>
      </trkpt>
      <trkpt lat="41.90029" lon="9.16502">
        <ele>1407.81</ele>
        <time>2018-09-03T07:28:34Z</time>
      </trkpt>
      <trkpt lat="41.90029" lon="9.16501">
        <ele>1407.79</ele>
        <time>2018-09-03T07:28:35Z</time>
      </trkpt>
      <trkpt lat="41.90029" lon="9.16496">
        <ele>1406.98</ele>
        <time>2018-09-03T07:28:39Z</time>
      </trkpt>
      <trkpt lat="41.90027" lon="9.16489">
        <ele>1406.13</ele>
        <time>2018-09-03T07:28:45Z</time>
      </trkpt>
      <trkpt lat="41.90017" lon="9.16482">
        <ele>1404.24</ele>
        <time>2018-09-03T07:28:57Z</time>
      </trkpt>
      <trkpt lat="41.90016" lon="9.16474">
        <ele>1402.65</ele>
        <time>2018-09-03T07:29:03Z</time>
      </trkpt>
      <trkpt lat="41.90013" lon="9.16471">
        <ele>1402.68</ele>
        <time>2018-09-03T07:29:06Z</time>
      </trkpt>
      <trkpt lat="41.89996" lon="9.16464">
        <ele>1400.58</ele>
        <time>2018-09-03T07:29:21Z</time>
      </trkpt>
      <trkpt lat="41.89988" lon="9.16463">
        <ele>1398.74</ele>
        <time>2018-09-03T07:29:34Z</time>
      </trkpt>
      <trkpt lat="41.89982" lon="9.16461">
        <ele>1396.19</ele>
        <time>2018-09-03T07:29:43Z</time>
      </trkpt>
      <trkpt lat="41.89982" lon="9.16457">
        <ele>1396.18</ele>
        <time>2018-09-03T07:29:47Z</time>
      </trkpt>
      <trkpt lat="41.89984" lon="9.16451">
        <ele>1396.15</ele>
        <time>2018-09-03T07:29:53Z</time>
      </trkpt>
      <trkpt lat="41.89984" lon="9.16447">
        <ele>1394.94</ele>
        <time>2018-09-03T07:29:56Z</time>
      </trkpt>
      <trkpt lat="41.89978" lon="9.1644">
        <ele>1394.9</ele>
        <time>2018-09-03T07:30:03Z</time>
      </trkpt>
      <trkpt lat="41.89976" lon="9.16438">
        <ele>1393.63</ele>
        <time>2018-09-03T07:30:06Z</time>
      </trkpt>
      <trkpt lat="41.89968" lon="9.16429">
        <ele>1392.86</ele>
        <time>2018-09-03T07:30:20Z</time>
      </trkpt>
      <trkpt lat="41.89963" lon="9.16421">
        <ele>1392.07</ele>
        <time>2018-09-03T07:30:34Z</time>
      </trkpt>
      <trkpt lat="41.8996" lon="9.16419">
        <ele>1391.09</ele>
        <time>2018-09-03T07:30:38Z</time>
      </trkpt>
      <trkpt lat="41.89956" lon="9.16413">
        <ele>1389.81</ele>
        <time>2018-09-03T07:30:45Z</time>
      </trkpt>
      <trkpt lat="41.89947" lon="9.16402">
        <ele>1386.56</ele>
        <time>2018-09-03T07:30:59Z</time>
      </trkpt>
      <trkpt lat="41.89944" lon="9.16401">
        <ele>1386.55</ele>
        <time>2018-09-03T07:31:02Z</time>
      </trkpt>
      <trkpt lat="41.89936" lon="9.16399">
        <ele>1384.82</ele>
        <time>2018-09-03T07:31:14Z</time>
      </trkpt>
      <trkpt lat="41.89932" lon="9.16398">
        <ele>1384.82</ele>
        <time>2018-09-03T07:31:18Z</time>
      </trkpt>
      <trkpt lat="41.89929" lon="9.164">
        <ele>1383.86</ele>
        <time>2018-09-03T07:31:22Z</time>
      </trkpt>
      <trkpt lat="41.89927" lon="9.16399">
        <ele>1383.81</ele>
        <time>2018-09-03T07:31:24Z</time>
      </trkpt>
      <trkpt lat="41.89919" lon="9.16397">
        <ele>1382.2</ele>
        <time>2018-09-03T07:31:32Z</time>
      </trkpt>
      <trkpt lat="41.89917" lon="9.16394">
        <ele>1382.16</ele>
        <time>2018-09-03T07:31:34Z</time>
      </trkpt>
      <trkpt lat="41.89914" lon="9.1639">
        <ele>1381.31</ele>
        <time>2018-09-03T07:31:39Z</time>
      </trkpt>
      <trkpt lat="41.8991" lon="9.16389">
        <ele>1381.3</ele>
        <time>2018-09-03T07:31:42Z</time>
      </trkpt>
      <trkpt lat="41.89902" lon="9.16383">
        <ele>1380.48</ele>
        <time>2018-09-03T07:31:50Z</time>
      </trkpt>
      <trkpt lat="41.89898" lon="9.16378">
        <ele>1380.49</ele>
        <time>2018-09-03T07:31:55Z</time>
      </trkpt>
      <trkpt lat="41.8988" lon="9.16367">
        <ele>1380.54</ele>
        <time>2018-09-03T07:32:13Z</time>
      </trkpt>
      <trkpt lat="41.89879" lon="9.16366">
        <ele>1380.52</ele>
        <time>2018-09-03T07:32:14Z</time>
      </trkpt>
      <trkpt lat="41.89872" lon="9.16353">
        <ele>1382.78</ele>
        <time>2018-09-03T07:32:24Z</time>
      </trkpt>
      <trkpt lat="41.89865" lon="9.16333">
        <ele>1382.66</ele>
        <time>2018-09-03T07:32:40Z</time>
      </trkpt>
      <trkpt lat="41.89865" lon="9.16332">
        <ele>1382.69</ele>
        <time>2018-09-03T07:32:41Z</time>
      </trkpt>
      <trkpt lat="41.89855" lon="9.16314">
        <ele>1382.67</ele>
        <time>2018-09-03T07:32:57Z</time>
      </trkpt>
      <trkpt lat="41.89847" lon="9.16304">
        <ele>1383.9</ele>
        <time>2018-09-03T07:33:08Z</time>
      </trkpt>
      <trkpt lat="41.89838" lon="9.16293">
        <ele>1385.12</ele>
        <time>2018-09-03T07:33:23Z</time>
      </trkpt>
      <trkpt lat="41.89837" lon="9.16293">
        <ele>1385.13</ele>
        <time>2018-09-03T07:33:24Z</time>
      </trkpt>
      <trkpt lat="41.89833" lon="9.16282">
        <ele>1387.08</ele>
        <time>2018-09-03T07:33:38Z</time>
      </trkpt>
      <trkpt lat="41.8983" lon="9.16268">
        <ele>1387.8</ele>
        <time>2018-09-03T07:33:52Z</time>
      </trkpt>
      <trkpt lat="41.8982" lon="9.16245">
        <ele>1387.71</ele>
        <time>2018-09-03T07:34:10Z</time>
      </trkpt>
      <trkpt lat="41.89818" lon="9.16244">
        <ele>1387.71</ele>
        <time>2018-09-03T07:34:12Z</time>
      </trkpt>
      <trkpt lat="41.89817" lon="9.16241">
        <ele>1385.45</ele>
        <time>2018-09-03T07:34:14Z</time>
      </trkpt>
      <trkpt lat="41.89809" lon="9.16213">
        <ele>1385.4</ele>
        <time>2018-09-03T07:34:34Z</time>
      </trkpt>
      <trkpt lat="41.89799" lon="9.16192">
        <ele>1384.3</ele>
        <time>2018-09-03T07:34:51Z</time>
      </trkpt>
      <trkpt lat="41.89796" lon="9.16187">
        <ele>1383.44</ele>
        <time>2018-09-03T07:34:55Z</time>
      </trkpt>
      <trkpt lat="41.89786" lon="9.16179">
        <ele>1382.41</ele>
        <time>2018-09-03T07:35:05Z</time>
      </trkpt>
      <trkpt lat="41.89784" lon="9.16175">
        <ele>1381.44</ele>
        <time>2018-09-03T07:35:08Z</time>
      </trkpt>
      <trkpt lat="41.89776" lon="9.1617">
        <ele>1381.41</ele>
        <time>2018-09-03T07:35:15Z</time>
      </trkpt>
      <trkpt lat="41.89759" lon="9.16172">
        <ele>1381.42</ele>
        <time>2018-09-03T07:35:30Z</time>
      </trkpt>
      <trkpt lat="41.8974" lon="9.16172">
        <ele>1381.37</ele>
        <time>2018-09-03T07:35:46Z</time>
      </trkpt>
      <trkpt lat="41.89725" lon="9.16176">
        <ele>1383.82</ele>
        <time>2018-09-03T07:36:01Z</time>
      </trkpt>
      <trkpt lat="41.89723" lon="9.16176">
        <ele>1383.84</ele>
        <time>2018-09-03T07:36:03Z</time>
      </trkpt>
      <trkpt lat="41.89709" lon="9.16167">
        <ele>1384.55</ele>
        <time>2018-09-03T07:36:18Z</time>
      </trkpt>
      <trkpt lat="41.89703" lon="9.16164">
        <ele>1381.24</ele>
        <time>2018-09-03T07:36:24Z</time>
      </trkpt>
      <trkpt lat="41.89702" lon="9.16163">
        <ele>1381.24</ele>
        <time>2018-09-03T07:36:25Z</time>
      </trkpt>
      <trkpt lat="41.89701" lon="9.16161">
        <ele>1381.22</ele>
        <time>2018-09-03T07:36:27Z</time>
      </trkpt>
      <trkpt lat="41.897" lon="9.16159">
        <ele>1381.22</ele>
        <time>2018-09-03T07:36:29Z</time>
      </trkpt>
      <trkpt lat="41.89696" lon="9.16155">
        <ele>1381.21</ele>
        <time>2018-09-03T07:36:33Z</time>
      </trkpt>
      <trkpt lat="41.89687" lon="9.16144">
        <ele>1380.19</ele>
        <time>2018-09-03T07:36:44Z</time>
      </trkpt>
      <trkpt lat="41.89679" lon="9.16126">
        <ele>1378.17</ele>
        <time>2018-09-03T07:36:59Z</time>
      </trkpt>
      <trkpt lat="41.89678" lon="9.16123">
        <ele>1378.16</ele>
        <time>2018-09-03T07:37:01Z</time>
      </trkpt>
      <trkpt lat="41.89672" lon="9.16111">
        <ele>1376.44</ele>
        <time>2018-09-03T07:37:13Z</time>
      </trkpt>
      <trkpt lat="41.89671" lon="9.16108">
        <ele>1375.64</ele>
        <time>2018-09-03T07:37:16Z</time>
      </trkpt>
      <trkpt lat="41.89661" lon="9.16089">
        <ele>1373.81</ele>
        <time>2018-09-03T07:37:34Z</time>
      </trkpt>
      <trkpt lat="41.89662" lon="9.16086">
        <ele>1372.8</ele>
        <time>2018-09-03T07:37:36Z</time>
      </trkpt>
      <trkpt lat="41.8966" lon="9.16084">
        <ele>1372.8</ele>
        <time>2018-09-03T07:37:38Z</time>
      </trkpt>
      <trkpt lat="41.89648" lon="9.16089">
        <ele>1370.12</ele>
        <time>2018-09-03T07:37:52Z</time>
      </trkpt>
      <trkpt lat="41.89644" lon="9.16091">
        <ele>1369.24</ele>
        <time>2018-09-03T07:37:57Z</time>
      </trkpt>
      <trkpt lat="41.8963" lon="9.16091">
        <ele>1366.58</ele>
        <time>2018-09-03T07:38:12Z</time>
      </trkpt>
      <trkpt lat="41.89628" lon="9.16083">
        <ele>1364.93</ele>
        <time>2018-09-03T07:38:25Z</time>
      </trkpt>
      <trkpt lat="41.89632" lon="9.1607">
        <ele>1362.9</ele>
        <time>2018-09-03T07:38:37Z</time>
      </trkpt>
      <trkpt lat="41.89628" lon="9.16055">
        <ele>1361.26</ele>
        <time>2018-09-03T07:38:51Z</time>
      </trkpt>
      <trkpt lat="41.89624" lon="9.16052">
        <ele>1360.18</ele>
        <time>2018-09-03T07:38:56Z</time>
      </trkpt>
      <trkpt lat="41.89611" lon="9.16044">
        <ele>1356.52</ele>
        <time>2018-09-03T07:39:13Z</time>
      </trkpt>
      <trkpt lat="41.89597" lon="9.16038">
        <ele>1353.7</ele>
        <time>2018-09-03T07:39:28Z</time>
      </trkpt>
      <trkpt lat="41.8959" lon="9.16021">
        <ele>1351.83</ele>
        <time>2018-09-03T07:39:43Z</time>
      </trkpt>
      <trkpt lat="41.89591" lon="9.16019">
        <ele>1351.83</ele>
        <time>2018-09-03T07:39:45Z</time>
      </trkpt>
      <trkpt lat="41.89589" lon="9.16014">
        <ele>1350.75</ele>
        <time>2018-09-03T07:39:49Z</time>
      </trkpt>
      <trkpt lat="41.89575" lon="9.16002">
        <ele>1348.93</ele>
        <time>2018-09-03T07:40:05Z</time>
      </trkpt>
      <trkpt lat="41.89575" lon="9.16001">
        <ele>1348.16</ele>
        <time>2018-09-03T07:40:06Z</time>
      </trkpt>
      <trkpt lat="41.89564" lon="9.15987">
        <ele>1347.26</ele>
        <time>2018-09-03T07:40:20Z</time>
      </trkpt>
      <trkpt lat="41.89544" lon="9.15976">
        <ele>1346.17</ele>
        <time>2018-09-03T07:40:38Z</time>
      </trkpt>
      <trkpt lat="41.89527" lon="9.15969">
        <ele>1345.35</ele>
        <time>2018-09-03T07:40:57Z</time>
      </trkpt>
      <trkpt lat="41.89521" lon="9.15967">
        <ele>1344.34</ele>
        <time>2018-09-03T07:41:02Z</time>
      </trkpt>
      <trkpt lat="41.89502" lon="9.15965">
        <ele>1343.45</ele>
        <time>2018-09-03T07:41:19Z</time>
      </trkpt>
      <trkpt lat="41.89498" lon="9.15963">
        <ele>1343.43</ele>
        <time>2018-09-03T07:41:32Z</time>
      </trkpt>
      <trkpt lat="41.89488" lon="9.15959">
        <ele>1342.43</ele>
        <time>2018-09-03T07:41:48Z</time>
      </trkpt>
      <trkpt lat="41.89481" lon="9.15958">
        <ele>1342.43</ele>
        <time>2018-09-03T07:41:56Z</time>
      </trkpt>
      <trkpt lat="41.89479" lon="9.15958">
        <ele>1342.42</ele>
        <time>2018-09-03T07:41:58Z</time>
      </trkpt>
      <trkpt lat="41.89473" lon="9.15961">
        <ele>1342.42</ele>
        <time>2018-09-03T07:42:04Z</time>
      </trkpt>
      <trkpt lat="41.89468" lon="9.15965">
        <ele>1342.41</ele>
        <time>2018-09-03T07:42:09Z</time>
      </trkpt>
      <trkpt lat="41.89464" lon="9.15969">
        <ele>1342.41</ele>
        <time>2018-09-03T07:42:13Z</time>
      </trkpt>
      <trkpt lat="41.89449" lon="9.15979">
        <ele>1341.59</ele>
        <time>2018-09-03T07:42:28Z</time>
      </trkpt>
      <trkpt lat="41.89428" lon="9.15977">
        <ele>1340.62</ele>
        <time>2018-09-03T07:42:46Z</time>
      </trkpt>
      <trkpt lat="41.89411" lon="9.15969">
        <ele>1339.68</ele>
        <time>2018-09-03T07:43:01Z</time>
      </trkpt>
      <trkpt lat="41.89408" lon="9.15964">
        <ele>1338.44</ele>
        <time>2018-09-03T07:43:05Z</time>
      </trkpt>
      <trkpt lat="41.89407" lon="9.15964">
        <ele>1338.4</ele>
        <time>2018-09-03T07:43:27Z</time>
      </trkpt>
      <trkpt lat="41.89403" lon="9.15959">
        <ele>1338.38</ele>
        <time>2018-09-03T07:43:42Z</time>
      </trkpt>
      <trkpt lat="41.89404" lon="9.1596">
        <ele>1338.33</ele>
        <time>2018-09-03T07:44:06Z</time>
      </trkpt>
      <trkpt lat="41.89393" lon="9.15941">
        <ele>1336.48</ele>
        <time>2018-09-03T07:44:22Z</time>
      </trkpt>
      <trkpt lat="41.89387" lon="9.15937">
        <ele>1335.11</ele>
        <time>2018-09-03T07:44:27Z</time>
      </trkpt>
      <trkpt lat="41.89369" lon="9.15934">
        <ele>1333.07</ele>
        <time>2018-09-03T07:44:42Z</time>
      </trkpt>
      <trkpt lat="41.89367" lon="9.15933">
        <ele>1333.24</ele>
        <time>2018-09-03T07:44:43Z</time>
      </trkpt>
      <trkpt lat="41.89347" lon="9.15944">
        <ele>1330.27</ele>
        <time>2018-09-03T07:45:00Z</time>
      </trkpt>
      <trkpt lat="41.89333" lon="9.1594">
        <ele>1330.36</ele>
        <time>2018-09-03T07:45:12Z</time>
      </trkpt>
      <trkpt lat="41.89321" lon="9.15935">
        <ele>1328.86</ele>
        <time>2018-09-03T07:45:22Z</time>
      </trkpt>
      <trkpt lat="41.89319" lon="9.15934">
        <ele>1328.88</ele>
        <time>2018-09-03T07:45:24Z</time>
      </trkpt>
      <trkpt lat="41.89317" lon="9.15931">
        <ele>1328.92</ele>
        <time>2018-09-03T07:45:27Z</time>
      </trkpt>
      <trkpt lat="41.89308" lon="9.15917">
        <ele>1325.88</ele>
        <time>2018-09-03T07:45:39Z</time>
      </trkpt>
      <trkpt lat="41.89304" lon="9.15912">
        <ele>1324.9</ele>
        <time>2018-09-03T07:45:44Z</time>
      </trkpt>
      <trkpt lat="41.893" lon="9.15904">
        <ele>1323.69</ele>
        <time>2018-09-03T07:45:52Z</time>
      </trkpt>
      <trkpt lat="41.89294" lon="9.159">
        <ele>1322.18</ele>
        <time>2018-09-03T07:45:59Z</time>
      </trkpt>
      <trkpt lat="41.89291" lon="9.15897">
        <ele>1322.35</ele>
        <time>2018-09-03T07:46:02Z</time>
      </trkpt>
      <trkpt lat="41.89272" lon="9.15891">
        <ele>1319.31</ele>
        <time>2018-09-03T07:46:22Z</time>
      </trkpt>
      <trkpt lat="41.89271" lon="9.15891">
        <ele>1319.32</ele>
        <time>2018-09-03T07:46:23Z</time>
      </trkpt>
      <trkpt lat="41.89269" lon="9.15894">
        <ele>1317.67</ele>
        <time>2018-09-03T07:46:26Z</time>
      </trkpt>
      <trkpt lat="41.89265" lon="9.15902">
        <ele>1315.83</ele>
        <time>2018-09-03T07:46:37Z</time>
      </trkpt>
      <trkpt lat="41.89263" lon="9.15905">
        <ele>1315.09</ele>
        <time>2018-09-03T07:46:41Z</time>
      </trkpt>
      <trkpt lat="41.89259" lon="9.15903">
        <ele>1314.04</ele>
        <time>2018-09-03T07:46:46Z</time>
      </trkpt>
      <trkpt lat="41.89255" lon="9.159">
        <ele>1312.82</ele>
        <time>2018-09-03T07:46:53Z</time>
      </trkpt>
      <trkpt lat="41.89248" lon="9.15892">
        <ele>1310.56</ele>
        <time>2018-09-03T07:47:05Z</time>
      </trkpt>
      <trkpt lat="41.89245" lon="9.15892">
        <ele>1310.54</ele>
        <time>2018-09-03T07:47:09Z</time>
      </trkpt>
      <trkpt lat="41.8924" lon="9.15891">
        <ele>1308.65</ele>
        <time>2018-09-03T07:47:23Z</time>
      </trkpt>
      <trkpt lat="41.89237" lon="9.15893">
        <ele>1306.65</ele>
        <time>2018-09-03T07:47:38Z</time>
      </trkpt>
      <trkpt lat="41.89235" lon="9.15891">
        <ele>1305.59</ele>
        <time>2018-09-03T07:47:57Z</time>
      </trkpt>
      <trkpt lat="41.89231" lon="9.15895">
        <ele>1304.47</ele>
        <time>2018-09-03T07:48:13Z</time>
      </trkpt>
      <trkpt lat="41.89231" lon="9.15895">
        <ele>1304.5</ele>
        <time>2018-09-03T07:48:17Z</time>
      </trkpt>
      <trkpt lat="41.89223" lon="9.15904">
        <ele>1303.2</ele>
        <time>2018-09-03T07:48:31Z</time>
      </trkpt>
      <trkpt lat="41.89218" lon="9.15907">
        <ele>1303.23</ele>
        <time>2018-09-03T07:48:46Z</time>
      </trkpt>
      <trkpt lat="41.89215" lon="9.15904">
        <ele>1303.13</ele>
        <time>2018-09-03T07:49:02Z</time>
      </trkpt>
      <trkpt lat="41.89218" lon="9.15897">
        <ele>1302.92</ele>
        <time>2018-09-03T07:49:27Z</time>
      </trkpt>
      <trkpt lat="41.89206" lon="9.1589">
        <ele>1302.85</ele>
        <time>2018-09-03T07:49:41Z</time>
      </trkpt>
      <trkpt lat="41.89204" lon="9.15888">
        <ele>1305.21</ele>
        <time>2018-09-03T07:49:44Z</time>
      </trkpt>
      <trkpt lat="41.89195" lon="9.15878">
        <ele>1307.45</ele>
        <time>2018-09-03T07:49:58Z</time>
      </trkpt>
      <trkpt lat="41.89189" lon="9.15869">
        <ele>1309.02</ele>
        <time>2018-09-03T07:50:14Z</time>
      </trkpt>
      <trkpt lat="41.89183" lon="9.15861">
        <ele>1310.78</ele>
        <time>2018-09-03T07:50:27Z</time>
      </trkpt>
      <trkpt lat="41.89174" lon="9.15857">
        <ele>1311.56</ele>
        <time>2018-09-03T07:50:41Z</time>
      </trkpt>
      <trkpt lat="41.89169" lon="9.15855">
        <ele>1309.06</ele>
        <time>2018-09-03T07:50:48Z</time>
      </trkpt>
      <trkpt lat="41.89165" lon="9.15849">
        <ele>1308.23</ele>
        <time>2018-09-03T07:51:04Z</time>
      </trkpt>
      <trkpt lat="41.89162" lon="9.15849">
        <ele>1308.14</ele>
        <time>2018-09-03T07:51:19Z</time>
      </trkpt>
      <trkpt lat="41.89159" lon="9.15845">
        <ele>1308.11</ele>
        <time>2018-09-03T07:51:23Z</time>
      </trkpt>
      <trkpt lat="41.89146" lon="9.15835">
        <ele>1307.2</ele>
        <time>2018-09-03T07:51:36Z</time>
      </trkpt>
      <trkpt lat="41.89139" lon="9.15828">
        <ele>1307.14</ele>
        <time>2018-09-03T07:51:46Z</time>
      </trkpt>
      <trkpt lat="41.89133" lon="9.15825">
        <ele>1307.07</ele>
        <time>2018-09-03T07:51:53Z</time>
      </trkpt>
      <trkpt lat="41.89123" lon="9.15823">
        <ele>1309.25</ele>
        <time>2018-09-03T07:52:02Z</time>
      </trkpt>
      <trkpt lat="41.89105" lon="9.15822">
        <ele>1309.17</ele>
        <time>2018-09-03T07:52:19Z</time>
      </trkpt>
      <trkpt lat="41.89093" lon="9.15817">
        <ele>1309.04</ele>
        <time>2018-09-03T07:52:32Z</time>
      </trkpt>
      <trkpt lat="41.89085" lon="9.15811">
        <ele>1309.77</ele>
        <time>2018-09-03T07:52:44Z</time>
      </trkpt>
      <trkpt lat="41.89082" lon="9.15808">
        <ele>1309.73</ele>
        <time>2018-09-03T07:52:49Z</time>
      </trkpt>
      <trkpt lat="41.8907" lon="9.15806">
        <ele>1310.83</ele>
        <time>2018-09-03T07:53:03Z</time>
      </trkpt>
      <trkpt lat="41.89061" lon="9.15807">
        <ele>1311.71</ele>
        <time>2018-09-03T07:53:19Z</time>
      </trkpt>
      <trkpt lat="41.89053" lon="9.15806">
        <ele>1311.69</ele>
        <time>2018-09-03T07:53:27Z</time>
      </trkpt>
      <trkpt lat="41.89032" lon="9.15792">
        <ele>1312.94</ele>
        <time>2018-09-03T07:53:45Z</time>
      </trkpt>
      <trkpt lat="41.89014" lon="9.15779">
        <ele>1313.88</ele>
        <time>2018-09-03T07:54:02Z</time>
      </trkpt>
      <trkpt lat="41.89007" lon="9.15771">
        <ele>1313.84</ele>
        <time>2018-09-03T07:54:12Z</time>
      </trkpt>
      <trkpt lat="41.89006" lon="9.15766">
        <ele>1313.82</ele>
        <time>2018-09-03T07:54:17Z</time>
      </trkpt>
      <trkpt lat="41.89004" lon="9.15763">
        <ele>1314.63</ele>
        <time>2018-09-03T07:54:20Z</time>
      </trkpt>
      <trkpt lat="41.89001" lon="9.15762">
        <ele>1314.61</ele>
        <time>2018-09-03T07:54:23Z</time>
      </trkpt>
      <trkpt lat="41.88998" lon="9.15754">
        <ele>1314.6</ele>
        <time>2018-09-03T07:54:30Z</time>
      </trkpt>
      <trkpt lat="41.88988" lon="9.15745">
        <ele>1314.62</ele>
        <time>2018-09-03T07:54:43Z</time>
      </trkpt>
      <trkpt lat="41.88982" lon="9.1574">
        <ele>1314.64</ele>
        <time>2018-09-03T07:54:50Z</time>
      </trkpt>
      <trkpt lat="41.88969" lon="9.15726">
        <ele>1314.6</ele>
        <time>2018-09-03T07:55:07Z</time>
      </trkpt>
      <trkpt lat="41.88967" lon="9.15725">
        <ele>1314.6</ele>
        <time>2018-09-03T07:55:09Z</time>
      </trkpt>
      <trkpt lat="41.88955" lon="9.15713">
        <ele>1314.68</ele>
        <time>2018-09-03T07:55:27Z</time>
      </trkpt>
      <trkpt lat="41.88954" lon="9.15711">
        <ele>1314.66</ele>
        <time>2018-09-03T07:55:29Z</time>
      </trkpt>
      <trkpt lat="41.88947" lon="9.15692">
        <ele>1315.53</ele>
        <time>2018-09-03T07:55:45Z</time>
      </trkpt>
      <trkpt lat="41.8894" lon="9.1568">
        <ele>1316.3</ele>
        <time>2018-09-03T07:56:01Z</time>
      </trkpt>
      <trkpt lat="41.88933" lon="9.15674">
        <ele>1316.23</ele>
        <time>2018-09-03T07:56:21Z</time>
      </trkpt>
      <trkpt lat="41.8892" lon="9.1566">
        <ele>1316.22</ele>
        <time>2018-09-03T07:56:39Z</time>
      </trkpt>
      <trkpt lat="41.88918" lon="9.15654">
        <ele>1316.14</ele>
        <time>2018-09-03T07:57:01Z</time>
      </trkpt>
      <trkpt lat="41.88914" lon="9.15651">
        <ele>1316.07</ele>
        <time>2018-09-03T07:57:13Z</time>
      </trkpt>
      <trkpt lat="41.88912" lon="9.1565">
        <ele>1316.05</ele>
        <time>2018-09-03T07:57:15Z</time>
      </trkpt>
      <trkpt lat="41.88905" lon="9.1564">
        <ele>1313.54</ele>
        <time>2018-09-03T07:57:25Z</time>
      </trkpt>
      <trkpt lat="41.88902" lon="9.15633">
        <ele>1313.54</ele>
        <time>2018-09-03T07:57:31Z</time>
      </trkpt>
      <trkpt lat="41.88896" lon="9.15614">
        <ele>1313.45</ele>
        <time>2018-09-03T07:57:46Z</time>
      </trkpt>
      <trkpt lat="41.88887" lon="9.15608">
        <ele>1313.42</ele>
        <time>2018-09-03T07:57:56Z</time>
      </trkpt>
      <trkpt lat="41.88879" lon="9.156">
        <ele>1313.35</ele>
        <time>2018-09-03T07:58:09Z</time>
      </trkpt>
      <trkpt lat="41.88866" lon="9.15595">
        <ele>1315.66</ele>
        <time>2018-09-03T07:58:24Z</time>
      </trkpt>
      <trkpt lat="41.88864" lon="9.1559">
        <ele>1316.61</ele>
        <time>2018-09-03T07:58:34Z</time>
      </trkpt>
      <trkpt lat="41.88852" lon="9.15589">
        <ele>1317.71</ele>
        <time>2018-09-03T07:58:48Z</time>
      </trkpt>
      <trkpt lat="41.88835" lon="9.15581">
        <ele>1318.46</ele>
        <time>2018-09-03T07:59:04Z</time>
      </trkpt>
      <trkpt lat="41.8882" lon="9.15572">
        <ele>1320</ele>
        <time>2018-09-03T07:59:20Z</time>
      </trkpt>
      <trkpt lat="41.8881" lon="9.15559">
        <ele>1321.98</ele>
        <time>2018-09-03T07:59:38Z</time>
      </trkpt>
      <trkpt lat="41.88799" lon="9.15548">
        <ele>1322.72</ele>
        <time>2018-09-03T07:59:54Z</time>
      </trkpt>
      <trkpt lat="41.88797" lon="9.15544">
        <ele>1323.62</ele>
        <time>2018-09-03T08:00:11Z</time>
      </trkpt>
      <trkpt lat="41.88796" lon="9.1554">
        <ele>1323.61</ele>
        <time>2018-09-03T08:00:38Z</time>
      </trkpt>
      <trkpt lat="41.88798" lon="9.15524">
        <ele>1325.47</ele>
        <time>2018-09-03T08:00:53Z</time>
      </trkpt>
      <trkpt lat="41.88802" lon="9.15507">
        <ele>1328.06</ele>
        <time>2018-09-03T08:01:10Z</time>
      </trkpt>
      <trkpt lat="41.88801" lon="9.15497">
        <ele>1329.03</ele>
        <time>2018-09-03T08:01:23Z</time>
      </trkpt>
      <trkpt lat="41.88799" lon="9.15485">
        <ele>1331.67</ele>
        <time>2018-09-03T08:01:38Z</time>
      </trkpt>
      <trkpt lat="41.88799" lon="9.15478">
        <ele>1332.52</ele>
        <time>2018-09-03T08:01:51Z</time>
      </trkpt>
      <trkpt lat="41.88798" lon="9.15476">
        <ele>1333.18</ele>
        <time>2018-09-03T08:02:06Z</time>
      </trkpt>
      <trkpt lat="41.88798" lon="9.15475">
        <ele>1333.89</ele>
        <time>2018-09-03T08:02:20Z</time>
      </trkpt>
      <trkpt lat="41.88798" lon="9.15464">
        <ele>1334.73</ele>
        <time>2018-09-03T08:02:35Z</time>
      </trkpt>
      <trkpt lat="41.88798" lon="9.15456">
        <ele>1336.93</ele>
        <time>2018-09-03T08:02:50Z</time>
      </trkpt>
      <trkpt lat="41.88795" lon="9.1545">
        <ele>1337.62</ele>
        <time>2018-09-03T08:03:05Z</time>
      </trkpt>
      <trkpt lat="41.88791" lon="9.15445">
        <ele>1337.53</ele>
        <time>2018-09-03T08:03:21Z</time>
      </trkpt>
      <trkpt lat="41.88778" lon="9.15439">
        <ele>1339.95</ele>
        <time>2018-09-03T08:03:35Z</time>
      </trkpt>
      <trkpt lat="41.88767" lon="9.1543">
        <ele>1340.65</ele>
        <time>2018-09-03T08:03:49Z</time>
      </trkpt>
      <trkpt lat="41.88764" lon="9.15422">
        <ele>1340.61</ele>
        <time>2018-09-03T08:03:55Z</time>
      </trkpt>
      <trkpt lat="41.8876" lon="9.15414">
        <ele>1340.59</ele>
        <time>2018-09-03T08:04:02Z</time>
      </trkpt>
      <trkpt lat="41.88759" lon="9.15399">
        <ele>1340.55</ele>
        <time>2018-09-03T08:04:22Z</time>
      </trkpt>
      <trkpt lat="41.88758" lon="9.1539">
        <ele>1340.54</ele>
        <time>2018-09-03T08:04:37Z</time>
      </trkpt>
      <trkpt lat="41.88756" lon="9.15363">
        <ele>1340.53</ele>
        <time>2018-09-03T08:04:56Z</time>
      </trkpt>
      <trkpt lat="41.88758" lon="9.15353">
        <ele>1341.36</ele>
        <time>2018-09-03T08:05:04Z</time>
      </trkpt>
      <trkpt lat="41.88758" lon="9.1535">
        <ele>1342.59</ele>
        <time>2018-09-03T08:05:06Z</time>
      </trkpt>
      <trkpt lat="41.88753" lon="9.15326">
        <ele>1344.58</ele>
        <time>2018-09-03T08:05:24Z</time>
      </trkpt>
      <trkpt lat="41.88749" lon="9.15317">
        <ele>1344.6</ele>
        <time>2018-09-03T08:05:40Z</time>
      </trkpt>
      <trkpt lat="41.88745" lon="9.15301">
        <ele>1344.58</ele>
        <time>2018-09-03T08:06:01Z</time>
      </trkpt>
      <trkpt lat="41.88743" lon="9.15295">
        <ele>1344.63</ele>
        <time>2018-09-03T08:06:06Z</time>
      </trkpt>
      <trkpt lat="41.88737" lon="9.1527">
        <ele>1346.27</ele>
        <time>2018-09-03T08:06:24Z</time>
      </trkpt>
      <trkpt lat="41.88737" lon="9.15244">
        <ele>1347.11</ele>
        <time>2018-09-03T08:06:42Z</time>
      </trkpt>
      <trkpt lat="41.88738" lon="9.15225">
        <ele>1347.89</ele>
        <time>2018-09-03T08:06:55Z</time>
      </trkpt>
      <trkpt lat="41.88739" lon="9.15219">
        <ele>1347.89</ele>
        <time>2018-09-03T08:06:59Z</time>
      </trkpt>
      <trkpt lat="41.88739" lon="9.15213">
        <ele>1347.87</ele>
        <time>2018-09-03T08:07:17Z</time>
      </trkpt>
      <trkpt lat="41.88737" lon="9.15205">
        <ele>1345.55</ele>
        <time>2018-09-03T08:07:36Z</time>
      </trkpt>
      <trkpt lat="41.88737" lon="9.15185">
        <ele>1344.78</ele>
        <time>2018-09-03T08:07:50Z</time>
      </trkpt>
      <trkpt lat="41.88738" lon="9.1518">
        <ele>1343.85</ele>
        <time>2018-09-03T08:07:53Z</time>
      </trkpt>
      <trkpt lat="41.88741" lon="9.15165">
        <ele>1342.22</ele>
        <time>2018-09-03T08:08:04Z</time>
      </trkpt>
      <trkpt lat="41.88746" lon="9.15157">
        <ele>1341.36</ele>
        <time>2018-09-03T08:08:11Z</time>
      </trkpt>
      <trkpt lat="41.88754" lon="9.15135">
        <ele>1340.17</ele>
        <time>2018-09-03T08:08:27Z</time>
      </trkpt>
      <trkpt lat="41.88755" lon="9.1512">
        <ele>1338.13</ele>
        <time>2018-09-03T08:08:39Z</time>
      </trkpt>
      <trkpt lat="41.88757" lon="9.15103">
        <ele>1336.4</ele>
        <time>2018-09-03T08:08:53Z</time>
      </trkpt>
      <trkpt lat="41.8876" lon="9.15101">
        <ele>1336.4</ele>
        <time>2018-09-03T08:08:56Z</time>
      </trkpt>
      <trkpt lat="41.88762" lon="9.15097">
        <ele>1335.57</ele>
        <time>2018-09-03T08:09:00Z</time>
      </trkpt>
      <trkpt lat="41.88768" lon="9.15088">
        <ele>1334.73</ele>
        <time>2018-09-03T08:09:09Z</time>
      </trkpt>
      <trkpt lat="41.88771" lon="9.15081">
        <ele>1333.94</ele>
        <time>2018-09-03T08:09:14Z</time>
      </trkpt>
      <trkpt lat="41.88772" lon="9.15073">
        <ele>1333.95</ele>
        <time>2018-09-03T08:09:19Z</time>
      </trkpt>
      <trkpt lat="41.88775" lon="9.15051">
        <ele>1332.13</ele>
        <time>2018-09-03T08:09:34Z</time>
      </trkpt>
      <trkpt lat="41.88779" lon="9.15028">
        <ele>1329.71</ele>
        <time>2018-09-03T08:09:49Z</time>
      </trkpt>
      <trkpt lat="41.88778" lon="9.15003">
        <ele>1327.98</ele>
        <time>2018-09-03T08:10:06Z</time>
      </trkpt>
      <trkpt lat="41.88776" lon="9.15">
        <ele>1327.97</ele>
        <time>2018-09-03T08:10:08Z</time>
      </trkpt>
      <trkpt lat="41.88774" lon="9.14996">
        <ele>1326.73</ele>
        <time>2018-09-03T08:10:11Z</time>
      </trkpt>
      <trkpt lat="41.88768" lon="9.14989">
        <ele>1326.72</ele>
        <time>2018-09-03T08:10:17Z</time>
      </trkpt>
      <trkpt lat="41.88753" lon="9.14971">
        <ele>1325.89</ele>
        <time>2018-09-03T08:10:34Z</time>
      </trkpt>
      <trkpt lat="41.88743" lon="9.14963">
        <ele>1324.54</ele>
        <time>2018-09-03T08:10:44Z</time>
      </trkpt>
      <trkpt lat="41.88739" lon="9.1496">
        <ele>1324.55</ele>
        <time>2018-09-03T08:10:47Z</time>
      </trkpt>
      <trkpt lat="41.88722" lon="9.1495">
        <ele>1323.45</ele>
        <time>2018-09-03T08:11:05Z</time>
      </trkpt>
      <trkpt lat="41.88719" lon="9.14949">
        <ele>1323.44</ele>
        <time>2018-09-03T08:11:08Z</time>
      </trkpt>
      <trkpt lat="41.88713" lon="9.14946">
        <ele>1322.67</ele>
        <time>2018-09-03T08:11:21Z</time>
      </trkpt>
      <trkpt lat="41.8871" lon="9.14938">
        <ele>1321.63</ele>
        <time>2018-09-03T08:11:29Z</time>
      </trkpt>
      <trkpt lat="41.88709" lon="9.14929">
        <ele>1321.63</ele>
        <time>2018-09-03T08:11:35Z</time>
      </trkpt>
      <trkpt lat="41.88711" lon="9.14901">
        <ele>1321.6</ele>
        <time>2018-09-03T08:11:52Z</time>
      </trkpt>
      <trkpt lat="41.88712" lon="9.14893">
        <ele>1321.58</ele>
        <time>2018-09-03T08:11:57Z</time>
      </trkpt>
      <trkpt lat="41.88712" lon="9.14888">
        <ele>1321.58</ele>
        <time>2018-09-03T08:12:02Z</time>
      </trkpt>
      <trkpt lat="41.88713" lon="9.1488">
        <ele>1321.59</ele>
        <time>2018-09-03T08:12:07Z</time>
      </trkpt>
      <trkpt lat="41.88716" lon="9.14866">
        <ele>1320.38</ele>
        <time>2018-09-03T08:12:16Z</time>
      </trkpt>
      <trkpt lat="41.88722" lon="9.14844">
        <ele>1319.42</ele>
        <time>2018-09-03T08:12:30Z</time>
      </trkpt>
      <trkpt lat="41.88724" lon="9.1484">
        <ele>1319.41</ele>
        <time>2018-09-03T08:12:33Z</time>
      </trkpt>
      <trkpt lat="41.88728" lon="9.14823">
        <ele>1316.99</ele>
        <time>2018-09-03T08:12:44Z</time>
      </trkpt>
      <trkpt lat="41.88738" lon="9.148">
        <ele>1316.13</ele>
        <time>2018-09-03T08:13:02Z</time>
      </trkpt>
      <trkpt lat="41.88746" lon="9.14774">
        <ele>1316.12</ele>
        <time>2018-09-03T08:13:18Z</time>
      </trkpt>
      <trkpt lat="41.88744" lon="9.14759">
        <ele>1314.35</ele>
        <time>2018-09-03T08:13:32Z</time>
      </trkpt>
      <trkpt lat="41.88734" lon="9.14739">
        <ele>1312.54</ele>
        <time>2018-09-03T08:13:50Z</time>
      </trkpt>
      <trkpt lat="41.88722" lon="9.14725">
        <ele>1306.35</ele>
        <time>2018-09-03T08:14:04Z</time>
      </trkpt>
      <trkpt lat="41.88721" lon="9.14724">
        <ele>1311.24</ele>
        <time>2018-09-03T08:14:05Z</time>
      </trkpt>
      <trkpt lat="41.88721" lon="9.14725">
        <ele>1311.24</ele>
        <time>2018-09-03T08:14:30Z</time>
      </trkpt>
      <trkpt lat="41.88721" lon="9.14726">
        <ele>1312.03</ele>
        <time>2018-09-03T08:14:48Z</time>
      </trkpt>
      <trkpt lat="41.8872" lon="9.14726">
        <ele>1312.86</ele>
        <time>2018-09-03T08:15:07Z</time>
      </trkpt>
      <trkpt lat="41.88712" lon="9.1472">
        <ele>1312.86</ele>
        <time>2018-09-03T08:15:22Z</time>
      </trkpt>
      <trkpt lat="41.88689" lon="9.14715">
        <ele>1312.85</ele>
        <time>2018-09-03T08:15:41Z</time>
      </trkpt>
      <trkpt lat="41.88684" lon="9.14715">
        <ele>1310.42</ele>
        <time>2018-09-03T08:15:45Z</time>
      </trkpt>
      <trkpt lat="41.88662" lon="9.14716">
        <ele>1310.47</ele>
        <time>2018-09-03T08:16:03Z</time>
      </trkpt>
      <trkpt lat="41.8864" lon="9.14705">
        <ele>1310.45</ele>
        <time>2018-09-03T08:16:22Z</time>
      </trkpt>
      <trkpt lat="41.88621" lon="9.14698">
        <ele>1310.42</ele>
        <time>2018-09-03T08:16:39Z</time>
      </trkpt>
      <trkpt lat="41.88621" lon="9.14699">
        <ele>1310.35</ele>
        <time>2018-09-03T08:17:25Z</time>
      </trkpt>
      <trkpt lat="41.88609" lon="9.14691">
        <ele>1309.54</ele>
        <time>2018-09-03T08:17:48Z</time>
      </trkpt>
      <trkpt lat="41.88583" lon="9.14684">
        <ele>1309.49</ele>
        <time>2018-09-03T08:18:10Z</time>
      </trkpt>
      <trkpt lat="41.88564" lon="9.14693">
        <ele>1309.46</ele>
        <time>2018-09-03T08:18:27Z</time>
      </trkpt>
      <trkpt lat="41.88543" lon="9.14684">
        <ele>1309.41</ele>
        <time>2018-09-03T08:18:46Z</time>
      </trkpt>
      <trkpt lat="41.88531" lon="9.14677">
        <ele>1309.37</ele>
        <time>2018-09-03T08:18:59Z</time>
      </trkpt>
      <trkpt lat="41.88523" lon="9.14673">
        <ele>1309.36</ele>
        <time>2018-09-03T08:19:12Z</time>
      </trkpt>
      <trkpt lat="41.88523" lon="9.14672">
        <ele>1311.62</ele>
        <time>2018-09-03T08:19:15Z</time>
      </trkpt>
      <trkpt lat="41.88519" lon="9.14663">
        <ele>1312.45</ele>
        <time>2018-09-03T08:19:29Z</time>
      </trkpt>
      <trkpt lat="41.88517" lon="9.14651">
        <ele>1313.23</ele>
        <time>2018-09-03T08:19:37Z</time>
      </trkpt>
      <trkpt lat="41.88515" lon="9.14646">
        <ele>1313.23</ele>
        <time>2018-09-03T08:19:41Z</time>
      </trkpt>
      <trkpt lat="41.88508" lon="9.14617">
        <ele>1313.26</ele>
        <time>2018-09-03T08:20:02Z</time>
      </trkpt>
      <trkpt lat="41.88504" lon="9.14603">
        <ele>1313.27</ele>
        <time>2018-09-03T08:20:15Z</time>
      </trkpt>
      <trkpt lat="41.885" lon="9.14594">
        <ele>1313.28</ele>
        <time>2018-09-03T08:20:34Z</time>
      </trkpt>
      <trkpt lat="41.88494" lon="9.14576">
        <ele>1313.28</ele>
        <time>2018-09-03T08:20:48Z</time>
      </trkpt>
      <trkpt lat="41.88491" lon="9.14571">
        <ele>1313.28</ele>
        <time>2018-09-03T08:20:53Z</time>
      </trkpt>
      <trkpt lat="41.88478" lon="9.14561">
        <ele>1315.89</ele>
        <time>2018-09-03T08:21:08Z</time>
      </trkpt>
      <trkpt lat="41.88474" lon="9.14547">
        <ele>1315.88</ele>
        <time>2018-09-03T08:21:20Z</time>
      </trkpt>
      <trkpt lat="41.8847" lon="9.14521">
        <ele>1315.88</ele>
        <time>2018-09-03T08:21:39Z</time>
      </trkpt>
      <trkpt lat="41.88468" lon="9.14517">
        <ele>1315.82</ele>
        <time>2018-09-03T08:21:42Z</time>
      </trkpt>
      <trkpt lat="41.88467" lon="9.14501">
        <ele>1316.74</ele>
        <time>2018-09-03T08:21:57Z</time>
      </trkpt>
      <trkpt lat="41.88463" lon="9.14489">
        <ele>1316.79</ele>
        <time>2018-09-03T08:22:10Z</time>
      </trkpt>
      <trkpt lat="41.8846" lon="9.14484">
        <ele>1316.78</ele>
        <time>2018-09-03T08:22:27Z</time>
      </trkpt>
      <trkpt lat="41.88453" lon="9.14475">
        <ele>1318.61</ele>
        <time>2018-09-03T08:22:43Z</time>
      </trkpt>
      <trkpt lat="41.88453" lon="9.14471">
        <ele>1319.52</ele>
        <time>2018-09-03T08:22:47Z</time>
      </trkpt>
      <trkpt lat="41.88453" lon="9.1447">
        <ele>1319.47</ele>
        <time>2018-09-03T08:23:03Z</time>
      </trkpt>
      <trkpt lat="41.88454" lon="9.14475">
        <ele>1319.42</ele>
        <time>2018-09-03T08:23:08Z</time>
      </trkpt>
      <trkpt lat="41.88456" lon="9.14481">
        <ele>1319.39</ele>
        <time>2018-09-03T08:23:23Z</time>
      </trkpt>
      <trkpt lat="41.88448" lon="9.14488">
        <ele>1320.25</ele>
        <time>2018-09-03T08:23:39Z</time>
      </trkpt>
      <trkpt lat="41.88443" lon="9.14485">
        <ele>1322.58</ele>
        <time>2018-09-03T08:23:51Z</time>
      </trkpt>
      <trkpt lat="41.88432" lon="9.1448">
        <ele>1325.41</ele>
        <time>2018-09-03T08:24:11Z</time>
      </trkpt>
      <trkpt lat="41.88421" lon="9.14478">
        <ele>1327.43</ele>
        <time>2018-09-03T08:24:29Z</time>
      </trkpt>
      <trkpt lat="41.88414" lon="9.14476">
        <ele>1331.47</ele>
        <time>2018-09-03T08:24:46Z</time>
      </trkpt>
      <trkpt lat="41.88406" lon="9.14473">
        <ele>1332.38</ele>
        <time>2018-09-03T08:25:01Z</time>
      </trkpt>
      <trkpt lat="41.88399" lon="9.14465">
        <ele>1334.42</ele>
        <time>2018-09-03T08:25:17Z</time>
      </trkpt>
      <trkpt lat="41.88393" lon="9.1446">
        <ele>1336.26</ele>
        <time>2018-09-03T08:25:33Z</time>
      </trkpt>
      <trkpt lat="41.88385" lon="9.14456">
        <ele>1338.07</ele>
        <time>2018-09-03T08:25:47Z</time>
      </trkpt>
      <trkpt lat="41.88376" lon="9.14454">
        <ele>1338.95</ele>
        <time>2018-09-03T08:25:59Z</time>
      </trkpt>
      <trkpt lat="41.88366" lon="9.14455">
        <ele>1338.99</ele>
        <time>2018-09-03T08:26:09Z</time>
      </trkpt>
      <trkpt lat="41.88357" lon="9.14452">
        <ele>1338.91</ele>
        <time>2018-09-03T08:26:17Z</time>
      </trkpt>
      <trkpt lat="41.88339" lon="9.14457">
        <ele>1339.1</ele>
        <time>2018-09-03T08:26:34Z</time>
      </trkpt>
      <trkpt lat="41.88337" lon="9.14457">
        <ele>1340.08</ele>
        <time>2018-09-03T08:26:38Z</time>
      </trkpt>
      <trkpt lat="41.88335" lon="9.14456">
        <ele>1340.04</ele>
        <time>2018-09-03T08:26:40Z</time>
      </trkpt>
      <trkpt lat="41.88318" lon="9.14454">
        <ele>1340.91</ele>
        <time>2018-09-03T08:26:57Z</time>
      </trkpt>
      <trkpt lat="41.88298" lon="9.1446">
        <ele>1341.69</ele>
        <time>2018-09-03T08:27:17Z</time>
      </trkpt>
      <trkpt lat="41.88283" lon="9.14465">
        <ele>1343.47</ele>
        <time>2018-09-03T08:27:35Z</time>
      </trkpt>
      <trkpt lat="41.88263" lon="9.14474">
        <ele>1343.39</ele>
        <time>2018-09-03T08:27:56Z</time>
      </trkpt>
      <trkpt lat="41.88251" lon="9.14484">
        <ele>1343.39</ele>
        <time>2018-09-03T08:28:15Z</time>
      </trkpt>
      <trkpt lat="41.8825" lon="9.14487">
        <ele>1343.38</ele>
        <time>2018-09-03T08:28:32Z</time>
      </trkpt>
      <trkpt lat="41.88238" lon="9.145">
        <ele>1343.28</ele>
        <time>2018-09-03T08:28:52Z</time>
      </trkpt>
      <trkpt lat="41.88237" lon="9.14504">
        <ele>1340.93</ele>
        <time>2018-09-03T08:28:55Z</time>
      </trkpt>
      <trkpt lat="41.88234" lon="9.1451">
        <ele>1340.98</ele>
        <time>2018-09-03T08:29:00Z</time>
      </trkpt>
      <trkpt lat="41.8823" lon="9.14512">
        <ele>1341.02</ele>
        <time>2018-09-03T08:29:04Z</time>
      </trkpt>
      <trkpt lat="41.88221" lon="9.14515">
        <ele>1340.33</ele>
        <time>2018-09-03T08:29:12Z</time>
      </trkpt>
      <trkpt lat="41.88202" lon="9.1452">
        <ele>1340.29</ele>
        <time>2018-09-03T08:29:30Z</time>
      </trkpt>
      <trkpt lat="41.88184" lon="9.14528">
        <ele>1339.53</ele>
        <time>2018-09-03T08:29:48Z</time>
      </trkpt>
      <trkpt lat="41.88169" lon="9.14532">
        <ele>1339.61</ele>
        <time>2018-09-03T08:30:03Z</time>
      </trkpt>
      <trkpt lat="41.88153" lon="9.14534">
        <ele>1339.54</ele>
        <time>2018-09-03T08:30:18Z</time>
      </trkpt>
      <trkpt lat="41.88139" lon="9.14543">
        <ele>1336.8</ele>
        <time>2018-09-03T08:30:35Z</time>
      </trkpt>
      <trkpt lat="41.88134" lon="9.14545">
        <ele>1335.72</ele>
        <time>2018-09-03T08:30:41Z</time>
      </trkpt>
      <trkpt lat="41.88129" lon="9.14546">
        <ele>1334.53</ele>
        <time>2018-09-03T08:30:46Z</time>
      </trkpt>
      <trkpt lat="41.88127" lon="9.14549">
        <ele>1334.52</ele>
        <time>2018-09-03T08:30:49Z</time>
      </trkpt>
      <trkpt lat="41.88117" lon="9.14547">
        <ele>1334.66</ele>
        <time>2018-09-03T08:31:02Z</time>
      </trkpt>
      <trkpt lat="41.8811" lon="9.14537">
        <ele>1334.74</ele>
        <time>2018-09-03T08:31:15Z</time>
      </trkpt>
      <trkpt lat="41.88098" lon="9.14525">
        <ele>1332.66</ele>
        <time>2018-09-03T08:31:29Z</time>
      </trkpt>
      <trkpt lat="41.88094" lon="9.14523">
        <ele>1332.68</ele>
        <time>2018-09-03T08:31:32Z</time>
      </trkpt>
      <trkpt lat="41.88092" lon="9.14523">
        <ele>1332.68</ele>
        <time>2018-09-03T08:31:34Z</time>
      </trkpt>
      <trkpt lat="41.8808" lon="9.14515">
        <ele>1332.73</ele>
        <time>2018-09-03T08:31:44Z</time>
      </trkpt>
      <trkpt lat="41.88076" lon="9.14514">
        <ele>1332.81</ele>
        <time>2018-09-03T08:31:47Z</time>
      </trkpt>
      <trkpt lat="41.88059" lon="9.14511">
        <ele>1332.09</ele>
        <time>2018-09-03T08:32:03Z</time>
      </trkpt>
      <trkpt lat="41.88057" lon="9.14509">
        <ele>1332.09</ele>
        <time>2018-09-03T08:32:06Z</time>
      </trkpt>
      <trkpt lat="41.88044" lon="9.145">
        <ele>1332.13</ele>
        <time>2018-09-03T08:32:19Z</time>
      </trkpt>
      <trkpt lat="41.88041" lon="9.14499">
        <ele>1332.15</ele>
        <time>2018-09-03T08:32:22Z</time>
      </trkpt>
      <trkpt lat="41.88037" lon="9.14495">
        <ele>1332.09</ele>
        <time>2018-09-03T08:32:28Z</time>
      </trkpt>
      <trkpt lat="41.88023" lon="9.14488">
        <ele>1331.23</ele>
        <time>2018-09-03T08:32:42Z</time>
      </trkpt>
      <trkpt lat="41.88022" lon="9.14487">
        <ele>1331.2</ele>
        <time>2018-09-03T08:32:43Z</time>
      </trkpt>
      <trkpt lat="41.88007" lon="9.14489">
        <ele>1331.33</ele>
        <time>2018-09-03T08:33:00Z</time>
      </trkpt>
      <trkpt lat="41.88005" lon="9.14491">
        <ele>1333.74</ele>
        <time>2018-09-03T08:33:02Z</time>
      </trkpt>
      <trkpt lat="41.87994" lon="9.145">
        <ele>1335.24</ele>
        <time>2018-09-03T08:33:17Z</time>
      </trkpt>
      <trkpt lat="41.87989" lon="9.14504">
        <ele>1336.17</ele>
        <time>2018-09-03T08:33:23Z</time>
      </trkpt>
      <trkpt lat="41.87982" lon="9.1451">
        <ele>1336.11</ele>
        <time>2018-09-03T08:33:32Z</time>
      </trkpt>
      <trkpt lat="41.87975" lon="9.14514">
        <ele>1336.96</ele>
        <time>2018-09-03T08:33:46Z</time>
      </trkpt>
      <trkpt lat="41.87967" lon="9.1452">
        <ele>1337</ele>
        <time>2018-09-03T08:33:58Z</time>
      </trkpt>
      <trkpt lat="41.87954" lon="9.14523">
        <ele>1338.09</ele>
        <time>2018-09-03T08:34:12Z</time>
      </trkpt>
      <trkpt lat="41.87942" lon="9.1453">
        <ele>1338.94</ele>
        <time>2018-09-03T08:34:26Z</time>
      </trkpt>
      <trkpt lat="41.87934" lon="9.14531">
        <ele>1339.94</ele>
        <time>2018-09-03T08:34:35Z</time>
      </trkpt>
      <trkpt lat="41.8792" lon="9.14533">
        <ele>1340.84</ele>
        <time>2018-09-03T08:34:50Z</time>
      </trkpt>
      <trkpt lat="41.87907" lon="9.14534">
        <ele>1343.65</ele>
        <time>2018-09-03T08:35:04Z</time>
      </trkpt>
      <trkpt lat="41.87897" lon="9.14542">
        <ele>1343.67</ele>
        <time>2018-09-03T08:35:16Z</time>
      </trkpt>
      <trkpt lat="41.87888" lon="9.14561">
        <ele>1345.6</ele>
        <time>2018-09-03T08:35:30Z</time>
      </trkpt>
      <trkpt lat="41.87882" lon="9.14568">
        <ele>1345.61</ele>
        <time>2018-09-03T08:35:37Z</time>
      </trkpt>
      <trkpt lat="41.87866" lon="9.14577">
        <ele>1346.64</ele>
        <time>2018-09-03T08:35:55Z</time>
      </trkpt>
      <trkpt lat="41.87862" lon="9.14577">
        <ele>1346.63</ele>
        <time>2018-09-03T08:35:59Z</time>
      </trkpt>
      <trkpt lat="41.87857" lon="9.14584">
        <ele>1346.61</ele>
        <time>2018-09-03T08:36:05Z</time>
      </trkpt>
      <trkpt lat="41.87859" lon="9.14611">
        <ele>1346.59</ele>
        <time>2018-09-03T08:36:22Z</time>
      </trkpt>
      <trkpt lat="41.87864" lon="9.14635">
        <ele>1346.58</ele>
        <time>2018-09-03T08:36:38Z</time>
      </trkpt>
      <trkpt lat="41.87864" lon="9.14658">
        <ele>1346.66</ele>
        <time>2018-09-03T08:36:55Z</time>
      </trkpt>
      <trkpt lat="41.87863" lon="9.14677">
        <ele>1347.5</ele>
        <time>2018-09-03T08:37:11Z</time>
      </trkpt>
      <trkpt lat="41.87862" lon="9.14691">
        <ele>1349.1</ele>
        <time>2018-09-03T08:37:25Z</time>
      </trkpt>
      <trkpt lat="41.87863" lon="9.14704">
        <ele>1350.07</ele>
        <time>2018-09-03T08:37:35Z</time>
      </trkpt>
      <trkpt lat="41.87863" lon="9.1471">
        <ele>1350.06</ele>
        <time>2018-09-03T08:37:39Z</time>
      </trkpt>
      <trkpt lat="41.87861" lon="9.14715">
        <ele>1350.02</ele>
        <time>2018-09-03T08:37:43Z</time>
      </trkpt>
      <trkpt lat="41.8786" lon="9.1472">
        <ele>1350.02</ele>
        <time>2018-09-03T08:37:46Z</time>
      </trkpt>
      <trkpt lat="41.87855" lon="9.14736">
        <ele>1350.83</ele>
        <time>2018-09-03T08:38:01Z</time>
      </trkpt>
      <trkpt lat="41.87852" lon="9.14752">
        <ele>1350.85</ele>
        <time>2018-09-03T08:38:14Z</time>
      </trkpt>
      <trkpt lat="41.87852" lon="9.14756">
        <ele>1350.87</ele>
        <time>2018-09-03T08:38:17Z</time>
      </trkpt>
      <trkpt lat="41.87846" lon="9.14772">
        <ele>1351.93</ele>
        <time>2018-09-03T08:38:30Z</time>
      </trkpt>
      <trkpt lat="41.87846" lon="9.14776">
        <ele>1351.96</ele>
        <time>2018-09-03T08:38:33Z</time>
      </trkpt>
      <trkpt lat="41.87841" lon="9.14794">
        <ele>1354.21</ele>
        <time>2018-09-03T08:38:49Z</time>
      </trkpt>
      <trkpt lat="41.87842" lon="9.14808">
        <ele>1355.02</ele>
        <time>2018-09-03T08:39:04Z</time>
      </trkpt>
      <trkpt lat="41.87838" lon="9.14822">
        <ele>1355.01</ele>
        <time>2018-09-03T08:39:19Z</time>
      </trkpt>
      <trkpt lat="41.87837" lon="9.14824">
        <ele>1354.99</ele>
        <time>2018-09-03T08:39:21Z</time>
      </trkpt>
      <trkpt lat="41.87829" lon="9.14844">
        <ele>1355.09</ele>
        <time>2018-09-03T08:39:36Z</time>
      </trkpt>
      <trkpt lat="41.8782" lon="9.14854">
        <ele>1356</ele>
        <time>2018-09-03T08:39:50Z</time>
      </trkpt>
      <trkpt lat="41.87812" lon="9.14865">
        <ele>1358.08</ele>
        <time>2018-09-03T08:40:06Z</time>
      </trkpt>
      <trkpt lat="41.87812" lon="9.14866">
        <ele>1358.1</ele>
        <time>2018-09-03T08:40:07Z</time>
      </trkpt>
      <trkpt lat="41.87802" lon="9.14875">
        <ele>1359.1</ele>
        <time>2018-09-03T08:40:22Z</time>
      </trkpt>
      <trkpt lat="41.87792" lon="9.14889">
        <ele>1359.2</ele>
        <time>2018-09-03T08:40:38Z</time>
      </trkpt>
      <trkpt lat="41.87789" lon="9.14902">
        <ele>1361.11</ele>
        <time>2018-09-03T08:40:51Z</time>
      </trkpt>
      <trkpt lat="41.8779" lon="9.14904">
        <ele>1361.11</ele>
        <time>2018-09-03T08:40:52Z</time>
      </trkpt>
      <trkpt lat="41.87789" lon="9.14911">
        <ele>1361.16</ele>
        <time>2018-09-03T08:41:09Z</time>
      </trkpt>
      <trkpt lat="41.87787" lon="9.14916">
        <ele>1362.31</ele>
        <time>2018-09-03T08:41:31Z</time>
      </trkpt>
      <trkpt lat="41.87783" lon="9.14924">
        <ele>1363.18</ele>
        <time>2018-09-03T08:41:47Z</time>
      </trkpt>
      <trkpt lat="41.8778" lon="9.14929">
        <ele>1364.06</ele>
        <time>2018-09-03T08:41:59Z</time>
      </trkpt>
      <trkpt lat="41.87776" lon="9.1493">
        <ele>1364.84</ele>
        <time>2018-09-03T08:42:05Z</time>
      </trkpt>
      <trkpt lat="41.87768" lon="9.14932">
        <ele>1366.37</ele>
        <time>2018-09-03T08:42:15Z</time>
      </trkpt>
      <trkpt lat="41.87763" lon="9.1494">
        <ele>1368.23</ele>
        <time>2018-09-03T08:42:33Z</time>
      </trkpt>
      <trkpt lat="41.87758" lon="9.14946">
        <ele>1370.87</ele>
        <time>2018-09-03T08:42:51Z</time>
      </trkpt>
      <trkpt lat="41.87746" lon="9.14951">
        <ele>1372.89</ele>
        <time>2018-09-03T08:43:11Z</time>
      </trkpt>
      <trkpt lat="41.87731" lon="9.14946">
        <ele>1374.73</ele>
        <time>2018-09-03T08:43:29Z</time>
      </trkpt>
      <trkpt lat="41.87727" lon="9.14953">
        <ele>1376.64</ele>
        <time>2018-09-03T08:43:44Z</time>
      </trkpt>
      <trkpt lat="41.87719" lon="9.14955">
        <ele>1379.37</ele>
        <time>2018-09-03T08:44:02Z</time>
      </trkpt>
      <trkpt lat="41.87711" lon="9.14959">
        <ele>1381.08</ele>
        <time>2018-09-03T08:44:19Z</time>
      </trkpt>
      <trkpt lat="41.87702" lon="9.14956">
        <ele>1382.87</ele>
        <time>2018-09-03T08:44:35Z</time>
      </trkpt>
      <trkpt lat="41.87689" lon="9.14958">
        <ele>1383.63</ele>
        <time>2018-09-03T08:44:48Z</time>
      </trkpt>
      <trkpt lat="41.8768" lon="9.14965">
        <ele>1384.73</ele>
        <time>2018-09-03T08:45:03Z</time>
      </trkpt>
      <trkpt lat="41.87673" lon="9.14958">
        <ele>1385.57</ele>
        <time>2018-09-03T08:45:20Z</time>
      </trkpt>
      <trkpt lat="41.8767" lon="9.14957">
        <ele>1387.01</ele>
        <time>2018-09-03T08:45:26Z</time>
      </trkpt>
      <trkpt lat="41.87662" lon="9.1496">
        <ele>1389.12</ele>
        <time>2018-09-03T08:45:41Z</time>
      </trkpt>
      <trkpt lat="41.87649" lon="9.14964">
        <ele>1391.93</ele>
        <time>2018-09-03T08:46:00Z</time>
      </trkpt>
      <trkpt lat="41.87643" lon="9.14962">
        <ele>1393.59</ele>
        <time>2018-09-03T08:46:16Z</time>
      </trkpt>
      <trkpt lat="41.87638" lon="9.14959">
        <ele>1394.74</ele>
        <time>2018-09-03T08:46:28Z</time>
      </trkpt>
      <trkpt lat="41.87634" lon="9.14956">
        <ele>1396.25</ele>
        <time>2018-09-03T08:46:35Z</time>
      </trkpt>
      <trkpt lat="41.87628" lon="9.1496">
        <ele>1397.5</ele>
        <time>2018-09-03T08:46:49Z</time>
      </trkpt>
      <trkpt lat="41.87624" lon="9.14964">
        <ele>1398.6</ele>
        <time>2018-09-03T08:47:02Z</time>
      </trkpt>
      <trkpt lat="41.87622" lon="9.1497">
        <ele>1399.71</ele>
        <time>2018-09-03T08:47:15Z</time>
      </trkpt>
      <trkpt lat="41.87616" lon="9.14973">
        <ele>1401.83</ele>
        <time>2018-09-03T08:47:29Z</time>
      </trkpt>
      <trkpt lat="41.87609" lon="9.14981">
        <ele>1403.54</ele>
        <time>2018-09-03T08:47:42Z</time>
      </trkpt>
      <trkpt lat="41.87601" lon="9.14989">
        <ele>1405.63</ele>
        <time>2018-09-03T08:47:54Z</time>
      </trkpt>
      <trkpt lat="41.876" lon="9.15001">
        <ele>1405.63</ele>
        <time>2018-09-03T08:48:03Z</time>
      </trkpt>
      <trkpt lat="41.87597" lon="9.1501">
        <ele>1405.65</ele>
        <time>2018-09-03T08:48:10Z</time>
      </trkpt>
      <trkpt lat="41.87587" lon="9.15018">
        <ele>1406.5</ele>
        <time>2018-09-03T08:48:24Z</time>
      </trkpt>
      <trkpt lat="41.87577" lon="9.15021">
        <ele>1408.08</ele>
        <time>2018-09-03T08:48:36Z</time>
      </trkpt>
      <trkpt lat="41.87563" lon="9.15027">
        <ele>1409.92</ele>
        <time>2018-09-03T08:48:53Z</time>
      </trkpt>
      <trkpt lat="41.87554" lon="9.15032">
        <ele>1410.79</ele>
        <time>2018-09-03T08:49:07Z</time>
      </trkpt>
      <trkpt lat="41.87548" lon="9.15034">
        <ele>1411.58</ele>
        <time>2018-09-03T08:49:14Z</time>
      </trkpt>
      <trkpt lat="41.87535" lon="9.15032">
        <ele>1413.49</ele>
        <time>2018-09-03T08:49:29Z</time>
      </trkpt>
      <trkpt lat="41.87525" lon="9.15027">
        <ele>1413.44</ele>
        <time>2018-09-03T08:49:45Z</time>
      </trkpt>
      <trkpt lat="41.87523" lon="9.1503">
        <ele>1410.88</ele>
        <time>2018-09-03T08:49:50Z</time>
      </trkpt>
      <trkpt lat="41.87514" lon="9.15033">
        <ele>1409.85</ele>
        <time>2018-09-03T08:50:04Z</time>
      </trkpt>
      <trkpt lat="41.87508" lon="9.15039">
        <ele>1408.17</ele>
        <time>2018-09-03T08:50:18Z</time>
      </trkpt>
      <trkpt lat="41.87508" lon="9.15042">
        <ele>1407.39</ele>
        <time>2018-09-03T08:50:27Z</time>
      </trkpt>
      <trkpt lat="41.87501" lon="9.15052">
        <ele>1406.47</ele>
        <time>2018-09-03T08:50:37Z</time>
      </trkpt>
      <trkpt lat="41.87499" lon="9.15055">
        <ele>1406.48</ele>
        <time>2018-09-03T08:50:40Z</time>
      </trkpt>
      <trkpt lat="41.87494" lon="9.15071">
        <ele>1406.47</ele>
        <time>2018-09-03T08:50:54Z</time>
      </trkpt>
      <trkpt lat="41.87494" lon="9.15077">
        <ele>1406.45</ele>
        <time>2018-09-03T08:50:58Z</time>
      </trkpt>
      <trkpt lat="41.87496" lon="9.15089">
        <ele>1408.72</ele>
        <time>2018-09-03T08:51:08Z</time>
      </trkpt>
      <trkpt lat="41.87496" lon="9.15097">
        <ele>1408.67</ele>
        <time>2018-09-03T08:51:33Z</time>
      </trkpt>
      <trkpt lat="41.87497" lon="9.151">
        <ele>1408.67</ele>
        <time>2018-09-03T08:51:35Z</time>
      </trkpt>
      <trkpt lat="41.87495" lon="9.15105">
        <ele>1408.67</ele>
        <time>2018-09-03T08:51:39Z</time>
      </trkpt>
      <trkpt lat="41.87479" lon="9.15128">
        <ele>1408.66</ele>
        <time>2018-09-03T08:51:59Z</time>
      </trkpt>
      <trkpt lat="41.87463" lon="9.15148">
        <ele>1408.71</ele>
        <time>2018-09-03T08:52:17Z</time>
      </trkpt>
      <trkpt lat="41.87448" lon="9.15168">
        <ele>1409.62</ele>
        <time>2018-09-03T08:52:36Z</time>
      </trkpt>
      <trkpt lat="41.87432" lon="9.15183">
        <ele>1410.58</ele>
        <time>2018-09-03T08:52:53Z</time>
      </trkpt>
      <trkpt lat="41.8742" lon="9.15199">
        <ele>1412.39</ele>
        <time>2018-09-03T08:53:09Z</time>
      </trkpt>
      <trkpt lat="41.87404" lon="9.15219">
        <ele>1413.12</ele>
        <time>2018-09-03T08:53:28Z</time>
      </trkpt>
      <trkpt lat="41.87394" lon="9.15231">
        <ele>1410.86</ele>
        <time>2018-09-03T08:53:39Z</time>
      </trkpt>
      <trkpt lat="41.87383" lon="9.15246">
        <ele>1409.97</ele>
        <time>2018-09-03T08:53:53Z</time>
      </trkpt>
      <trkpt lat="41.87373" lon="9.15266">
        <ele>1408.94</ele>
        <time>2018-09-03T08:54:10Z</time>
      </trkpt>
      <trkpt lat="41.87362" lon="9.15289">
        <ele>1408.95</ele>
        <time>2018-09-03T08:54:28Z</time>
      </trkpt>
      <trkpt lat="41.87352" lon="9.15309">
        <ele>1407.92</ele>
        <time>2018-09-03T08:54:43Z</time>
      </trkpt>
      <trkpt lat="41.87345" lon="9.15333">
        <ele>1407.94</ele>
        <time>2018-09-03T08:55:00Z</time>
      </trkpt>
      <trkpt lat="41.87338" lon="9.15349">
        <ele>1407.94</ele>
        <time>2018-09-03T08:55:16Z</time>
      </trkpt>
      <trkpt lat="41.87337" lon="9.15351">
        <ele>1407.95</ele>
        <time>2018-09-03T08:55:41Z</time>
      </trkpt>
      <trkpt lat="41.87335" lon="9.15357">
        <ele>1407.96</ele>
        <time>2018-09-03T08:55:57Z</time>
      </trkpt>
      <trkpt lat="41.87335" lon="9.15364">
        <ele>1407.99</ele>
        <time>2018-09-03T08:56:20Z</time>
      </trkpt>
      <trkpt lat="41.87334" lon="9.15367">
        <ele>1410.34</ele>
        <time>2018-09-03T08:56:23Z</time>
      </trkpt>
      <trkpt lat="41.87327" lon="9.15385">
        <ele>1410.36</ele>
        <time>2018-09-03T08:56:38Z</time>
      </trkpt>
      <trkpt lat="41.8732" lon="9.15403">
        <ele>1412.01</ele>
        <time>2018-09-03T08:56:53Z</time>
      </trkpt>
      <trkpt lat="41.87313" lon="9.15426">
        <ele>1412.8</ele>
        <time>2018-09-03T08:57:10Z</time>
      </trkpt>
      <trkpt lat="41.87306" lon="9.15443">
        <ele>1414.56</ele>
        <time>2018-09-03T08:57:24Z</time>
      </trkpt>
      <trkpt lat="41.87297" lon="9.15461">
        <ele>1416.34</ele>
        <time>2018-09-03T08:57:41Z</time>
      </trkpt>
      <trkpt lat="41.87292" lon="9.15481">
        <ele>1417.43</ele>
        <time>2018-09-03T08:57:57Z</time>
      </trkpt>
      <trkpt lat="41.87288" lon="9.15496">
        <ele>1419.36</ele>
        <time>2018-09-03T08:58:10Z</time>
      </trkpt>
      <trkpt lat="41.87283" lon="9.15509">
        <ele>1420.45</ele>
        <time>2018-09-03T08:58:21Z</time>
      </trkpt>
      <trkpt lat="41.87282" lon="9.15538">
        <ele>1421.55</ele>
        <time>2018-09-03T08:58:39Z</time>
      </trkpt>
      <trkpt lat="41.87282" lon="9.15564">
        <ele>1421.61</ele>
        <time>2018-09-03T08:58:56Z</time>
      </trkpt>
      <trkpt lat="41.87274" lon="9.15593">
        <ele>1421.63</ele>
        <time>2018-09-03T08:59:18Z</time>
      </trkpt>
      <trkpt lat="41.87264" lon="9.15611">
        <ele>1423.32</ele>
        <time>2018-09-03T08:59:34Z</time>
      </trkpt>
      <trkpt lat="41.87246" lon="9.15621">
        <ele>1424.96</ele>
        <time>2018-09-03T08:59:53Z</time>
      </trkpt>
      <trkpt lat="41.87228" lon="9.15616">
        <ele>1425.76</ele>
        <time>2018-09-03T09:00:09Z</time>
      </trkpt>
      <trkpt lat="41.87211" lon="9.15608">
        <ele>1425.8</ele>
        <time>2018-09-03T09:00:27Z</time>
      </trkpt>
      <trkpt lat="41.87208" lon="9.15607">
        <ele>1423.52</ele>
        <time>2018-09-03T09:00:30Z</time>
      </trkpt>
      <trkpt lat="41.87186" lon="9.15607">
        <ele>1422.58</ele>
        <time>2018-09-03T09:00:49Z</time>
      </trkpt>
      <trkpt lat="41.87169" lon="9.15613">
        <ele>1421.31</ele>
        <time>2018-09-03T09:01:04Z</time>
      </trkpt>
      <trkpt lat="41.87153" lon="9.15612">
        <ele>1420.53</ele>
        <time>2018-09-03T09:01:19Z</time>
      </trkpt>
      <trkpt lat="41.87149" lon="9.15609">
        <ele>1420.46</ele>
        <time>2018-09-03T09:01:23Z</time>
      </trkpt>
      <trkpt lat="41.87129" lon="9.15605">
        <ele>1419.72</ele>
        <time>2018-09-03T09:01:41Z</time>
      </trkpt>
      <trkpt lat="41.87112" lon="9.15602">
        <ele>1417.91</ele>
        <time>2018-09-03T09:01:57Z</time>
      </trkpt>
      <trkpt lat="41.87093" lon="9.15602">
        <ele>1417.99</ele>
        <time>2018-09-03T09:02:13Z</time>
      </trkpt>
      <trkpt lat="41.87073" lon="9.15603">
        <ele>1416.72</ele>
        <time>2018-09-03T09:02:30Z</time>
      </trkpt>
      <trkpt lat="41.8705" lon="9.15609">
        <ele>1416.72</ele>
        <time>2018-09-03T09:02:49Z</time>
      </trkpt>
      <trkpt lat="41.87034" lon="9.15607">
        <ele>1416.7</ele>
        <time>2018-09-03T09:03:03Z</time>
      </trkpt>
      <trkpt lat="41.87018" lon="9.15604">
        <ele>1415.81</ele>
        <time>2018-09-03T09:03:21Z</time>
      </trkpt>
      <trkpt lat="41.87004" lon="9.156">
        <ele>1415.88</ele>
        <time>2018-09-03T09:03:34Z</time>
      </trkpt>
      <trkpt lat="41.86985" lon="9.15593">
        <ele>1415.78</ele>
        <time>2018-09-03T09:03:53Z</time>
      </trkpt>
      <trkpt lat="41.86969" lon="9.15585">
        <ele>1418.41</ele>
        <time>2018-09-03T09:04:08Z</time>
      </trkpt>
      <trkpt lat="41.86952" lon="9.15582">
        <ele>1418.39</ele>
        <time>2018-09-03T09:04:23Z</time>
      </trkpt>
      <trkpt lat="41.86932" lon="9.15579">
        <ele>1418.33</ele>
        <time>2018-09-03T09:04:41Z</time>
      </trkpt>
      <trkpt lat="41.8691" lon="9.15577">
        <ele>1419.38</ele>
        <time>2018-09-03T09:05:00Z</time>
      </trkpt>
      <trkpt lat="41.86901" lon="9.15583">
        <ele>1420.29</ele>
        <time>2018-09-03T09:05:17Z</time>
      </trkpt>
      <trkpt lat="41.86892" lon="9.15591">
        <ele>1420.31</ele>
        <time>2018-09-03T09:05:39Z</time>
      </trkpt>
      <trkpt lat="41.86883" lon="9.15598">
        <ele>1420.39</ele>
        <time>2018-09-03T09:05:49Z</time>
      </trkpt>
      <trkpt lat="41.86865" lon="9.15613">
        <ele>1420.35</ele>
        <time>2018-09-03T09:06:08Z</time>
      </trkpt>
      <trkpt lat="41.86859" lon="9.15614">
        <ele>1420.35</ele>
        <time>2018-09-03T09:06:13Z</time>
      </trkpt>
      <trkpt lat="41.8684" lon="9.15619">
        <ele>1420.39</ele>
        <time>2018-09-03T09:06:31Z</time>
      </trkpt>
      <trkpt lat="41.86822" lon="9.15618">
        <ele>1420.44</ele>
        <time>2018-09-03T09:06:47Z</time>
      </trkpt>
      <trkpt lat="41.86807" lon="9.15616">
        <ele>1421.39</ele>
        <time>2018-09-03T09:07:01Z</time>
      </trkpt>
      <trkpt lat="41.8679" lon="9.15612">
        <ele>1421.44</ele>
        <time>2018-09-03T09:07:16Z</time>
      </trkpt>
      <trkpt lat="41.86773" lon="9.15615">
        <ele>1422.36</ele>
        <time>2018-09-03T09:07:31Z</time>
      </trkpt>
      <trkpt lat="41.8676" lon="9.15622">
        <ele>1423.29</ele>
        <time>2018-09-03T09:07:45Z</time>
      </trkpt>
      <trkpt lat="41.86748" lon="9.15632">
        <ele>1423.28</ele>
        <time>2018-09-03T09:07:59Z</time>
      </trkpt>
      <trkpt lat="41.86741" lon="9.15641">
        <ele>1424.13</ele>
        <time>2018-09-03T09:08:12Z</time>
      </trkpt>
      <trkpt lat="41.86732" lon="9.15647">
        <ele>1424.13</ele>
        <time>2018-09-03T09:08:24Z</time>
      </trkpt>
      <trkpt lat="41.86729" lon="9.15652">
        <ele>1424.09</ele>
        <time>2018-09-03T09:08:28Z</time>
      </trkpt>
      <trkpt lat="41.86727" lon="9.15655">
        <ele>1424.11</ele>
        <time>2018-09-03T09:08:31Z</time>
      </trkpt>
      <trkpt lat="41.86718" lon="9.1567">
        <ele>1424.2</ele>
        <time>2018-09-03T09:08:45Z</time>
      </trkpt>
      <trkpt lat="41.86712" lon="9.15682">
        <ele>1424.28</ele>
        <time>2018-09-03T09:08:54Z</time>
      </trkpt>
      <trkpt lat="41.8671" lon="9.15683">
        <ele>1424.28</ele>
        <time>2018-09-03T09:08:56Z</time>
      </trkpt>
      <trkpt lat="41.86702" lon="9.15696">
        <ele>1424.25</ele>
        <time>2018-09-03T09:09:07Z</time>
      </trkpt>
      <trkpt lat="41.86688" lon="9.15715">
        <ele>1425.14</ele>
        <time>2018-09-03T09:09:25Z</time>
      </trkpt>
      <trkpt lat="41.86674" lon="9.15735">
        <ele>1425.16</ele>
        <time>2018-09-03T09:09:43Z</time>
      </trkpt>
      <trkpt lat="41.86668" lon="9.1574">
        <ele>1425.16</ele>
        <time>2018-09-03T09:09:49Z</time>
      </trkpt>
      <trkpt lat="41.86654" lon="9.15758">
        <ele>1426.03</ele>
        <time>2018-09-03T09:10:06Z</time>
      </trkpt>
      <trkpt lat="41.86647" lon="9.15772">
        <ele>1426.07</ele>
        <time>2018-09-03T09:10:23Z</time>
      </trkpt>
      <trkpt lat="41.86646" lon="9.15773">
        <ele>1426.08</ele>
        <time>2018-09-03T09:10:26Z</time>
      </trkpt>
      <trkpt lat="41.86645" lon="9.15777">
        <ele>1426.08</ele>
        <time>2018-09-03T09:10:31Z</time>
      </trkpt>
      <trkpt lat="41.86638" lon="9.15782">
        <ele>1426.09</ele>
        <time>2018-09-03T09:10:39Z</time>
      </trkpt>
      <trkpt lat="41.86627" lon="9.15783">
        <ele>1426.19</ele>
        <time>2018-09-03T09:10:49Z</time>
      </trkpt>
      <trkpt lat="41.86608" lon="9.15784">
        <ele>1426.03</ele>
        <time>2018-09-03T09:11:05Z</time>
      </trkpt>
      <trkpt lat="41.866" lon="9.15785">
        <ele>1426.13</ele>
        <time>2018-09-03T09:11:21Z</time>
      </trkpt>
      <trkpt lat="41.86592" lon="9.15785">
        <ele>1426.13</ele>
        <time>2018-09-03T09:11:39Z</time>
      </trkpt>
      <trkpt lat="41.86589" lon="9.15784">
        <ele>1426.14</ele>
        <time>2018-09-03T09:11:42Z</time>
      </trkpt>
      <trkpt lat="41.86586" lon="9.15785">
        <ele>1426.12</ele>
        <time>2018-09-03T09:11:45Z</time>
      </trkpt>
      <trkpt lat="41.8657" lon="9.15779">
        <ele>1426.19</ele>
        <time>2018-09-03T09:12:00Z</time>
      </trkpt>
      <trkpt lat="41.86555" lon="9.15768">
        <ele>1426.29</ele>
        <time>2018-09-03T09:12:15Z</time>
      </trkpt>
      <trkpt lat="41.86541" lon="9.1576">
        <ele>1426.27</ele>
        <time>2018-09-03T09:12:29Z</time>
      </trkpt>
      <trkpt lat="41.8654" lon="9.15759">
        <ele>1426.29</ele>
        <time>2018-09-03T09:12:30Z</time>
      </trkpt>
      <trkpt lat="41.86524" lon="9.15759">
        <ele>1427.28</ele>
        <time>2018-09-03T09:12:46Z</time>
      </trkpt>
      <trkpt lat="41.86507" lon="9.15761">
        <ele>1427.34</ele>
        <time>2018-09-03T09:13:02Z</time>
      </trkpt>
      <trkpt lat="41.86495" lon="9.15767">
        <ele>1429.26</ele>
        <time>2018-09-03T09:13:16Z</time>
      </trkpt>
      <trkpt lat="41.86479" lon="9.15774">
        <ele>1430.36</ele>
        <time>2018-09-03T09:13:32Z</time>
      </trkpt>
      <trkpt lat="41.86462" lon="9.15782">
        <ele>1430.47</ele>
        <time>2018-09-03T09:13:48Z</time>
      </trkpt>
      <trkpt lat="41.86447" lon="9.15792">
        <ele>1431.21</ele>
        <time>2018-09-03T09:14:04Z</time>
      </trkpt>
      <trkpt lat="41.86439" lon="9.15796">
        <ele>1431.22</ele>
        <time>2018-09-03T09:14:11Z</time>
      </trkpt>
      <trkpt lat="41.86422" lon="9.15807">
        <ele>1432.12</ele>
        <time>2018-09-03T09:14:29Z</time>
      </trkpt>
      <trkpt lat="41.86407" lon="9.15814">
        <ele>1432.11</ele>
        <time>2018-09-03T09:14:43Z</time>
      </trkpt>
      <trkpt lat="41.86404" lon="9.15819">
        <ele>1432.12</ele>
        <time>2018-09-03T09:14:47Z</time>
      </trkpt>
      <trkpt lat="41.86389" lon="9.15823">
        <ele>1433.08</ele>
        <time>2018-09-03T09:15:02Z</time>
      </trkpt>
      <trkpt lat="41.86386" lon="9.15825">
        <ele>1433.11</ele>
        <time>2018-09-03T09:15:06Z</time>
      </trkpt>
      <trkpt lat="41.86381" lon="9.15825">
        <ele>1433.14</ele>
        <time>2018-09-03T09:15:10Z</time>
      </trkpt>
      <trkpt lat="41.86377" lon="9.15825">
        <ele>1433.14</ele>
        <time>2018-09-03T09:15:14Z</time>
      </trkpt>
      <trkpt lat="41.86363" lon="9.15821">
        <ele>1433.12</ele>
        <time>2018-09-03T09:15:29Z</time>
      </trkpt>
      <trkpt lat="41.86348" lon="9.15817">
        <ele>1433.89</ele>
        <time>2018-09-03T09:15:42Z</time>
      </trkpt>
      <trkpt lat="41.8633" lon="9.15812">
        <ele>1433.97</ele>
        <time>2018-09-03T09:15:58Z</time>
      </trkpt>
      <trkpt lat="41.86329" lon="9.15812">
        <ele>1433.97</ele>
        <time>2018-09-03T09:15:59Z</time>
      </trkpt>
      <trkpt lat="41.86327" lon="9.15813">
        <ele>1433.97</ele>
        <time>2018-09-03T09:16:01Z</time>
      </trkpt>
      <trkpt lat="41.86317" lon="9.15811">
        <ele>1434.09</ele>
        <time>2018-09-03T09:16:10Z</time>
      </trkpt>
      <trkpt lat="41.86308" lon="9.15816">
        <ele>1435.03</ele>
        <time>2018-09-03T09:16:20Z</time>
      </trkpt>
      <trkpt lat="41.86291" lon="9.15819">
        <ele>1435.14</ele>
        <time>2018-09-03T09:16:36Z</time>
      </trkpt>
      <trkpt lat="41.8629" lon="9.15817">
        <ele>1436.01</ele>
        <time>2018-09-03T09:16:53Z</time>
      </trkpt>
      <trkpt lat="41.86291" lon="9.15812">
        <ele>1436.07</ele>
        <time>2018-09-03T09:17:06Z</time>
      </trkpt>
      <trkpt lat="41.86291" lon="9.15814">
        <ele>1436.26</ele>
        <time>2018-09-03T09:17:33Z</time>
      </trkpt>
      <trkpt lat="41.86287" lon="9.15823">
        <ele>1436.33</ele>
        <time>2018-09-03T09:17:55Z</time>
      </trkpt>
      <trkpt lat="41.86273" lon="9.15826">
        <ele>1436.42</ele>
        <time>2018-09-03T09:18:08Z</time>
      </trkpt>
      <trkpt lat="41.86264" lon="9.15826">
        <ele>1436.45</ele>
        <time>2018-09-03T09:18:23Z</time>
      </trkpt>
      <trkpt lat="41.86249" lon="9.1583">
        <ele>1437.3</ele>
        <time>2018-09-03T09:18:37Z</time>
      </trkpt>
      <trkpt lat="41.86241" lon="9.15833">
        <ele>1437.32</ele>
        <time>2018-09-03T09:18:44Z</time>
      </trkpt>
      <trkpt lat="41.86225" lon="9.15845">
        <ele>1438.17</ele>
        <time>2018-09-03T09:19:01Z</time>
      </trkpt>
      <trkpt lat="41.86224" lon="9.15846">
        <ele>1438.15</ele>
        <time>2018-09-03T09:19:03Z</time>
      </trkpt>
      <trkpt lat="41.86213" lon="9.1586">
        <ele>1438.97</ele>
        <time>2018-09-03T09:19:17Z</time>
      </trkpt>
      <trkpt lat="41.86206" lon="9.15871">
        <ele>1439.81</ele>
        <time>2018-09-03T09:19:26Z</time>
      </trkpt>
      <trkpt lat="41.86198" lon="9.15896">
        <ele>1439.81</ele>
        <time>2018-09-03T09:19:43Z</time>
      </trkpt>
      <trkpt lat="41.86197" lon="9.15916">
        <ele>1440.66</ele>
        <time>2018-09-03T09:19:58Z</time>
      </trkpt>
      <trkpt lat="41.86201" lon="9.15937">
        <ele>1441.54</ele>
        <time>2018-09-03T09:20:13Z</time>
      </trkpt>
      <trkpt lat="41.86201" lon="9.15954">
        <ele>1441.56</ele>
        <time>2018-09-03T09:20:29Z</time>
      </trkpt>
      <trkpt lat="41.86204" lon="9.15951">
        <ele>1441.58</ele>
        <time>2018-09-03T09:20:50Z</time>
      </trkpt>
      <trkpt lat="41.86202" lon="9.15953">
        <ele>1442.37</ele>
        <time>2018-09-03T09:21:11Z</time>
      </trkpt>
      <trkpt lat="41.86203" lon="9.15973">
        <ele>1442.39</ele>
        <time>2018-09-03T09:21:27Z</time>
      </trkpt>
      <trkpt lat="41.86209" lon="9.15995">
        <ele>1443.29</ele>
        <time>2018-09-03T09:21:44Z</time>
      </trkpt>
      <trkpt lat="41.86221" lon="9.1601">
        <ele>1444.99</ele>
        <time>2018-09-03T09:22:00Z</time>
      </trkpt>
      <trkpt lat="41.8623" lon="9.16022">
        <ele>1446.86</ele>
        <time>2018-09-03T09:22:14Z</time>
      </trkpt>
      <trkpt lat="41.86237" lon="9.16035">
        <ele>1448.65</ele>
        <time>2018-09-03T09:22:29Z</time>
      </trkpt>
      <trkpt lat="41.86241" lon="9.16046">
        <ele>1449.64</ele>
        <time>2018-09-03T09:22:42Z</time>
      </trkpt>
      <trkpt lat="41.86244" lon="9.16052">
        <ele>1449.69</ele>
        <time>2018-09-03T09:22:58Z</time>
      </trkpt>
      <trkpt lat="41.86245" lon="9.16062">
        <ele>1450.69</ele>
        <time>2018-09-03T09:23:07Z</time>
      </trkpt>
      <trkpt lat="41.86249" lon="9.16082">
        <ele>1450.67</ele>
        <time>2018-09-03T09:23:21Z</time>
      </trkpt>
      <trkpt lat="41.86255" lon="9.16097">
        <ele>1450.77</ele>
        <time>2018-09-03T09:23:36Z</time>
      </trkpt>
      <trkpt lat="41.86256" lon="9.16099">
        <ele>1450.78</ele>
        <time>2018-09-03T09:23:38Z</time>
      </trkpt>
      <trkpt lat="41.86259" lon="9.16118">
        <ele>1450.82</ele>
        <time>2018-09-03T09:23:53Z</time>
      </trkpt>
      <trkpt lat="41.86259" lon="9.16121">
        <ele>1450.84</ele>
        <time>2018-09-03T09:23:55Z</time>
      </trkpt>
      <trkpt lat="41.86265" lon="9.16144">
        <ele>1450.85</ele>
        <time>2018-09-03T09:24:13Z</time>
      </trkpt>
      <trkpt lat="41.8626" lon="9.16157">
        <ele>1450.87</ele>
        <time>2018-09-03T09:24:28Z</time>
      </trkpt>
      <trkpt lat="41.86258" lon="9.16169">
        <ele>1453.3</ele>
        <time>2018-09-03T09:24:44Z</time>
      </trkpt>
      <trkpt lat="41.86252" lon="9.16175">
        <ele>1453.3</ele>
        <time>2018-09-03T09:24:54Z</time>
      </trkpt>
      <trkpt lat="41.86246" lon="9.16175">
        <ele>1453.26</ele>
        <time>2018-09-03T09:25:02Z</time>
      </trkpt>
      <trkpt lat="41.86244" lon="9.16177">
        <ele>1453.27</ele>
        <time>2018-09-03T09:25:05Z</time>
      </trkpt>
      <trkpt lat="41.86243" lon="9.16179">
        <ele>1453.27</ele>
        <time>2018-09-03T09:25:07Z</time>
      </trkpt>
      <trkpt lat="41.86239" lon="9.16188">
        <ele>1453.31</ele>
        <time>2018-09-03T09:25:14Z</time>
      </trkpt>
      <trkpt lat="41.86227" lon="9.16195">
        <ele>1453.41</ele>
        <time>2018-09-03T09:25:31Z</time>
      </trkpt>
      <trkpt lat="41.86217" lon="9.16201">
        <ele>1454.24</ele>
        <time>2018-09-03T09:25:44Z</time>
      </trkpt>
      <trkpt lat="41.86204" lon="9.16215">
        <ele>1454.27</ele>
        <time>2018-09-03T09:26:00Z</time>
      </trkpt>
      <trkpt lat="41.86193" lon="9.16225">
        <ele>1454.34</ele>
        <time>2018-09-03T09:26:13Z</time>
      </trkpt>
      <trkpt lat="41.86189" lon="9.16229">
        <ele>1455.11</ele>
        <time>2018-09-03T09:26:17Z</time>
      </trkpt>
      <trkpt lat="41.86185" lon="9.16231">
        <ele>1455.11</ele>
        <time>2018-09-03T09:26:20Z</time>
      </trkpt>
      <trkpt lat="41.86175" lon="9.16244">
        <ele>1455.14</ele>
        <time>2018-09-03T09:26:33Z</time>
      </trkpt>
      <trkpt lat="41.86173" lon="9.16264">
        <ele>1455.2</ele>
        <time>2018-09-03T09:26:49Z</time>
      </trkpt>
      <trkpt lat="41.86173" lon="9.16271">
        <ele>1452.8</ele>
        <time>2018-09-03T09:26:56Z</time>
      </trkpt>
      <trkpt lat="41.86171" lon="9.16288">
        <ele>1450.93</ele>
        <time>2018-09-03T09:27:09Z</time>
      </trkpt>
      <trkpt lat="41.86165" lon="9.16301">
        <ele>1449.19</ele>
        <time>2018-09-03T09:27:26Z</time>
      </trkpt>
      <trkpt lat="41.86157" lon="9.16306">
        <ele>1448.49</ele>
        <time>2018-09-03T09:27:41Z</time>
      </trkpt>
      <trkpt lat="41.86152" lon="9.16308">
        <ele>1451.09</ele>
        <time>2018-09-03T09:27:49Z</time>
      </trkpt>
      <trkpt lat="41.86146" lon="9.1632">
        <ele>1452.76</ele>
        <time>2018-09-03T09:28:04Z</time>
      </trkpt>
      <trkpt lat="41.86139" lon="9.16331">
        <ele>1455.55</ele>
        <time>2018-09-03T09:28:21Z</time>
      </trkpt>
      <trkpt lat="41.86134" lon="9.16337">
        <ele>1458.39</ele>
        <time>2018-09-03T09:28:31Z</time>
      </trkpt>
      <trkpt lat="41.86124" lon="9.16344">
        <ele>1458.43</ele>
        <time>2018-09-03T09:28:45Z</time>
      </trkpt>
      <trkpt lat="41.86115" lon="9.16354">
        <ele>1461.7</ele>
        <time>2018-09-03T09:29:03Z</time>
      </trkpt>
      <trkpt lat="41.86119" lon="9.16368">
        <ele>1463.71</ele>
        <time>2018-09-03T09:29:19Z</time>
      </trkpt>
      <trkpt lat="41.86113" lon="9.16379">
        <ele>1465.5</ele>
        <time>2018-09-03T09:29:35Z</time>
      </trkpt>
      <trkpt lat="41.86113" lon="9.16388">
        <ele>1468.46</ele>
        <time>2018-09-03T09:29:49Z</time>
      </trkpt>
      <trkpt lat="41.86114" lon="9.16394">
        <ele>1469.69</ele>
        <time>2018-09-03T09:29:56Z</time>
      </trkpt>
      <trkpt lat="41.86113" lon="9.1641">
        <ele>1469.7</ele>
        <time>2018-09-03T09:30:10Z</time>
      </trkpt>
      <trkpt lat="41.8611" lon="9.16416">
        <ele>1469.69</ele>
        <time>2018-09-03T09:30:16Z</time>
      </trkpt>
      <trkpt lat="41.86102" lon="9.16425">
        <ele>1470.69</ele>
        <time>2018-09-03T09:30:32Z</time>
      </trkpt>
      <trkpt lat="41.86097" lon="9.16423">
        <ele>1470.71</ele>
        <time>2018-09-03T09:30:40Z</time>
      </trkpt>
      <trkpt lat="41.86084" lon="9.16424">
        <ele>1470.71</ele>
        <time>2018-09-03T09:30:52Z</time>
      </trkpt>
      <trkpt lat="41.86066" lon="9.16419">
        <ele>1470.77</ele>
        <time>2018-09-03T09:31:09Z</time>
      </trkpt>
      <trkpt lat="41.86058" lon="9.16423">
        <ele>1471.75</ele>
        <time>2018-09-03T09:31:21Z</time>
      </trkpt>
      <trkpt lat="41.86052" lon="9.16423">
        <ele>1473.22</ele>
        <time>2018-09-03T09:31:28Z</time>
      </trkpt>
      <trkpt lat="41.86046" lon="9.16424">
        <ele>1473.23</ele>
        <time>2018-09-03T09:31:41Z</time>
      </trkpt>
      <trkpt lat="41.86035" lon="9.16424">
        <ele>1473.23</ele>
        <time>2018-09-03T09:31:52Z</time>
      </trkpt>
      <trkpt lat="41.86018" lon="9.16422">
        <ele>1473.23</ele>
        <time>2018-09-03T09:32:07Z</time>
      </trkpt>
      <trkpt lat="41.86009" lon="9.16423">
        <ele>1473.24</ele>
        <time>2018-09-03T09:32:15Z</time>
      </trkpt>
      <trkpt lat="41.86007" lon="9.16423">
        <ele>1473.24</ele>
        <time>2018-09-03T09:32:18Z</time>
      </trkpt>
      <trkpt lat="41.85996" lon="9.16425">
        <ele>1473.25</ele>
        <time>2018-09-03T09:32:33Z</time>
      </trkpt>
      <trkpt lat="41.85979" lon="9.16427">
        <ele>1473.26</ele>
        <time>2018-09-03T09:32:48Z</time>
      </trkpt>
      <trkpt lat="41.85965" lon="9.16433">
        <ele>1473.28</ele>
        <time>2018-09-03T09:33:02Z</time>
      </trkpt>
      <trkpt lat="41.85956" lon="9.16439">
        <ele>1473.3</ele>
        <time>2018-09-03T09:33:12Z</time>
      </trkpt>
      <trkpt lat="41.85954" lon="9.16443">
        <ele>1473.31</ele>
        <time>2018-09-03T09:33:15Z</time>
      </trkpt>
      <trkpt lat="41.85947" lon="9.16446">
        <ele>1473.31</ele>
        <time>2018-09-03T09:33:22Z</time>
      </trkpt>
      <trkpt lat="41.85941" lon="9.16445">
        <ele>1473.31</ele>
        <time>2018-09-03T09:33:29Z</time>
      </trkpt>
      <trkpt lat="41.85934" lon="9.16438">
        <ele>1473.32</ele>
        <time>2018-09-03T09:33:38Z</time>
      </trkpt>
      <trkpt lat="41.85921" lon="9.16442">
        <ele>1473.34</ele>
        <time>2018-09-03T09:33:54Z</time>
      </trkpt>
      <trkpt lat="41.85911" lon="9.16441">
        <ele>1474.13</ele>
        <time>2018-09-03T09:34:09Z</time>
      </trkpt>
      <trkpt lat="41.85904" lon="9.16439">
        <ele>1474.13</ele>
        <time>2018-09-03T09:34:24Z</time>
      </trkpt>
      <trkpt lat="41.85901" lon="9.1644">
        <ele>1474.11</ele>
        <time>2018-09-03T09:34:49Z</time>
      </trkpt>
      <trkpt lat="41.85892" lon="9.16447">
        <ele>1476.67</ele>
        <time>2018-09-03T09:35:07Z</time>
      </trkpt>
      <trkpt lat="41.85882" lon="9.16455">
        <ele>1479.49</ele>
        <time>2018-09-03T09:35:22Z</time>
      </trkpt>
      <trkpt lat="41.85879" lon="9.16456">
        <ele>1480.13</ele>
        <time>2018-09-03T09:35:26Z</time>
      </trkpt>
      <trkpt lat="41.85874" lon="9.16461">
        <ele>1481.03</ele>
        <time>2018-09-03T09:35:32Z</time>
      </trkpt>
      <trkpt lat="41.85869" lon="9.16475">
        <ele>1482.65</ele>
        <time>2018-09-03T09:35:46Z</time>
      </trkpt>
      <trkpt lat="41.85866" lon="9.16486">
        <ele>1484.55</ele>
        <time>2018-09-03T09:35:58Z</time>
      </trkpt>
      <trkpt lat="41.85861" lon="9.16497">
        <ele>1486.14</ele>
        <time>2018-09-03T09:36:13Z</time>
      </trkpt>
      <trkpt lat="41.85854" lon="9.16504">
        <ele>1488.77</ele>
        <time>2018-09-03T09:36:30Z</time>
      </trkpt>
      <trkpt lat="41.85847" lon="9.16514">
        <ele>1490.37</ele>
        <time>2018-09-03T09:36:46Z</time>
      </trkpt>
      <trkpt lat="41.85837" lon="9.16514">
        <ele>1492.14</ele>
        <time>2018-09-03T09:36:59Z</time>
      </trkpt>
      <trkpt lat="41.85824" lon="9.16505">
        <ele>1489.55</ele>
        <time>2018-09-03T09:37:15Z</time>
      </trkpt>
      <trkpt lat="41.85823" lon="9.16505">
        <ele>1489.6</ele>
        <time>2018-09-03T09:37:16Z</time>
      </trkpt>
      <trkpt lat="41.85814" lon="9.16506">
        <ele>1487.69</ele>
        <time>2018-09-03T09:37:30Z</time>
      </trkpt>
      <trkpt lat="41.85808" lon="9.16501">
        <ele>1486.85</ele>
        <time>2018-09-03T09:37:44Z</time>
      </trkpt>
      <trkpt lat="41.85802" lon="9.16496">
        <ele>1487.05</ele>
        <time>2018-09-03T09:37:57Z</time>
      </trkpt>
      <trkpt lat="41.85801" lon="9.16495">
        <ele>1489.51</ele>
        <time>2018-09-03T09:38:00Z</time>
      </trkpt>
      <trkpt lat="41.8579" lon="9.16498">
        <ele>1491</ele>
        <time>2018-09-03T09:38:15Z</time>
      </trkpt>
      <trkpt lat="41.85783" lon="9.16494">
        <ele>1492.67</ele>
        <time>2018-09-03T09:38:30Z</time>
      </trkpt>
      <trkpt lat="41.85774" lon="9.16488">
        <ele>1494.65</ele>
        <time>2018-09-03T09:38:43Z</time>
      </trkpt>
      <trkpt lat="41.85764" lon="9.16481">
        <ele>1496.22</ele>
        <time>2018-09-03T09:38:58Z</time>
      </trkpt>
      <trkpt lat="41.85753" lon="9.16482">
        <ele>1499.21</ele>
        <time>2018-09-03T09:39:16Z</time>
      </trkpt>
      <trkpt lat="41.85748" lon="9.16475">
        <ele>1502.78</ele>
        <time>2018-09-03T09:39:32Z</time>
      </trkpt>
      <trkpt lat="41.85738" lon="9.16466">
        <ele>1503.57</ele>
        <time>2018-09-03T09:39:48Z</time>
      </trkpt>
      <trkpt lat="41.85729" lon="9.16464">
        <ele>1505.25</ele>
        <time>2018-09-03T09:40:01Z</time>
      </trkpt>
      <trkpt lat="41.85727" lon="9.16464">
        <ele>1506.4</ele>
        <time>2018-09-03T09:40:03Z</time>
      </trkpt>
      <trkpt lat="41.85715" lon="9.16465">
        <ele>1507.5</ele>
        <time>2018-09-03T09:40:17Z</time>
      </trkpt>
      <trkpt lat="41.85705" lon="9.16469">
        <ele>1508.97</ele>
        <time>2018-09-03T09:40:32Z</time>
      </trkpt>
      <trkpt lat="41.85694" lon="9.16476">
        <ele>1511.6</ele>
        <time>2018-09-03T09:40:49Z</time>
      </trkpt>
      <trkpt lat="41.85687" lon="9.16489">
        <ele>1513.48</ele>
        <time>2018-09-03T09:41:06Z</time>
      </trkpt>
      <trkpt lat="41.85675" lon="9.16494">
        <ele>1515.04</ele>
        <time>2018-09-03T09:41:21Z</time>
      </trkpt>
      <trkpt lat="41.85671" lon="9.16497">
        <ele>1516.88</ele>
        <time>2018-09-03T09:41:27Z</time>
      </trkpt>
      <trkpt lat="41.8566" lon="9.16512">
        <ele>1518.71</ele>
        <time>2018-09-03T09:41:44Z</time>
      </trkpt>
      <trkpt lat="41.85654" lon="9.16527">
        <ele>1520.26</ele>
        <time>2018-09-03T09:42:00Z</time>
      </trkpt>
      <trkpt lat="41.85647" lon="9.16531">
        <ele>1521.16</ele>
        <time>2018-09-03T09:42:09Z</time>
      </trkpt>
      <trkpt lat="41.8564" lon="9.1654">
        <ele>1522</ele>
        <time>2018-09-03T09:42:21Z</time>
      </trkpt>
      <trkpt lat="41.85637" lon="9.16556">
        <ele>1523.78</ele>
        <time>2018-09-03T09:42:38Z</time>
      </trkpt>
      <trkpt lat="41.85632" lon="9.16571">
        <ele>1526.64</ele>
        <time>2018-09-03T09:42:55Z</time>
      </trkpt>
      <trkpt lat="41.85628" lon="9.16582">
        <ele>1527.63</ele>
        <time>2018-09-03T09:43:06Z</time>
      </trkpt>
      <trkpt lat="41.85624" lon="9.16592">
        <ele>1527.59</ele>
        <time>2018-09-03T09:43:17Z</time>
      </trkpt>
      <trkpt lat="41.85619" lon="9.1659">
        <ele>1528.56</ele>
        <time>2018-09-03T09:43:23Z</time>
      </trkpt>
      <trkpt lat="41.85606" lon="9.16586">
        <ele>1530.62</ele>
        <time>2018-09-03T09:43:38Z</time>
      </trkpt>
      <trkpt lat="41.85597" lon="9.16583">
        <ele>1532.2</ele>
        <time>2018-09-03T09:43:50Z</time>
      </trkpt>
      <trkpt lat="41.85587" lon="9.16586">
        <ele>1534.56</ele>
        <time>2018-09-03T09:44:04Z</time>
      </trkpt>
      <trkpt lat="41.8558" lon="9.16588">
        <ele>1535.68</ele>
        <time>2018-09-03T09:44:16Z</time>
      </trkpt>
      <trkpt lat="41.85572" lon="9.16589">
        <ele>1538.52</ele>
        <time>2018-09-03T09:44:30Z</time>
      </trkpt>
      <trkpt lat="41.85566" lon="9.16589">
        <ele>1539.56</ele>
        <time>2018-09-03T09:44:43Z</time>
      </trkpt>
      <trkpt lat="41.85566" lon="9.16589">
        <ele>1539.56</ele>
        <time>2018-09-03T09:44:44Z</time>
      </trkpt>
      <trkpt lat="41.85555" lon="9.16591">
        <ele>1541.95</ele>
        <time>2018-09-03T09:44:58Z</time>
      </trkpt>
      <trkpt lat="41.85543" lon="9.16596">
        <ele>1542.67</ele>
        <time>2018-09-03T09:45:15Z</time>
      </trkpt>
      <trkpt lat="41.85536" lon="9.16595">
        <ele>1542.63</ele>
        <time>2018-09-03T09:45:29Z</time>
      </trkpt>
      <trkpt lat="41.85538" lon="9.16594">
        <ele>1542.62</ele>
        <time>2018-09-03T09:45:49Z</time>
      </trkpt>
      <trkpt lat="41.85538" lon="9.16594">
        <ele>1542.51</ele>
        <time>2018-09-03T09:46:30Z</time>
      </trkpt>
      <trkpt lat="41.85539" lon="9.16593">
        <ele>1538.4</ele>
        <time>2018-09-03T09:47:02Z</time>
      </trkpt>
      <trkpt lat="41.85539" lon="9.16593">
        <ele>1541.81</ele>
        <time>2018-09-03T09:47:03Z</time>
      </trkpt>
      <trkpt lat="41.85538" lon="9.16594">
        <ele>1541.76</ele>
        <time>2018-09-03T09:47:49Z</time>
      </trkpt>
      <trkpt lat="41.85538" lon="9.16594">
        <ele>1537.94</ele>
        <time>2018-09-03T09:48:11Z</time>
      </trkpt>
      <trkpt lat="41.85538" lon="9.16594">
        <ele>1542.5</ele>
        <time>2018-09-03T09:48:12Z</time>
      </trkpt>
      <trkpt lat="41.85539" lon="9.16594">
        <ele>1542.5</ele>
        <time>2018-09-03T09:49:02Z</time>
      </trkpt>
      <trkpt lat="41.85538" lon="9.16594">
        <ele>1542.45</ele>
        <time>2018-09-03T09:49:59Z</time>
      </trkpt>
      <trkpt lat="41.85538" lon="9.16594">
        <ele>1542.42</ele>
        <time>2018-09-03T09:50:43Z</time>
      </trkpt>
      <trkpt lat="41.85539" lon="9.16593">
        <ele>1542.4</ele>
        <time>2018-09-03T09:51:29Z</time>
      </trkpt>
      <trkpt lat="41.85539" lon="9.16592">
        <ele>1542.38</ele>
        <time>2018-09-03T09:52:27Z</time>
      </trkpt>
      <trkpt lat="41.85538" lon="9.16594">
        <ele>1542.37</ele>
        <time>2018-09-03T09:53:16Z</time>
      </trkpt>
      <trkpt lat="41.85538" lon="9.16593">
        <ele>1542.35</ele>
        <time>2018-09-03T09:54:05Z</time>
      </trkpt>
      <trkpt lat="41.8554" lon="9.16593">
        <ele>1542.32</ele>
        <time>2018-09-03T09:54:51Z</time>
      </trkpt>
      <trkpt lat="41.85538" lon="9.16593">
        <ele>1542.3</ele>
        <time>2018-09-03T09:55:31Z</time>
      </trkpt>
      <trkpt lat="41.8554" lon="9.16595">
        <ele>1542.26</ele>
        <time>2018-09-03T09:56:17Z</time>
      </trkpt>
      <trkpt lat="41.8554" lon="9.16594">
        <ele>1542.17</ele>
        <time>2018-09-03T09:57:11Z</time>
      </trkpt>
      <trkpt lat="41.8554" lon="9.16595">
        <ele>1542.09</ele>
        <time>2018-09-03T09:58:15Z</time>
      </trkpt>
      <trkpt lat="41.8554" lon="9.16594">
        <ele>1542.04</ele>
        <time>2018-09-03T09:58:56Z</time>
      </trkpt>
      <trkpt lat="41.85541" lon="9.16593">
        <ele>1541.96</ele>
        <time>2018-09-03T10:00:10Z</time>
      </trkpt>
      <trkpt lat="41.8554" lon="9.16592">
        <ele>1550.57</ele>
        <time>2018-09-03T10:01:07Z</time>
      </trkpt>
      <trkpt lat="41.85543" lon="9.16589">
        <ele>1541.11</ele>
        <time>2018-09-03T11:09:59Z</time>
      </trkpt>
      <trkpt lat="41.85539" lon="9.16589">
        <ele>1540.24</ele>
        <time>2018-09-03T11:10:43Z</time>
      </trkpt>
      <trkpt lat="41.85538" lon="9.1659">
        <ele>1540.08</ele>
        <time>2018-09-03T11:11:52Z</time>
      </trkpt>
      <trkpt lat="41.85538" lon="9.1659">
        <ele>1539.89</ele>
        <time>2018-09-03T11:12:49Z</time>
      </trkpt>
      <trkpt lat="41.85539" lon="9.16591">
        <ele>1539.69</ele>
        <time>2018-09-03T11:13:46Z</time>
      </trkpt>
      <trkpt lat="41.85539" lon="9.16591">
        <ele>1539.57</ele>
        <time>2018-09-03T11:14:21Z</time>
      </trkpt>
      <trkpt lat="41.8554" lon="9.1659">
        <ele>1539.46</ele>
        <time>2018-09-03T11:15:03Z</time>
      </trkpt>
      <trkpt lat="41.85539" lon="9.1659">
        <ele>1542.11</ele>
        <time>2018-09-03T11:15:13Z</time>
      </trkpt>
      <trkpt lat="41.85539" lon="9.1659">
        <ele>1542.05</ele>
        <time>2018-09-03T11:15:37Z</time>
      </trkpt>
      <trkpt lat="41.85539" lon="9.1659">
        <ele>1533.03</ele>
        <time>2018-09-03T11:16:02Z</time>
      </trkpt>
      <trkpt lat="41.85539" lon="9.1659">
        <ele>1544.79</ele>
        <time>2018-09-03T11:16:03Z</time>
      </trkpt>
      <trkpt lat="41.85539" lon="9.1659">
        <ele>1541.61</ele>
        <time>2018-09-03T11:16:04Z</time>
      </trkpt>
      <trkpt lat="41.85539" lon="9.1659">
        <ele>1540.78</ele>
        <time>2018-09-03T11:16:06Z</time>
      </trkpt>
      <trkpt lat="41.8554" lon="9.1659">
        <ele>1540.73</ele>
        <time>2018-09-03T11:16:28Z</time>
      </trkpt>
      <trkpt lat="41.85539" lon="9.16589">
        <ele>1540.68</ele>
        <time>2018-09-03T11:16:50Z</time>
      </trkpt>
      <trkpt lat="41.85538" lon="9.16589">
        <ele>1540.64</ele>
        <time>2018-09-03T11:17:09Z</time>
      </trkpt>
      <trkpt lat="41.85537" lon="9.1659">
        <ele>1540.62</ele>
        <time>2018-09-03T11:17:27Z</time>
      </trkpt>
      <trkpt lat="41.85536" lon="9.16591">
        <ele>1540.59</ele>
        <time>2018-09-03T11:17:41Z</time>
      </trkpt>
      <trkpt lat="41.85536" lon="9.16596">
        <ele>1540.56</ele>
        <time>2018-09-03T11:17:56Z</time>
      </trkpt>
      <trkpt lat="41.85532" lon="9.166">
        <ele>1540.54</ele>
        <time>2018-09-03T11:18:04Z</time>
      </trkpt>
      <trkpt lat="41.85518" lon="9.16607">
        <ele>1540.53</ele>
        <time>2018-09-03T11:18:21Z</time>
      </trkpt>
      <trkpt lat="41.85508" lon="9.16608">
        <ele>1543.22</ele>
        <time>2018-09-03T11:18:35Z</time>
      </trkpt>
      <trkpt lat="41.85499" lon="9.16616">
        <ele>1545.16</ele>
        <time>2018-09-03T11:18:49Z</time>
      </trkpt>
      <trkpt lat="41.8549" lon="9.16624">
        <ele>1547.21</ele>
        <time>2018-09-03T11:19:04Z</time>
      </trkpt>
      <trkpt lat="41.85482" lon="9.16631">
        <ele>1548.87</ele>
        <time>2018-09-03T11:19:19Z</time>
      </trkpt>
      <trkpt lat="41.85472" lon="9.16636">
        <ele>1550.46</ele>
        <time>2018-09-03T11:19:35Z</time>
      </trkpt>
      <trkpt lat="41.85464" lon="9.16641">
        <ele>1553.14</ele>
        <time>2018-09-03T11:19:50Z</time>
      </trkpt>
      <trkpt lat="41.85458" lon="9.16647">
        <ele>1555.04</ele>
        <time>2018-09-03T11:20:05Z</time>
      </trkpt>
      <trkpt lat="41.85446" lon="9.16645">
        <ele>1556.72</ele>
        <time>2018-09-03T11:20:22Z</time>
      </trkpt>
      <trkpt lat="41.85438" lon="9.16643">
        <ele>1556.75</ele>
        <time>2018-09-03T11:20:31Z</time>
      </trkpt>
      <trkpt lat="41.85422" lon="9.16639">
        <ele>1558.7</ele>
        <time>2018-09-03T11:20:50Z</time>
      </trkpt>
      <trkpt lat="41.85411" lon="9.16639">
        <ele>1559.59</ele>
        <time>2018-09-03T11:21:03Z</time>
      </trkpt>
      <trkpt lat="41.85395" lon="9.16635">
        <ele>1561.36</ele>
        <time>2018-09-03T11:21:22Z</time>
      </trkpt>
      <trkpt lat="41.85385" lon="9.16636">
        <ele>1562.22</ele>
        <time>2018-09-03T11:21:38Z</time>
      </trkpt>
      <trkpt lat="41.85374" lon="9.16635">
        <ele>1563.1</ele>
        <time>2018-09-03T11:21:52Z</time>
      </trkpt>
      <trkpt lat="41.85368" lon="9.16635">
        <ele>1564.42</ele>
        <time>2018-09-03T11:22:00Z</time>
      </trkpt>
      <trkpt lat="41.85362" lon="9.16634">
        <ele>1564.4</ele>
        <time>2018-09-03T11:22:08Z</time>
      </trkpt>
      <trkpt lat="41.85343" lon="9.16634">
        <ele>1565.35</ele>
        <time>2018-09-03T11:22:29Z</time>
      </trkpt>
      <trkpt lat="41.8533" lon="9.16637">
        <ele>1566.97</ele>
        <time>2018-09-03T11:22:44Z</time>
      </trkpt>
      <trkpt lat="41.85321" lon="9.16636">
        <ele>1568.14</ele>
        <time>2018-09-03T11:22:56Z</time>
      </trkpt>
      <trkpt lat="41.85318" lon="9.16635">
        <ele>1568.13</ele>
        <time>2018-09-03T11:22:59Z</time>
      </trkpt>
      <trkpt lat="41.85316" lon="9.16634">
        <ele>1568.14</ele>
        <time>2018-09-03T11:23:02Z</time>
      </trkpt>
      <trkpt lat="41.853" lon="9.16631">
        <ele>1569.26</ele>
        <time>2018-09-03T11:23:20Z</time>
      </trkpt>
      <trkpt lat="41.85288" lon="9.16629">
        <ele>1570.1</ele>
        <time>2018-09-03T11:23:34Z</time>
      </trkpt>
      <trkpt lat="41.85281" lon="9.1663">
        <ele>1570.94</ele>
        <time>2018-09-03T11:23:41Z</time>
      </trkpt>
      <trkpt lat="41.85269" lon="9.16637">
        <ele>1572.53</ele>
        <time>2018-09-03T11:23:56Z</time>
      </trkpt>
      <trkpt lat="41.85255" lon="9.16643">
        <ele>1573.27</ele>
        <time>2018-09-03T11:24:12Z</time>
      </trkpt>
      <trkpt lat="41.85254" lon="9.16643">
        <ele>1573.29</ele>
        <time>2018-09-03T11:24:13Z</time>
      </trkpt>
      <trkpt lat="41.85241" lon="9.16648">
        <ele>1573.3</ele>
        <time>2018-09-03T11:24:29Z</time>
      </trkpt>
      <trkpt lat="41.85233" lon="9.1665">
        <ele>1574.9</ele>
        <time>2018-09-03T11:24:41Z</time>
      </trkpt>
      <trkpt lat="41.85222" lon="9.16652">
        <ele>1576.72</ele>
        <time>2018-09-03T11:24:56Z</time>
      </trkpt>
      <trkpt lat="41.85207" lon="9.16654">
        <ele>1577.92</ele>
        <time>2018-09-03T11:25:12Z</time>
      </trkpt>
      <trkpt lat="41.85195" lon="9.16661">
        <ele>1577.88</ele>
        <time>2018-09-03T11:25:29Z</time>
      </trkpt>
      <trkpt lat="41.85184" lon="9.16668">
        <ele>1578.86</ele>
        <time>2018-09-03T11:25:46Z</time>
      </trkpt>
      <trkpt lat="41.85181" lon="9.16669">
        <ele>1579.84</ele>
        <time>2018-09-03T11:25:50Z</time>
      </trkpt>
      <trkpt lat="41.85174" lon="9.16668">
        <ele>1580.71</ele>
        <time>2018-09-03T11:25:57Z</time>
      </trkpt>
      <trkpt lat="41.85168" lon="9.1667">
        <ele>1581.49</ele>
        <time>2018-09-03T11:26:03Z</time>
      </trkpt>
      <trkpt lat="41.85155" lon="9.16673">
        <ele>1582.38</ele>
        <time>2018-09-03T11:26:20Z</time>
      </trkpt>
      <trkpt lat="41.85149" lon="9.16676">
        <ele>1582.36</ele>
        <time>2018-09-03T11:26:32Z</time>
      </trkpt>
      <trkpt lat="41.85138" lon="9.16679">
        <ele>1583.14</ele>
        <time>2018-09-03T11:26:46Z</time>
      </trkpt>
      <trkpt lat="41.85127" lon="9.16687">
        <ele>1584.91</ele>
        <time>2018-09-03T11:27:01Z</time>
      </trkpt>
      <trkpt lat="41.85118" lon="9.16698">
        <ele>1585.73</ele>
        <time>2018-09-03T11:27:18Z</time>
      </trkpt>
      <trkpt lat="41.8511" lon="9.16714">
        <ele>1587.98</ele>
        <time>2018-09-03T11:27:35Z</time>
      </trkpt>
      <trkpt lat="41.85106" lon="9.16723">
        <ele>1588.88</ele>
        <time>2018-09-03T11:27:45Z</time>
      </trkpt>
      <trkpt lat="41.85095" lon="9.1674">
        <ele>1591.41</ele>
        <time>2018-09-03T11:28:04Z</time>
      </trkpt>
      <trkpt lat="41.85092" lon="9.16753">
        <ele>1592.21</ele>
        <time>2018-09-03T11:28:17Z</time>
      </trkpt>
      <trkpt lat="41.85096" lon="9.16765">
        <ele>1593.1</ele>
        <time>2018-09-03T11:28:30Z</time>
      </trkpt>
      <trkpt lat="41.85101" lon="9.16772">
        <ele>1594.31</ele>
        <time>2018-09-03T11:28:38Z</time>
      </trkpt>
      <trkpt lat="41.85109" lon="9.16789">
        <ele>1595.05</ele>
        <time>2018-09-03T11:28:54Z</time>
      </trkpt>
      <trkpt lat="41.85114" lon="9.16807">
        <ele>1595.79</ele>
        <time>2018-09-03T11:29:12Z</time>
      </trkpt>
      <trkpt lat="41.85115" lon="9.16816">
        <ele>1597.3</ele>
        <time>2018-09-03T11:29:28Z</time>
      </trkpt>
      <trkpt lat="41.85117" lon="9.16821">
        <ele>1597.29</ele>
        <time>2018-09-03T11:29:42Z</time>
      </trkpt>
      <trkpt lat="41.85123" lon="9.16839">
        <ele>1598.95</ele>
        <time>2018-09-03T11:30:00Z</time>
      </trkpt>
      <trkpt lat="41.85126" lon="9.16859">
        <ele>1601.42</ele>
        <time>2018-09-03T11:30:19Z</time>
      </trkpt>
      <trkpt lat="41.85129" lon="9.16875">
        <ele>1603.41</ele>
        <time>2018-09-03T11:30:35Z</time>
      </trkpt>
      <trkpt lat="41.85138" lon="9.16891">
        <ele>1605.06</ele>
        <time>2018-09-03T11:30:52Z</time>
      </trkpt>
      <trkpt lat="41.8514" lon="9.16895">
        <ele>1605.99</ele>
        <time>2018-09-03T11:30:56Z</time>
      </trkpt>
      <trkpt lat="41.85154" lon="9.16907">
        <ele>1606.98</ele>
        <time>2018-09-03T11:31:15Z</time>
      </trkpt>
      <trkpt lat="41.85165" lon="9.16921">
        <ele>1608.77</ele>
        <time>2018-09-03T11:31:33Z</time>
      </trkpt>
      <trkpt lat="41.85176" lon="9.16939">
        <ele>1609.55</ele>
        <time>2018-09-03T11:31:52Z</time>
      </trkpt>
      <trkpt lat="41.85185" lon="9.16959">
        <ele>1611.55</ele>
        <time>2018-09-03T11:32:10Z</time>
      </trkpt>
      <trkpt lat="41.85186" lon="9.16962">
        <ele>1611.43</ele>
        <time>2018-09-03T11:32:13Z</time>
      </trkpt>
      <trkpt lat="41.8518" lon="9.16977">
        <ele>1611.43</ele>
        <time>2018-09-03T11:32:27Z</time>
      </trkpt>
      <trkpt lat="41.85164" lon="9.16986">
        <ele>1612.57</ele>
        <time>2018-09-03T11:32:45Z</time>
      </trkpt>
      <trkpt lat="41.8515" lon="9.17">
        <ele>1614.09</ele>
        <time>2018-09-03T11:33:03Z</time>
      </trkpt>
      <trkpt lat="41.85145" lon="9.17026">
        <ele>1614.9</ele>
        <time>2018-09-03T11:33:23Z</time>
      </trkpt>
      <trkpt lat="41.85144" lon="9.1705">
        <ele>1615.83</ele>
        <time>2018-09-03T11:33:41Z</time>
      </trkpt>
      <trkpt lat="41.8515" lon="9.17078">
        <ele>1616.72</ele>
        <time>2018-09-03T11:34:01Z</time>
      </trkpt>
      <trkpt lat="41.85164" lon="9.17097">
        <ele>1617.55</ele>
        <time>2018-09-03T11:34:21Z</time>
      </trkpt>
      <trkpt lat="41.85175" lon="9.17102">
        <ele>1618.29</ele>
        <time>2018-09-03T11:34:35Z</time>
      </trkpt>
      <trkpt lat="41.85187" lon="9.17104">
        <ele>1619.27</ele>
        <time>2018-09-03T11:34:52Z</time>
      </trkpt>
      <trkpt lat="41.85196" lon="9.17103">
        <ele>1621.41</ele>
        <time>2018-09-03T11:35:07Z</time>
      </trkpt>
      <trkpt lat="41.85198" lon="9.17098">
        <ele>1623.01</ele>
        <time>2018-09-03T11:35:22Z</time>
      </trkpt>
      <trkpt lat="41.85199" lon="9.17092">
        <ele>1623.04</ele>
        <time>2018-09-03T11:35:35Z</time>
      </trkpt>
      <trkpt lat="41.85202" lon="9.17093">
        <ele>1624.92</ele>
        <time>2018-09-03T11:35:47Z</time>
      </trkpt>
      <trkpt lat="41.85206" lon="9.17088">
        <ele>1626.81</ele>
        <time>2018-09-03T11:36:00Z</time>
      </trkpt>
      <trkpt lat="41.85212" lon="9.17091">
        <ele>1628.69</ele>
        <time>2018-09-03T11:36:13Z</time>
      </trkpt>
      <trkpt lat="41.85224" lon="9.17103">
        <ele>1631.38</ele>
        <time>2018-09-03T11:36:32Z</time>
      </trkpt>
      <trkpt lat="41.85234" lon="9.17111">
        <ele>1632.12</ele>
        <time>2018-09-03T11:36:48Z</time>
      </trkpt>
      <trkpt lat="41.85241" lon="9.17121">
        <ele>1634.7</ele>
        <time>2018-09-03T11:37:04Z</time>
      </trkpt>
      <trkpt lat="41.85244" lon="9.17131">
        <ele>1636.41</ele>
        <time>2018-09-03T11:37:18Z</time>
      </trkpt>
      <trkpt lat="41.85256" lon="9.17138">
        <ele>1638.51</ele>
        <time>2018-09-03T11:37:36Z</time>
      </trkpt>
      <trkpt lat="41.85261" lon="9.1715">
        <ele>1640.92</ele>
        <time>2018-09-03T11:37:53Z</time>
      </trkpt>
      <trkpt lat="41.8526" lon="9.17167">
        <ele>1642.12</ele>
        <time>2018-09-03T11:38:10Z</time>
      </trkpt>
      <trkpt lat="41.85255" lon="9.17183">
        <ele>1642.81</ele>
        <time>2018-09-03T11:38:29Z</time>
      </trkpt>
      <trkpt lat="41.85251" lon="9.17188">
        <ele>1644.39</ele>
        <time>2018-09-03T11:38:40Z</time>
      </trkpt>
      <trkpt lat="41.85252" lon="9.17196">
        <ele>1645.71</ele>
        <time>2018-09-03T11:38:51Z</time>
      </trkpt>
      <trkpt lat="41.85254" lon="9.17203">
        <ele>1647.7</ele>
        <time>2018-09-03T11:39:04Z</time>
      </trkpt>
      <trkpt lat="41.85259" lon="9.17207">
        <ele>1649.34</ele>
        <time>2018-09-03T11:39:18Z</time>
      </trkpt>
      <trkpt lat="41.85259" lon="9.17217">
        <ele>1651.99</ele>
        <time>2018-09-03T11:39:33Z</time>
      </trkpt>
      <trkpt lat="41.85257" lon="9.17221">
        <ele>1651.95</ele>
        <time>2018-09-03T11:39:51Z</time>
      </trkpt>
      <trkpt lat="41.85256" lon="9.17223">
        <ele>1651.98</ele>
        <time>2018-09-03T11:40:04Z</time>
      </trkpt>
      <trkpt lat="41.85254" lon="9.17224">
        <ele>1652.03</ele>
        <time>2018-09-03T11:40:21Z</time>
      </trkpt>
      <trkpt lat="41.85252" lon="9.17226">
        <ele>1652.18</ele>
        <time>2018-09-03T11:40:37Z</time>
      </trkpt>
      <trkpt lat="41.85242" lon="9.17241">
        <ele>1653.33</ele>
        <time>2018-09-03T11:40:53Z</time>
      </trkpt>
      <trkpt lat="41.85238" lon="9.17252">
        <ele>1655.24</ele>
        <time>2018-09-03T11:41:08Z</time>
      </trkpt>
      <trkpt lat="41.85238" lon="9.17262">
        <ele>1658.11</ele>
        <time>2018-09-03T11:41:24Z</time>
      </trkpt>
      <trkpt lat="41.85238" lon="9.17269">
        <ele>1659.03</ele>
        <time>2018-09-03T11:41:37Z</time>
      </trkpt>
      <trkpt lat="41.85236" lon="9.17268">
        <ele>1659.04</ele>
        <time>2018-09-03T11:41:40Z</time>
      </trkpt>
      <trkpt lat="41.85233" lon="9.17267">
        <ele>1659.03</ele>
        <time>2018-09-03T11:41:43Z</time>
      </trkpt>
      <trkpt lat="41.85227" lon="9.17267">
        <ele>1659</ele>
        <time>2018-09-03T11:41:50Z</time>
      </trkpt>
      <trkpt lat="41.85218" lon="9.17265">
        <ele>1659.02</ele>
        <time>2018-09-03T11:41:59Z</time>
      </trkpt>
      <trkpt lat="41.85203" lon="9.1726">
        <ele>1656.7</ele>
        <time>2018-09-03T11:42:14Z</time>
      </trkpt>
      <trkpt lat="41.85188" lon="9.17271">
        <ele>1659.37</ele>
        <time>2018-09-03T11:42:33Z</time>
      </trkpt>
      <trkpt lat="41.85188" lon="9.17271">
        <ele>1659.37</ele>
        <time>2018-09-03T11:42:34Z</time>
      </trkpt>
      <trkpt lat="41.85183" lon="9.17283">
        <ele>1661.34</ele>
        <time>2018-09-03T11:42:47Z</time>
      </trkpt>
      <trkpt lat="41.85181" lon="9.17298">
        <ele>1662.27</ele>
        <time>2018-09-03T11:43:02Z</time>
      </trkpt>
      <trkpt lat="41.85181" lon="9.17301">
        <ele>1662.29</ele>
        <time>2018-09-03T11:43:05Z</time>
      </trkpt>
      <trkpt lat="41.85175" lon="9.17317">
        <ele>1662.3</ele>
        <time>2018-09-03T11:43:20Z</time>
      </trkpt>
      <trkpt lat="41.8517" lon="9.17327">
        <ele>1659.99</ele>
        <time>2018-09-03T11:43:30Z</time>
      </trkpt>
      <trkpt lat="41.85157" lon="9.17338">
        <ele>1660.01</ele>
        <time>2018-09-03T11:43:46Z</time>
      </trkpt>
      <trkpt lat="41.85156" lon="9.17348">
        <ele>1660.09</ele>
        <time>2018-09-03T11:43:59Z</time>
      </trkpt>
      <trkpt lat="41.85155" lon="9.17351">
        <ele>1662.82</ele>
        <time>2018-09-03T11:44:03Z</time>
      </trkpt>
      <trkpt lat="41.85149" lon="9.17361">
        <ele>1662.74</ele>
        <time>2018-09-03T11:44:18Z</time>
      </trkpt>
      <trkpt lat="41.85147" lon="9.17373">
        <ele>1662.84</ele>
        <time>2018-09-03T11:44:31Z</time>
      </trkpt>
      <trkpt lat="41.85144" lon="9.17385">
        <ele>1664.47</ele>
        <time>2018-09-03T11:44:45Z</time>
      </trkpt>
      <trkpt lat="41.85143" lon="9.17397">
        <ele>1664.44</ele>
        <time>2018-09-03T11:44:57Z</time>
      </trkpt>
      <trkpt lat="41.85136" lon="9.17419">
        <ele>1665.27</ele>
        <time>2018-09-03T11:45:15Z</time>
      </trkpt>
      <trkpt lat="41.85135" lon="9.17421">
        <ele>1665.25</ele>
        <time>2018-09-03T11:45:17Z</time>
      </trkpt>
      <trkpt lat="41.85132" lon="9.17425">
        <ele>1666.46</ele>
        <time>2018-09-03T11:45:21Z</time>
      </trkpt>
      <trkpt lat="41.8513" lon="9.17449">
        <ele>1667.5</ele>
        <time>2018-09-03T11:45:39Z</time>
      </trkpt>
      <trkpt lat="41.85129" lon="9.17469">
        <ele>1668.42</ele>
        <time>2018-09-03T11:45:55Z</time>
      </trkpt>
      <trkpt lat="41.85127" lon="9.17472">
        <ele>1668.49</ele>
        <time>2018-09-03T11:45:58Z</time>
      </trkpt>
      <trkpt lat="41.85122" lon="9.17482">
        <ele>1668.48</ele>
        <time>2018-09-03T11:46:06Z</time>
      </trkpt>
      <trkpt lat="41.85121" lon="9.17488">
        <ele>1669.71</ele>
        <time>2018-09-03T11:46:11Z</time>
      </trkpt>
      <trkpt lat="41.85111" lon="9.17513">
        <ele>1670.49</ele>
        <time>2018-09-03T11:46:32Z</time>
      </trkpt>
      <trkpt lat="41.851" lon="9.17533">
        <ele>1671.47</ele>
        <time>2018-09-03T11:46:51Z</time>
      </trkpt>
      <trkpt lat="41.85098" lon="9.17537">
        <ele>1671.45</ele>
        <time>2018-09-03T11:46:54Z</time>
      </trkpt>
      <trkpt lat="41.85094" lon="9.17544">
        <ele>1672.38</ele>
        <time>2018-09-03T11:47:01Z</time>
      </trkpt>
      <trkpt lat="41.85088" lon="9.17562">
        <ele>1674.01</ele>
        <time>2018-09-03T11:47:20Z</time>
      </trkpt>
      <trkpt lat="41.85082" lon="9.17571">
        <ele>1676.96</ele>
        <time>2018-09-03T11:47:35Z</time>
      </trkpt>
      <trkpt lat="41.8508" lon="9.17575">
        <ele>1678.27</ele>
        <time>2018-09-03T11:47:41Z</time>
      </trkpt>
      <trkpt lat="41.85083" lon="9.17587">
        <ele>1679.99</ele>
        <time>2018-09-03T11:47:56Z</time>
      </trkpt>
      <trkpt lat="41.85077" lon="9.17602">
        <ele>1680.91</ele>
        <time>2018-09-03T11:48:13Z</time>
      </trkpt>
      <trkpt lat="41.85075" lon="9.17619">
        <ele>1683.84</ele>
        <time>2018-09-03T11:48:29Z</time>
      </trkpt>
      <trkpt lat="41.85072" lon="9.17636">
        <ele>1685.79</ele>
        <time>2018-09-03T11:48:45Z</time>
      </trkpt>
      <trkpt lat="41.85069" lon="9.17647">
        <ele>1686.71</ele>
        <time>2018-09-03T11:48:59Z</time>
      </trkpt>
      <trkpt lat="41.85064" lon="9.1766">
        <ele>1688.35</ele>
        <time>2018-09-03T11:49:13Z</time>
      </trkpt>
      <trkpt lat="41.85055" lon="9.1767">
        <ele>1689.27</ele>
        <time>2018-09-03T11:49:29Z</time>
      </trkpt>
      <trkpt lat="41.85048" lon="9.17687">
        <ele>1691.95</ele>
        <time>2018-09-03T11:49:47Z</time>
      </trkpt>
      <trkpt lat="41.85039" lon="9.17698">
        <ele>1693.63</ele>
        <time>2018-09-03T11:50:02Z</time>
      </trkpt>
      <trkpt lat="41.85032" lon="9.17712">
        <ele>1695.62</ele>
        <time>2018-09-03T11:50:19Z</time>
      </trkpt>
      <trkpt lat="41.85025" lon="9.17728">
        <ele>1696.72</ele>
        <time>2018-09-03T11:50:36Z</time>
      </trkpt>
      <trkpt lat="41.8502" lon="9.17744">
        <ele>1698.65</ele>
        <time>2018-09-03T11:50:53Z</time>
      </trkpt>
      <trkpt lat="41.85014" lon="9.17754">
        <ele>1700.58</ele>
        <time>2018-09-03T11:51:08Z</time>
      </trkpt>
      <trkpt lat="41.85008" lon="9.17761">
        <ele>1702.57</ele>
        <time>2018-09-03T11:51:21Z</time>
      </trkpt>
      <trkpt lat="41.85" lon="9.17774">
        <ele>1704.42</ele>
        <time>2018-09-03T11:51:37Z</time>
      </trkpt>
      <trkpt lat="41.84997" lon="9.17783">
        <ele>1705.2</ele>
        <time>2018-09-03T11:51:45Z</time>
      </trkpt>
      <trkpt lat="41.84992" lon="9.1779">
        <ele>1706.23</ele>
        <time>2018-09-03T11:51:53Z</time>
      </trkpt>
      <trkpt lat="41.84974" lon="9.17794">
        <ele>1707.09</ele>
        <time>2018-09-03T11:52:12Z</time>
      </trkpt>
      <trkpt lat="41.8496" lon="9.17795">
        <ele>1707.07</ele>
        <time>2018-09-03T11:52:26Z</time>
      </trkpt>
      <trkpt lat="41.8494" lon="9.17795">
        <ele>1707.21</ele>
        <time>2018-09-03T11:52:46Z</time>
      </trkpt>
      <trkpt lat="41.84931" lon="9.17796">
        <ele>1707.21</ele>
        <time>2018-09-03T11:52:58Z</time>
      </trkpt>
      <trkpt lat="41.84927" lon="9.17796">
        <ele>1707.21</ele>
        <time>2018-09-03T11:53:03Z</time>
      </trkpt>
      <trkpt lat="41.8492" lon="9.178">
        <ele>1707.24</ele>
        <time>2018-09-03T11:53:10Z</time>
      </trkpt>
      <trkpt lat="41.84912" lon="9.17803">
        <ele>1707.24</ele>
        <time>2018-09-03T11:53:18Z</time>
      </trkpt>
      <trkpt lat="41.84903" lon="9.17801">
        <ele>1708.49</ele>
        <time>2018-09-03T11:53:26Z</time>
      </trkpt>
      <trkpt lat="41.84897" lon="9.17801">
        <ele>1708.54</ele>
        <time>2018-09-03T11:53:33Z</time>
      </trkpt>
      <trkpt lat="41.84892" lon="9.17799">
        <ele>1708.51</ele>
        <time>2018-09-03T11:53:39Z</time>
      </trkpt>
      <trkpt lat="41.84885" lon="9.17796">
        <ele>1709.4</ele>
        <time>2018-09-03T11:53:47Z</time>
      </trkpt>
      <trkpt lat="41.84872" lon="9.17797">
        <ele>1710.2</ele>
        <time>2018-09-03T11:54:02Z</time>
      </trkpt>
      <trkpt lat="41.84871" lon="9.17797">
        <ele>1710.19</ele>
        <time>2018-09-03T11:54:03Z</time>
      </trkpt>
      <trkpt lat="41.84867" lon="9.17796">
        <ele>1711.02</ele>
        <time>2018-09-03T11:54:08Z</time>
      </trkpt>
      <trkpt lat="41.84858" lon="9.17798">
        <ele>1711.04</ele>
        <time>2018-09-03T11:54:18Z</time>
      </trkpt>
      <trkpt lat="41.8485" lon="9.17797">
        <ele>1711.91</ele>
        <time>2018-09-03T11:54:28Z</time>
      </trkpt>
      <trkpt lat="41.84841" lon="9.17798">
        <ele>1712.83</ele>
        <time>2018-09-03T11:54:39Z</time>
      </trkpt>
      <trkpt lat="41.84824" lon="9.17792">
        <ele>1713.79</ele>
        <time>2018-09-03T11:54:58Z</time>
      </trkpt>
      <trkpt lat="41.84815" lon="9.17789">
        <ele>1714.6</ele>
        <time>2018-09-03T11:55:11Z</time>
      </trkpt>
      <trkpt lat="41.848" lon="9.1778">
        <ele>1715.53</ele>
        <time>2018-09-03T11:55:29Z</time>
      </trkpt>
      <trkpt lat="41.84784" lon="9.17776">
        <ele>1716.52</ele>
        <time>2018-09-03T11:55:46Z</time>
      </trkpt>
      <trkpt lat="41.84781" lon="9.17775">
        <ele>1716.51</ele>
        <time>2018-09-03T11:55:57Z</time>
      </trkpt>
      <trkpt lat="41.84768" lon="9.17772">
        <ele>1716.54</ele>
        <time>2018-09-03T11:56:13Z</time>
      </trkpt>
      <trkpt lat="41.84753" lon="9.17768">
        <ele>1716.56</ele>
        <time>2018-09-03T11:56:29Z</time>
      </trkpt>
      <trkpt lat="41.8475" lon="9.17768">
        <ele>1716.57</ele>
        <time>2018-09-03T11:56:32Z</time>
      </trkpt>
      <trkpt lat="41.84736" lon="9.17762">
        <ele>1717.49</ele>
        <time>2018-09-03T11:56:47Z</time>
      </trkpt>
      <trkpt lat="41.84722" lon="9.17753">
        <ele>1718.46</ele>
        <time>2018-09-03T11:57:02Z</time>
      </trkpt>
      <trkpt lat="41.8471" lon="9.17743">
        <ele>1718.5</ele>
        <time>2018-09-03T11:57:16Z</time>
      </trkpt>
      <trkpt lat="41.84705" lon="9.17741">
        <ele>1718.5</ele>
        <time>2018-09-03T11:57:21Z</time>
      </trkpt>
      <trkpt lat="41.84689" lon="9.17739">
        <ele>1719.36</ele>
        <time>2018-09-03T11:57:37Z</time>
      </trkpt>
      <trkpt lat="41.84678" lon="9.1774">
        <ele>1720.2</ele>
        <time>2018-09-03T11:57:48Z</time>
      </trkpt>
      <trkpt lat="41.84668" lon="9.17735">
        <ele>1720.21</ele>
        <time>2018-09-03T11:57:58Z</time>
      </trkpt>
      <trkpt lat="41.84664" lon="9.17733">
        <ele>1720.22</ele>
        <time>2018-09-03T11:58:02Z</time>
      </trkpt>
      <trkpt lat="41.84648" lon="9.17728">
        <ele>1720.25</ele>
        <time>2018-09-03T11:58:17Z</time>
      </trkpt>
      <trkpt lat="41.84636" lon="9.17723">
        <ele>1720.27</ele>
        <time>2018-09-03T11:58:29Z</time>
      </trkpt>
      <trkpt lat="41.84634" lon="9.17722">
        <ele>1720.27</ele>
        <time>2018-09-03T11:58:32Z</time>
      </trkpt>
      <trkpt lat="41.84628" lon="9.17724">
        <ele>1720.29</ele>
        <time>2018-09-03T11:58:38Z</time>
      </trkpt>
      <trkpt lat="41.84613" lon="9.17722">
        <ele>1720.33</ele>
        <time>2018-09-03T11:58:53Z</time>
      </trkpt>
      <trkpt lat="41.84601" lon="9.17716">
        <ele>1720.35</ele>
        <time>2018-09-03T11:59:07Z</time>
      </trkpt>
      <trkpt lat="41.84582" lon="9.17708">
        <ele>1720.34</ele>
        <time>2018-09-03T11:59:25Z</time>
      </trkpt>
      <trkpt lat="41.84573" lon="9.17705">
        <ele>1718.1</ele>
        <time>2018-09-03T11:59:34Z</time>
      </trkpt>
      <trkpt lat="41.84571" lon="9.17705">
        <ele>1718.1</ele>
        <time>2018-09-03T11:59:37Z</time>
      </trkpt>
      <trkpt lat="41.84554" lon="9.17703">
        <ele>1717.31</ele>
        <time>2018-09-03T11:59:53Z</time>
      </trkpt>
      <trkpt lat="41.84551" lon="9.17703">
        <ele>1717.3</ele>
        <time>2018-09-03T11:59:57Z</time>
      </trkpt>
      <trkpt lat="41.84534" lon="9.17706">
        <ele>1716.48</ele>
        <time>2018-09-03T12:00:14Z</time>
      </trkpt>
      <trkpt lat="41.84527" lon="9.17706">
        <ele>1716.48</ele>
        <time>2018-09-03T12:00:21Z</time>
      </trkpt>
      <trkpt lat="41.84525" lon="9.17706">
        <ele>1716.49</ele>
        <time>2018-09-03T12:00:23Z</time>
      </trkpt>
      <trkpt lat="41.84509" lon="9.17705">
        <ele>1716.51</ele>
        <time>2018-09-03T12:00:39Z</time>
      </trkpt>
      <trkpt lat="41.84497" lon="9.177">
        <ele>1718.81</ele>
        <time>2018-09-03T12:00:52Z</time>
      </trkpt>
      <trkpt lat="41.84482" lon="9.177">
        <ele>1721.32</ele>
        <time>2018-09-03T12:01:08Z</time>
      </trkpt>
      <trkpt lat="41.84481" lon="9.177">
        <ele>1721.32</ele>
        <time>2018-09-03T12:01:09Z</time>
      </trkpt>
      <trkpt lat="41.84463" lon="9.17698">
        <ele>1721.34</ele>
        <time>2018-09-03T12:01:26Z</time>
      </trkpt>
      <trkpt lat="41.84445" lon="9.17704">
        <ele>1721.43</ele>
        <time>2018-09-03T12:01:44Z</time>
      </trkpt>
      <trkpt lat="41.8444" lon="9.17706">
        <ele>1721.47</ele>
        <time>2018-09-03T12:01:50Z</time>
      </trkpt>
      <trkpt lat="41.84428" lon="9.17706">
        <ele>1722.48</ele>
        <time>2018-09-03T12:02:03Z</time>
      </trkpt>
      <trkpt lat="41.84413" lon="9.17708">
        <ele>1723.47</ele>
        <time>2018-09-03T12:02:20Z</time>
      </trkpt>
      <trkpt lat="41.84396" lon="9.17707">
        <ele>1725.26</ele>
        <time>2018-09-03T12:02:39Z</time>
      </trkpt>
      <trkpt lat="41.84383" lon="9.17707">
        <ele>1728.49</ele>
        <time>2018-09-03T12:02:53Z</time>
      </trkpt>
      <trkpt lat="41.84383" lon="9.17708">
        <ele>1728.49</ele>
        <time>2018-09-03T12:02:54Z</time>
      </trkpt>
      <trkpt lat="41.84366" lon="9.17712">
        <ele>1730.26</ele>
        <time>2018-09-03T12:03:16Z</time>
      </trkpt>
      <trkpt lat="41.84352" lon="9.1771">
        <ele>1731.18</ele>
        <time>2018-09-03T12:03:34Z</time>
      </trkpt>
      <trkpt lat="41.84349" lon="9.17709">
        <ele>1732.51</ele>
        <time>2018-09-03T12:03:38Z</time>
      </trkpt>
      <trkpt lat="41.84336" lon="9.17709">
        <ele>1734.25</ele>
        <time>2018-09-03T12:03:56Z</time>
      </trkpt>
      <trkpt lat="41.84324" lon="9.17713">
        <ele>1735.98</ele>
        <time>2018-09-03T12:04:12Z</time>
      </trkpt>
      <trkpt lat="41.84318" lon="9.17715">
        <ele>1736.97</ele>
        <time>2018-09-03T12:04:19Z</time>
      </trkpt>
      <trkpt lat="41.84304" lon="9.17722">
        <ele>1737.02</ele>
        <time>2018-09-03T12:04:33Z</time>
      </trkpt>
      <trkpt lat="41.84286" lon="9.17738">
        <ele>1737.91</ele>
        <time>2018-09-03T12:04:53Z</time>
      </trkpt>
      <trkpt lat="41.84275" lon="9.17747">
        <ele>1737.96</ele>
        <time>2018-09-03T12:05:06Z</time>
      </trkpt>
      <trkpt lat="41.84274" lon="9.17747">
        <ele>1737.96</ele>
        <time>2018-09-03T12:05:07Z</time>
      </trkpt>
      <trkpt lat="41.84259" lon="9.17756">
        <ele>1738.03</ele>
        <time>2018-09-03T12:05:24Z</time>
      </trkpt>
      <trkpt lat="41.84252" lon="9.17759">
        <ele>1738.85</ele>
        <time>2018-09-03T12:05:32Z</time>
      </trkpt>
      <trkpt lat="41.84248" lon="9.17759">
        <ele>1738.87</ele>
        <time>2018-09-03T12:05:36Z</time>
      </trkpt>
      <trkpt lat="41.84243" lon="9.17764">
        <ele>1738.98</ele>
        <time>2018-09-03T12:05:44Z</time>
      </trkpt>
      <trkpt lat="41.84235" lon="9.17772">
        <ele>1738.92</ele>
        <time>2018-09-03T12:05:53Z</time>
      </trkpt>
      <trkpt lat="41.84228" lon="9.17776">
        <ele>1738.95</ele>
        <time>2018-09-03T12:06:00Z</time>
      </trkpt>
      <trkpt lat="41.84214" lon="9.17785">
        <ele>1738.96</ele>
        <time>2018-09-03T12:06:16Z</time>
      </trkpt>
      <trkpt lat="41.84205" lon="9.17791">
        <ele>1736.72</ele>
        <time>2018-09-03T12:06:25Z</time>
      </trkpt>
      <trkpt lat="41.84189" lon="9.17796">
        <ele>1736.9</ele>
        <time>2018-09-03T12:06:42Z</time>
      </trkpt>
      <trkpt lat="41.84183" lon="9.17797">
        <ele>1739.27</ele>
        <time>2018-09-03T12:06:48Z</time>
      </trkpt>
      <trkpt lat="41.8418" lon="9.17798">
        <ele>1739.4</ele>
        <time>2018-09-03T12:06:52Z</time>
      </trkpt>
      <trkpt lat="41.84165" lon="9.17787">
        <ele>1740.27</ele>
        <time>2018-09-03T12:07:09Z</time>
      </trkpt>
      <trkpt lat="41.8415" lon="9.17785">
        <ele>1743.19</ele>
        <time>2018-09-03T12:07:26Z</time>
      </trkpt>
      <trkpt lat="41.84144" lon="9.17795">
        <ele>1744.09</ele>
        <time>2018-09-03T12:07:37Z</time>
      </trkpt>
      <trkpt lat="41.84136" lon="9.17809">
        <ele>1745.95</ele>
        <time>2018-09-03T12:07:54Z</time>
      </trkpt>
      <trkpt lat="41.84135" lon="9.17812">
        <ele>1747.33</ele>
        <time>2018-09-03T12:07:57Z</time>
      </trkpt>
      <trkpt lat="41.84134" lon="9.17827">
        <ele>1748.22</ele>
        <time>2018-09-03T12:08:12Z</time>
      </trkpt>
      <trkpt lat="41.84134" lon="9.17834">
        <ele>1749.2</ele>
        <time>2018-09-03T12:08:19Z</time>
      </trkpt>
      <trkpt lat="41.84134" lon="9.17837">
        <ele>1749.15</ele>
        <time>2018-09-03T12:08:22Z</time>
      </trkpt>
      <trkpt lat="41.84135" lon="9.17861">
        <ele>1750.28</ele>
        <time>2018-09-03T12:08:42Z</time>
      </trkpt>
      <trkpt lat="41.84136" lon="9.17867">
        <ele>1751.06</ele>
        <time>2018-09-03T12:08:48Z</time>
      </trkpt>
      <trkpt lat="41.84138" lon="9.17878">
        <ele>1752.16</ele>
        <time>2018-09-03T12:08:57Z</time>
      </trkpt>
      <trkpt lat="41.84136" lon="9.17895">
        <ele>1753.04</ele>
        <time>2018-09-03T12:09:12Z</time>
      </trkpt>
      <trkpt lat="41.84139" lon="9.17915">
        <ele>1753.94</ele>
        <time>2018-09-03T12:09:29Z</time>
      </trkpt>
      <trkpt lat="41.84139" lon="9.17915">
        <ele>1753.99</ele>
        <time>2018-09-03T12:09:55Z</time>
      </trkpt>
      <trkpt lat="41.8414" lon="9.17929">
        <ele>1754.07</ele>
        <time>2018-09-03T12:10:17Z</time>
      </trkpt>
      <trkpt lat="41.84139" lon="9.17952">
        <ele>1754.96</ele>
        <time>2018-09-03T12:10:33Z</time>
      </trkpt>
      <trkpt lat="41.84137" lon="9.17956">
        <ele>1754.97</ele>
        <time>2018-09-03T12:10:37Z</time>
      </trkpt>
      <trkpt lat="41.84134" lon="9.17963">
        <ele>1754.94</ele>
        <time>2018-09-03T12:10:42Z</time>
      </trkpt>
      <trkpt lat="41.84133" lon="9.17972">
        <ele>1752.48</ele>
        <time>2018-09-03T12:10:49Z</time>
      </trkpt>
      <trkpt lat="41.84128" lon="9.17979">
        <ele>1751.7</ele>
        <time>2018-09-03T12:10:55Z</time>
      </trkpt>
      <trkpt lat="41.84117" lon="9.18004">
        <ele>1751.08</ele>
        <time>2018-09-03T12:11:14Z</time>
      </trkpt>
      <trkpt lat="41.84119" lon="9.18024">
        <ele>1753.59</ele>
        <time>2018-09-03T12:11:30Z</time>
      </trkpt>
      <trkpt lat="41.84119" lon="9.18025">
        <ele>1753.56</ele>
        <time>2018-09-03T12:11:31Z</time>
      </trkpt>
      <trkpt lat="41.84124" lon="9.18042">
        <ele>1755.35</ele>
        <time>2018-09-03T12:11:46Z</time>
      </trkpt>
      <trkpt lat="41.84129" lon="9.18057">
        <ele>1756.48</ele>
        <time>2018-09-03T12:12:00Z</time>
      </trkpt>
      <trkpt lat="41.8413" lon="9.18058">
        <ele>1756.45</ele>
        <time>2018-09-03T12:12:02Z</time>
      </trkpt>
      <trkpt lat="41.84131" lon="9.18075">
        <ele>1759.23</ele>
        <time>2018-09-03T12:12:18Z</time>
      </trkpt>
      <trkpt lat="41.84133" lon="9.18093">
        <ele>1759.24</ele>
        <time>2018-09-03T12:12:33Z</time>
      </trkpt>
      <trkpt lat="41.84133" lon="9.18096">
        <ele>1759.22</ele>
        <time>2018-09-03T12:12:36Z</time>
      </trkpt>
      <trkpt lat="41.84126" lon="9.1811">
        <ele>1756.44</ele>
        <time>2018-09-03T12:12:50Z</time>
      </trkpt>
      <trkpt lat="41.84124" lon="9.18113">
        <ele>1756.44</ele>
        <time>2018-09-03T12:12:53Z</time>
      </trkpt>
      <trkpt lat="41.84118" lon="9.18117">
        <ele>1755</ele>
        <time>2018-09-03T12:13:08Z</time>
      </trkpt>
      <trkpt lat="41.84114" lon="9.18121">
        <ele>1755.13</ele>
        <time>2018-09-03T12:13:40Z</time>
      </trkpt>
      <trkpt lat="41.84106" lon="9.18131">
        <ele>1753.36</ele>
        <time>2018-09-03T12:13:54Z</time>
      </trkpt>
      <trkpt lat="41.84104" lon="9.18134">
        <ele>1752.38</ele>
        <time>2018-09-03T12:13:58Z</time>
      </trkpt>
      <trkpt lat="41.84089" lon="9.18144">
        <ele>1751.33</ele>
        <time>2018-09-03T12:14:15Z</time>
      </trkpt>
      <trkpt lat="41.84088" lon="9.18146">
        <ele>1750.42</ele>
        <time>2018-09-03T12:14:18Z</time>
      </trkpt>
      <trkpt lat="41.84079" lon="9.18161">
        <ele>1748.87</ele>
        <time>2018-09-03T12:14:33Z</time>
      </trkpt>
      <trkpt lat="41.84079" lon="9.18164">
        <ele>1747.91</ele>
        <time>2018-09-03T12:14:36Z</time>
      </trkpt>
      <trkpt lat="41.84077" lon="9.18174">
        <ele>1746.1</ele>
        <time>2018-09-03T12:14:53Z</time>
      </trkpt>
      <trkpt lat="41.84071" lon="9.18184">
        <ele>1746.06</ele>
        <time>2018-09-03T12:15:13Z</time>
      </trkpt>
      <trkpt lat="41.84069" lon="9.18186">
        <ele>1746.08</ele>
        <time>2018-09-03T12:15:16Z</time>
      </trkpt>
      <trkpt lat="41.84064" lon="9.18196">
        <ele>1745.29</ele>
        <time>2018-09-03T12:15:24Z</time>
      </trkpt>
      <trkpt lat="41.84056" lon="9.18215">
        <ele>1744.23</ele>
        <time>2018-09-03T12:15:41Z</time>
      </trkpt>
      <trkpt lat="41.84056" lon="9.18219">
        <ele>1744.2</ele>
        <time>2018-09-03T12:15:44Z</time>
      </trkpt>
      <trkpt lat="41.84056" lon="9.18233">
        <ele>1741.67</ele>
        <time>2018-09-03T12:15:58Z</time>
      </trkpt>
      <trkpt lat="41.84051" lon="9.18245">
        <ele>1739.68</ele>
        <time>2018-09-03T12:16:12Z</time>
      </trkpt>
      <trkpt lat="41.84047" lon="9.18257">
        <ele>1738.73</ele>
        <time>2018-09-03T12:16:23Z</time>
      </trkpt>
      <trkpt lat="41.8403" lon="9.18274">
        <ele>1737.7</ele>
        <time>2018-09-03T12:16:42Z</time>
      </trkpt>
      <trkpt lat="41.84027" lon="9.18277">
        <ele>1737.7</ele>
        <time>2018-09-03T12:16:45Z</time>
      </trkpt>
      <trkpt lat="41.84025" lon="9.18282">
        <ele>1737.68</ele>
        <time>2018-09-03T12:16:49Z</time>
      </trkpt>
      <trkpt lat="41.84019" lon="9.18314">
        <ele>1737.79</ele>
        <time>2018-09-03T12:17:12Z</time>
      </trkpt>
      <trkpt lat="41.84016" lon="9.18323">
        <ele>1740.16</ele>
        <time>2018-09-03T12:17:23Z</time>
      </trkpt>
      <trkpt lat="41.84017" lon="9.18339">
        <ele>1741.99</ele>
        <time>2018-09-03T12:17:39Z</time>
      </trkpt>
      <trkpt lat="41.84015" lon="9.18355">
        <ele>1742.86</ele>
        <time>2018-09-03T12:17:54Z</time>
      </trkpt>
      <trkpt lat="41.84015" lon="9.18369">
        <ele>1744.09</ele>
        <time>2018-09-03T12:18:07Z</time>
      </trkpt>
      <trkpt lat="41.84024" lon="9.18394">
        <ele>1745.14</ele>
        <time>2018-09-03T12:18:27Z</time>
      </trkpt>
      <trkpt lat="41.84038" lon="9.18417">
        <ele>1745.15</ele>
        <time>2018-09-03T12:18:48Z</time>
      </trkpt>
      <trkpt lat="41.84038" lon="9.1842">
        <ele>1745.15</ele>
        <time>2018-09-03T12:18:50Z</time>
      </trkpt>
      <trkpt lat="41.84049" lon="9.18441">
        <ele>1746.06</ele>
        <time>2018-09-03T12:19:09Z</time>
      </trkpt>
      <trkpt lat="41.8405" lon="9.18445">
        <ele>1746.07</ele>
        <time>2018-09-03T12:19:12Z</time>
      </trkpt>
      <trkpt lat="41.84051" lon="9.18471">
        <ele>1748.94</ele>
        <time>2018-09-03T12:19:34Z</time>
      </trkpt>
      <trkpt lat="41.84054" lon="9.18482">
        <ele>1750.18</ele>
        <time>2018-09-03T12:19:43Z</time>
      </trkpt>
      <trkpt lat="41.84059" lon="9.18498">
        <ele>1750.14</ele>
        <time>2018-09-03T12:19:55Z</time>
      </trkpt>
      <trkpt lat="41.8406" lon="9.18516">
        <ele>1750.15</ele>
        <time>2018-09-03T12:20:11Z</time>
      </trkpt>
      <trkpt lat="41.84061" lon="9.18523">
        <ele>1750.14</ele>
        <time>2018-09-03T12:20:19Z</time>
      </trkpt>
      <trkpt lat="41.84061" lon="9.18529">
        <ele>1747.83</ele>
        <time>2018-09-03T12:20:24Z</time>
      </trkpt>
      <trkpt lat="41.84064" lon="9.18545">
        <ele>1746.65</ele>
        <time>2018-09-03T12:20:40Z</time>
      </trkpt>
      <trkpt lat="41.84068" lon="9.18561">
        <ele>1745.83</ele>
        <time>2018-09-03T12:20:54Z</time>
      </trkpt>
      <trkpt lat="41.84069" lon="9.18568">
        <ele>1745.07</ele>
        <time>2018-09-03T12:20:59Z</time>
      </trkpt>
      <trkpt lat="41.84069" lon="9.18573">
        <ele>1745.08</ele>
        <time>2018-09-03T12:21:03Z</time>
      </trkpt>
      <trkpt lat="41.8407" lon="9.18588">
        <ele>1744.38</ele>
        <time>2018-09-03T12:21:17Z</time>
      </trkpt>
      <trkpt lat="41.84067" lon="9.18594">
        <ele>1746.86</ele>
        <time>2018-09-03T12:21:29Z</time>
      </trkpt>
      <trkpt lat="41.84066" lon="9.18599">
        <ele>1746.9</ele>
        <time>2018-09-03T12:21:34Z</time>
      </trkpt>
      <trkpt lat="41.84066" lon="9.18606">
        <ele>1747.66</ele>
        <time>2018-09-03T12:21:40Z</time>
      </trkpt>
      <trkpt lat="41.8407" lon="9.18625">
        <ele>1747.6</ele>
        <time>2018-09-03T12:21:56Z</time>
      </trkpt>
      <trkpt lat="41.84074" lon="9.18643">
        <ele>1747.73</ele>
        <time>2018-09-03T12:22:09Z</time>
      </trkpt>
      <trkpt lat="41.84075" lon="9.18657">
        <ele>1747.71</ele>
        <time>2018-09-03T12:22:19Z</time>
      </trkpt>
      <trkpt lat="41.84078" lon="9.18666">
        <ele>1745.26</ele>
        <time>2018-09-03T12:22:26Z</time>
      </trkpt>
      <trkpt lat="41.84078" lon="9.1867">
        <ele>1745.23</ele>
        <time>2018-09-03T12:22:29Z</time>
      </trkpt>
      <trkpt lat="41.84081" lon="9.18682">
        <ele>1745.28</ele>
        <time>2018-09-03T12:22:38Z</time>
      </trkpt>
      <trkpt lat="41.84084" lon="9.18697">
        <ele>1745.28</ele>
        <time>2018-09-03T12:22:51Z</time>
      </trkpt>
      <trkpt lat="41.84087" lon="9.18706">
        <ele>1745.29</ele>
        <time>2018-09-03T12:23:03Z</time>
      </trkpt>
      <trkpt lat="41.8409" lon="9.18716">
        <ele>1745.33</ele>
        <time>2018-09-03T12:23:16Z</time>
      </trkpt>
      <trkpt lat="41.84093" lon="9.18718">
        <ele>1745.37</ele>
        <time>2018-09-03T12:23:21Z</time>
      </trkpt>
      <trkpt lat="41.84098" lon="9.18727">
        <ele>1745.31</ele>
        <time>2018-09-03T12:23:34Z</time>
      </trkpt>
      <trkpt lat="41.84103" lon="9.18736">
        <ele>1747.74</ele>
        <time>2018-09-03T12:23:44Z</time>
      </trkpt>
      <trkpt lat="41.84112" lon="9.18745">
        <ele>1748.76</ele>
        <time>2018-09-03T12:23:59Z</time>
      </trkpt>
      <trkpt lat="41.84121" lon="9.18757">
        <ele>1749.57</ele>
        <time>2018-09-03T12:24:14Z</time>
      </trkpt>
      <trkpt lat="41.84128" lon="9.18769">
        <ele>1751.23</ele>
        <time>2018-09-03T12:24:30Z</time>
      </trkpt>
      <trkpt lat="41.84135" lon="9.18779">
        <ele>1753.09</ele>
        <time>2018-09-03T12:24:44Z</time>
      </trkpt>
      <trkpt lat="41.84143" lon="9.18788">
        <ele>1755.61</ele>
        <time>2018-09-03T12:24:59Z</time>
      </trkpt>
      <trkpt lat="41.84148" lon="9.188">
        <ele>1756.36</ele>
        <time>2018-09-03T12:25:13Z</time>
      </trkpt>
      <trkpt lat="41.84145" lon="9.18804">
        <ele>1757.39</ele>
        <time>2018-09-03T12:25:26Z</time>
      </trkpt>
      <trkpt lat="41.84139" lon="9.18812">
        <ele>1760.98</ele>
        <time>2018-09-03T12:25:42Z</time>
      </trkpt>
      <trkpt lat="41.84136" lon="9.18816">
        <ele>1762.65</ele>
        <time>2018-09-03T12:25:54Z</time>
      </trkpt>
      <trkpt lat="41.84134" lon="9.18822">
        <ele>1764.98</ele>
        <time>2018-09-03T12:26:07Z</time>
      </trkpt>
      <trkpt lat="41.84129" lon="9.18834">
        <ele>1766.82</ele>
        <time>2018-09-03T12:26:22Z</time>
      </trkpt>
      <trkpt lat="41.84123" lon="9.18845">
        <ele>1769.61</ele>
        <time>2018-09-03T12:26:41Z</time>
      </trkpt>
      <trkpt lat="41.84123" lon="9.18857">
        <ele>1770.35</ele>
        <time>2018-09-03T12:26:57Z</time>
      </trkpt>
      <trkpt lat="41.84125" lon="9.18868">
        <ele>1771.38</ele>
        <time>2018-09-03T12:27:10Z</time>
      </trkpt>
      <trkpt lat="41.84133" lon="9.18876">
        <ele>1771.36</ele>
        <time>2018-09-03T12:27:20Z</time>
      </trkpt>
      <trkpt lat="41.84134" lon="9.18886">
        <ele>1772.42</ele>
        <time>2018-09-03T12:27:34Z</time>
      </trkpt>
      <trkpt lat="41.84138" lon="9.18895">
        <ele>1774.31</ele>
        <time>2018-09-03T12:27:48Z</time>
      </trkpt>
      <trkpt lat="41.8414" lon="9.18899">
        <ele>1775.6</ele>
        <time>2018-09-03T12:27:53Z</time>
      </trkpt>
      <trkpt lat="41.8414" lon="9.189">
        <ele>1775.58</ele>
        <time>2018-09-03T12:28:11Z</time>
      </trkpt>
      <trkpt lat="41.84146" lon="9.18908">
        <ele>1775.6</ele>
        <time>2018-09-03T12:28:25Z</time>
      </trkpt>
      <trkpt lat="41.84149" lon="9.18919">
        <ele>1777.55</ele>
        <time>2018-09-03T12:28:39Z</time>
      </trkpt>
      <trkpt lat="41.84147" lon="9.1893">
        <ele>1779.4</ele>
        <time>2018-09-03T12:28:54Z</time>
      </trkpt>
      <trkpt lat="41.84146" lon="9.18939">
        <ele>1781.63</ele>
        <time>2018-09-03T12:29:08Z</time>
      </trkpt>
      <trkpt lat="41.84145" lon="9.18949">
        <ele>1782.42</ele>
        <time>2018-09-03T12:29:21Z</time>
      </trkpt>
      <trkpt lat="41.84146" lon="9.18956">
        <ele>1784.23</ele>
        <time>2018-09-03T12:29:34Z</time>
      </trkpt>
      <trkpt lat="41.8414" lon="9.18958">
        <ele>1786.07</ele>
        <time>2018-09-03T12:29:49Z</time>
      </trkpt>
      <trkpt lat="41.84138" lon="9.18958">
        <ele>1787.31</ele>
        <time>2018-09-03T12:29:52Z</time>
      </trkpt>
      <trkpt lat="41.84131" lon="9.18958">
        <ele>1789.18</ele>
        <time>2018-09-03T12:30:07Z</time>
      </trkpt>
      <trkpt lat="41.84125" lon="9.18962">
        <ele>1791.21</ele>
        <time>2018-09-03T12:30:22Z</time>
      </trkpt>
      <trkpt lat="41.84121" lon="9.18962">
        <ele>1793.46</ele>
        <time>2018-09-03T12:30:35Z</time>
      </trkpt>
      <trkpt lat="41.8412" lon="9.18968">
        <ele>1794.89</ele>
        <time>2018-09-03T12:30:48Z</time>
      </trkpt>
      <trkpt lat="41.8412" lon="9.18969">
        <ele>1794.92</ele>
        <time>2018-09-03T12:30:49Z</time>
      </trkpt>
      <trkpt lat="41.84121" lon="9.18977">
        <ele>1795.78</ele>
        <time>2018-09-03T12:31:03Z</time>
      </trkpt>
      <trkpt lat="41.84118" lon="9.18981">
        <ele>1798.56</ele>
        <time>2018-09-03T12:31:18Z</time>
      </trkpt>
      <trkpt lat="41.84114" lon="9.18983">
        <ele>1800.43</ele>
        <time>2018-09-03T12:31:31Z</time>
      </trkpt>
      <trkpt lat="41.84112" lon="9.18991">
        <ele>1803.11</ele>
        <time>2018-09-03T12:31:46Z</time>
      </trkpt>
      <trkpt lat="41.84112" lon="9.19003">
        <ele>1805.02</ele>
        <time>2018-09-03T12:32:02Z</time>
      </trkpt>
      <trkpt lat="41.84108" lon="9.19006">
        <ele>1805.8</ele>
        <time>2018-09-03T12:32:13Z</time>
      </trkpt>
      <trkpt lat="41.8411" lon="9.19015">
        <ele>1806.83</ele>
        <time>2018-09-03T12:32:26Z</time>
      </trkpt>
      <trkpt lat="41.84112" lon="9.19019">
        <ele>1806.82</ele>
        <time>2018-09-03T12:32:39Z</time>
      </trkpt>
      <trkpt lat="41.84116" lon="9.19026">
        <ele>1806.86</ele>
        <time>2018-09-03T12:32:52Z</time>
      </trkpt>
      <trkpt lat="41.84116" lon="9.19031">
        <ele>1808.96</ele>
        <time>2018-09-03T12:33:05Z</time>
      </trkpt>
      <trkpt lat="41.84115" lon="9.19035">
        <ele>1810.04</ele>
        <time>2018-09-03T12:33:18Z</time>
      </trkpt>
      <trkpt lat="41.84117" lon="9.19044">
        <ele>1811.93</ele>
        <time>2018-09-03T12:33:31Z</time>
      </trkpt>
      <trkpt lat="41.84114" lon="9.19045">
        <ele>1813.07</ele>
        <time>2018-09-03T12:33:43Z</time>
      </trkpt>
      <trkpt lat="41.84115" lon="9.19053">
        <ele>1816.16</ele>
        <time>2018-09-03T12:33:58Z</time>
      </trkpt>
      <trkpt lat="41.84114" lon="9.19053">
        <ele>1816.17</ele>
        <time>2018-09-03T12:33:59Z</time>
      </trkpt>
      <trkpt lat="41.84111" lon="9.19056">
        <ele>1818.16</ele>
        <time>2018-09-03T12:34:12Z</time>
      </trkpt>
      <trkpt lat="41.8411" lon="9.19061">
        <ele>1819.9</ele>
        <time>2018-09-03T12:34:24Z</time>
      </trkpt>
      <trkpt lat="41.84108" lon="9.19062">
        <ele>1821.14</ele>
        <time>2018-09-03T12:34:30Z</time>
      </trkpt>
      <trkpt lat="41.84108" lon="9.19068">
        <ele>1823.34</ele>
        <time>2018-09-03T12:34:42Z</time>
      </trkpt>
      <trkpt lat="41.84107" lon="9.19073">
        <ele>1824.24</ele>
        <time>2018-09-03T12:34:54Z</time>
      </trkpt>
      <trkpt lat="41.84108" lon="9.19079">
        <ele>1827.68</ele>
        <time>2018-09-03T12:35:06Z</time>
      </trkpt>
      <trkpt lat="41.84108" lon="9.19079">
        <ele>1827.67</ele>
        <time>2018-09-03T12:35:07Z</time>
      </trkpt>
      <trkpt lat="41.8411" lon="9.19092">
        <ele>1829.49</ele>
        <time>2018-09-03T12:35:24Z</time>
      </trkpt>
      <trkpt lat="41.84113" lon="9.19101">
        <ele>1830.49</ele>
        <time>2018-09-03T12:35:38Z</time>
      </trkpt>
      <trkpt lat="41.84115" lon="9.19114">
        <ele>1830.5</ele>
        <time>2018-09-03T12:35:53Z</time>
      </trkpt>
      <trkpt lat="41.84117" lon="9.19125">
        <ele>1830.55</ele>
        <time>2018-09-03T12:36:06Z</time>
      </trkpt>
      <trkpt lat="41.84118" lon="9.19126">
        <ele>1828.11</ele>
        <time>2018-09-03T12:36:12Z</time>
      </trkpt>
      <trkpt lat="41.8412" lon="9.19134">
        <ele>1828.16</ele>
        <time>2018-09-03T12:36:26Z</time>
      </trkpt>
      <trkpt lat="41.84121" lon="9.19136">
        <ele>1830.88</ele>
        <time>2018-09-03T12:36:33Z</time>
      </trkpt>
      <trkpt lat="41.84123" lon="9.19142">
        <ele>1832.53</ele>
        <time>2018-09-03T12:36:46Z</time>
      </trkpt>
      <trkpt lat="41.84131" lon="9.19147">
        <ele>1834.53</ele>
        <time>2018-09-03T12:37:00Z</time>
      </trkpt>
      <trkpt lat="41.84137" lon="9.19154">
        <ele>1836.37</ele>
        <time>2018-09-03T12:37:15Z</time>
      </trkpt>
      <trkpt lat="41.84144" lon="9.19158">
        <ele>1838.38</ele>
        <time>2018-09-03T12:37:31Z</time>
      </trkpt>
      <trkpt lat="41.84144" lon="9.19164">
        <ele>1840.85</ele>
        <time>2018-09-03T12:37:41Z</time>
      </trkpt>
      <trkpt lat="41.84147" lon="9.19174">
        <ele>1843.7</ele>
        <time>2018-09-03T12:37:58Z</time>
      </trkpt>
      <trkpt lat="41.84153" lon="9.19182">
        <ele>1844.7</ele>
        <time>2018-09-03T12:38:13Z</time>
      </trkpt>
      <trkpt lat="41.84153" lon="9.1919">
        <ele>1846.34</ele>
        <time>2018-09-03T12:38:26Z</time>
      </trkpt>
      <trkpt lat="41.84159" lon="9.19198">
        <ele>1848.05</ele>
        <time>2018-09-03T12:38:39Z</time>
      </trkpt>
      <trkpt lat="41.84162" lon="9.19202">
        <ele>1849.42</ele>
        <time>2018-09-03T12:38:46Z</time>
      </trkpt>
      <trkpt lat="41.84167" lon="9.19214">
        <ele>1851.06</ele>
        <time>2018-09-03T12:39:02Z</time>
      </trkpt>
      <trkpt lat="41.8417" lon="9.1923">
        <ele>1852.78</ele>
        <time>2018-09-03T12:39:18Z</time>
      </trkpt>
      <trkpt lat="41.84177" lon="9.19247">
        <ele>1854.42</ele>
        <time>2018-09-03T12:39:37Z</time>
      </trkpt>
      <trkpt lat="41.84179" lon="9.19257">
        <ele>1855.44</ele>
        <time>2018-09-03T12:39:52Z</time>
      </trkpt>
      <trkpt lat="41.84183" lon="9.19265">
        <ele>1857.16</ele>
        <time>2018-09-03T12:40:05Z</time>
      </trkpt>
      <trkpt lat="41.84185" lon="9.19276">
        <ele>1859.12</ele>
        <time>2018-09-03T12:40:18Z</time>
      </trkpt>
      <trkpt lat="41.84191" lon="9.19289">
        <ele>1860</ele>
        <time>2018-09-03T12:40:33Z</time>
      </trkpt>
      <trkpt lat="41.84201" lon="9.19305">
        <ele>1860.06</ele>
        <time>2018-09-03T12:40:50Z</time>
      </trkpt>
      <trkpt lat="41.84206" lon="9.19317">
        <ele>1860.09</ele>
        <time>2018-09-03T12:41:02Z</time>
      </trkpt>
      <trkpt lat="41.84213" lon="9.19322">
        <ele>1861.03</ele>
        <time>2018-09-03T12:41:14Z</time>
      </trkpt>
      <trkpt lat="41.84224" lon="9.19331">
        <ele>1861.11</ele>
        <time>2018-09-03T12:41:32Z</time>
      </trkpt>
      <trkpt lat="41.84227" lon="9.19335">
        <ele>1861.93</ele>
        <time>2018-09-03T12:41:38Z</time>
      </trkpt>
      <trkpt lat="41.84232" lon="9.19343">
        <ele>1863</ele>
        <time>2018-09-03T12:41:52Z</time>
      </trkpt>
      <trkpt lat="41.84241" lon="9.1935">
        <ele>1864.61</ele>
        <time>2018-09-03T12:42:07Z</time>
      </trkpt>
      <trkpt lat="41.84245" lon="9.19354">
        <ele>1865.38</ele>
        <time>2018-09-03T12:42:13Z</time>
      </trkpt>
      <trkpt lat="41.84249" lon="9.19357">
        <ele>1865.36</ele>
        <time>2018-09-03T12:42:18Z</time>
      </trkpt>
      <trkpt lat="41.84256" lon="9.19362">
        <ele>1866.2</ele>
        <time>2018-09-03T12:42:28Z</time>
      </trkpt>
      <trkpt lat="41.84267" lon="9.1937">
        <ele>1866.24</ele>
        <time>2018-09-03T12:42:44Z</time>
      </trkpt>
      <trkpt lat="41.84278" lon="9.19381">
        <ele>1867.41</ele>
        <time>2018-09-03T12:43:00Z</time>
      </trkpt>
      <trkpt lat="41.84294" lon="9.19386">
        <ele>1868.16</ele>
        <time>2018-09-03T12:43:18Z</time>
      </trkpt>
      <trkpt lat="41.84303" lon="9.19389">
        <ele>1868.25</ele>
        <time>2018-09-03T12:43:31Z</time>
      </trkpt>
      <trkpt lat="41.84312" lon="9.19397">
        <ele>1869.34</ele>
        <time>2018-09-03T12:43:53Z</time>
      </trkpt>
      <trkpt lat="41.84326" lon="9.19403">
        <ele>1870.41</ele>
        <time>2018-09-03T12:44:10Z</time>
      </trkpt>
      <trkpt lat="41.84337" lon="9.19413">
        <ele>1872.96</ele>
        <time>2018-09-03T12:44:28Z</time>
      </trkpt>
      <trkpt lat="41.8434" lon="9.19417">
        <ele>1872.97</ele>
        <time>2018-09-03T12:44:33Z</time>
      </trkpt>
      <trkpt lat="41.84349" lon="9.1943">
        <ele>1874.92</ele>
        <time>2018-09-03T12:44:52Z</time>
      </trkpt>
      <trkpt lat="41.84355" lon="9.1944">
        <ele>1877.17</ele>
        <time>2018-09-03T12:45:07Z</time>
      </trkpt>
      <trkpt lat="41.84365" lon="9.19445">
        <ele>1878.82</ele>
        <time>2018-09-03T12:45:23Z</time>
      </trkpt>
      <trkpt lat="41.84367" lon="9.19457">
        <ele>1880.77</ele>
        <time>2018-09-03T12:45:38Z</time>
      </trkpt>
      <trkpt lat="41.84368" lon="9.1947">
        <ele>1882.9</ele>
        <time>2018-09-03T12:45:54Z</time>
      </trkpt>
      <trkpt lat="41.84365" lon="9.19483">
        <ele>1884.87</ele>
        <time>2018-09-03T12:46:09Z</time>
      </trkpt>
      <trkpt lat="41.84372" lon="9.19493">
        <ele>1886.07</ele>
        <time>2018-09-03T12:46:24Z</time>
      </trkpt>
      <trkpt lat="41.8438" lon="9.19502">
        <ele>1888.02</ele>
        <time>2018-09-03T12:46:38Z</time>
      </trkpt>
      <trkpt lat="41.84392" lon="9.19515">
        <ele>1889.81</ele>
        <time>2018-09-03T12:46:56Z</time>
      </trkpt>
      <trkpt lat="41.84393" lon="9.19519">
        <ele>1889.83</ele>
        <time>2018-09-03T12:47:13Z</time>
      </trkpt>
      <trkpt lat="41.84398" lon="9.19528">
        <ele>1889.88</ele>
        <time>2018-09-03T12:47:23Z</time>
      </trkpt>
      <trkpt lat="41.844" lon="9.19536">
        <ele>1890.78</ele>
        <time>2018-09-03T12:47:31Z</time>
      </trkpt>
      <trkpt lat="41.84408" lon="9.19552">
        <ele>1892.44</ele>
        <time>2018-09-03T12:47:50Z</time>
      </trkpt>
      <trkpt lat="41.84412" lon="9.19558">
        <ele>1892.52</ele>
        <time>2018-09-03T12:48:05Z</time>
      </trkpt>
      <trkpt lat="41.8442" lon="9.19576">
        <ele>1893.39</ele>
        <time>2018-09-03T12:48:23Z</time>
      </trkpt>
      <trkpt lat="41.84433" lon="9.19599">
        <ele>1894.33</ele>
        <time>2018-09-03T12:48:44Z</time>
      </trkpt>
      <trkpt lat="41.84437" lon="9.19615">
        <ele>1895.31</ele>
        <time>2018-09-03T12:48:59Z</time>
      </trkpt>
      <trkpt lat="41.84441" lon="9.19634">
        <ele>1897.3</ele>
        <time>2018-09-03T12:49:18Z</time>
      </trkpt>
      <trkpt lat="41.84441" lon="9.19647">
        <ele>1899.69</ele>
        <time>2018-09-03T12:49:33Z</time>
      </trkpt>
      <trkpt lat="41.84441" lon="9.19656">
        <ele>1901.08</ele>
        <time>2018-09-03T12:49:44Z</time>
      </trkpt>
      <trkpt lat="41.84437" lon="9.1967">
        <ele>1902.93</ele>
        <time>2018-09-03T12:50:00Z</time>
      </trkpt>
      <trkpt lat="41.84431" lon="9.19684">
        <ele>1904.01</ele>
        <time>2018-09-03T12:50:15Z</time>
      </trkpt>
      <trkpt lat="41.84432" lon="9.19696">
        <ele>1904.76</ele>
        <time>2018-09-03T12:50:30Z</time>
      </trkpt>
      <trkpt lat="41.84431" lon="9.19699">
        <ele>1906.12</ele>
        <time>2018-09-03T12:50:35Z</time>
      </trkpt>
      <trkpt lat="41.84428" lon="9.19706">
        <ele>1907.95</ele>
        <time>2018-09-03T12:50:50Z</time>
      </trkpt>
      <trkpt lat="41.84424" lon="9.1971">
        <ele>1910.67</ele>
        <time>2018-09-03T12:51:06Z</time>
      </trkpt>
      <trkpt lat="41.84419" lon="9.19713">
        <ele>1912.87</ele>
        <time>2018-09-03T12:51:22Z</time>
      </trkpt>
      <trkpt lat="41.84421" lon="9.19722">
        <ele>1915.46</ele>
        <time>2018-09-03T12:51:37Z</time>
      </trkpt>
      <trkpt lat="41.84417" lon="9.19728">
        <ele>1917.17</ele>
        <time>2018-09-03T12:51:53Z</time>
      </trkpt>
      <trkpt lat="41.84415" lon="9.19738">
        <ele>1919.19</ele>
        <time>2018-09-03T12:52:07Z</time>
      </trkpt>
      <trkpt lat="41.84411" lon="9.19747">
        <ele>1920.93</ele>
        <time>2018-09-03T12:52:23Z</time>
      </trkpt>
      <trkpt lat="41.84408" lon="9.19753">
        <ele>1922.99</ele>
        <time>2018-09-03T12:52:37Z</time>
      </trkpt>
      <trkpt lat="41.84411" lon="9.19763">
        <ele>1925.1</ele>
        <time>2018-09-03T12:52:52Z</time>
      </trkpt>
      <trkpt lat="41.8441" lon="9.19769">
        <ele>1926.73</ele>
        <time>2018-09-03T12:53:03Z</time>
      </trkpt>
      <trkpt lat="41.84408" lon="9.19777">
        <ele>1928.47</ele>
        <time>2018-09-03T12:53:18Z</time>
      </trkpt>
      <trkpt lat="41.84404" lon="9.19785">
        <ele>1930.12</ele>
        <time>2018-09-03T12:53:33Z</time>
      </trkpt>
      <trkpt lat="41.84407" lon="9.19799">
        <ele>1931.76</ele>
        <time>2018-09-03T12:53:50Z</time>
      </trkpt>
      <trkpt lat="41.8441" lon="9.19808">
        <ele>1933.02</ele>
        <time>2018-09-03T12:54:02Z</time>
      </trkpt>
      <trkpt lat="41.84414" lon="9.19816">
        <ele>1935</ele>
        <time>2018-09-03T12:54:16Z</time>
      </trkpt>
      <trkpt lat="41.8442" lon="9.19825">
        <ele>1935.05</ele>
        <time>2018-09-03T12:54:29Z</time>
      </trkpt>
      <trkpt lat="41.84422" lon="9.19829">
        <ele>1935.82</ele>
        <time>2018-09-03T12:54:34Z</time>
      </trkpt>
      <trkpt lat="41.84431" lon="9.19841">
        <ele>1936.62</ele>
        <time>2018-09-03T12:54:50Z</time>
      </trkpt>
      <trkpt lat="41.84434" lon="9.19856">
        <ele>1938.49</ele>
        <time>2018-09-03T12:55:08Z</time>
      </trkpt>
      <trkpt lat="41.8444" lon="9.19864">
        <ele>1940.45</ele>
        <time>2018-09-03T12:55:23Z</time>
      </trkpt>
      <trkpt lat="41.84447" lon="9.19875">
        <ele>1941.33</ele>
        <time>2018-09-03T12:55:39Z</time>
      </trkpt>
      <trkpt lat="41.84447" lon="9.1988">
        <ele>1943.56</ele>
        <time>2018-09-03T12:55:47Z</time>
      </trkpt>
      <trkpt lat="41.84449" lon="9.19887">
        <ele>1944.36</ele>
        <time>2018-09-03T12:56:01Z</time>
      </trkpt>
      <trkpt lat="41.84451" lon="9.19895">
        <ele>1945.35</ele>
        <time>2018-09-03T12:56:14Z</time>
      </trkpt>
      <trkpt lat="41.84452" lon="9.19897">
        <ele>1946.75</ele>
        <time>2018-09-03T12:56:17Z</time>
      </trkpt>
      <trkpt lat="41.8445" lon="9.19905">
        <ele>1948.54</ele>
        <time>2018-09-03T12:56:31Z</time>
      </trkpt>
      <trkpt lat="41.84448" lon="9.19911">
        <ele>1950.42</ele>
        <time>2018-09-03T12:56:45Z</time>
      </trkpt>
      <trkpt lat="41.84447" lon="9.19918">
        <ele>1952.18</ele>
        <time>2018-09-03T12:56:59Z</time>
      </trkpt>
      <trkpt lat="41.8445" lon="9.19927">
        <ele>1954.74</ele>
        <time>2018-09-03T12:57:15Z</time>
      </trkpt>
      <trkpt lat="41.84449" lon="9.19933">
        <ele>1955.86</ele>
        <time>2018-09-03T12:57:27Z</time>
      </trkpt>
      <trkpt lat="41.84449" lon="9.19939">
        <ele>1957.83</ele>
        <time>2018-09-03T12:57:39Z</time>
      </trkpt>
      <trkpt lat="41.8445" lon="9.19948">
        <ele>1959.99</ele>
        <time>2018-09-03T12:57:53Z</time>
      </trkpt>
      <trkpt lat="41.8445" lon="9.19953">
        <ele>1961.65</ele>
        <time>2018-09-03T12:58:06Z</time>
      </trkpt>
      <trkpt lat="41.84456" lon="9.19964">
        <ele>1963.62</ele>
        <time>2018-09-03T12:58:22Z</time>
      </trkpt>
      <trkpt lat="41.84459" lon="9.19973">
        <ele>1964.62</ele>
        <time>2018-09-03T12:58:37Z</time>
      </trkpt>
      <trkpt lat="41.84462" lon="9.19981">
        <ele>1966.53</ele>
        <time>2018-09-03T12:58:50Z</time>
      </trkpt>
      <trkpt lat="41.84464" lon="9.19989">
        <ele>1967.36</ele>
        <time>2018-09-03T12:59:03Z</time>
      </trkpt>
      <trkpt lat="41.84465" lon="9.19992">
        <ele>1968.57</ele>
        <time>2018-09-03T12:59:07Z</time>
      </trkpt>
      <trkpt lat="41.84467" lon="9.20001">
        <ele>1970.29</ele>
        <time>2018-09-03T12:59:22Z</time>
      </trkpt>
      <trkpt lat="41.84464" lon="9.20007">
        <ele>1972.07</ele>
        <time>2018-09-03T12:59:37Z</time>
      </trkpt>
      <trkpt lat="41.84466" lon="9.20013">
        <ele>1974.08</ele>
        <time>2018-09-03T12:59:50Z</time>
      </trkpt>
      <trkpt lat="41.84465" lon="9.20017">
        <ele>1976.13</ele>
        <time>2018-09-03T13:00:01Z</time>
      </trkpt>
      <trkpt lat="41.84462" lon="9.20025">
        <ele>1977.15</ele>
        <time>2018-09-03T13:00:16Z</time>
      </trkpt>
      <trkpt lat="41.8446" lon="9.2003">
        <ele>1978.12</ele>
        <time>2018-09-03T13:00:28Z</time>
      </trkpt>
      <trkpt lat="41.8446" lon="9.20035">
        <ele>1980.81</ele>
        <time>2018-09-03T13:00:42Z</time>
      </trkpt>
      <trkpt lat="41.84462" lon="9.20039">
        <ele>1982.24</ele>
        <time>2018-09-03T13:00:48Z</time>
      </trkpt>
      <trkpt lat="41.84466" lon="9.20049">
        <ele>1983.09</ele>
        <time>2018-09-03T13:01:03Z</time>
      </trkpt>
      <trkpt lat="41.84465" lon="9.20058">
        <ele>1986</ele>
        <time>2018-09-03T13:01:18Z</time>
      </trkpt>
      <trkpt lat="41.84465" lon="9.20066">
        <ele>1987.82</ele>
        <time>2018-09-03T13:01:34Z</time>
      </trkpt>
      <trkpt lat="41.84466" lon="9.20075">
        <ele>1989.77</ele>
        <time>2018-09-03T13:01:47Z</time>
      </trkpt>
      <trkpt lat="41.84469" lon="9.20087">
        <ele>1991.95</ele>
        <time>2018-09-03T13:02:05Z</time>
      </trkpt>
      <trkpt lat="41.84469" lon="9.20091">
        <ele>1993.33</ele>
        <time>2018-09-03T13:02:11Z</time>
      </trkpt>
      <trkpt lat="41.84471" lon="9.20102">
        <ele>1995.21</ele>
        <time>2018-09-03T13:02:29Z</time>
      </trkpt>
      <trkpt lat="41.8447" lon="9.20109">
        <ele>1998.57</ele>
        <time>2018-09-03T13:02:43Z</time>
      </trkpt>
      <trkpt lat="41.84472" lon="9.20122">
        <ele>2000.3</ele>
        <time>2018-09-03T13:03:00Z</time>
      </trkpt>
      <trkpt lat="41.84479" lon="9.20137">
        <ele>2002.04</ele>
        <time>2018-09-03T13:03:17Z</time>
      </trkpt>
      <trkpt lat="41.84483" lon="9.20146">
        <ele>2002.07</ele>
        <time>2018-09-03T13:03:31Z</time>
      </trkpt>
      <trkpt lat="41.84488" lon="9.20157">
        <ele>2003.18</ele>
        <time>2018-09-03T13:03:45Z</time>
      </trkpt>
      <trkpt lat="41.84492" lon="9.20171">
        <ele>2004.87</ele>
        <time>2018-09-03T13:03:59Z</time>
      </trkpt>
      <trkpt lat="41.845" lon="9.20182">
        <ele>2005.72</ele>
        <time>2018-09-03T13:04:14Z</time>
      </trkpt>
      <trkpt lat="41.84501" lon="9.20195">
        <ele>2006.59</ele>
        <time>2018-09-03T13:04:28Z</time>
      </trkpt>
      <trkpt lat="41.84502" lon="9.20204">
        <ele>2009.26</ele>
        <time>2018-09-03T13:04:37Z</time>
      </trkpt>
      <trkpt lat="41.84506" lon="9.20218">
        <ele>2009.31</ele>
        <time>2018-09-03T13:04:52Z</time>
      </trkpt>
      <trkpt lat="41.84507" lon="9.20222">
        <ele>2010.98</ele>
        <time>2018-09-03T13:04:56Z</time>
      </trkpt>
      <trkpt lat="41.84514" lon="9.20237">
        <ele>2011</ele>
        <time>2018-09-03T13:05:12Z</time>
      </trkpt>
      <trkpt lat="41.84522" lon="9.20248">
        <ele>2011.02</ele>
        <time>2018-09-03T13:05:26Z</time>
      </trkpt>
      <trkpt lat="41.84527" lon="9.20254">
        <ele>2008.49</ele>
        <time>2018-09-03T13:05:36Z</time>
      </trkpt>
      <trkpt lat="41.84535" lon="9.20262">
        <ele>2006.73</ele>
        <time>2018-09-03T13:05:51Z</time>
      </trkpt>
      <trkpt lat="41.84543" lon="9.20271">
        <ele>2006.81</ele>
        <time>2018-09-03T13:06:04Z</time>
      </trkpt>
      <trkpt lat="41.84552" lon="9.20283">
        <ele>2006.86</ele>
        <time>2018-09-03T13:06:21Z</time>
      </trkpt>
      <trkpt lat="41.84557" lon="9.20288">
        <ele>2009.4</ele>
        <time>2018-09-03T13:06:29Z</time>
      </trkpt>
      <trkpt lat="41.84571" lon="9.20296">
        <ele>2009.41</ele>
        <time>2018-09-03T13:06:45Z</time>
      </trkpt>
      <trkpt lat="41.84582" lon="9.20305">
        <ele>2011.55</ele>
        <time>2018-09-03T13:07:02Z</time>
      </trkpt>
      <trkpt lat="41.84593" lon="9.20318">
        <ele>2011.57</ele>
        <time>2018-09-03T13:07:20Z</time>
      </trkpt>
      <trkpt lat="41.84602" lon="9.20328">
        <ele>2013.48</ele>
        <time>2018-09-03T13:07:36Z</time>
      </trkpt>
      <trkpt lat="41.84609" lon="9.20339">
        <ele>2016.11</ele>
        <time>2018-09-03T13:07:53Z</time>
      </trkpt>
      <trkpt lat="41.84616" lon="9.20347">
        <ele>2017.77</ele>
        <time>2018-09-03T13:08:08Z</time>
      </trkpt>
      <trkpt lat="41.84619" lon="9.20354">
        <ele>2018.95</ele>
        <time>2018-09-03T13:08:21Z</time>
      </trkpt>
      <trkpt lat="41.84623" lon="9.20362">
        <ele>2020.98</ele>
        <time>2018-09-03T13:08:34Z</time>
      </trkpt>
      <trkpt lat="41.84629" lon="9.20373">
        <ele>2023.54</ele>
        <time>2018-09-03T13:08:51Z</time>
      </trkpt>
      <trkpt lat="41.84637" lon="9.20375">
        <ele>2025.36</ele>
        <time>2018-09-03T13:09:05Z</time>
      </trkpt>
      <trkpt lat="41.84649" lon="9.20378">
        <ele>2025.41</ele>
        <time>2018-09-03T13:09:22Z</time>
      </trkpt>
      <trkpt lat="41.84659" lon="9.20377">
        <ele>2027.2</ele>
        <time>2018-09-03T13:09:37Z</time>
      </trkpt>
      <trkpt lat="41.84667" lon="9.20381">
        <ele>2027.22</ele>
        <time>2018-09-03T13:09:53Z</time>
      </trkpt>
      <trkpt lat="41.84678" lon="9.20383">
        <ele>2027.26</ele>
        <time>2018-09-03T13:10:09Z</time>
      </trkpt>
      <trkpt lat="41.84683" lon="9.20386">
        <ele>2027.33</ele>
        <time>2018-09-03T13:10:23Z</time>
      </trkpt>
      <trkpt lat="41.84692" lon="9.20385">
        <ele>2027.34</ele>
        <time>2018-09-03T13:10:36Z</time>
      </trkpt>
      <trkpt lat="41.84698" lon="9.20386">
        <ele>2027.39</ele>
        <time>2018-09-03T13:10:53Z</time>
      </trkpt>
      <trkpt lat="41.84707" lon="9.20387">
        <ele>2027.46</ele>
        <time>2018-09-03T13:11:07Z</time>
      </trkpt>
      <trkpt lat="41.8471" lon="9.20392">
        <ele>2028.3</ele>
        <time>2018-09-03T13:11:18Z</time>
      </trkpt>
      <trkpt lat="41.84714" lon="9.20394">
        <ele>2029.47</ele>
        <time>2018-09-03T13:11:29Z</time>
      </trkpt>
      <trkpt lat="41.84719" lon="9.20399">
        <ele>2031.33</ele>
        <time>2018-09-03T13:11:44Z</time>
      </trkpt>
      <trkpt lat="41.84723" lon="9.20401">
        <ele>2032.32</ele>
        <time>2018-09-03T13:11:57Z</time>
      </trkpt>
      <trkpt lat="41.84729" lon="9.20404">
        <ele>2034.2</ele>
        <time>2018-09-03T13:12:12Z</time>
      </trkpt>
      <trkpt lat="41.84731" lon="9.20405">
        <ele>2035.29</ele>
        <time>2018-09-03T13:12:27Z</time>
      </trkpt>
      <trkpt lat="41.84731" lon="9.20407">
        <ele>2036.14</ele>
        <time>2018-09-03T13:12:42Z</time>
      </trkpt>
      <trkpt lat="41.84726" lon="9.20413">
        <ele>2038.31</ele>
        <time>2018-09-03T13:12:55Z</time>
      </trkpt>
      <trkpt lat="41.84726" lon="9.20413">
        <ele>2038.32</ele>
        <time>2018-09-03T13:12:56Z</time>
      </trkpt>
      <trkpt lat="41.84723" lon="9.20418">
        <ele>2039.14</ele>
        <time>2018-09-03T13:13:10Z</time>
      </trkpt>
      <trkpt lat="41.84727" lon="9.20421">
        <ele>2040.92</ele>
        <time>2018-09-03T13:13:23Z</time>
      </trkpt>
      <trkpt lat="41.84728" lon="9.20423">
        <ele>2042.23</ele>
        <time>2018-09-03T13:13:28Z</time>
      </trkpt>
      <trkpt lat="41.84729" lon="9.20427">
        <ele>2043.14</ele>
        <time>2018-09-03T13:13:41Z</time>
      </trkpt>
      <trkpt lat="41.84729" lon="9.20428">
        <ele>2044.43</ele>
        <time>2018-09-03T13:13:44Z</time>
      </trkpt>
      <trkpt lat="41.84727" lon="9.20433">
        <ele>2046.34</ele>
        <time>2018-09-03T13:13:56Z</time>
      </trkpt>
      <trkpt lat="41.8473" lon="9.20437">
        <ele>2047.59</ele>
        <time>2018-09-03T13:14:07Z</time>
      </trkpt>
      <trkpt lat="41.84732" lon="9.2044">
        <ele>2048.77</ele>
        <time>2018-09-03T13:14:20Z</time>
      </trkpt>
      <trkpt lat="41.84733" lon="9.20441">
        <ele>2049.73</ele>
        <time>2018-09-03T13:14:36Z</time>
      </trkpt>
      <trkpt lat="41.84734" lon="9.20441">
        <ele>2051.03</ele>
        <time>2018-09-03T13:14:50Z</time>
      </trkpt>
      <trkpt lat="41.84739" lon="9.20447">
        <ele>2053.05</ele>
        <time>2018-09-03T13:15:04Z</time>
      </trkpt>
      <trkpt lat="41.84742" lon="9.2045">
        <ele>2054.9</ele>
        <time>2018-09-03T13:15:15Z</time>
      </trkpt>
      <trkpt lat="41.84745" lon="9.20453">
        <ele>2054.94</ele>
        <time>2018-09-03T13:15:29Z</time>
      </trkpt>
      <trkpt lat="41.84748" lon="9.20456">
        <ele>2055.86</ele>
        <time>2018-09-03T13:15:40Z</time>
      </trkpt>
      <trkpt lat="41.84752" lon="9.20455">
        <ele>2057.78</ele>
        <time>2018-09-03T13:15:54Z</time>
      </trkpt>
      <trkpt lat="41.84759" lon="9.20459">
        <ele>2058.65</ele>
        <time>2018-09-03T13:16:08Z</time>
      </trkpt>
      <trkpt lat="41.84768" lon="9.20466">
        <ele>2059.56</ele>
        <time>2018-09-03T13:16:23Z</time>
      </trkpt>
      <trkpt lat="41.84773" lon="9.20473">
        <ele>2060.42</ele>
        <time>2018-09-03T13:16:37Z</time>
      </trkpt>
      <trkpt lat="41.8478" lon="9.20479">
        <ele>2063.27</ele>
        <time>2018-09-03T13:16:51Z</time>
      </trkpt>
      <trkpt lat="41.84783" lon="9.20483">
        <ele>2063.43</ele>
        <time>2018-09-03T13:16:59Z</time>
      </trkpt>
      <trkpt lat="41.84795" lon="9.2049">
        <ele>2064.35</ele>
        <time>2018-09-03T13:17:16Z</time>
      </trkpt>
      <trkpt lat="41.84801" lon="9.20498">
        <ele>2067.08</ele>
        <time>2018-09-03T13:17:33Z</time>
      </trkpt>
      <trkpt lat="41.84802" lon="9.20503">
        <ele>2068.14</ele>
        <time>2018-09-03T13:17:50Z</time>
      </trkpt>
      <trkpt lat="41.84805" lon="9.20507">
        <ele>2069.46</ele>
        <time>2018-09-03T13:17:58Z</time>
      </trkpt>
      <trkpt lat="41.84808" lon="9.20512">
        <ele>2070.39</ele>
        <time>2018-09-03T13:18:13Z</time>
      </trkpt>
      <trkpt lat="41.84807" lon="9.20518">
        <ele>2071.61</ele>
        <time>2018-09-03T13:18:30Z</time>
      </trkpt>
      <trkpt lat="41.84812" lon="9.20522">
        <ele>2072.78</ele>
        <time>2018-09-03T13:18:43Z</time>
      </trkpt>
      <trkpt lat="41.84817" lon="9.20525">
        <ele>2074.85</ele>
        <time>2018-09-03T13:18:54Z</time>
      </trkpt>
      <trkpt lat="41.84822" lon="9.20533">
        <ele>2075.88</ele>
        <time>2018-09-03T13:19:08Z</time>
      </trkpt>
      <trkpt lat="41.84824" lon="9.20539">
        <ele>2077.75</ele>
        <time>2018-09-03T13:19:21Z</time>
      </trkpt>
      <trkpt lat="41.84832" lon="9.20543">
        <ele>2078.8</ele>
        <time>2018-09-03T13:19:35Z</time>
      </trkpt>
      <trkpt lat="41.8484" lon="9.20549">
        <ele>2078.93</ele>
        <time>2018-09-03T13:19:48Z</time>
      </trkpt>
      <trkpt lat="41.84844" lon="9.2056">
        <ele>2079.85</ele>
        <time>2018-09-03T13:20:02Z</time>
      </trkpt>
      <trkpt lat="41.84849" lon="9.20572">
        <ele>2081.69</ele>
        <time>2018-09-03T13:20:17Z</time>
      </trkpt>
      <trkpt lat="41.84857" lon="9.20575">
        <ele>2083.29</ele>
        <time>2018-09-03T13:20:31Z</time>
      </trkpt>
      <trkpt lat="41.84861" lon="9.20576">
        <ele>2085.16</ele>
        <time>2018-09-03T13:20:45Z</time>
      </trkpt>
      <trkpt lat="41.84864" lon="9.20579">
        <ele>2086.15</ele>
        <time>2018-09-03T13:20:59Z</time>
      </trkpt>
      <trkpt lat="41.84865" lon="9.20581">
        <ele>2086.24</ele>
        <time>2018-09-03T13:21:33Z</time>
      </trkpt>
      <trkpt lat="41.84869" lon="9.20583">
        <ele>2083.86</ele>
        <time>2018-09-03T13:21:46Z</time>
      </trkpt>
      <trkpt lat="41.84872" lon="9.20585">
        <ele>2083.92</ele>
        <time>2018-09-03T13:22:01Z</time>
      </trkpt>
      <trkpt lat="41.84878" lon="9.20596">
        <ele>2083.97</ele>
        <time>2018-09-03T13:22:17Z</time>
      </trkpt>
      <trkpt lat="41.84883" lon="9.20604">
        <ele>2086.28</ele>
        <time>2018-09-03T13:22:30Z</time>
      </trkpt>
      <trkpt lat="41.84886" lon="9.20605">
        <ele>2087.21</ele>
        <time>2018-09-03T13:22:45Z</time>
      </trkpt>
      <trkpt lat="41.84887" lon="9.20609">
        <ele>2088.06</ele>
        <time>2018-09-03T13:23:19Z</time>
      </trkpt>
      <trkpt lat="41.84886" lon="9.20611">
        <ele>2090</ele>
        <time>2018-09-03T13:23:25Z</time>
      </trkpt>
      <trkpt lat="41.84888" lon="9.20616">
        <ele>2091.15</ele>
        <time>2018-09-03T13:23:37Z</time>
      </trkpt>
      <trkpt lat="41.84893" lon="9.20616">
        <ele>2093.3</ele>
        <time>2018-09-03T13:23:49Z</time>
      </trkpt>
      <trkpt lat="41.84895" lon="9.2062">
        <ele>2094.17</ele>
        <time>2018-09-03T13:23:59Z</time>
      </trkpt>
      <trkpt lat="41.84894" lon="9.2062">
        <ele>2095.72</ele>
        <time>2018-09-03T13:24:04Z</time>
      </trkpt>
      <trkpt lat="41.84894" lon="9.20621">
        <ele>2095.73</ele>
        <time>2018-09-03T13:24:15Z</time>
      </trkpt>
      <trkpt lat="41.84895" lon="9.20625">
        <ele>2095.75</ele>
        <time>2018-09-03T13:24:31Z</time>
      </trkpt>
      <trkpt lat="41.84895" lon="9.20627">
        <ele>2096.7</ele>
        <time>2018-09-03T13:24:53Z</time>
      </trkpt>
      <trkpt lat="41.84895" lon="9.20628">
        <ele>2096.71</ele>
        <time>2018-09-03T13:25:18Z</time>
      </trkpt>
      <trkpt lat="41.84897" lon="9.20632">
        <ele>2097.62</ele>
        <time>2018-09-03T13:25:32Z</time>
      </trkpt>
      <trkpt lat="41.84897" lon="9.20637">
        <ele>2099.48</ele>
        <time>2018-09-03T13:25:47Z</time>
      </trkpt>
      <trkpt lat="41.84899" lon="9.20632">
        <ele>2099.52</ele>
        <time>2018-09-03T13:25:58Z</time>
      </trkpt>
      <trkpt lat="41.84906" lon="9.2063">
        <ele>2099.5</ele>
        <time>2018-09-03T13:26:11Z</time>
      </trkpt>
      <trkpt lat="41.84906" lon="9.20636">
        <ele>2100.45</ele>
        <time>2018-09-03T13:26:24Z</time>
      </trkpt>
      <trkpt lat="41.84909" lon="9.2064">
        <ele>2102.92</ele>
        <time>2018-09-03T13:26:39Z</time>
      </trkpt>
      <trkpt lat="41.84912" lon="9.2064">
        <ele>2104.86</ele>
        <time>2018-09-03T13:26:52Z</time>
      </trkpt>
      <trkpt lat="41.84916" lon="9.20643">
        <ele>2106.82</ele>
        <time>2018-09-03T13:27:05Z</time>
      </trkpt>
      <trkpt lat="41.84916" lon="9.20647">
        <ele>2109.48</ele>
        <time>2018-09-03T13:27:18Z</time>
      </trkpt>
      <trkpt lat="41.8492" lon="9.20649">
        <ele>2110.27</ele>
        <time>2018-09-03T13:27:30Z</time>
      </trkpt>
      <trkpt lat="41.84926" lon="9.20652">
        <ele>2110.25</ele>
        <time>2018-09-03T13:27:43Z</time>
      </trkpt>
      <trkpt lat="41.84928" lon="9.20657">
        <ele>2110.18</ele>
        <time>2018-09-03T13:28:01Z</time>
      </trkpt>
      <trkpt lat="41.84932" lon="9.20663">
        <ele>2111.1</ele>
        <time>2018-09-03T13:28:13Z</time>
      </trkpt>
      <trkpt lat="41.84935" lon="9.20666">
        <ele>2112.4</ele>
        <time>2018-09-03T13:28:19Z</time>
      </trkpt>
      <trkpt lat="41.84942" lon="9.20671">
        <ele>2113.15</ele>
        <time>2018-09-03T13:28:33Z</time>
      </trkpt>
      <trkpt lat="41.84937" lon="9.20677">
        <ele>2114.88</ele>
        <time>2018-09-03T13:28:49Z</time>
      </trkpt>
      <trkpt lat="41.84936" lon="9.20681">
        <ele>2117.27</ele>
        <time>2018-09-03T13:29:02Z</time>
      </trkpt>
      <trkpt lat="41.84939" lon="9.20685">
        <ele>2118.15</ele>
        <time>2018-09-03T13:29:18Z</time>
      </trkpt>
      <trkpt lat="41.84942" lon="9.20685">
        <ele>2119.49</ele>
        <time>2018-09-03T13:29:27Z</time>
      </trkpt>
      <trkpt lat="41.84944" lon="9.20695">
        <ele>2120.54</ele>
        <time>2018-09-03T13:29:40Z</time>
      </trkpt>
      <trkpt lat="41.84948" lon="9.20704">
        <ele>2122.13</ele>
        <time>2018-09-03T13:29:54Z</time>
      </trkpt>
      <trkpt lat="41.84957" lon="9.20711">
        <ele>2123.06</ele>
        <time>2018-09-03T13:30:10Z</time>
      </trkpt>
      <trkpt lat="41.84964" lon="9.20721">
        <ele>2123.95</ele>
        <time>2018-09-03T13:30:26Z</time>
      </trkpt>
      <trkpt lat="41.84962" lon="9.20727">
        <ele>2126</ele>
        <time>2018-09-03T13:30:41Z</time>
      </trkpt>
      <trkpt lat="41.84962" lon="9.20727">
        <ele>2126.04</ele>
        <time>2018-09-03T13:31:15Z</time>
      </trkpt>
      <trkpt lat="41.84961" lon="9.20734">
        <ele>2126.94</ele>
        <time>2018-09-03T13:31:38Z</time>
      </trkpt>
      <trkpt lat="41.84959" lon="9.2074">
        <ele>2128.9</ele>
        <time>2018-09-03T13:31:50Z</time>
      </trkpt>
      <trkpt lat="41.84954" lon="9.2074">
        <ele>2131.76</ele>
        <time>2018-09-03T13:32:06Z</time>
      </trkpt>
      <trkpt lat="41.84951" lon="9.20737">
        <ele>2132.83</ele>
        <time>2018-09-03T13:32:20Z</time>
      </trkpt>
      <trkpt lat="41.8495" lon="9.20738">
        <ele>2132.85</ele>
        <time>2018-09-03T13:32:37Z</time>
      </trkpt>
      <trkpt lat="41.84951" lon="9.20737">
        <ele>2132.86</ele>
        <time>2018-09-03T13:33:07Z</time>
      </trkpt>
      <trkpt lat="41.84949" lon="9.20735">
        <ele>2132.89</ele>
        <time>2018-09-03T13:33:25Z</time>
      </trkpt>
      <trkpt lat="41.8495" lon="9.20735">
        <ele>2132.94</ele>
        <time>2018-09-03T13:33:57Z</time>
      </trkpt>
      <trkpt lat="41.84951" lon="9.20737">
        <ele>2132.93</ele>
        <time>2018-09-03T13:34:13Z</time>
      </trkpt>
      <trkpt lat="41.8495" lon="9.20737">
        <ele>2132.94</ele>
        <time>2018-09-03T13:34:38Z</time>
      </trkpt>
      <trkpt lat="41.8495" lon="9.20739">
        <ele>2132.94</ele>
        <time>2018-09-03T13:34:54Z</time>
      </trkpt>
      <trkpt lat="41.8495" lon="9.20739">
        <ele>2132.94</ele>
        <time>2018-09-03T13:35:16Z</time>
      </trkpt>
      <trkpt lat="41.8495" lon="9.20736">
        <ele>2132.94</ele>
        <time>2018-09-03T13:35:37Z</time>
      </trkpt>
      <trkpt lat="41.8495" lon="9.20737">
        <ele>2132.96</ele>
        <time>2018-09-03T13:35:55Z</time>
      </trkpt>
      <trkpt lat="41.84953" lon="9.20743">
        <ele>2130.23</ele>
        <time>2018-09-03T13:36:15Z</time>
      </trkpt>
      <trkpt lat="41.84953" lon="9.20743">
        <ele>2130.23</ele>
        <time>2018-09-03T13:36:16Z</time>
      </trkpt>
      <trkpt lat="41.84959" lon="9.20735">
        <ele>2128.33</ele>
        <time>2018-09-03T13:36:32Z</time>
      </trkpt>
      <trkpt lat="41.84951" lon="9.20725">
        <ele>2126.66</ele>
        <time>2018-09-03T13:36:45Z</time>
      </trkpt>
      <trkpt lat="41.84952" lon="9.20717">
        <ele>2124.71</ele>
        <time>2018-09-03T13:36:57Z</time>
      </trkpt>
      <trkpt lat="41.84955" lon="9.2071">
        <ele>2123.65</ele>
        <time>2018-09-03T13:37:11Z</time>
      </trkpt>
      <trkpt lat="41.84946" lon="9.20704">
        <ele>2121.93</ele>
        <time>2018-09-03T13:37:25Z</time>
      </trkpt>
      <trkpt lat="41.84943" lon="9.20696">
        <ele>2121.05</ele>
        <time>2018-09-03T13:37:41Z</time>
      </trkpt>
      <trkpt lat="41.84939" lon="9.20688">
        <ele>2119.97</ele>
        <time>2018-09-03T13:37:56Z</time>
      </trkpt>
      <trkpt lat="41.84939" lon="9.20686">
        <ele>2118.29</ele>
        <time>2018-09-03T13:38:06Z</time>
      </trkpt>
      <trkpt lat="41.84934" lon="9.20681">
        <ele>2117.43</ele>
        <time>2018-09-03T13:38:20Z</time>
      </trkpt>
      <trkpt lat="41.84938" lon="9.20677">
        <ele>2115.56</ele>
        <time>2018-09-03T13:38:34Z</time>
      </trkpt>
      <trkpt lat="41.8494" lon="9.2067">
        <ele>2113.75</ele>
        <time>2018-09-03T13:38:50Z</time>
      </trkpt>
      <trkpt lat="41.84935" lon="9.20668">
        <ele>2112.86</ele>
        <time>2018-09-03T13:38:56Z</time>
      </trkpt>
      <trkpt lat="41.84929" lon="9.20661">
        <ele>2111.76</ele>
        <time>2018-09-03T13:39:11Z</time>
      </trkpt>
      <trkpt lat="41.84926" lon="9.20654">
        <ele>2110.79</ele>
        <time>2018-09-03T13:39:18Z</time>
      </trkpt>
      <trkpt lat="41.84918" lon="9.20646">
        <ele>2109.83</ele>
        <time>2018-09-03T13:39:35Z</time>
      </trkpt>
      <trkpt lat="41.84914" lon="9.20645">
        <ele>2108.29</ele>
        <time>2018-09-03T13:39:49Z</time>
      </trkpt>
      <trkpt lat="41.84912" lon="9.20642">
        <ele>2107.18</ele>
        <time>2018-09-03T13:40:01Z</time>
      </trkpt>
      <trkpt lat="41.8491" lon="9.20639">
        <ele>2105.08</ele>
        <time>2018-09-03T13:40:10Z</time>
      </trkpt>
      <trkpt lat="41.84907" lon="9.20638">
        <ele>2103.38</ele>
        <time>2018-09-03T13:40:24Z</time>
      </trkpt>
      <trkpt lat="41.84907" lon="9.20635">
        <ele>2102.42</ele>
        <time>2018-09-03T13:40:36Z</time>
      </trkpt>
      <trkpt lat="41.84902" lon="9.2063">
        <ele>2099.78</ele>
        <time>2018-09-03T13:40:51Z</time>
      </trkpt>
      <trkpt lat="41.84895" lon="9.20629">
        <ele>2098.66</ele>
        <time>2018-09-03T13:41:03Z</time>
      </trkpt>
      <trkpt lat="41.84893" lon="9.20625">
        <ele>2096.95</ele>
        <time>2018-09-03T13:41:17Z</time>
      </trkpt>
      <trkpt lat="41.84891" lon="9.20622">
        <ele>2095.15</ele>
        <time>2018-09-03T13:41:28Z</time>
      </trkpt>
      <trkpt lat="41.8489" lon="9.2062">
        <ele>2093.85</ele>
        <time>2018-09-03T13:41:36Z</time>
      </trkpt>
      <trkpt lat="41.84886" lon="9.20618">
        <ele>2092.68</ele>
        <time>2018-09-03T13:41:49Z</time>
      </trkpt>
      <trkpt lat="41.84881" lon="9.2062">
        <ele>2089.79</ele>
        <time>2018-09-03T13:42:04Z</time>
      </trkpt>
      <trkpt lat="41.84878" lon="9.20618">
        <ele>2088.16</ele>
        <time>2018-09-03T13:42:16Z</time>
      </trkpt>
      <trkpt lat="41.8488" lon="9.20606">
        <ele>2086.05</ele>
        <time>2018-09-03T13:42:33Z</time>
      </trkpt>
      <trkpt lat="41.84879" lon="9.20603">
        <ele>2086.06</ele>
        <time>2018-09-03T13:42:37Z</time>
      </trkpt>
      <trkpt lat="41.84879" lon="9.20598">
        <ele>2086.07</ele>
        <time>2018-09-03T13:42:41Z</time>
      </trkpt>
      <trkpt lat="41.84877" lon="9.20594">
        <ele>2084.71</ele>
        <time>2018-09-03T13:42:44Z</time>
      </trkpt>
      <trkpt lat="41.84876" lon="9.20593">
        <ele>2084.7</ele>
        <time>2018-09-03T13:42:45Z</time>
      </trkpt>
      <trkpt lat="41.84873" lon="9.20585">
        <ele>2084.71</ele>
        <time>2018-09-03T13:42:53Z</time>
      </trkpt>
      <trkpt lat="41.84866" lon="9.20578">
        <ele>2084.72</ele>
        <time>2018-09-03T13:43:06Z</time>
      </trkpt>
      <trkpt lat="41.84862" lon="9.20576">
        <ele>2084.73</ele>
        <time>2018-09-03T13:43:17Z</time>
      </trkpt>
      <trkpt lat="41.8486" lon="9.20575">
        <ele>2084.73</ele>
        <time>2018-09-03T13:43:29Z</time>
      </trkpt>
      <trkpt lat="41.84856" lon="9.20575">
        <ele>2083.91</ele>
        <time>2018-09-03T13:43:41Z</time>
      </trkpt>
      <trkpt lat="41.8485" lon="9.20572">
        <ele>2083.12</ele>
        <time>2018-09-03T13:43:50Z</time>
      </trkpt>
      <trkpt lat="41.84844" lon="9.2056">
        <ele>2081.23</ele>
        <time>2018-09-03T13:44:06Z</time>
      </trkpt>
      <trkpt lat="41.84843" lon="9.20557">
        <ele>2080.44</ele>
        <time>2018-09-03T13:44:10Z</time>
      </trkpt>
      <trkpt lat="41.84843" lon="9.20555">
        <ele>2080.45</ele>
        <time>2018-09-03T13:44:12Z</time>
      </trkpt>
      <trkpt lat="41.84842" lon="9.20553">
        <ele>2080.48</ele>
        <time>2018-09-03T13:44:14Z</time>
      </trkpt>
      <trkpt lat="41.84832" lon="9.20545">
        <ele>2079.54</ele>
        <time>2018-09-03T13:44:28Z</time>
      </trkpt>
      <trkpt lat="41.8483" lon="9.20542">
        <ele>2079.54</ele>
        <time>2018-09-03T13:44:31Z</time>
      </trkpt>
      <trkpt lat="41.84824" lon="9.20537">
        <ele>2078.7</ele>
        <time>2018-09-03T13:44:45Z</time>
      </trkpt>
      <trkpt lat="41.8482" lon="9.20528">
        <ele>2076.98</ele>
        <time>2018-09-03T13:45:00Z</time>
      </trkpt>
      <trkpt lat="41.84809" lon="9.20523">
        <ele>2074.4</ele>
        <time>2018-09-03T13:45:17Z</time>
      </trkpt>
      <trkpt lat="41.84804" lon="9.20514">
        <ele>2073.5</ele>
        <time>2018-09-03T13:45:30Z</time>
      </trkpt>
      <trkpt lat="41.84795" lon="9.20508">
        <ele>2071.05</ele>
        <time>2018-09-03T13:45:44Z</time>
      </trkpt>
      <trkpt lat="41.84789" lon="9.20501">
        <ele>2070.08</ele>
        <time>2018-09-03T13:45:57Z</time>
      </trkpt>
      <trkpt lat="41.8478" lon="9.20496">
        <ele>2068.33</ele>
        <time>2018-09-03T13:46:12Z</time>
      </trkpt>
      <trkpt lat="41.84771" lon="9.20485">
        <ele>2066.72</ele>
        <time>2018-09-03T13:46:29Z</time>
      </trkpt>
      <trkpt lat="41.84767" lon="9.20473">
        <ele>2064.83</ele>
        <time>2018-09-03T13:46:42Z</time>
      </trkpt>
      <trkpt lat="41.84762" lon="9.20466">
        <ele>2063.09</ele>
        <time>2018-09-03T13:46:58Z</time>
      </trkpt>
      <trkpt lat="41.84759" lon="9.20461">
        <ele>2062.19</ele>
        <time>2018-09-03T13:47:12Z</time>
      </trkpt>
      <trkpt lat="41.84753" lon="9.20457">
        <ele>2061.34</ele>
        <time>2018-09-03T13:47:24Z</time>
      </trkpt>
      <trkpt lat="41.84749" lon="9.20455">
        <ele>2060.5</ele>
        <time>2018-09-03T13:47:36Z</time>
      </trkpt>
      <trkpt lat="41.84746" lon="9.20455">
        <ele>2060.49</ele>
        <time>2018-09-03T13:47:49Z</time>
      </trkpt>
      <trkpt lat="41.84746" lon="9.20454">
        <ele>2059.23</ele>
        <time>2018-09-03T13:47:51Z</time>
      </trkpt>
      <trkpt lat="41.84742" lon="9.2045">
        <ele>2058.2</ele>
        <time>2018-09-03T13:48:03Z</time>
      </trkpt>
      <trkpt lat="41.84738" lon="9.20449">
        <ele>2057.16</ele>
        <time>2018-09-03T13:48:16Z</time>
      </trkpt>
      <trkpt lat="41.84735" lon="9.20446">
        <ele>2055.51</ele>
        <time>2018-09-03T13:48:31Z</time>
      </trkpt>
      <trkpt lat="41.84732" lon="9.20443">
        <ele>2053.59</ele>
        <time>2018-09-03T13:48:44Z</time>
      </trkpt>
      <trkpt lat="41.84731" lon="9.20441">
        <ele>2051.93</ele>
        <time>2018-09-03T13:48:58Z</time>
      </trkpt>
      <trkpt lat="41.8473" lon="9.20436">
        <ele>2050.23</ele>
        <time>2018-09-03T13:49:12Z</time>
      </trkpt>
      <trkpt lat="41.84729" lon="9.20431">
        <ele>2046.87</ele>
        <time>2018-09-03T13:49:24Z</time>
      </trkpt>
      <trkpt lat="41.84729" lon="9.2043">
        <ele>2046.86</ele>
        <time>2018-09-03T13:49:25Z</time>
      </trkpt>
      <trkpt lat="41.84728" lon="9.20426">
        <ele>2045.82</ele>
        <time>2018-09-03T13:49:38Z</time>
      </trkpt>
      <trkpt lat="41.84724" lon="9.20419">
        <ele>2043.84</ele>
        <time>2018-09-03T13:49:51Z</time>
      </trkpt>
      <trkpt lat="41.84722" lon="9.20415">
        <ele>2042.82</ele>
        <time>2018-09-03T13:50:03Z</time>
      </trkpt>
      <trkpt lat="41.84729" lon="9.20412">
        <ele>2041.03</ele>
        <time>2018-09-03T13:50:18Z</time>
      </trkpt>
      <trkpt lat="41.84729" lon="9.20405">
        <ele>2038.52</ele>
        <time>2018-09-03T13:50:33Z</time>
      </trkpt>
      <trkpt lat="41.84723" lon="9.20402">
        <ele>2036.88</ele>
        <time>2018-09-03T13:50:46Z</time>
      </trkpt>
      <trkpt lat="41.84719" lon="9.204">
        <ele>2035.09</ele>
        <time>2018-09-03T13:50:58Z</time>
      </trkpt>
      <trkpt lat="41.84712" lon="9.20395">
        <ele>2033.38</ele>
        <time>2018-09-03T13:51:13Z</time>
      </trkpt>
      <trkpt lat="41.84706" lon="9.2039">
        <ele>2032.5</ele>
        <time>2018-09-03T13:51:26Z</time>
      </trkpt>
      <trkpt lat="41.84703" lon="9.20388">
        <ele>2031.01</ele>
        <time>2018-09-03T13:51:32Z</time>
      </trkpt>
      <trkpt lat="41.84699" lon="9.20387">
        <ele>2031</ele>
        <time>2018-09-03T13:51:38Z</time>
      </trkpt>
      <trkpt lat="41.84687" lon="9.20386">
        <ele>2030.04</ele>
        <time>2018-09-03T13:51:52Z</time>
      </trkpt>
      <trkpt lat="41.84682" lon="9.20383">
        <ele>2028.86</ele>
        <time>2018-09-03T13:52:05Z</time>
      </trkpt>
      <trkpt lat="41.84669" lon="9.20375">
        <ele>2028.84</ele>
        <time>2018-09-03T13:52:22Z</time>
      </trkpt>
      <trkpt lat="41.84659" lon="9.20374">
        <ele>2028.82</ele>
        <time>2018-09-03T13:52:37Z</time>
      </trkpt>
      <trkpt lat="41.84649" lon="9.20378">
        <ele>2028.81</ele>
        <time>2018-09-03T13:52:53Z</time>
      </trkpt>
      <trkpt lat="41.84644" lon="9.20378">
        <ele>2028.8</ele>
        <time>2018-09-03T13:53:00Z</time>
      </trkpt>
      <trkpt lat="41.84634" lon="9.20377">
        <ele>2028.79</ele>
        <time>2018-09-03T13:53:14Z</time>
      </trkpt>
      <trkpt lat="41.84624" lon="9.20375">
        <ele>2027.93</ele>
        <time>2018-09-03T13:53:27Z</time>
      </trkpt>
      <trkpt lat="41.84611" lon="9.20372">
        <ele>2027.92</ele>
        <time>2018-09-03T13:53:43Z</time>
      </trkpt>
      <trkpt lat="41.84604" lon="9.20366">
        <ele>2027.88</ele>
        <time>2018-09-03T13:53:59Z</time>
      </trkpt>
      <trkpt lat="41.84604" lon="9.20366">
        <ele>2027.86</ele>
        <time>2018-09-03T13:54:18Z</time>
      </trkpt>
      <trkpt lat="41.846" lon="9.20374">
        <ele>2026.08</ele>
        <time>2018-09-03T13:54:33Z</time>
      </trkpt>
      <trkpt lat="41.846" lon="9.20373">
        <ele>2026.03</ele>
        <time>2018-09-03T13:54:34Z</time>
      </trkpt>
      <trkpt lat="41.84594" lon="9.20376">
        <ele>2023.78</ele>
        <time>2018-09-03T13:54:47Z</time>
      </trkpt>
      <trkpt lat="41.84594" lon="9.2038">
        <ele>2023.17</ele>
        <time>2018-09-03T13:54:55Z</time>
      </trkpt>
      <trkpt lat="41.846" lon="9.20386">
        <ele>2021.44</ele>
        <time>2018-09-03T13:55:10Z</time>
      </trkpt>
      <trkpt lat="41.84604" lon="9.20392">
        <ele>2020.4</ele>
        <time>2018-09-03T13:55:23Z</time>
      </trkpt>
      <trkpt lat="41.84609" lon="9.20398">
        <ele>2019.51</ele>
        <time>2018-09-03T13:55:35Z</time>
      </trkpt>
      <trkpt lat="41.84617" lon="9.20407">
        <ele>2021.83</ele>
        <time>2018-09-03T13:55:50Z</time>
      </trkpt>
      <trkpt lat="41.84622" lon="9.20412">
        <ele>2021.83</ele>
        <time>2018-09-03T13:56:02Z</time>
      </trkpt>
      <trkpt lat="41.84625" lon="9.20418">
        <ele>2021.71</ele>
        <time>2018-09-03T13:56:16Z</time>
      </trkpt>
      <trkpt lat="41.84623" lon="9.2042">
        <ele>2018.85</ele>
        <time>2018-09-03T13:56:24Z</time>
      </trkpt>
      <trkpt lat="41.84623" lon="9.2042">
        <ele>2018.91</ele>
        <time>2018-09-03T13:57:01Z</time>
      </trkpt>
      <trkpt lat="41.84623" lon="9.20422">
        <ele>2018.05</ele>
        <time>2018-09-03T13:57:16Z</time>
      </trkpt>
      <trkpt lat="41.84626" lon="9.20427">
        <ele>2017.11</ele>
        <time>2018-09-03T13:57:28Z</time>
      </trkpt>
      <trkpt lat="41.84624" lon="9.2043">
        <ele>2015.04</ele>
        <time>2018-09-03T13:57:36Z</time>
      </trkpt>
      <trkpt lat="41.84625" lon="9.20434">
        <ele>2013.93</ele>
        <time>2018-09-03T13:57:47Z</time>
      </trkpt>
      <trkpt lat="41.84625" lon="9.20436">
        <ele>2013.16</ele>
        <time>2018-09-03T13:58:02Z</time>
      </trkpt>
      <trkpt lat="41.84625" lon="9.2044">
        <ele>2010.33</ele>
        <time>2018-09-03T13:58:17Z</time>
      </trkpt>
      <trkpt lat="41.84621" lon="9.20441">
        <ele>2008.66</ele>
        <time>2018-09-03T13:58:30Z</time>
      </trkpt>
      <trkpt lat="41.84624" lon="9.20449">
        <ele>2006.01</ele>
        <time>2018-09-03T13:58:46Z</time>
      </trkpt>
      <trkpt lat="41.84624" lon="9.20455">
        <ele>2004.28</ele>
        <time>2018-09-03T13:59:00Z</time>
      </trkpt>
      <trkpt lat="41.8462" lon="9.20454">
        <ele>2002.66</ele>
        <time>2018-09-03T13:59:13Z</time>
      </trkpt>
      <trkpt lat="41.84617" lon="9.20453">
        <ele>2000.74</ele>
        <time>2018-09-03T13:59:25Z</time>
      </trkpt>
      <trkpt lat="41.84617" lon="9.20457">
        <ele>1999.35</ele>
        <time>2018-09-03T13:59:36Z</time>
      </trkpt>
      <trkpt lat="41.84617" lon="9.20463">
        <ele>1997.38</ele>
        <time>2018-09-03T13:59:52Z</time>
      </trkpt>
      <trkpt lat="41.84621" lon="9.2047">
        <ele>1997.44</ele>
        <time>2018-09-03T14:00:05Z</time>
      </trkpt>
      <trkpt lat="41.84622" lon="9.20479">
        <ele>1995.4</ele>
        <time>2018-09-03T14:00:20Z</time>
      </trkpt>
      <trkpt lat="41.84625" lon="9.20483">
        <ele>1993.9</ele>
        <time>2018-09-03T14:00:44Z</time>
      </trkpt>
      <trkpt lat="41.84626" lon="9.20489">
        <ele>1992.82</ele>
        <time>2018-09-03T14:00:57Z</time>
      </trkpt>
      <trkpt lat="41.84631" lon="9.20496">
        <ele>1990.1</ele>
        <time>2018-09-03T14:01:12Z</time>
      </trkpt>
      <trkpt lat="41.84635" lon="9.205">
        <ele>1989.31</ele>
        <time>2018-09-03T14:01:26Z</time>
      </trkpt>
      <trkpt lat="41.8464" lon="9.20504">
        <ele>1989.44</ele>
        <time>2018-09-03T14:01:40Z</time>
      </trkpt>
      <trkpt lat="41.84643" lon="9.20507">
        <ele>1992.93</ele>
        <time>2018-09-03T14:01:50Z</time>
      </trkpt>
      <trkpt lat="41.84643" lon="9.20507">
        <ele>1992.9</ele>
        <time>2018-09-03T14:01:51Z</time>
      </trkpt>
      <trkpt lat="41.84646" lon="9.20511">
        <ele>1994.61</ele>
        <time>2018-09-03T14:02:04Z</time>
      </trkpt>
      <trkpt lat="41.84651" lon="9.2051">
        <ele>1995.45</ele>
        <time>2018-09-03T14:02:18Z</time>
      </trkpt>
      <trkpt lat="41.84655" lon="9.20514">
        <ele>1996.17</ele>
        <time>2018-09-03T14:02:32Z</time>
      </trkpt>
      <trkpt lat="41.84664" lon="9.20523">
        <ele>1997.19</ele>
        <time>2018-09-03T14:02:51Z</time>
      </trkpt>
      <trkpt lat="41.84668" lon="9.20529">
        <ele>1997.97</ele>
        <time>2018-09-03T14:03:04Z</time>
      </trkpt>
      <trkpt lat="41.84669" lon="9.20533">
        <ele>1997.93</ele>
        <time>2018-09-03T14:03:15Z</time>
      </trkpt>
      <trkpt lat="41.84671" lon="9.20543">
        <ele>1997.89</ele>
        <time>2018-09-03T14:03:30Z</time>
      </trkpt>
      <trkpt lat="41.84673" lon="9.20549">
        <ele>1997.95</ele>
        <time>2018-09-03T14:03:42Z</time>
      </trkpt>
      <trkpt lat="41.84675" lon="9.20555">
        <ele>1997.78</ele>
        <time>2018-09-03T14:03:53Z</time>
      </trkpt>
      <trkpt lat="41.84677" lon="9.20559">
        <ele>1995.29</ele>
        <time>2018-09-03T14:04:02Z</time>
      </trkpt>
      <trkpt lat="41.8468" lon="9.20568">
        <ele>1995.4</ele>
        <time>2018-09-03T14:04:15Z</time>
      </trkpt>
      <trkpt lat="41.84683" lon="9.20575">
        <ele>1995.4</ele>
        <time>2018-09-03T14:04:28Z</time>
      </trkpt>
      <trkpt lat="41.84686" lon="9.20586">
        <ele>1995.34</ele>
        <time>2018-09-03T14:04:42Z</time>
      </trkpt>
      <trkpt lat="41.84685" lon="9.20592">
        <ele>1993.29</ele>
        <time>2018-09-03T14:04:57Z</time>
      </trkpt>
      <trkpt lat="41.84687" lon="9.206">
        <ele>1991.65</ele>
        <time>2018-09-03T14:05:11Z</time>
      </trkpt>
      <trkpt lat="41.8469" lon="9.20606">
        <ele>1990.01</ele>
        <time>2018-09-03T14:05:25Z</time>
      </trkpt>
      <trkpt lat="41.84687" lon="9.20607">
        <ele>1988.44</ele>
        <time>2018-09-03T14:05:38Z</time>
      </trkpt>
      <trkpt lat="41.84687" lon="9.20608">
        <ele>1987.64</ele>
        <time>2018-09-03T14:05:55Z</time>
      </trkpt>
      <trkpt lat="41.84687" lon="9.20611">
        <ele>1987.58</ele>
        <time>2018-09-03T14:06:22Z</time>
      </trkpt>
      <trkpt lat="41.84691" lon="9.20616">
        <ele>1985.89</ele>
        <time>2018-09-03T14:06:37Z</time>
      </trkpt>
      <trkpt lat="41.84699" lon="9.20621">
        <ele>1985.11</ele>
        <time>2018-09-03T14:06:52Z</time>
      </trkpt>
      <trkpt lat="41.84704" lon="9.20627">
        <ele>1981.92</ele>
        <time>2018-09-03T14:07:08Z</time>
      </trkpt>
      <trkpt lat="41.84706" lon="9.20631">
        <ele>1980.82</ele>
        <time>2018-09-03T14:07:21Z</time>
      </trkpt>
      <trkpt lat="41.84706" lon="9.20634">
        <ele>1978.67</ele>
        <time>2018-09-03T14:07:39Z</time>
      </trkpt>
      <trkpt lat="41.84706" lon="9.20637">
        <ele>1977.96</ele>
        <time>2018-09-03T14:07:51Z</time>
      </trkpt>
      <trkpt lat="41.84706" lon="9.20639">
        <ele>1976.04</ele>
        <time>2018-09-03T14:08:04Z</time>
      </trkpt>
      <trkpt lat="41.8471" lon="9.20645">
        <ele>1974.21</ele>
        <time>2018-09-03T14:08:19Z</time>
      </trkpt>
      <trkpt lat="41.84709" lon="9.20647">
        <ele>1972.62</ele>
        <time>2018-09-03T14:08:34Z</time>
      </trkpt>
      <trkpt lat="41.84708" lon="9.20648">
        <ele>1971.59</ele>
        <time>2018-09-03T14:08:46Z</time>
      </trkpt>
      <trkpt lat="41.84709" lon="9.2065">
        <ele>1970.68</ele>
        <time>2018-09-03T14:08:58Z</time>
      </trkpt>
      <trkpt lat="41.84709" lon="9.20652">
        <ele>1969.75</ele>
        <time>2018-09-03T14:09:13Z</time>
      </trkpt>
      <trkpt lat="41.8471" lon="9.20656">
        <ele>1968.04</ele>
        <time>2018-09-03T14:09:25Z</time>
      </trkpt>
      <trkpt lat="41.84716" lon="9.20669">
        <ele>1966.96</ele>
        <time>2018-09-03T14:09:41Z</time>
      </trkpt>
      <trkpt lat="41.84719" lon="9.20674">
        <ele>1965.88</ele>
        <time>2018-09-03T14:09:47Z</time>
      </trkpt>
      <trkpt lat="41.84724" lon="9.20682">
        <ele>1964.8</ele>
        <time>2018-09-03T14:10:01Z</time>
      </trkpt>
      <trkpt lat="41.84723" lon="9.20687">
        <ele>1962.92</ele>
        <time>2018-09-03T14:10:15Z</time>
      </trkpt>
      <trkpt lat="41.84725" lon="9.20695">
        <ele>1960.12</ele>
        <time>2018-09-03T14:10:28Z</time>
      </trkpt>
      <trkpt lat="41.84728" lon="9.207">
        <ele>1958.78</ele>
        <time>2018-09-03T14:10:36Z</time>
      </trkpt>
      <trkpt lat="41.8473" lon="9.20709">
        <ele>1957.77</ele>
        <time>2018-09-03T14:10:51Z</time>
      </trkpt>
      <trkpt lat="41.84729" lon="9.20718">
        <ele>1955.99</ele>
        <time>2018-09-03T14:11:05Z</time>
      </trkpt>
      <trkpt lat="41.8473" lon="9.20725">
        <ele>1954.01</ele>
        <time>2018-09-03T14:11:19Z</time>
      </trkpt>
      <trkpt lat="41.84736" lon="9.20733">
        <ele>1953.06</ele>
        <time>2018-09-03T14:11:32Z</time>
      </trkpt>
      <trkpt lat="41.84739" lon="9.20742">
        <ele>1952.25</ele>
        <time>2018-09-03T14:11:47Z</time>
      </trkpt>
      <trkpt lat="41.84739" lon="9.20749">
        <ele>1950.48</ele>
        <time>2018-09-03T14:12:02Z</time>
      </trkpt>
      <trkpt lat="41.84737" lon="9.20747">
        <ele>1948.4</ele>
        <time>2018-09-03T14:12:10Z</time>
      </trkpt>
      <trkpt lat="41.84734" lon="9.20751">
        <ele>1947.2</ele>
        <time>2018-09-03T14:12:23Z</time>
      </trkpt>
      <trkpt lat="41.84734" lon="9.20755">
        <ele>1945.93</ele>
        <time>2018-09-03T14:12:28Z</time>
      </trkpt>
      <trkpt lat="41.84732" lon="9.20756">
        <ele>1944.93</ele>
        <time>2018-09-03T14:12:42Z</time>
      </trkpt>
      <trkpt lat="41.84725" lon="9.20749">
        <ele>1943.31</ele>
        <time>2018-09-03T14:12:56Z</time>
      </trkpt>
      <trkpt lat="41.84718" lon="9.20743">
        <ele>1942.18</ele>
        <time>2018-09-03T14:13:10Z</time>
      </trkpt>
      <trkpt lat="41.84716" lon="9.20742">
        <ele>1940.28</ele>
        <time>2018-09-03T14:13:23Z</time>
      </trkpt>
      <trkpt lat="41.84714" lon="9.20742">
        <ele>1939.21</ele>
        <time>2018-09-03T14:13:42Z</time>
      </trkpt>
      <trkpt lat="41.84711" lon="9.20743">
        <ele>1939.13</ele>
        <time>2018-09-03T14:14:03Z</time>
      </trkpt>
      <trkpt lat="41.84707" lon="9.20743">
        <ele>1935.21</ele>
        <time>2018-09-03T14:14:19Z</time>
      </trkpt>
      <trkpt lat="41.84706" lon="9.20743">
        <ele>1935.2</ele>
        <time>2018-09-03T14:14:20Z</time>
      </trkpt>
      <trkpt lat="41.84704" lon="9.20745">
        <ele>1933.39</ele>
        <time>2018-09-03T14:14:36Z</time>
      </trkpt>
      <trkpt lat="41.84703" lon="9.20745">
        <ele>1932.37</ele>
        <time>2018-09-03T14:14:51Z</time>
      </trkpt>
      <trkpt lat="41.84702" lon="9.20746">
        <ele>1931.41</ele>
        <time>2018-09-03T14:15:10Z</time>
      </trkpt>
      <trkpt lat="41.847" lon="9.2075">
        <ele>1928.79</ele>
        <time>2018-09-03T14:15:25Z</time>
      </trkpt>
      <trkpt lat="41.847" lon="9.20752">
        <ele>1927.24</ele>
        <time>2018-09-03T14:15:28Z</time>
      </trkpt>
      <trkpt lat="41.847" lon="9.20756">
        <ele>1927.2</ele>
        <time>2018-09-03T14:15:41Z</time>
      </trkpt>
      <trkpt lat="41.847" lon="9.20757">
        <ele>1925.21</ele>
        <time>2018-09-03T14:15:55Z</time>
      </trkpt>
      <trkpt lat="41.84699" lon="9.20758">
        <ele>1925.15</ele>
        <time>2018-09-03T14:16:17Z</time>
      </trkpt>
      <trkpt lat="41.84696" lon="9.20757">
        <ele>1922.45</ele>
        <time>2018-09-03T14:16:34Z</time>
      </trkpt>
      <trkpt lat="41.84691" lon="9.2075">
        <ele>1921.55</ele>
        <time>2018-09-03T14:16:48Z</time>
      </trkpt>
      <trkpt lat="41.8469" lon="9.2075">
        <ele>1919.71</ele>
        <time>2018-09-03T14:16:52Z</time>
      </trkpt>
      <trkpt lat="41.84689" lon="9.20749">
        <ele>1919.72</ele>
        <time>2018-09-03T14:17:12Z</time>
      </trkpt>
      <trkpt lat="41.84687" lon="9.20746">
        <ele>1918.68</ele>
        <time>2018-09-03T14:17:27Z</time>
      </trkpt>
      <trkpt lat="41.84686" lon="9.20745">
        <ele>1918.62</ele>
        <time>2018-09-03T14:17:44Z</time>
      </trkpt>
      <trkpt lat="41.84685" lon="9.20753">
        <ele>1916.74</ele>
        <time>2018-09-03T14:17:58Z</time>
      </trkpt>
      <trkpt lat="41.84682" lon="9.20757">
        <ele>1914.97</ele>
        <time>2018-09-03T14:18:10Z</time>
      </trkpt>
      <trkpt lat="41.84681" lon="9.2076">
        <ele>1914.21</ele>
        <time>2018-09-03T14:18:24Z</time>
      </trkpt>
      <trkpt lat="41.84679" lon="9.20761">
        <ele>1913.38</ele>
        <time>2018-09-03T14:18:37Z</time>
      </trkpt>
      <trkpt lat="41.84675" lon="9.2076">
        <ele>1911.47</ele>
        <time>2018-09-03T14:18:51Z</time>
      </trkpt>
      <trkpt lat="41.84675" lon="9.20765">
        <ele>1910.44</ele>
        <time>2018-09-03T14:19:05Z</time>
      </trkpt>
      <trkpt lat="41.84676" lon="9.20771">
        <ele>1908.7</ele>
        <time>2018-09-03T14:19:18Z</time>
      </trkpt>
      <trkpt lat="41.84676" lon="9.20772">
        <ele>1907.9</ele>
        <time>2018-09-03T14:19:33Z</time>
      </trkpt>
      <trkpt lat="41.84675" lon="9.20775">
        <ele>1907.06</ele>
        <time>2018-09-03T14:19:47Z</time>
      </trkpt>
      <trkpt lat="41.84672" lon="9.20781">
        <ele>1904.43</ele>
        <time>2018-09-03T14:20:02Z</time>
      </trkpt>
      <trkpt lat="41.84671" lon="9.20786">
        <ele>1901.99</ele>
        <time>2018-09-03T14:20:12Z</time>
      </trkpt>
      <trkpt lat="41.84669" lon="9.20786">
        <ele>1901.11</ele>
        <time>2018-09-03T14:20:30Z</time>
      </trkpt>
      <trkpt lat="41.84666" lon="9.20785">
        <ele>1899.15</ele>
        <time>2018-09-03T14:20:43Z</time>
      </trkpt>
      <trkpt lat="41.84662" lon="9.20785">
        <ele>1898.07</ele>
        <time>2018-09-03T14:20:58Z</time>
      </trkpt>
      <trkpt lat="41.84662" lon="9.20785">
        <ele>1897.98</ele>
        <time>2018-09-03T14:21:33Z</time>
      </trkpt>
      <trkpt lat="41.84662" lon="9.20778">
        <ele>1897.95</ele>
        <time>2018-09-03T14:21:47Z</time>
      </trkpt>
      <trkpt lat="41.84657" lon="9.20774">
        <ele>1897.88</ele>
        <time>2018-09-03T14:22:01Z</time>
      </trkpt>
      <trkpt lat="41.84655" lon="9.20775">
        <ele>1896.14</ele>
        <time>2018-09-03T14:22:15Z</time>
      </trkpt>
      <trkpt lat="41.84651" lon="9.20773">
        <ele>1894.41</ele>
        <time>2018-09-03T14:22:28Z</time>
      </trkpt>
      <trkpt lat="41.84651" lon="9.20778">
        <ele>1893.58</ele>
        <time>2018-09-03T14:22:40Z</time>
      </trkpt>
      <trkpt lat="41.8465" lon="9.20779">
        <ele>1891.86</ele>
        <time>2018-09-03T14:22:57Z</time>
      </trkpt>
      <trkpt lat="41.8465" lon="9.20787">
        <ele>1889.78</ele>
        <time>2018-09-03T14:23:16Z</time>
      </trkpt>
      <trkpt lat="41.8465" lon="9.20789">
        <ele>1888.12</ele>
        <time>2018-09-03T14:23:27Z</time>
      </trkpt>
      <trkpt lat="41.84651" lon="9.20793">
        <ele>1886.9</ele>
        <time>2018-09-03T14:23:44Z</time>
      </trkpt>
      <trkpt lat="41.84651" lon="9.20796">
        <ele>1885.08</ele>
        <time>2018-09-03T14:23:58Z</time>
      </trkpt>
      <trkpt lat="41.84651" lon="9.20797">
        <ele>1885.03</ele>
        <time>2018-09-03T14:24:19Z</time>
      </trkpt>
      <trkpt lat="41.84651" lon="9.20802">
        <ele>1883.91</ele>
        <time>2018-09-03T14:24:33Z</time>
      </trkpt>
      <trkpt lat="41.84648" lon="9.20807">
        <ele>1881.21</ele>
        <time>2018-09-03T14:24:48Z</time>
      </trkpt>
      <trkpt lat="41.84647" lon="9.2081">
        <ele>1880.21</ele>
        <time>2018-09-03T14:25:02Z</time>
      </trkpt>
      <trkpt lat="41.84644" lon="9.20811">
        <ele>1879.22</ele>
        <time>2018-09-03T14:25:13Z</time>
      </trkpt>
      <trkpt lat="41.84641" lon="9.20805">
        <ele>1877.44</ele>
        <time>2018-09-03T14:25:28Z</time>
      </trkpt>
      <trkpt lat="41.84641" lon="9.20806">
        <ele>1877.37</ele>
        <time>2018-09-03T14:25:57Z</time>
      </trkpt>
      <trkpt lat="41.84642" lon="9.20805">
        <ele>1877.3</ele>
        <time>2018-09-03T14:26:25Z</time>
      </trkpt>
      <trkpt lat="41.84639" lon="9.20804">
        <ele>1876.48</ele>
        <time>2018-09-03T14:26:42Z</time>
      </trkpt>
      <trkpt lat="41.84638" lon="9.20805">
        <ele>1875.13</ele>
        <time>2018-09-03T14:26:45Z</time>
      </trkpt>
      <trkpt lat="41.84636" lon="9.20803">
        <ele>1874.26</ele>
        <time>2018-09-03T14:27:01Z</time>
      </trkpt>
      <trkpt lat="41.84633" lon="9.20805">
        <ele>1872.47</ele>
        <time>2018-09-03T14:27:14Z</time>
      </trkpt>
      <trkpt lat="41.84631" lon="9.20802">
        <ele>1870.87</ele>
        <time>2018-09-03T14:27:26Z</time>
      </trkpt>
      <trkpt lat="41.84628" lon="9.20804">
        <ele>1868.67</ele>
        <time>2018-09-03T14:27:40Z</time>
      </trkpt>
      <trkpt lat="41.84623" lon="9.20799">
        <ele>1866.82</ele>
        <time>2018-09-03T14:27:56Z</time>
      </trkpt>
      <trkpt lat="41.8462" lon="9.20799">
        <ele>1865.05</ele>
        <time>2018-09-03T14:28:10Z</time>
      </trkpt>
      <trkpt lat="41.84614" lon="9.20798">
        <ele>1865.03</ele>
        <time>2018-09-03T14:28:22Z</time>
      </trkpt>
      <trkpt lat="41.84611" lon="9.20798">
        <ele>1863.34</ele>
        <time>2018-09-03T14:28:35Z</time>
      </trkpt>
      <trkpt lat="41.84607" lon="9.20798">
        <ele>1861.58</ele>
        <time>2018-09-03T14:28:49Z</time>
      </trkpt>
      <trkpt lat="41.84602" lon="9.20797">
        <ele>1859.81</ele>
        <time>2018-09-03T14:29:01Z</time>
      </trkpt>
      <trkpt lat="41.84597" lon="9.20796">
        <ele>1858.98</ele>
        <time>2018-09-03T14:29:15Z</time>
      </trkpt>
      <trkpt lat="41.84599" lon="9.20802">
        <ele>1857.37</ele>
        <time>2018-09-03T14:29:28Z</time>
      </trkpt>
      <trkpt lat="41.84593" lon="9.20803">
        <ele>1855.43</ele>
        <time>2018-09-03T14:29:41Z</time>
      </trkpt>
      <trkpt lat="41.84587" lon="9.20803">
        <ele>1854.17</ele>
        <time>2018-09-03T14:29:55Z</time>
      </trkpt>
      <trkpt lat="41.84587" lon="9.20805">
        <ele>1852.4</ele>
        <time>2018-09-03T14:30:12Z</time>
      </trkpt>
      <trkpt lat="41.84587" lon="9.20808">
        <ele>1852.35</ele>
        <time>2018-09-03T14:30:24Z</time>
      </trkpt>
      <trkpt lat="41.84585" lon="9.20809">
        <ele>1850.33</ele>
        <time>2018-09-03T14:30:37Z</time>
      </trkpt>
      <trkpt lat="41.84583" lon="9.20814">
        <ele>1848.36</ele>
        <time>2018-09-03T14:30:54Z</time>
      </trkpt>
      <trkpt lat="41.84582" lon="9.20818">
        <ele>1845.67</ele>
        <time>2018-09-03T14:31:09Z</time>
      </trkpt>
      <trkpt lat="41.8458" lon="9.20819">
        <ele>1844.71</ele>
        <time>2018-09-03T14:31:22Z</time>
      </trkpt>
      <trkpt lat="41.84577" lon="9.2082">
        <ele>1842.71</ele>
        <time>2018-09-03T14:31:36Z</time>
      </trkpt>
      <trkpt lat="41.84575" lon="9.20823">
        <ele>1840.27</ele>
        <time>2018-09-03T14:31:48Z</time>
      </trkpt>
      <trkpt lat="41.84572" lon="9.20827">
        <ele>1837.75</ele>
        <time>2018-09-03T14:32:02Z</time>
      </trkpt>
      <trkpt lat="41.84571" lon="9.2083">
        <ele>1836.97</ele>
        <time>2018-09-03T14:32:18Z</time>
      </trkpt>
      <trkpt lat="41.84567" lon="9.2083">
        <ele>1834.37</ele>
        <time>2018-09-03T14:32:34Z</time>
      </trkpt>
      <trkpt lat="41.84566" lon="9.20829">
        <ele>1833.5</ele>
        <time>2018-09-03T14:32:48Z</time>
      </trkpt>
      <trkpt lat="41.84564" lon="9.20828">
        <ele>1833.5</ele>
        <time>2018-09-03T14:33:03Z</time>
      </trkpt>
      <trkpt lat="41.84562" lon="9.20825">
        <ele>1831.29</ele>
        <time>2018-09-03T14:33:10Z</time>
      </trkpt>
      <trkpt lat="41.8456" lon="9.20826">
        <ele>1830</ele>
        <time>2018-09-03T14:33:18Z</time>
      </trkpt>
      <trkpt lat="41.84555" lon="9.20826">
        <ele>1828.11</ele>
        <time>2018-09-03T14:33:33Z</time>
      </trkpt>
      <trkpt lat="41.84554" lon="9.20826">
        <ele>1828.15</ele>
        <time>2018-09-03T14:33:35Z</time>
      </trkpt>
      <trkpt lat="41.84548" lon="9.20821">
        <ele>1827.33</ele>
        <time>2018-09-03T14:33:49Z</time>
      </trkpt>
      <trkpt lat="41.84544" lon="9.20819">
        <ele>1825.33</ele>
        <time>2018-09-03T14:34:03Z</time>
      </trkpt>
      <trkpt lat="41.84543" lon="9.20822">
        <ele>1822.83</ele>
        <time>2018-09-03T14:34:15Z</time>
      </trkpt>
      <trkpt lat="41.84542" lon="9.20824">
        <ele>1821.82</ele>
        <time>2018-09-03T14:34:38Z</time>
      </trkpt>
      <trkpt lat="41.84539" lon="9.20824">
        <ele>1819.79</ele>
        <time>2018-09-03T14:34:50Z</time>
      </trkpt>
      <trkpt lat="41.84533" lon="9.20825">
        <ele>1817.63</ele>
        <time>2018-09-03T14:35:05Z</time>
      </trkpt>
      <trkpt lat="41.84529" lon="9.20823">
        <ele>1814.45</ele>
        <time>2018-09-03T14:35:18Z</time>
      </trkpt>
      <trkpt lat="41.84529" lon="9.20826">
        <ele>1813.66</ele>
        <time>2018-09-03T14:35:32Z</time>
      </trkpt>
      <trkpt lat="41.84527" lon="9.20827">
        <ele>1812.59</ele>
        <time>2018-09-03T14:35:44Z</time>
      </trkpt>
      <trkpt lat="41.84527" lon="9.20828">
        <ele>1811.33</ele>
        <time>2018-09-03T14:35:50Z</time>
      </trkpt>
      <trkpt lat="41.84524" lon="9.20831">
        <ele>1809.94</ele>
        <time>2018-09-03T14:35:59Z</time>
      </trkpt>
      <trkpt lat="41.84522" lon="9.20834">
        <ele>1808.01</ele>
        <time>2018-09-03T14:36:12Z</time>
      </trkpt>
      <trkpt lat="41.84519" lon="9.20837">
        <ele>1805.6</ele>
        <time>2018-09-03T14:36:26Z</time>
      </trkpt>
      <trkpt lat="41.84514" lon="9.20839">
        <ele>1803.81</ele>
        <time>2018-09-03T14:36:39Z</time>
      </trkpt>
      <trkpt lat="41.84512" lon="9.20843">
        <ele>1801.82</ele>
        <time>2018-09-03T14:36:51Z</time>
      </trkpt>
      <trkpt lat="41.84511" lon="9.20847">
        <ele>1800.18</ele>
        <time>2018-09-03T14:37:04Z</time>
      </trkpt>
      <trkpt lat="41.84507" lon="9.20847">
        <ele>1798.41</ele>
        <time>2018-09-03T14:37:17Z</time>
      </trkpt>
      <trkpt lat="41.84507" lon="9.20851">
        <ele>1796.45</ele>
        <time>2018-09-03T14:37:30Z</time>
      </trkpt>
      <trkpt lat="41.84504" lon="9.20853">
        <ele>1795.52</ele>
        <time>2018-09-03T14:37:42Z</time>
      </trkpt>
      <trkpt lat="41.84502" lon="9.20858">
        <ele>1793.64</ele>
        <time>2018-09-03T14:37:54Z</time>
      </trkpt>
      <trkpt lat="41.84504" lon="9.20864">
        <ele>1791.84</ele>
        <time>2018-09-03T14:38:06Z</time>
      </trkpt>
      <trkpt lat="41.84504" lon="9.2087">
        <ele>1790.48</ele>
        <time>2018-09-03T14:38:14Z</time>
      </trkpt>
      <trkpt lat="41.84502" lon="9.20872">
        <ele>1788.94</ele>
        <time>2018-09-03T14:38:33Z</time>
      </trkpt>
      <trkpt lat="41.84501" lon="9.20874">
        <ele>1788.88</ele>
        <time>2018-09-03T14:39:03Z</time>
      </trkpt>
      <trkpt lat="41.84497" lon="9.20877">
        <ele>1786.89</ele>
        <time>2018-09-03T14:39:18Z</time>
      </trkpt>
      <trkpt lat="41.84492" lon="9.20877">
        <ele>1783.87</ele>
        <time>2018-09-03T14:39:31Z</time>
      </trkpt>
      <trkpt lat="41.84492" lon="9.20877">
        <ele>1783.83</ele>
        <time>2018-09-03T14:39:32Z</time>
      </trkpt>
      <trkpt lat="41.8449" lon="9.20878">
        <ele>1782.08</ele>
        <time>2018-09-03T14:39:44Z</time>
      </trkpt>
      <trkpt lat="41.84489" lon="9.20878">
        <ele>1781.14</ele>
        <time>2018-09-03T14:40:01Z</time>
      </trkpt>
      <trkpt lat="41.84489" lon="9.20881">
        <ele>1780.05</ele>
        <time>2018-09-03T14:40:17Z</time>
      </trkpt>
      <trkpt lat="41.84489" lon="9.20884">
        <ele>1779.14</ele>
        <time>2018-09-03T14:40:36Z</time>
      </trkpt>
      <trkpt lat="41.84488" lon="9.20883">
        <ele>1778.18</ele>
        <time>2018-09-03T14:40:53Z</time>
      </trkpt>
      <trkpt lat="41.84487" lon="9.20887">
        <ele>1776.08</ele>
        <time>2018-09-03T14:41:08Z</time>
      </trkpt>
      <trkpt lat="41.84486" lon="9.20889">
        <ele>1773.74</ele>
        <time>2018-09-03T14:41:21Z</time>
      </trkpt>
      <trkpt lat="41.84485" lon="9.20891">
        <ele>1773.61</ele>
        <time>2018-09-03T14:41:34Z</time>
      </trkpt>
      <trkpt lat="41.84484" lon="9.2089">
        <ele>1773.67</ele>
        <time>2018-09-03T14:42:06Z</time>
      </trkpt>
      <trkpt lat="41.84483" lon="9.2089">
        <ele>1773.65</ele>
        <time>2018-09-03T14:42:18Z</time>
      </trkpt>
      <trkpt lat="41.84482" lon="9.20888">
        <ele>1773.62</ele>
        <time>2018-09-03T14:42:33Z</time>
      </trkpt>
      <trkpt lat="41.84482" lon="9.20892">
        <ele>1771.77</ele>
        <time>2018-09-03T14:42:52Z</time>
      </trkpt>
      <trkpt lat="41.84481" lon="9.20894">
        <ele>1771.8</ele>
        <time>2018-09-03T14:43:12Z</time>
      </trkpt>
      <trkpt lat="41.84479" lon="9.20897">
        <ele>1770.74</ele>
        <time>2018-09-03T14:43:29Z</time>
      </trkpt>
      <trkpt lat="41.84477" lon="9.20893">
        <ele>1769.91</ele>
        <time>2018-09-03T14:43:49Z</time>
      </trkpt>
      <trkpt lat="41.84476" lon="9.20894">
        <ele>1769.84</ele>
        <time>2018-09-03T14:44:16Z</time>
      </trkpt>
      <trkpt lat="41.84475" lon="9.20894">
        <ele>1769.78</ele>
        <time>2018-09-03T14:44:36Z</time>
      </trkpt>
      <trkpt lat="41.84472" lon="9.20888">
        <ele>1767.87</ele>
        <time>2018-09-03T14:44:55Z</time>
      </trkpt>
      <trkpt lat="41.84473" lon="9.20891">
        <ele>1766.32</ele>
        <time>2018-09-03T14:45:19Z</time>
      </trkpt>
      <trkpt lat="41.8447" lon="9.2089">
        <ele>1765.45</ele>
        <time>2018-09-03T14:45:36Z</time>
      </trkpt>
      <trkpt lat="41.84466" lon="9.20891">
        <ele>1763.52</ele>
        <time>2018-09-03T14:45:48Z</time>
      </trkpt>
      <trkpt lat="41.84465" lon="9.20898">
        <ele>1760.61</ele>
        <time>2018-09-03T14:46:02Z</time>
      </trkpt>
      <trkpt lat="41.84462" lon="9.209">
        <ele>1759.81</ele>
        <time>2018-09-03T14:46:15Z</time>
      </trkpt>
      <trkpt lat="41.84458" lon="9.20901">
        <ele>1757.2</ele>
        <time>2018-09-03T14:46:29Z</time>
      </trkpt>
      <trkpt lat="41.84456" lon="9.20901">
        <ele>1756.22</ele>
        <time>2018-09-03T14:46:48Z</time>
      </trkpt>
      <trkpt lat="41.84453" lon="9.209">
        <ele>1754.94</ele>
        <time>2018-09-03T14:47:06Z</time>
      </trkpt>
      <trkpt lat="41.84449" lon="9.20898">
        <ele>1752.8</ele>
        <time>2018-09-03T14:47:16Z</time>
      </trkpt>
      <trkpt lat="41.84444" lon="9.20898">
        <ele>1752.06</ele>
        <time>2018-09-03T14:47:28Z</time>
      </trkpt>
      <trkpt lat="41.84443" lon="9.20905">
        <ele>1750.07</ele>
        <time>2018-09-03T14:47:41Z</time>
      </trkpt>
      <trkpt lat="41.84441" lon="9.20908">
        <ele>1748.22</ele>
        <time>2018-09-03T14:47:55Z</time>
      </trkpt>
      <trkpt lat="41.8444" lon="9.20913">
        <ele>1746.12</ele>
        <time>2018-09-03T14:48:15Z</time>
      </trkpt>
      <trkpt lat="41.84438" lon="9.20922">
        <ele>1745.1</ele>
        <time>2018-09-03T14:48:28Z</time>
      </trkpt>
      <trkpt lat="41.84438" lon="9.20923">
        <ele>1743.71</ele>
        <time>2018-09-03T14:48:31Z</time>
      </trkpt>
      <trkpt lat="41.84437" lon="9.20928">
        <ele>1742.15</ele>
        <time>2018-09-03T14:48:46Z</time>
      </trkpt>
      <trkpt lat="41.84437" lon="9.20934">
        <ele>1742.14</ele>
        <time>2018-09-03T14:48:58Z</time>
      </trkpt>
      <trkpt lat="41.84436" lon="9.2094">
        <ele>1741.3</ele>
        <time>2018-09-03T14:49:10Z</time>
      </trkpt>
      <trkpt lat="41.84431" lon="9.20947">
        <ele>1741.21</ele>
        <time>2018-09-03T14:49:25Z</time>
      </trkpt>
      <trkpt lat="41.84428" lon="9.20949">
        <ele>1740.46</ele>
        <time>2018-09-03T14:49:31Z</time>
      </trkpt>
      <trkpt lat="41.84424" lon="9.2096">
        <ele>1738.07</ele>
        <time>2018-09-03T14:49:46Z</time>
      </trkpt>
      <trkpt lat="41.8442" lon="9.20969">
        <ele>1735.91</ele>
        <time>2018-09-03T14:50:00Z</time>
      </trkpt>
      <trkpt lat="41.8442" lon="9.2097">
        <ele>1735.96</ele>
        <time>2018-09-03T14:50:01Z</time>
      </trkpt>
      <trkpt lat="41.84416" lon="9.20983">
        <ele>1734.79</ele>
        <time>2018-09-03T14:50:16Z</time>
      </trkpt>
      <trkpt lat="41.8441" lon="9.20992">
        <ele>1731.55</ele>
        <time>2018-09-03T14:50:32Z</time>
      </trkpt>
      <trkpt lat="41.84407" lon="9.20995">
        <ele>1730.19</ele>
        <time>2018-09-03T14:50:39Z</time>
      </trkpt>
      <trkpt lat="41.84404" lon="9.21">
        <ele>1729.15</ele>
        <time>2018-09-03T14:50:52Z</time>
      </trkpt>
      <trkpt lat="41.844" lon="9.21001">
        <ele>1726.89</ele>
        <time>2018-09-03T14:51:04Z</time>
      </trkpt>
      <trkpt lat="41.84397" lon="9.21009">
        <ele>1724.53</ele>
        <time>2018-09-03T14:51:18Z</time>
      </trkpt>
      <trkpt lat="41.84392" lon="9.21017">
        <ele>1722.8</ele>
        <time>2018-09-03T14:51:31Z</time>
      </trkpt>
      <trkpt lat="41.8439" lon="9.21019">
        <ele>1721.26</ele>
        <time>2018-09-03T14:51:37Z</time>
      </trkpt>
      <trkpt lat="41.84385" lon="9.21027">
        <ele>1720.29</ele>
        <time>2018-09-03T14:51:50Z</time>
      </trkpt>
      <trkpt lat="41.84378" lon="9.21036">
        <ele>1717.83</ele>
        <time>2018-09-03T14:52:06Z</time>
      </trkpt>
      <trkpt lat="41.84375" lon="9.21046">
        <ele>1716.02</ele>
        <time>2018-09-03T14:52:18Z</time>
      </trkpt>
      <trkpt lat="41.84373" lon="9.21053">
        <ele>1716</ele>
        <time>2018-09-03T14:52:30Z</time>
      </trkpt>
      <trkpt lat="41.84368" lon="9.2106">
        <ele>1715.05</ele>
        <time>2018-09-03T14:52:44Z</time>
      </trkpt>
      <trkpt lat="41.84363" lon="9.21068">
        <ele>1713.22</ele>
        <time>2018-09-03T14:52:59Z</time>
      </trkpt>
      <trkpt lat="41.8436" lon="9.21071">
        <ele>1712.11</ele>
        <time>2018-09-03T14:53:18Z</time>
      </trkpt>
      <trkpt lat="41.84358" lon="9.21072">
        <ele>1712.03</ele>
        <time>2018-09-03T14:53:36Z</time>
      </trkpt>
      <trkpt lat="41.84355" lon="9.21078">
        <ele>1710.14</ele>
        <time>2018-09-03T14:53:49Z</time>
      </trkpt>
      <trkpt lat="41.8435" lon="9.21077">
        <ele>1709.33</ele>
        <time>2018-09-03T14:54:01Z</time>
      </trkpt>
      <trkpt lat="41.84347" lon="9.21079">
        <ele>1708.14</ele>
        <time>2018-09-03T14:54:17Z</time>
      </trkpt>
      <trkpt lat="41.84343" lon="9.21084">
        <ele>1708.09</ele>
        <time>2018-09-03T14:54:30Z</time>
      </trkpt>
      <trkpt lat="41.84344" lon="9.21088">
        <ele>1704.97</ele>
        <time>2018-09-03T14:54:40Z</time>
      </trkpt>
      <trkpt lat="41.84343" lon="9.21088">
        <ele>1704.95</ele>
        <time>2018-09-03T14:54:41Z</time>
      </trkpt>
      <trkpt lat="41.84342" lon="9.21096">
        <ele>1703.94</ele>
        <time>2018-09-03T14:54:55Z</time>
      </trkpt>
      <trkpt lat="41.84338" lon="9.21094">
        <ele>1701.47</ele>
        <time>2018-09-03T14:55:10Z</time>
      </trkpt>
      <trkpt lat="41.84333" lon="9.21091">
        <ele>1699.57</ele>
        <time>2018-09-03T14:55:24Z</time>
      </trkpt>
      <trkpt lat="41.84329" lon="9.21095">
        <ele>1695.92</ele>
        <time>2018-09-03T14:55:39Z</time>
      </trkpt>
      <trkpt lat="41.84326" lon="9.21096">
        <ele>1694.03</ele>
        <time>2018-09-03T14:55:53Z</time>
      </trkpt>
      <trkpt lat="41.84324" lon="9.21093">
        <ele>1693.21</ele>
        <time>2018-09-03T14:56:22Z</time>
      </trkpt>
      <trkpt lat="41.84321" lon="9.21089">
        <ele>1690.19</ele>
        <time>2018-09-03T14:56:36Z</time>
      </trkpt>
      <trkpt lat="41.84318" lon="9.21094">
        <ele>1689.32</ele>
        <time>2018-09-03T14:56:49Z</time>
      </trkpt>
      <trkpt lat="41.84317" lon="9.21097">
        <ele>1688.02</ele>
        <time>2018-09-03T14:56:57Z</time>
      </trkpt>
      <trkpt lat="41.84314" lon="9.21095">
        <ele>1686.08</ele>
        <time>2018-09-03T14:57:13Z</time>
      </trkpt>
      <trkpt lat="41.84311" lon="9.21087">
        <ele>1684.15</ele>
        <time>2018-09-03T14:57:30Z</time>
      </trkpt>
      <trkpt lat="41.84309" lon="9.21089">
        <ele>1681.99</ele>
        <time>2018-09-03T14:57:43Z</time>
      </trkpt>
      <trkpt lat="41.84308" lon="9.21091">
        <ele>1680.88</ele>
        <time>2018-09-03T14:57:55Z</time>
      </trkpt>
      <trkpt lat="41.84306" lon="9.21092">
        <ele>1680.03</ele>
        <time>2018-09-03T14:58:13Z</time>
      </trkpt>
      <trkpt lat="41.84304" lon="9.21095">
        <ele>1678.15</ele>
        <time>2018-09-03T14:58:27Z</time>
      </trkpt>
      <trkpt lat="41.84302" lon="9.21096">
        <ele>1676.35</ele>
        <time>2018-09-03T14:58:43Z</time>
      </trkpt>
      <trkpt lat="41.843" lon="9.21095">
        <ele>1675.27</ele>
        <time>2018-09-03T14:58:55Z</time>
      </trkpt>
      <trkpt lat="41.84298" lon="9.21098">
        <ele>1674.21</ele>
        <time>2018-09-03T14:59:14Z</time>
      </trkpt>
      <trkpt lat="41.84296" lon="9.211">
        <ele>1672.44</ele>
        <time>2018-09-03T14:59:28Z</time>
      </trkpt>
      <trkpt lat="41.84295" lon="9.21104">
        <ele>1669.95</ele>
        <time>2018-09-03T14:59:42Z</time>
      </trkpt>
      <trkpt lat="41.84295" lon="9.21104">
        <ele>1669.95</ele>
        <time>2018-09-03T14:59:43Z</time>
      </trkpt>
      <trkpt lat="41.84292" lon="9.21102">
        <ele>1669.03</ele>
        <time>2018-09-03T14:59:56Z</time>
      </trkpt>
      <trkpt lat="41.84289" lon="9.21103">
        <ele>1668.21</ele>
        <time>2018-09-03T15:00:10Z</time>
      </trkpt>
      <trkpt lat="41.84287" lon="9.21101">
        <ele>1665.76</ele>
        <time>2018-09-03T15:00:25Z</time>
      </trkpt>
      <trkpt lat="41.84282" lon="9.21099">
        <ele>1664.63</ele>
        <time>2018-09-03T15:00:37Z</time>
      </trkpt>
      <trkpt lat="41.84281" lon="9.211">
        <ele>1663.61</ele>
        <time>2018-09-03T15:00:56Z</time>
      </trkpt>
      <trkpt lat="41.84279" lon="9.21098">
        <ele>1661.81</ele>
        <time>2018-09-03T15:01:11Z</time>
      </trkpt>
      <trkpt lat="41.84275" lon="9.21096">
        <ele>1659.08</ele>
        <time>2018-09-03T15:01:26Z</time>
      </trkpt>
      <trkpt lat="41.84273" lon="9.21099">
        <ele>1658.97</ele>
        <time>2018-09-03T15:01:47Z</time>
      </trkpt>
      <trkpt lat="41.8427" lon="9.21099">
        <ele>1656.34</ele>
        <time>2018-09-03T15:02:03Z</time>
      </trkpt>
      <trkpt lat="41.84268" lon="9.21092">
        <ele>1654.56</ele>
        <time>2018-09-03T15:02:18Z</time>
      </trkpt>
      <trkpt lat="41.84266" lon="9.21095">
        <ele>1653.52</ele>
        <time>2018-09-03T15:02:31Z</time>
      </trkpt>
      <trkpt lat="41.84265" lon="9.21096">
        <ele>1652.12</ele>
        <time>2018-09-03T15:02:37Z</time>
      </trkpt>
      <trkpt lat="41.84263" lon="9.21094">
        <ele>1650.78</ele>
        <time>2018-09-03T15:02:48Z</time>
      </trkpt>
      <trkpt lat="41.84262" lon="9.21098">
        <ele>1649.95</ele>
        <time>2018-09-03T15:03:01Z</time>
      </trkpt>
      <trkpt lat="41.84261" lon="9.21105">
        <ele>1648.78</ele>
        <time>2018-09-03T15:03:14Z</time>
      </trkpt>
      <trkpt lat="41.84258" lon="9.21112">
        <ele>1646.86</ele>
        <time>2018-09-03T15:03:28Z</time>
      </trkpt>
      <trkpt lat="41.84257" lon="9.21121">
        <ele>1644.97</ele>
        <time>2018-09-03T15:03:42Z</time>
      </trkpt>
      <trkpt lat="41.84253" lon="9.21116">
        <ele>1643.15</ele>
        <time>2018-09-03T15:03:53Z</time>
      </trkpt>
      <trkpt lat="41.84252" lon="9.2111">
        <ele>1642.06</ele>
        <time>2018-09-03T15:04:05Z</time>
      </trkpt>
      <trkpt lat="41.84249" lon="9.21111">
        <ele>1641.16</ele>
        <time>2018-09-03T15:04:18Z</time>
      </trkpt>
      <trkpt lat="41.84248" lon="9.21116">
        <ele>1639.07</ele>
        <time>2018-09-03T15:04:29Z</time>
      </trkpt>
      <trkpt lat="41.84246" lon="9.2112">
        <ele>1637.99</ele>
        <time>2018-09-03T15:04:43Z</time>
      </trkpt>
      <trkpt lat="41.84244" lon="9.2112">
        <ele>1637.11</ele>
        <time>2018-09-03T15:04:56Z</time>
      </trkpt>
      <trkpt lat="41.84243" lon="9.21123">
        <ele>1634.98</ele>
        <time>2018-09-03T15:05:09Z</time>
      </trkpt>
      <trkpt lat="41.84243" lon="9.21126">
        <ele>1633.56</ele>
        <time>2018-09-03T15:05:28Z</time>
      </trkpt>
      <trkpt lat="41.84243" lon="9.21126">
        <ele>1633.38</ele>
        <time>2018-09-03T15:05:57Z</time>
      </trkpt>
      <trkpt lat="41.84243" lon="9.21126">
        <ele>1633.2</ele>
        <time>2018-09-03T15:06:26Z</time>
      </trkpt>
      <trkpt lat="41.84243" lon="9.21126">
        <ele>1631.94</ele>
        <time>2018-09-03T15:07:09Z</time>
      </trkpt>
      <trkpt lat="41.84243" lon="9.21126">
        <ele>1631.72</ele>
        <time>2018-09-03T15:07:49Z</time>
      </trkpt>
      <trkpt lat="41.84243" lon="9.21127">
        <ele>1631.57</ele>
        <time>2018-09-03T15:08:16Z</time>
      </trkpt>
      <trkpt lat="41.84243" lon="9.21126">
        <ele>1631.38</ele>
        <time>2018-09-03T15:08:54Z</time>
      </trkpt>
      <trkpt lat="41.84244" lon="9.21126">
        <ele>1630.09</ele>
        <time>2018-09-03T15:09:09Z</time>
      </trkpt>
      <trkpt lat="41.84244" lon="9.21127">
        <ele>1632.58</ele>
        <time>2018-09-03T15:09:12Z</time>
      </trkpt>
      <trkpt lat="41.84243" lon="9.21126">
        <ele>1632.48</ele>
        <time>2018-09-03T15:09:30Z</time>
      </trkpt>
      <trkpt lat="41.84242" lon="9.21124">
        <ele>1633.07</ele>
        <time>2018-09-03T15:09:55Z</time>
      </trkpt>
      <trkpt lat="41.84239" lon="9.21124">
        <ele>1630.37</ele>
        <time>2018-09-03T15:10:06Z</time>
      </trkpt>
      <trkpt lat="41.84236" lon="9.21123">
        <ele>1629.48</ele>
        <time>2018-09-03T15:10:22Z</time>
      </trkpt>
      <trkpt lat="41.84233" lon="9.21122">
        <ele>1627.23</ele>
        <time>2018-09-03T15:10:36Z</time>
      </trkpt>
      <trkpt lat="41.84229" lon="9.21127">
        <ele>1624.19</ele>
        <time>2018-09-03T15:10:48Z</time>
      </trkpt>
      <trkpt lat="41.84227" lon="9.21125">
        <ele>1622.33</ele>
        <time>2018-09-03T15:11:02Z</time>
      </trkpt>
      <trkpt lat="41.84226" lon="9.21124">
        <ele>1622.33</ele>
        <time>2018-09-03T15:11:03Z</time>
      </trkpt>
      <trkpt lat="41.84225" lon="9.21122">
        <ele>1622.21</ele>
        <time>2018-09-03T15:11:16Z</time>
      </trkpt>
      <trkpt lat="41.84223" lon="9.21122">
        <ele>1620.48</ele>
        <time>2018-09-03T15:11:27Z</time>
      </trkpt>
      <trkpt lat="41.8422" lon="9.21122">
        <ele>1618.48</ele>
        <time>2018-09-03T15:11:45Z</time>
      </trkpt>
      <trkpt lat="41.84215" lon="9.21118">
        <ele>1617.48</ele>
        <time>2018-09-03T15:11:58Z</time>
      </trkpt>
      <trkpt lat="41.84215" lon="9.2112">
        <ele>1616.23</ele>
        <time>2018-09-03T15:12:01Z</time>
      </trkpt>
      <trkpt lat="41.84213" lon="9.21127">
        <ele>1614.25</ele>
        <time>2018-09-03T15:12:15Z</time>
      </trkpt>
      <trkpt lat="41.84209" lon="9.21126">
        <ele>1613.21</ele>
        <time>2018-09-03T15:12:29Z</time>
      </trkpt>
      <trkpt lat="41.84207" lon="9.21127">
        <ele>1611.06</ele>
        <time>2018-09-03T15:12:35Z</time>
      </trkpt>
      <trkpt lat="41.84204" lon="9.21133">
        <ele>1609.18</ele>
        <time>2018-09-03T15:12:48Z</time>
      </trkpt>
      <trkpt lat="41.84201" lon="9.21131">
        <ele>1607.48</ele>
        <time>2018-09-03T15:13:00Z</time>
      </trkpt>
      <trkpt lat="41.84199" lon="9.21137">
        <ele>1605.39</ele>
        <time>2018-09-03T15:13:12Z</time>
      </trkpt>
      <trkpt lat="41.84195" lon="9.21135">
        <ele>1603.74</ele>
        <time>2018-09-03T15:13:24Z</time>
      </trkpt>
      <trkpt lat="41.84193" lon="9.21131">
        <ele>1601.6</ele>
        <time>2018-09-03T15:13:38Z</time>
      </trkpt>
      <trkpt lat="41.8419" lon="9.21132">
        <ele>1600.33</ele>
        <time>2018-09-03T15:13:43Z</time>
      </trkpt>
      <trkpt lat="41.84188" lon="9.21137">
        <ele>1598.56</ele>
        <time>2018-09-03T15:13:58Z</time>
      </trkpt>
      <trkpt lat="41.84185" lon="9.21137">
        <ele>1597.31</ele>
        <time>2018-09-03T15:14:05Z</time>
      </trkpt>
      <trkpt lat="41.84183" lon="9.2114">
        <ele>1596.23</ele>
        <time>2018-09-03T15:14:18Z</time>
      </trkpt>
      <trkpt lat="41.84179" lon="9.21145">
        <ele>1595.22</ele>
        <time>2018-09-03T15:14:30Z</time>
      </trkpt>
      <trkpt lat="41.84178" lon="9.21145">
        <ele>1593.49</ele>
        <time>2018-09-03T15:14:32Z</time>
      </trkpt>
      <trkpt lat="41.84176" lon="9.21161">
        <ele>1592.52</ele>
        <time>2018-09-03T15:14:49Z</time>
      </trkpt>
      <trkpt lat="41.84177" lon="9.21168">
        <ele>1590.79</ele>
        <time>2018-09-03T15:15:02Z</time>
      </trkpt>
      <trkpt lat="41.84174" lon="9.2117">
        <ele>1589.45</ele>
        <time>2018-09-03T15:15:14Z</time>
      </trkpt>
      <trkpt lat="41.84172" lon="9.21179">
        <ele>1587.51</ele>
        <time>2018-09-03T15:15:28Z</time>
      </trkpt>
      <trkpt lat="41.84171" lon="9.21181">
        <ele>1586.03</ele>
        <time>2018-09-03T15:15:33Z</time>
      </trkpt>
      <trkpt lat="41.84172" lon="9.2119">
        <ele>1585.18</ele>
        <time>2018-09-03T15:15:47Z</time>
      </trkpt>
      <trkpt lat="41.84171" lon="9.21195">
        <ele>1584.34</ele>
        <time>2018-09-03T15:15:57Z</time>
      </trkpt>
      <trkpt lat="41.84171" lon="9.21207">
        <ele>1581.63</ele>
        <time>2018-09-03T15:16:13Z</time>
      </trkpt>
      <trkpt lat="41.84172" lon="9.21212">
        <ele>1580.77</ele>
        <time>2018-09-03T15:16:20Z</time>
      </trkpt>
      <trkpt lat="41.84181" lon="9.21226">
        <ele>1579.61</ele>
        <time>2018-09-03T15:16:36Z</time>
      </trkpt>
      <trkpt lat="41.84185" lon="9.21235">
        <ele>1577.94</ele>
        <time>2018-09-03T15:16:50Z</time>
      </trkpt>
      <trkpt lat="41.84188" lon="9.21244">
        <ele>1575.8</ele>
        <time>2018-09-03T15:17:04Z</time>
      </trkpt>
      <trkpt lat="41.8419" lon="9.21249">
        <ele>1574.73</ele>
        <time>2018-09-03T15:17:17Z</time>
      </trkpt>
      <trkpt lat="41.84189" lon="9.21255">
        <ele>1572.11</ele>
        <time>2018-09-03T15:17:29Z</time>
      </trkpt>
      <trkpt lat="41.8419" lon="9.21261">
        <ele>1571.19</ele>
        <time>2018-09-03T15:17:41Z</time>
      </trkpt>
      <trkpt lat="41.84192" lon="9.2127">
        <ele>1570.28</ele>
        <time>2018-09-03T15:17:53Z</time>
      </trkpt>
      <trkpt lat="41.8419" lon="9.21275">
        <ele>1569.39</ele>
        <time>2018-09-03T15:18:03Z</time>
      </trkpt>
      <trkpt lat="41.8419" lon="9.21278">
        <ele>1569.4</ele>
        <time>2018-09-03T15:18:16Z</time>
      </trkpt>
      <trkpt lat="41.84188" lon="9.21288">
        <ele>1565.99</ele>
        <time>2018-09-03T15:18:32Z</time>
      </trkpt>
      <trkpt lat="41.84188" lon="9.21305">
        <ele>1564.97</ele>
        <time>2018-09-03T15:18:48Z</time>
      </trkpt>
      <trkpt lat="41.84189" lon="9.21316">
        <ele>1564.82</ele>
        <time>2018-09-03T15:19:03Z</time>
      </trkpt>
      <trkpt lat="41.84189" lon="9.21325">
        <ele>1563.67</ele>
        <time>2018-09-03T15:19:18Z</time>
      </trkpt>
      <trkpt lat="41.8419" lon="9.21333">
        <ele>1563.65</ele>
        <time>2018-09-03T15:19:32Z</time>
      </trkpt>
      <trkpt lat="41.8419" lon="9.21345">
        <ele>1562.7</ele>
        <time>2018-09-03T15:19:48Z</time>
      </trkpt>
      <trkpt lat="41.84189" lon="9.21356">
        <ele>1560.94</ele>
        <time>2018-09-03T15:20:00Z</time>
      </trkpt>
      <trkpt lat="41.84189" lon="9.21357">
        <ele>1560.94</ele>
        <time>2018-09-03T15:20:01Z</time>
      </trkpt>
      <trkpt lat="41.84187" lon="9.21364">
        <ele>1560.86</ele>
        <time>2018-09-03T15:20:14Z</time>
      </trkpt>
      <trkpt lat="41.84184" lon="9.21366">
        <ele>1559.97</ele>
        <time>2018-09-03T15:20:28Z</time>
      </trkpt>
      <trkpt lat="41.84181" lon="9.2137">
        <ele>1558.08</ele>
        <time>2018-09-03T15:20:43Z</time>
      </trkpt>
      <trkpt lat="41.84179" lon="9.21382">
        <ele>1556.4</ele>
        <time>2018-09-03T15:20:58Z</time>
      </trkpt>
      <trkpt lat="41.84177" lon="9.21389">
        <ele>1554.62</ele>
        <time>2018-09-03T15:21:12Z</time>
      </trkpt>
      <trkpt lat="41.84174" lon="9.21396">
        <ele>1551.99</ele>
        <time>2018-09-03T15:21:27Z</time>
      </trkpt>
      <trkpt lat="41.8417" lon="9.21404">
        <ele>1549.73</ele>
        <time>2018-09-03T15:21:40Z</time>
      </trkpt>
      <trkpt lat="41.84167" lon="9.21411">
        <ele>1548.44</ele>
        <time>2018-09-03T15:21:50Z</time>
      </trkpt>
      <trkpt lat="41.84163" lon="9.21421">
        <ele>1547.54</ele>
        <time>2018-09-03T15:22:04Z</time>
      </trkpt>
      <trkpt lat="41.8416" lon="9.21428">
        <ele>1546.29</ele>
        <time>2018-09-03T15:22:18Z</time>
      </trkpt>
      <trkpt lat="41.84156" lon="9.21432">
        <ele>1545.41</ele>
        <time>2018-09-03T15:22:30Z</time>
      </trkpt>
      <trkpt lat="41.84156" lon="9.21434">
        <ele>1545.31</ele>
        <time>2018-09-03T15:22:59Z</time>
      </trkpt>
      <trkpt lat="41.84154" lon="9.21442">
        <ele>1543.14</ele>
        <time>2018-09-03T15:23:25Z</time>
      </trkpt>
      <trkpt lat="41.84149" lon="9.21444">
        <ele>1542.16</ele>
        <time>2018-09-03T15:23:39Z</time>
      </trkpt>
      <trkpt lat="41.84148" lon="9.21452">
        <ele>1541.25</ele>
        <time>2018-09-03T15:23:55Z</time>
      </trkpt>
      <trkpt lat="41.84144" lon="9.21452">
        <ele>1541.21</ele>
        <time>2018-09-03T15:24:09Z</time>
      </trkpt>
      <trkpt lat="41.84144" lon="9.21449">
        <ele>1541.08</ele>
        <time>2018-09-03T15:24:30Z</time>
      </trkpt>
      <trkpt lat="41.84144" lon="9.21437">
        <ele>1540.06</ele>
        <time>2018-09-03T15:24:44Z</time>
      </trkpt>
      <trkpt lat="41.84144" lon="9.21434">
        <ele>1542.55</ele>
        <time>2018-09-03T15:24:51Z</time>
      </trkpt>
      <trkpt lat="41.84144" lon="9.21432">
        <ele>1542.44</ele>
        <time>2018-09-03T15:25:06Z</time>
      </trkpt>
      <trkpt lat="41.84145" lon="9.21429">
        <ele>1542.33</ele>
        <time>2018-09-03T15:25:19Z</time>
      </trkpt>
      <trkpt lat="41.84145" lon="9.21429">
        <ele>1542.21</ele>
        <time>2018-09-03T15:25:37Z</time>
      </trkpt>
      <trkpt lat="41.84145" lon="9.21429">
        <ele>1542.11</ele>
        <time>2018-09-03T15:25:54Z</time>
      </trkpt>
      <trkpt lat="41.84146" lon="9.21426">
        <ele>1542.01</ele>
        <time>2018-09-03T15:26:09Z</time>
      </trkpt>
      <trkpt lat="41.84145" lon="9.21427">
        <ele>1541.94</ele>
        <time>2018-09-03T15:26:21Z</time>
      </trkpt>
      <trkpt lat="41.84145" lon="9.21427">
        <ele>1539.51</ele>
        <time>2018-09-03T15:26:27Z</time>
      </trkpt>
      <trkpt lat="41.84146" lon="9.21427">
        <ele>1541.9</ele>
        <time>2018-09-03T15:26:37Z</time>
      </trkpt>
      <trkpt lat="41.84147" lon="9.21427">
        <ele>1539.59</ele>
        <time>2018-09-03T15:26:44Z</time>
      </trkpt>
    </trkseg>
  </trk>
</gpx>